<?xml version="1.0" encoding="UTF-8" standalone="no" ?>
<gpx xmlns="http://www.topografix.com/GPX/1/1" xmlns:xsi="http://www.w3.org/2001/XMLSchema-instance" xsi:schemaLocation="http://www.topografix.com/GPX/1/1 http://www.topografix.com/GPX/1/1/gpx.xsd" version="1.1" creator="VisuGPX - https://www.visugpx.com">
  <metadata>
    <name>depart de la faisenderie</name>
    <desc><![CDATA[depart de la faisenderie 
un parcours fait de singles]]></desc>
  </metadata>
  <trk>
    <name><![CDATA[FAISENDERIE]]></name>
    <trkseg>
      <trkpt lat="48.40492" lon="2.67795">
        <ele>14.56</ele>
        <time>2012-03-04T07:17:59Z</time>
      </trkpt>
      <trkpt lat="48.40493" lon="2.67796">
        <ele>14.56</ele>
        <time>2012-03-04T07:18:00Z</time>
      </trkpt>
      <trkpt lat="48.40492" lon="2.67795">
        <ele>19.84</ele>
        <time>2012-03-04T07:18:04Z</time>
      </trkpt>
      <trkpt lat="48.40488" lon="2.67794">
        <ele>24.65</ele>
        <time>2012-03-04T07:18:06Z</time>
      </trkpt>
      <trkpt lat="48.40486" lon="2.67793">
        <ele>28.5</ele>
        <time>2012-03-04T07:18:08Z</time>
      </trkpt>
      <trkpt lat="48.40485" lon="2.67793">
        <ele>31.86</ele>
        <time>2012-03-04T07:18:10Z</time>
      </trkpt>
      <trkpt lat="48.40485" lon="2.67793">
        <ele>35.71</ele>
        <time>2012-03-04T07:18:12Z</time>
      </trkpt>
      <trkpt lat="48.40485" lon="2.67792">
        <ele>40.03</ele>
        <time>2012-03-04T07:18:15Z</time>
      </trkpt>
      <trkpt lat="48.40485" lon="2.67793">
        <ele>44.36</ele>
        <time>2012-03-04T07:18:18Z</time>
      </trkpt>
      <trkpt lat="48.40485" lon="2.67794">
        <ele>48.2</ele>
        <time>2012-03-04T07:18:21Z</time>
      </trkpt>
      <trkpt lat="48.40485" lon="2.67794">
        <ele>51.57</ele>
        <time>2012-03-04T07:18:24Z</time>
      </trkpt>
      <trkpt lat="48.40485" lon="2.67795">
        <ele>54.45</ele>
        <time>2012-03-04T07:18:27Z</time>
      </trkpt>
      <trkpt lat="48.40485" lon="2.67795">
        <ele>57.82</ele>
        <time>2012-03-04T07:18:31Z</time>
      </trkpt>
      <trkpt lat="48.40486" lon="2.67796">
        <ele>61.66</ele>
        <time>2012-03-04T07:18:36Z</time>
      </trkpt>
      <trkpt lat="48.40486" lon="2.67796">
        <ele>66.95</ele>
        <time>2012-03-04T07:18:38Z</time>
      </trkpt>
      <trkpt lat="48.40486" lon="2.67796">
        <ele>63.58</ele>
        <time>2012-03-04T07:18:39Z</time>
      </trkpt>
      <trkpt lat="48.40486" lon="2.67796">
        <ele>66.95</ele>
        <time>2012-03-04T07:18:44Z</time>
      </trkpt>
      <trkpt lat="48.40486" lon="2.67796">
        <ele>70.79</ele>
        <time>2012-03-04T07:18:52Z</time>
      </trkpt>
      <trkpt lat="48.40486" lon="2.67796">
        <ele>74.16</ele>
        <time>2012-03-04T07:18:56Z</time>
      </trkpt>
      <trkpt lat="48.40485" lon="2.67796">
        <ele>68.39</ele>
        <time>2012-03-04T07:18:58Z</time>
      </trkpt>
      <trkpt lat="48.40485" lon="2.67796">
        <ele>72.72</ele>
        <time>2012-03-04T07:18:59Z</time>
      </trkpt>
      <trkpt lat="48.40486" lon="2.67797">
        <ele>63.58</ele>
        <time>2012-03-04T07:19:01Z</time>
      </trkpt>
      <trkpt lat="48.40486" lon="2.67797">
        <ele>72.24</ele>
        <time>2012-03-04T07:19:02Z</time>
      </trkpt>
      <trkpt lat="48.40486" lon="2.67797">
        <ele>74.64</ele>
        <time>2012-03-04T07:19:04Z</time>
      </trkpt>
      <trkpt lat="48.40485" lon="2.67797">
        <ele>74.16</ele>
        <time>2012-03-04T07:19:06Z</time>
      </trkpt>
      <trkpt lat="48.40486" lon="2.67787">
        <ele>75.6</ele>
        <time>2012-03-04T07:19:12Z</time>
      </trkpt>
      <trkpt lat="48.40517" lon="2.67759">
        <ele>78.97</ele>
        <time>2012-03-04T07:19:28Z</time>
      </trkpt>
      <trkpt lat="48.40555" lon="2.67766">
        <ele>80.41</ele>
        <time>2012-03-04T07:19:43Z</time>
      </trkpt>
      <trkpt lat="48.40596" lon="2.67803">
        <ele>82.33</ele>
        <time>2012-03-04T07:19:58Z</time>
      </trkpt>
      <trkpt lat="48.4064" lon="2.67817">
        <ele>83.29</ele>
        <time>2012-03-04T07:20:12Z</time>
      </trkpt>
      <trkpt lat="48.40698" lon="2.67835">
        <ele>83.77</ele>
        <time>2012-03-04T07:20:28Z</time>
      </trkpt>
      <trkpt lat="48.40735" lon="2.67843">
        <ele>84.73</ele>
        <time>2012-03-04T07:20:39Z</time>
      </trkpt>
      <trkpt lat="48.40734" lon="2.67825">
        <ele>85.21</ele>
        <time>2012-03-04T07:20:47Z</time>
      </trkpt>
      <trkpt lat="48.40693" lon="2.67793">
        <ele>84.25</ele>
        <time>2012-03-04T07:21:00Z</time>
      </trkpt>
      <trkpt lat="48.40644" lon="2.67756">
        <ele>82.81</ele>
        <time>2012-03-04T07:21:14Z</time>
      </trkpt>
      <trkpt lat="48.40583" lon="2.6771">
        <ele>82.33</ele>
        <time>2012-03-04T07:21:31Z</time>
      </trkpt>
      <trkpt lat="48.40519" lon="2.67673">
        <ele>81.37</ele>
        <time>2012-03-04T07:21:46Z</time>
      </trkpt>
      <trkpt lat="48.40504" lon="2.67666">
        <ele>81.85</ele>
        <time>2012-03-04T07:21:50Z</time>
      </trkpt>
      <trkpt lat="48.40502" lon="2.67662">
        <ele>81.37</ele>
        <time>2012-03-04T07:21:51Z</time>
      </trkpt>
      <trkpt lat="48.40501" lon="2.67657">
        <ele>81.37</ele>
        <time>2012-03-04T07:21:52Z</time>
      </trkpt>
      <trkpt lat="48.40499" lon="2.67652">
        <ele>80.89</ele>
        <time>2012-03-04T07:21:53Z</time>
      </trkpt>
      <trkpt lat="48.40497" lon="2.67648">
        <ele>81.37</ele>
        <time>2012-03-04T07:21:54Z</time>
      </trkpt>
      <trkpt lat="48.40493" lon="2.67645">
        <ele>80.89</ele>
        <time>2012-03-04T07:21:55Z</time>
      </trkpt>
      <trkpt lat="48.40489" lon="2.67642">
        <ele>80.89</ele>
        <time>2012-03-04T07:21:56Z</time>
      </trkpt>
      <trkpt lat="48.4047" lon="2.67632">
        <ele>80.41</ele>
        <time>2012-03-04T07:22:00Z</time>
      </trkpt>
      <trkpt lat="48.40465" lon="2.67628">
        <ele>79.93</ele>
        <time>2012-03-04T07:22:01Z</time>
      </trkpt>
      <trkpt lat="48.4046" lon="2.67623">
        <ele>80.41</ele>
        <time>2012-03-04T07:22:02Z</time>
      </trkpt>
      <trkpt lat="48.40454" lon="2.67617">
        <ele>80.41</ele>
        <time>2012-03-04T07:22:03Z</time>
      </trkpt>
      <trkpt lat="48.40449" lon="2.67611">
        <ele>79.45</ele>
        <time>2012-03-04T07:22:04Z</time>
      </trkpt>
      <trkpt lat="48.40444" lon="2.67604">
        <ele>79.93</ele>
        <time>2012-03-04T07:22:05Z</time>
      </trkpt>
      <trkpt lat="48.40439" lon="2.67596">
        <ele>79.45</ele>
        <time>2012-03-04T07:22:06Z</time>
      </trkpt>
      <trkpt lat="48.40435" lon="2.67589">
        <ele>79.93</ele>
        <time>2012-03-04T07:22:07Z</time>
      </trkpt>
      <trkpt lat="48.40414" lon="2.6756">
        <ele>78.97</ele>
        <time>2012-03-04T07:22:11Z</time>
      </trkpt>
      <trkpt lat="48.40404" lon="2.67547">
        <ele>78.97</ele>
        <time>2012-03-04T07:22:13Z</time>
      </trkpt>
      <trkpt lat="48.404" lon="2.67538">
        <ele>78.97</ele>
        <time>2012-03-04T07:22:14Z</time>
      </trkpt>
      <trkpt lat="48.40396" lon="2.67529">
        <ele>78.97</ele>
        <time>2012-03-04T07:22:15Z</time>
      </trkpt>
      <trkpt lat="48.40392" lon="2.6752">
        <ele>78.97</ele>
        <time>2012-03-04T07:22:16Z</time>
      </trkpt>
      <trkpt lat="48.40386" lon="2.67511">
        <ele>78.97</ele>
        <time>2012-03-04T07:22:17Z</time>
      </trkpt>
      <trkpt lat="48.4038" lon="2.67504">
        <ele>78.97</ele>
        <time>2012-03-04T07:22:18Z</time>
      </trkpt>
      <trkpt lat="48.40373" lon="2.67496">
        <ele>78.48</ele>
        <time>2012-03-04T07:22:19Z</time>
      </trkpt>
      <trkpt lat="48.40344" lon="2.67461">
        <ele>78.48</ele>
        <time>2012-03-04T07:22:24Z</time>
      </trkpt>
      <trkpt lat="48.40333" lon="2.67444">
        <ele>78</ele>
        <time>2012-03-04T07:22:26Z</time>
      </trkpt>
      <trkpt lat="48.40327" lon="2.67438">
        <ele>78</ele>
        <time>2012-03-04T07:22:27Z</time>
      </trkpt>
      <trkpt lat="48.4031" lon="2.67418">
        <ele>78</ele>
        <time>2012-03-04T07:22:30Z</time>
      </trkpt>
      <trkpt lat="48.40304" lon="2.67412">
        <ele>78</ele>
        <time>2012-03-04T07:22:31Z</time>
      </trkpt>
      <trkpt lat="48.40298" lon="2.67406">
        <ele>78</ele>
        <time>2012-03-04T07:22:32Z</time>
      </trkpt>
      <trkpt lat="48.40292" lon="2.67401">
        <ele>78</ele>
        <time>2012-03-04T07:22:33Z</time>
      </trkpt>
      <trkpt lat="48.40285" lon="2.67398">
        <ele>77.52</ele>
        <time>2012-03-04T07:22:34Z</time>
      </trkpt>
      <trkpt lat="48.40279" lon="2.67394">
        <ele>77.52</ele>
        <time>2012-03-04T07:22:35Z</time>
      </trkpt>
      <trkpt lat="48.40265" lon="2.67385">
        <ele>77.04</ele>
        <time>2012-03-04T07:22:37Z</time>
      </trkpt>
      <trkpt lat="48.40259" lon="2.6738">
        <ele>77.52</ele>
        <time>2012-03-04T07:22:38Z</time>
      </trkpt>
      <trkpt lat="48.40252" lon="2.67376">
        <ele>77.04</ele>
        <time>2012-03-04T07:22:39Z</time>
      </trkpt>
      <trkpt lat="48.40214" lon="2.67365">
        <ele>77.04</ele>
        <time>2012-03-04T07:22:44Z</time>
      </trkpt>
      <trkpt lat="48.40208" lon="2.67362">
        <ele>76.56</ele>
        <time>2012-03-04T07:22:45Z</time>
      </trkpt>
      <trkpt lat="48.40202" lon="2.67358">
        <ele>77.04</ele>
        <time>2012-03-04T07:22:46Z</time>
      </trkpt>
      <trkpt lat="48.40196" lon="2.67354">
        <ele>77.04</ele>
        <time>2012-03-04T07:22:47Z</time>
      </trkpt>
      <trkpt lat="48.4019" lon="2.6735">
        <ele>76.56</ele>
        <time>2012-03-04T07:22:48Z</time>
      </trkpt>
      <trkpt lat="48.40183" lon="2.67348">
        <ele>76.56</ele>
        <time>2012-03-04T07:22:49Z</time>
      </trkpt>
      <trkpt lat="48.40177" lon="2.67346">
        <ele>76.56</ele>
        <time>2012-03-04T07:22:50Z</time>
      </trkpt>
      <trkpt lat="48.40157" lon="2.6734">
        <ele>76.08</ele>
        <time>2012-03-04T07:22:53Z</time>
      </trkpt>
      <trkpt lat="48.4014" lon="2.67329">
        <ele>77.04</ele>
        <time>2012-03-04T07:22:56Z</time>
      </trkpt>
      <trkpt lat="48.40135" lon="2.67326">
        <ele>77.04</ele>
        <time>2012-03-04T07:22:57Z</time>
      </trkpt>
      <trkpt lat="48.40129" lon="2.67323">
        <ele>76.56</ele>
        <time>2012-03-04T07:22:58Z</time>
      </trkpt>
      <trkpt lat="48.40124" lon="2.6732">
        <ele>77.04</ele>
        <time>2012-03-04T07:22:59Z</time>
      </trkpt>
      <trkpt lat="48.40118" lon="2.67317">
        <ele>76.56</ele>
        <time>2012-03-04T07:23:00Z</time>
      </trkpt>
      <trkpt lat="48.40113" lon="2.67312">
        <ele>76.56</ele>
        <time>2012-03-04T07:23:01Z</time>
      </trkpt>
      <trkpt lat="48.40108" lon="2.67306">
        <ele>77.04</ele>
        <time>2012-03-04T07:23:02Z</time>
      </trkpt>
      <trkpt lat="48.40103" lon="2.67301">
        <ele>76.56</ele>
        <time>2012-03-04T07:23:03Z</time>
      </trkpt>
      <trkpt lat="48.40092" lon="2.67293">
        <ele>77.04</ele>
        <time>2012-03-04T07:23:05Z</time>
      </trkpt>
      <trkpt lat="48.40087" lon="2.67287">
        <ele>77.04</ele>
        <time>2012-03-04T07:23:06Z</time>
      </trkpt>
      <trkpt lat="48.40083" lon="2.67281">
        <ele>76.56</ele>
        <time>2012-03-04T07:23:07Z</time>
      </trkpt>
      <trkpt lat="48.40077" lon="2.67276">
        <ele>77.52</ele>
        <time>2012-03-04T07:23:08Z</time>
      </trkpt>
      <trkpt lat="48.40072" lon="2.67271">
        <ele>77.04</ele>
        <time>2012-03-04T07:23:09Z</time>
      </trkpt>
      <trkpt lat="48.40066" lon="2.67267">
        <ele>77.04</ele>
        <time>2012-03-04T07:23:10Z</time>
      </trkpt>
      <trkpt lat="48.40061" lon="2.67262">
        <ele>77.04</ele>
        <time>2012-03-04T07:23:11Z</time>
      </trkpt>
      <trkpt lat="48.40053" lon="2.67251">
        <ele>77.52</ele>
        <time>2012-03-04T07:23:13Z</time>
      </trkpt>
      <trkpt lat="48.4005" lon="2.67245">
        <ele>77.04</ele>
        <time>2012-03-04T07:23:14Z</time>
      </trkpt>
      <trkpt lat="48.40047" lon="2.67239">
        <ele>77.52</ele>
        <time>2012-03-04T07:23:15Z</time>
      </trkpt>
      <trkpt lat="48.40044" lon="2.67234">
        <ele>77.52</ele>
        <time>2012-03-04T07:23:16Z</time>
      </trkpt>
      <trkpt lat="48.40041" lon="2.67228">
        <ele>77.52</ele>
        <time>2012-03-04T07:23:17Z</time>
      </trkpt>
      <trkpt lat="48.40039" lon="2.67221">
        <ele>77.52</ele>
        <time>2012-03-04T07:23:18Z</time>
      </trkpt>
      <trkpt lat="48.40036" lon="2.67214">
        <ele>77.52</ele>
        <time>2012-03-04T07:23:19Z</time>
      </trkpt>
      <trkpt lat="48.40028" lon="2.67201">
        <ele>77.04</ele>
        <time>2012-03-04T07:23:21Z</time>
      </trkpt>
      <trkpt lat="48.40024" lon="2.67196">
        <ele>77.52</ele>
        <time>2012-03-04T07:23:22Z</time>
      </trkpt>
      <trkpt lat="48.40016" lon="2.67187">
        <ele>77.04</ele>
        <time>2012-03-04T07:23:24Z</time>
      </trkpt>
      <trkpt lat="48.40012" lon="2.67181">
        <ele>77.52</ele>
        <time>2012-03-04T07:23:25Z</time>
      </trkpt>
      <trkpt lat="48.39998" lon="2.67153">
        <ele>77.52</ele>
        <time>2012-03-04T07:23:29Z</time>
      </trkpt>
      <trkpt lat="48.39994" lon="2.67147">
        <ele>77.04</ele>
        <time>2012-03-04T07:23:30Z</time>
      </trkpt>
      <trkpt lat="48.39991" lon="2.6714">
        <ele>77.04</ele>
        <time>2012-03-04T07:23:31Z</time>
      </trkpt>
      <trkpt lat="48.39975" lon="2.67105">
        <ele>78</ele>
        <time>2012-03-04T07:23:36Z</time>
      </trkpt>
      <trkpt lat="48.39969" lon="2.67092">
        <ele>78.48</ele>
        <time>2012-03-04T07:23:38Z</time>
      </trkpt>
      <trkpt lat="48.3995" lon="2.67047">
        <ele>78.97</ele>
        <time>2012-03-04T07:23:45Z</time>
      </trkpt>
      <trkpt lat="48.39942" lon="2.67032">
        <ele>79.45</ele>
        <time>2012-03-04T07:23:48Z</time>
      </trkpt>
      <trkpt lat="48.39924" lon="2.66987">
        <ele>81.37</ele>
        <time>2012-03-04T07:23:58Z</time>
      </trkpt>
      <trkpt lat="48.39924" lon="2.66985">
        <ele>80.89</ele>
        <time>2012-03-04T07:23:59Z</time>
      </trkpt>
      <trkpt lat="48.39925" lon="2.66983">
        <ele>80.89</ele>
        <time>2012-03-04T07:24:00Z</time>
      </trkpt>
      <trkpt lat="48.39924" lon="2.6698">
        <ele>80.89</ele>
        <time>2012-03-04T07:24:01Z</time>
      </trkpt>
      <trkpt lat="48.39922" lon="2.66977">
        <ele>80.41</ele>
        <time>2012-03-04T07:24:02Z</time>
      </trkpt>
      <trkpt lat="48.39919" lon="2.66974">
        <ele>80.41</ele>
        <time>2012-03-04T07:24:03Z</time>
      </trkpt>
      <trkpt lat="48.39916" lon="2.6697">
        <ele>80.89</ele>
        <time>2012-03-04T07:24:04Z</time>
      </trkpt>
      <trkpt lat="48.39908" lon="2.66952">
        <ele>81.37</ele>
        <time>2012-03-04T07:24:08Z</time>
      </trkpt>
      <trkpt lat="48.39908" lon="2.66948">
        <ele>81.37</ele>
        <time>2012-03-04T07:24:09Z</time>
      </trkpt>
      <trkpt lat="48.39909" lon="2.66942">
        <ele>81.85</ele>
        <time>2012-03-04T07:24:10Z</time>
      </trkpt>
      <trkpt lat="48.39922" lon="2.66891">
        <ele>81.85</ele>
        <time>2012-03-04T07:24:20Z</time>
      </trkpt>
      <trkpt lat="48.39937" lon="2.66871">
        <ele>82.33</ele>
        <time>2012-03-04T07:24:25Z</time>
      </trkpt>
      <trkpt lat="48.3994" lon="2.66866">
        <ele>82.33</ele>
        <time>2012-03-04T07:24:26Z</time>
      </trkpt>
      <trkpt lat="48.39942" lon="2.6686">
        <ele>82.33</ele>
        <time>2012-03-04T07:24:27Z</time>
      </trkpt>
      <trkpt lat="48.39946" lon="2.6685">
        <ele>81.85</ele>
        <time>2012-03-04T07:24:29Z</time>
      </trkpt>
      <trkpt lat="48.39951" lon="2.66838">
        <ele>81.85</ele>
        <time>2012-03-04T07:24:31Z</time>
      </trkpt>
      <trkpt lat="48.39966" lon="2.66812">
        <ele>81.37</ele>
        <time>2012-03-04T07:24:36Z</time>
      </trkpt>
      <trkpt lat="48.39969" lon="2.66807">
        <ele>81.37</ele>
        <time>2012-03-04T07:24:37Z</time>
      </trkpt>
      <trkpt lat="48.39972" lon="2.66803">
        <ele>80.89</ele>
        <time>2012-03-04T07:24:38Z</time>
      </trkpt>
      <trkpt lat="48.39976" lon="2.66797">
        <ele>80.89</ele>
        <time>2012-03-04T07:24:39Z</time>
      </trkpt>
      <trkpt lat="48.39979" lon="2.66792">
        <ele>80.41</ele>
        <time>2012-03-04T07:24:40Z</time>
      </trkpt>
      <trkpt lat="48.39982" lon="2.66787">
        <ele>80.41</ele>
        <time>2012-03-04T07:24:41Z</time>
      </trkpt>
      <trkpt lat="48.4" lon="2.66752">
        <ele>79.93</ele>
        <time>2012-03-04T07:24:47Z</time>
      </trkpt>
      <trkpt lat="48.40003" lon="2.66747">
        <ele>80.41</ele>
        <time>2012-03-04T07:24:48Z</time>
      </trkpt>
      <trkpt lat="48.40005" lon="2.66743">
        <ele>79.93</ele>
        <time>2012-03-04T07:24:49Z</time>
      </trkpt>
      <trkpt lat="48.40008" lon="2.66739">
        <ele>80.41</ele>
        <time>2012-03-04T07:24:50Z</time>
      </trkpt>
      <trkpt lat="48.40011" lon="2.66736">
        <ele>80.41</ele>
        <time>2012-03-04T07:24:51Z</time>
      </trkpt>
      <trkpt lat="48.40028" lon="2.66723">
        <ele>79.45</ele>
        <time>2012-03-04T07:25:01Z</time>
      </trkpt>
      <trkpt lat="48.40028" lon="2.66723">
        <ele>79.45</ele>
        <time>2012-03-04T07:25:24Z</time>
      </trkpt>
      <trkpt lat="48.40037" lon="2.6672">
        <ele>79.45</ele>
        <time>2012-03-04T07:25:36Z</time>
      </trkpt>
      <trkpt lat="48.40038" lon="2.66721">
        <ele>79.45</ele>
        <time>2012-03-04T07:25:37Z</time>
      </trkpt>
      <trkpt lat="48.4004" lon="2.66722">
        <ele>79.45</ele>
        <time>2012-03-04T07:25:54Z</time>
      </trkpt>
      <trkpt lat="48.4004" lon="2.66722">
        <ele>79.45</ele>
        <time>2012-03-04T07:26:14Z</time>
      </trkpt>
      <trkpt lat="48.40041" lon="2.6672">
        <ele>79.93</ele>
        <time>2012-03-04T07:26:15Z</time>
      </trkpt>
      <trkpt lat="48.40042" lon="2.66719">
        <ele>79.45</ele>
        <time>2012-03-04T07:26:16Z</time>
      </trkpt>
      <trkpt lat="48.40044" lon="2.66717">
        <ele>79.45</ele>
        <time>2012-03-04T07:26:17Z</time>
      </trkpt>
      <trkpt lat="48.40047" lon="2.66715">
        <ele>79.45</ele>
        <time>2012-03-04T07:26:18Z</time>
      </trkpt>
      <trkpt lat="48.4005" lon="2.66713">
        <ele>79.45</ele>
        <time>2012-03-04T07:26:19Z</time>
      </trkpt>
      <trkpt lat="48.40053" lon="2.6671">
        <ele>78.97</ele>
        <time>2012-03-04T07:26:20Z</time>
      </trkpt>
      <trkpt lat="48.40056" lon="2.66707">
        <ele>78.97</ele>
        <time>2012-03-04T07:26:21Z</time>
      </trkpt>
      <trkpt lat="48.40059" lon="2.66704">
        <ele>78.97</ele>
        <time>2012-03-04T07:26:22Z</time>
      </trkpt>
      <trkpt lat="48.40095" lon="2.66673">
        <ele>79.45</ele>
        <time>2012-03-04T07:26:32Z</time>
      </trkpt>
      <trkpt lat="48.40099" lon="2.66671">
        <ele>79.45</ele>
        <time>2012-03-04T07:26:33Z</time>
      </trkpt>
      <trkpt lat="48.40135" lon="2.66654">
        <ele>82.33</ele>
        <time>2012-03-04T07:26:43Z</time>
      </trkpt>
      <trkpt lat="48.40142" lon="2.66654">
        <ele>83.29</ele>
        <time>2012-03-04T07:26:45Z</time>
      </trkpt>
      <trkpt lat="48.40153" lon="2.66653">
        <ele>84.73</ele>
        <time>2012-03-04T07:26:48Z</time>
      </trkpt>
      <trkpt lat="48.40161" lon="2.66652">
        <ele>85.69</ele>
        <time>2012-03-04T07:26:50Z</time>
      </trkpt>
      <trkpt lat="48.40167" lon="2.6665">
        <ele>86.18</ele>
        <time>2012-03-04T07:26:52Z</time>
      </trkpt>
      <trkpt lat="48.40198" lon="2.66653">
        <ele>88.1</ele>
        <time>2012-03-04T07:27:02Z</time>
      </trkpt>
      <trkpt lat="48.40201" lon="2.66652">
        <ele>88.1</ele>
        <time>2012-03-04T07:27:03Z</time>
      </trkpt>
      <trkpt lat="48.40202" lon="2.6665">
        <ele>88.1</ele>
        <time>2012-03-04T07:27:04Z</time>
      </trkpt>
      <trkpt lat="48.40203" lon="2.66648">
        <ele>89.06</ele>
        <time>2012-03-04T07:27:05Z</time>
      </trkpt>
      <trkpt lat="48.40203" lon="2.66645">
        <ele>89.06</ele>
        <time>2012-03-04T07:27:06Z</time>
      </trkpt>
      <trkpt lat="48.40203" lon="2.66642">
        <ele>90.02</ele>
        <time>2012-03-04T07:27:07Z</time>
      </trkpt>
      <trkpt lat="48.40204" lon="2.6664">
        <ele>90.02</ele>
        <time>2012-03-04T07:27:08Z</time>
      </trkpt>
      <trkpt lat="48.40205" lon="2.66639">
        <ele>90.5</ele>
        <time>2012-03-04T07:27:09Z</time>
      </trkpt>
      <trkpt lat="48.40206" lon="2.66638">
        <ele>90.5</ele>
        <time>2012-03-04T07:27:10Z</time>
      </trkpt>
      <trkpt lat="48.40207" lon="2.66637">
        <ele>90.98</ele>
        <time>2012-03-04T07:27:11Z</time>
      </trkpt>
      <trkpt lat="48.40207" lon="2.66635">
        <ele>90.98</ele>
        <time>2012-03-04T07:27:12Z</time>
      </trkpt>
      <trkpt lat="48.40206" lon="2.66633">
        <ele>91.46</ele>
        <time>2012-03-04T07:27:13Z</time>
      </trkpt>
      <trkpt lat="48.40206" lon="2.6663">
        <ele>91.94</ele>
        <time>2012-03-04T07:27:14Z</time>
      </trkpt>
      <trkpt lat="48.40206" lon="2.66628">
        <ele>92.42</ele>
        <time>2012-03-04T07:27:15Z</time>
      </trkpt>
      <trkpt lat="48.40206" lon="2.66626">
        <ele>92.9</ele>
        <time>2012-03-04T07:27:16Z</time>
      </trkpt>
      <trkpt lat="48.40206" lon="2.66624">
        <ele>93.39</ele>
        <time>2012-03-04T07:27:17Z</time>
      </trkpt>
      <trkpt lat="48.40206" lon="2.66621">
        <ele>93.39</ele>
        <time>2012-03-04T07:27:18Z</time>
      </trkpt>
      <trkpt lat="48.40206" lon="2.66612">
        <ele>94.83</ele>
        <time>2012-03-04T07:27:23Z</time>
      </trkpt>
      <trkpt lat="48.40206" lon="2.66609">
        <ele>95.31</ele>
        <time>2012-03-04T07:27:24Z</time>
      </trkpt>
      <trkpt lat="48.40207" lon="2.66608">
        <ele>95.31</ele>
        <time>2012-03-04T07:27:25Z</time>
      </trkpt>
      <trkpt lat="48.4021" lon="2.66594">
        <ele>98.67</ele>
        <time>2012-03-04T07:27:34Z</time>
      </trkpt>
      <trkpt lat="48.4021" lon="2.66576">
        <ele>101.08</ele>
        <time>2012-03-04T07:27:44Z</time>
      </trkpt>
      <trkpt lat="48.40212" lon="2.66571">
        <ele>102.04</ele>
        <time>2012-03-04T07:27:47Z</time>
      </trkpt>
      <trkpt lat="48.40213" lon="2.6657">
        <ele>103</ele>
        <time>2012-03-04T07:27:48Z</time>
      </trkpt>
      <trkpt lat="48.40213" lon="2.66568">
        <ele>103</ele>
        <time>2012-03-04T07:27:49Z</time>
      </trkpt>
      <trkpt lat="48.40214" lon="2.66566">
        <ele>103</ele>
        <time>2012-03-04T07:27:50Z</time>
      </trkpt>
      <trkpt lat="48.40216" lon="2.66557">
        <ele>105.4</ele>
        <time>2012-03-04T07:27:59Z</time>
      </trkpt>
      <trkpt lat="48.40219" lon="2.66544">
        <ele>108.29</ele>
        <time>2012-03-04T07:28:11Z</time>
      </trkpt>
      <trkpt lat="48.40222" lon="2.66534">
        <ele>110.69</ele>
        <time>2012-03-04T07:28:24Z</time>
      </trkpt>
      <trkpt lat="48.40228" lon="2.66526">
        <ele>112.13</ele>
        <time>2012-03-04T07:28:35Z</time>
      </trkpt>
      <trkpt lat="48.40233" lon="2.66513">
        <ele>115.5</ele>
        <time>2012-03-04T07:28:50Z</time>
      </trkpt>
      <trkpt lat="48.40234" lon="2.66508">
        <ele>115.5</ele>
        <time>2012-03-04T07:29:04Z</time>
      </trkpt>
      <trkpt lat="48.40235" lon="2.66508">
        <ele>115.5</ele>
        <time>2012-03-04T07:29:05Z</time>
      </trkpt>
      <trkpt lat="48.40236" lon="2.66507">
        <ele>115.5</ele>
        <time>2012-03-04T07:29:06Z</time>
      </trkpt>
      <trkpt lat="48.40238" lon="2.66506">
        <ele>115.5</ele>
        <time>2012-03-04T07:29:07Z</time>
      </trkpt>
      <trkpt lat="48.40239" lon="2.66505">
        <ele>115.98</ele>
        <time>2012-03-04T07:29:08Z</time>
      </trkpt>
      <trkpt lat="48.4024" lon="2.66503">
        <ele>115.5</ele>
        <time>2012-03-04T07:29:09Z</time>
      </trkpt>
      <trkpt lat="48.4024" lon="2.665">
        <ele>115.5</ele>
        <time>2012-03-04T07:29:10Z</time>
      </trkpt>
      <trkpt lat="48.40239" lon="2.66498">
        <ele>115.5</ele>
        <time>2012-03-04T07:29:11Z</time>
      </trkpt>
      <trkpt lat="48.40238" lon="2.66496">
        <ele>115.5</ele>
        <time>2012-03-04T07:29:12Z</time>
      </trkpt>
      <trkpt lat="48.40237" lon="2.66493">
        <ele>115.5</ele>
        <time>2012-03-04T07:29:13Z</time>
      </trkpt>
      <trkpt lat="48.40237" lon="2.6649">
        <ele>115.98</ele>
        <time>2012-03-04T07:29:14Z</time>
      </trkpt>
      <trkpt lat="48.40237" lon="2.66488">
        <ele>115.98</ele>
        <time>2012-03-04T07:29:15Z</time>
      </trkpt>
      <trkpt lat="48.40238" lon="2.66479">
        <ele>116.46</ele>
        <time>2012-03-04T07:29:26Z</time>
      </trkpt>
      <trkpt lat="48.4024" lon="2.66473">
        <ele>116.46</ele>
        <time>2012-03-04T07:29:39Z</time>
      </trkpt>
      <trkpt lat="48.40241" lon="2.66472">
        <ele>115.98</ele>
        <time>2012-03-04T07:29:53Z</time>
      </trkpt>
      <trkpt lat="48.40241" lon="2.66472">
        <ele>115.98</ele>
        <time>2012-03-04T07:30:23Z</time>
      </trkpt>
      <trkpt lat="48.40241" lon="2.66471">
        <ele>115.5</ele>
        <time>2012-03-04T07:30:24Z</time>
      </trkpt>
      <trkpt lat="48.40242" lon="2.66469">
        <ele>115.5</ele>
        <time>2012-03-04T07:30:25Z</time>
      </trkpt>
      <trkpt lat="48.40243" lon="2.66466">
        <ele>115.5</ele>
        <time>2012-03-04T07:30:26Z</time>
      </trkpt>
      <trkpt lat="48.40244" lon="2.66464">
        <ele>115.5</ele>
        <time>2012-03-04T07:30:27Z</time>
      </trkpt>
      <trkpt lat="48.40245" lon="2.66462">
        <ele>115.5</ele>
        <time>2012-03-04T07:30:28Z</time>
      </trkpt>
      <trkpt lat="48.40246" lon="2.66459">
        <ele>115.5</ele>
        <time>2012-03-04T07:30:29Z</time>
      </trkpt>
      <trkpt lat="48.40247" lon="2.66456">
        <ele>115.5</ele>
        <time>2012-03-04T07:30:30Z</time>
      </trkpt>
      <trkpt lat="48.40247" lon="2.66454">
        <ele>115.01</ele>
        <time>2012-03-04T07:30:31Z</time>
      </trkpt>
      <trkpt lat="48.40263" lon="2.66428">
        <ele>113.09</ele>
        <time>2012-03-04T07:30:40Z</time>
      </trkpt>
      <trkpt lat="48.40292" lon="2.66408">
        <ele>111.17</ele>
        <time>2012-03-04T07:30:49Z</time>
      </trkpt>
      <trkpt lat="48.40295" lon="2.66409">
        <ele>110.21</ele>
        <time>2012-03-04T07:30:50Z</time>
      </trkpt>
      <trkpt lat="48.40298" lon="2.6641">
        <ele>108.77</ele>
        <time>2012-03-04T07:30:51Z</time>
      </trkpt>
      <trkpt lat="48.40302" lon="2.66409">
        <ele>108.29</ele>
        <time>2012-03-04T07:30:52Z</time>
      </trkpt>
      <trkpt lat="48.40304" lon="2.66408">
        <ele>106.84</ele>
        <time>2012-03-04T07:30:53Z</time>
      </trkpt>
      <trkpt lat="48.40307" lon="2.66407">
        <ele>106.36</ele>
        <time>2012-03-04T07:30:54Z</time>
      </trkpt>
      <trkpt lat="48.4031" lon="2.66403">
        <ele>105.88</ele>
        <time>2012-03-04T07:30:55Z</time>
      </trkpt>
      <trkpt lat="48.40315" lon="2.66398">
        <ele>105.88</ele>
        <time>2012-03-04T07:30:56Z</time>
      </trkpt>
      <trkpt lat="48.40324" lon="2.66389">
        <ele>105.88</ele>
        <time>2012-03-04T07:30:58Z</time>
      </trkpt>
      <trkpt lat="48.40329" lon="2.66386">
        <ele>105.4</ele>
        <time>2012-03-04T07:30:59Z</time>
      </trkpt>
      <trkpt lat="48.40334" lon="2.66385">
        <ele>105.4</ele>
        <time>2012-03-04T07:31:00Z</time>
      </trkpt>
      <trkpt lat="48.40338" lon="2.66386">
        <ele>105.4</ele>
        <time>2012-03-04T07:31:01Z</time>
      </trkpt>
      <trkpt lat="48.40341" lon="2.66388">
        <ele>105.88</ele>
        <time>2012-03-04T07:31:02Z</time>
      </trkpt>
      <trkpt lat="48.40345" lon="2.6639">
        <ele>106.36</ele>
        <time>2012-03-04T07:31:03Z</time>
      </trkpt>
      <trkpt lat="48.40347" lon="2.66391">
        <ele>106.36</ele>
        <time>2012-03-04T07:31:04Z</time>
      </trkpt>
      <trkpt lat="48.40363" lon="2.66402">
        <ele>104.92</ele>
        <time>2012-03-04T07:31:10Z</time>
      </trkpt>
      <trkpt lat="48.40374" lon="2.66407">
        <ele>106.84</ele>
        <time>2012-03-04T07:31:19Z</time>
      </trkpt>
      <trkpt lat="48.40376" lon="2.66408">
        <ele>106.84</ele>
        <time>2012-03-04T07:31:20Z</time>
      </trkpt>
      <trkpt lat="48.40379" lon="2.66408">
        <ele>107.32</ele>
        <time>2012-03-04T07:31:21Z</time>
      </trkpt>
      <trkpt lat="48.40381" lon="2.66409">
        <ele>107.81</ele>
        <time>2012-03-04T07:31:22Z</time>
      </trkpt>
      <trkpt lat="48.40383" lon="2.6641">
        <ele>107.81</ele>
        <time>2012-03-04T07:31:23Z</time>
      </trkpt>
      <trkpt lat="48.40385" lon="2.66411">
        <ele>108.29</ele>
        <time>2012-03-04T07:31:24Z</time>
      </trkpt>
      <trkpt lat="48.40388" lon="2.66412">
        <ele>108.29</ele>
        <time>2012-03-04T07:31:25Z</time>
      </trkpt>
      <trkpt lat="48.40391" lon="2.66413">
        <ele>108.77</ele>
        <time>2012-03-04T07:31:26Z</time>
      </trkpt>
      <trkpt lat="48.40393" lon="2.66413">
        <ele>108.77</ele>
        <time>2012-03-04T07:31:27Z</time>
      </trkpt>
      <trkpt lat="48.40396" lon="2.66414">
        <ele>109.73</ele>
        <time>2012-03-04T07:31:28Z</time>
      </trkpt>
      <trkpt lat="48.40399" lon="2.66416">
        <ele>109.73</ele>
        <time>2012-03-04T07:31:29Z</time>
      </trkpt>
      <trkpt lat="48.40402" lon="2.66418">
        <ele>110.21</ele>
        <time>2012-03-04T07:31:30Z</time>
      </trkpt>
      <trkpt lat="48.40404" lon="2.66419">
        <ele>110.69</ele>
        <time>2012-03-04T07:31:31Z</time>
      </trkpt>
      <trkpt lat="48.40407" lon="2.6642">
        <ele>110.69</ele>
        <time>2012-03-04T07:31:32Z</time>
      </trkpt>
      <trkpt lat="48.40409" lon="2.66421">
        <ele>110.69</ele>
        <time>2012-03-04T07:31:33Z</time>
      </trkpt>
      <trkpt lat="48.40411" lon="2.66423">
        <ele>110.69</ele>
        <time>2012-03-04T07:31:34Z</time>
      </trkpt>
      <trkpt lat="48.40414" lon="2.66424">
        <ele>111.65</ele>
        <time>2012-03-04T07:31:35Z</time>
      </trkpt>
      <trkpt lat="48.40417" lon="2.66425">
        <ele>111.17</ele>
        <time>2012-03-04T07:31:36Z</time>
      </trkpt>
      <trkpt lat="48.40419" lon="2.66426">
        <ele>111.65</ele>
        <time>2012-03-04T07:31:37Z</time>
      </trkpt>
      <trkpt lat="48.40421" lon="2.66427">
        <ele>112.13</ele>
        <time>2012-03-04T07:31:38Z</time>
      </trkpt>
      <trkpt lat="48.40436" lon="2.66439">
        <ele>112.61</ele>
        <time>2012-03-04T07:31:47Z</time>
      </trkpt>
      <trkpt lat="48.40439" lon="2.66439">
        <ele>113.09</ele>
        <time>2012-03-04T07:31:48Z</time>
      </trkpt>
      <trkpt lat="48.40441" lon="2.66438">
        <ele>113.09</ele>
        <time>2012-03-04T07:31:49Z</time>
      </trkpt>
      <trkpt lat="48.40444" lon="2.66436">
        <ele>113.57</ele>
        <time>2012-03-04T07:31:50Z</time>
      </trkpt>
      <trkpt lat="48.40446" lon="2.66435">
        <ele>113.09</ele>
        <time>2012-03-04T07:31:51Z</time>
      </trkpt>
      <trkpt lat="48.40448" lon="2.66434">
        <ele>113.57</ele>
        <time>2012-03-04T07:31:52Z</time>
      </trkpt>
      <trkpt lat="48.40452" lon="2.66433">
        <ele>113.09</ele>
        <time>2012-03-04T07:31:54Z</time>
      </trkpt>
      <trkpt lat="48.40454" lon="2.66433">
        <ele>113.57</ele>
        <time>2012-03-04T07:31:55Z</time>
      </trkpt>
      <trkpt lat="48.40457" lon="2.66433">
        <ele>114.05</ele>
        <time>2012-03-04T07:31:56Z</time>
      </trkpt>
      <trkpt lat="48.4046" lon="2.66433">
        <ele>113.57</ele>
        <time>2012-03-04T07:31:57Z</time>
      </trkpt>
      <trkpt lat="48.40462" lon="2.66435">
        <ele>114.05</ele>
        <time>2012-03-04T07:31:58Z</time>
      </trkpt>
      <trkpt lat="48.40465" lon="2.66435">
        <ele>114.05</ele>
        <time>2012-03-04T07:31:59Z</time>
      </trkpt>
      <trkpt lat="48.40466" lon="2.66436">
        <ele>114.05</ele>
        <time>2012-03-04T07:32:00Z</time>
      </trkpt>
      <trkpt lat="48.40468" lon="2.66435">
        <ele>114.05</ele>
        <time>2012-03-04T07:32:01Z</time>
      </trkpt>
      <trkpt lat="48.4047" lon="2.66435">
        <ele>114.05</ele>
        <time>2012-03-04T07:32:02Z</time>
      </trkpt>
      <trkpt lat="48.40489" lon="2.66415">
        <ele>116.46</ele>
        <time>2012-03-04T07:32:12Z</time>
      </trkpt>
      <trkpt lat="48.40505" lon="2.66382">
        <ele>119.34</ele>
        <time>2012-03-04T07:32:25Z</time>
      </trkpt>
      <trkpt lat="48.40507" lon="2.66377">
        <ele>119.82</ele>
        <time>2012-03-04T07:32:27Z</time>
      </trkpt>
      <trkpt lat="48.40507" lon="2.66374">
        <ele>119.82</ele>
        <time>2012-03-04T07:32:28Z</time>
      </trkpt>
      <trkpt lat="48.40508" lon="2.66371">
        <ele>119.82</ele>
        <time>2012-03-04T07:32:29Z</time>
      </trkpt>
      <trkpt lat="48.40509" lon="2.66369">
        <ele>119.82</ele>
        <time>2012-03-04T07:32:30Z</time>
      </trkpt>
      <trkpt lat="48.40509" lon="2.66366">
        <ele>119.34</ele>
        <time>2012-03-04T07:32:31Z</time>
      </trkpt>
      <trkpt lat="48.40516" lon="2.66323">
        <ele>120.3</ele>
        <time>2012-03-04T07:32:43Z</time>
      </trkpt>
      <trkpt lat="48.40516" lon="2.6632">
        <ele>120.3</ele>
        <time>2012-03-04T07:32:44Z</time>
      </trkpt>
      <trkpt lat="48.40515" lon="2.66317">
        <ele>120.3</ele>
        <time>2012-03-04T07:32:45Z</time>
      </trkpt>
      <trkpt lat="48.40515" lon="2.66314">
        <ele>120.3</ele>
        <time>2012-03-04T07:32:46Z</time>
      </trkpt>
      <trkpt lat="48.40514" lon="2.66311">
        <ele>120.78</ele>
        <time>2012-03-04T07:32:47Z</time>
      </trkpt>
      <trkpt lat="48.40513" lon="2.66307">
        <ele>120.78</ele>
        <time>2012-03-04T07:32:48Z</time>
      </trkpt>
      <trkpt lat="48.40512" lon="2.66306">
        <ele>121.74</ele>
        <time>2012-03-04T07:32:49Z</time>
      </trkpt>
      <trkpt lat="48.40512" lon="2.66304">
        <ele>121.74</ele>
        <time>2012-03-04T07:32:50Z</time>
      </trkpt>
      <trkpt lat="48.40509" lon="2.66299">
        <ele>122.71</ele>
        <time>2012-03-04T07:32:53Z</time>
      </trkpt>
      <trkpt lat="48.40508" lon="2.66296">
        <ele>122.71</ele>
        <time>2012-03-04T07:32:54Z</time>
      </trkpt>
      <trkpt lat="48.40507" lon="2.66293">
        <ele>123.19</ele>
        <time>2012-03-04T07:32:55Z</time>
      </trkpt>
      <trkpt lat="48.40505" lon="2.6629">
        <ele>123.67</ele>
        <time>2012-03-04T07:32:56Z</time>
      </trkpt>
      <trkpt lat="48.40493" lon="2.66279">
        <ele>125.11</ele>
        <time>2012-03-04T07:33:06Z</time>
      </trkpt>
      <trkpt lat="48.40487" lon="2.66274">
        <ele>126.07</ele>
        <time>2012-03-04T07:33:19Z</time>
      </trkpt>
      <trkpt lat="48.40484" lon="2.66275">
        <ele>126.55</ele>
        <time>2012-03-04T07:33:23Z</time>
      </trkpt>
      <trkpt lat="48.40474" lon="2.66284">
        <ele>128.95</ele>
        <time>2012-03-04T07:33:35Z</time>
      </trkpt>
      <trkpt lat="48.40473" lon="2.66291">
        <ele>129.92</ele>
        <time>2012-03-04T07:33:47Z</time>
      </trkpt>
      <trkpt lat="48.40473" lon="2.66295">
        <ele>129.92</ele>
        <time>2012-03-04T07:34:00Z</time>
      </trkpt>
      <trkpt lat="48.40479" lon="2.66311">
        <ele>130.88</ele>
        <time>2012-03-04T07:34:08Z</time>
      </trkpt>
      <trkpt lat="48.40489" lon="2.66326">
        <ele>130.88</ele>
        <time>2012-03-04T07:34:16Z</time>
      </trkpt>
      <trkpt lat="48.40486" lon="2.66341">
        <ele>130.4</ele>
        <time>2012-03-04T07:34:23Z</time>
      </trkpt>
      <trkpt lat="48.40483" lon="2.66347">
        <ele>130.88</ele>
        <time>2012-03-04T07:34:26Z</time>
      </trkpt>
      <trkpt lat="48.40483" lon="2.66355">
        <ele>131.84</ele>
        <time>2012-03-04T07:34:30Z</time>
      </trkpt>
      <trkpt lat="48.40471" lon="2.6636">
        <ele>131.84</ele>
        <time>2012-03-04T07:34:38Z</time>
      </trkpt>
      <trkpt lat="48.4046" lon="2.6636">
        <ele>130.4</ele>
        <time>2012-03-04T07:34:43Z</time>
      </trkpt>
      <trkpt lat="48.40442" lon="2.6637">
        <ele>129.92</ele>
        <time>2012-03-04T07:34:53Z</time>
      </trkpt>
      <trkpt lat="48.40442" lon="2.66366">
        <ele>129.43</ele>
        <time>2012-03-04T07:34:57Z</time>
      </trkpt>
      <trkpt lat="48.40443" lon="2.66363">
        <ele>128.95</ele>
        <time>2012-03-04T07:34:59Z</time>
      </trkpt>
      <trkpt lat="48.40445" lon="2.66346">
        <ele>127.03</ele>
        <time>2012-03-04T07:35:09Z</time>
      </trkpt>
      <trkpt lat="48.40447" lon="2.66341">
        <ele>127.51</ele>
        <time>2012-03-04T07:35:21Z</time>
      </trkpt>
      <trkpt lat="48.40448" lon="2.6634">
        <ele>127.03</ele>
        <time>2012-03-04T07:35:35Z</time>
      </trkpt>
      <trkpt lat="48.40447" lon="2.66337">
        <ele>125.11</ele>
        <time>2012-03-04T07:35:49Z</time>
      </trkpt>
      <trkpt lat="48.40447" lon="2.66337">
        <ele>125.11</ele>
        <time>2012-03-04T07:36:02Z</time>
      </trkpt>
      <trkpt lat="48.40441" lon="2.66328">
        <ele>123.19</ele>
        <time>2012-03-04T07:36:10Z</time>
      </trkpt>
      <trkpt lat="48.40438" lon="2.66306">
        <ele>118.38</ele>
        <time>2012-03-04T07:36:17Z</time>
      </trkpt>
      <trkpt lat="48.40439" lon="2.66301">
        <ele>117.9</ele>
        <time>2012-03-04T07:36:18Z</time>
      </trkpt>
      <trkpt lat="48.40441" lon="2.66293">
        <ele>116.94</ele>
        <time>2012-03-04T07:36:22Z</time>
      </trkpt>
      <trkpt lat="48.40445" lon="2.66285">
        <ele>115.98</ele>
        <time>2012-03-04T07:36:27Z</time>
      </trkpt>
      <trkpt lat="48.40445" lon="2.66273">
        <ele>113.57</ele>
        <time>2012-03-04T07:36:31Z</time>
      </trkpt>
      <trkpt lat="48.40448" lon="2.66266">
        <ele>113.09</ele>
        <time>2012-03-04T07:36:41Z</time>
      </trkpt>
      <trkpt lat="48.40453" lon="2.6626">
        <ele>113.09</ele>
        <time>2012-03-04T07:36:45Z</time>
      </trkpt>
      <trkpt lat="48.40463" lon="2.66251">
        <ele>113.09</ele>
        <time>2012-03-04T07:36:49Z</time>
      </trkpt>
      <trkpt lat="48.40475" lon="2.66245">
        <ele>113.57</ele>
        <time>2012-03-04T07:36:53Z</time>
      </trkpt>
      <trkpt lat="48.40488" lon="2.66232">
        <ele>113.09</ele>
        <time>2012-03-04T07:37:00Z</time>
      </trkpt>
      <trkpt lat="48.40493" lon="2.66232">
        <ele>112.61</ele>
        <time>2012-03-04T07:37:03Z</time>
      </trkpt>
      <trkpt lat="48.40496" lon="2.66233">
        <ele>111.65</ele>
        <time>2012-03-04T07:37:10Z</time>
      </trkpt>
      <trkpt lat="48.40507" lon="2.66245">
        <ele>108.29</ele>
        <time>2012-03-04T07:37:15Z</time>
      </trkpt>
      <trkpt lat="48.40512" lon="2.66253">
        <ele>107.32</ele>
        <time>2012-03-04T07:37:17Z</time>
      </trkpt>
      <trkpt lat="48.40517" lon="2.66263">
        <ele>107.32</ele>
        <time>2012-03-04T07:37:19Z</time>
      </trkpt>
      <trkpt lat="48.40518" lon="2.66269">
        <ele>107.32</ele>
        <time>2012-03-04T07:37:20Z</time>
      </trkpt>
      <trkpt lat="48.40519" lon="2.66275">
        <ele>107.81</ele>
        <time>2012-03-04T07:37:21Z</time>
      </trkpt>
      <trkpt lat="48.40526" lon="2.6632">
        <ele>107.32</ele>
        <time>2012-03-04T07:37:30Z</time>
      </trkpt>
      <trkpt lat="48.40526" lon="2.66325">
        <ele>106.84</ele>
        <time>2012-03-04T07:37:32Z</time>
      </trkpt>
      <trkpt lat="48.40526" lon="2.66327">
        <ele>106.36</ele>
        <time>2012-03-04T07:37:33Z</time>
      </trkpt>
      <trkpt lat="48.40529" lon="2.66343">
        <ele>103.48</ele>
        <time>2012-03-04T07:37:37Z</time>
      </trkpt>
      <trkpt lat="48.40531" lon="2.6635">
        <ele>103</ele>
        <time>2012-03-04T07:37:38Z</time>
      </trkpt>
      <trkpt lat="48.40532" lon="2.66363">
        <ele>104.92</ele>
        <time>2012-03-04T07:37:41Z</time>
      </trkpt>
      <trkpt lat="48.40531" lon="2.66373">
        <ele>103</ele>
        <time>2012-03-04T07:37:43Z</time>
      </trkpt>
      <trkpt lat="48.40528" lon="2.66378">
        <ele>103</ele>
        <time>2012-03-04T07:37:44Z</time>
      </trkpt>
      <trkpt lat="48.40521" lon="2.66396">
        <ele>103</ele>
        <time>2012-03-04T07:37:50Z</time>
      </trkpt>
      <trkpt lat="48.40522" lon="2.664">
        <ele>102.52</ele>
        <time>2012-03-04T07:37:51Z</time>
      </trkpt>
      <trkpt lat="48.40521" lon="2.66405">
        <ele>101.56</ele>
        <time>2012-03-04T07:37:52Z</time>
      </trkpt>
      <trkpt lat="48.40523" lon="2.66409">
        <ele>100.11</ele>
        <time>2012-03-04T07:37:53Z</time>
      </trkpt>
      <trkpt lat="48.40524" lon="2.66415">
        <ele>98.67</ele>
        <time>2012-03-04T07:37:54Z</time>
      </trkpt>
      <trkpt lat="48.40527" lon="2.66426">
        <ele>96.75</ele>
        <time>2012-03-04T07:37:56Z</time>
      </trkpt>
      <trkpt lat="48.40526" lon="2.6643">
        <ele>95.79</ele>
        <time>2012-03-04T07:37:57Z</time>
      </trkpt>
      <trkpt lat="48.40525" lon="2.66434">
        <ele>95.79</ele>
        <time>2012-03-04T07:37:58Z</time>
      </trkpt>
      <trkpt lat="48.40525" lon="2.66438">
        <ele>94.83</ele>
        <time>2012-03-04T07:37:59Z</time>
      </trkpt>
      <trkpt lat="48.40524" lon="2.66442">
        <ele>93.87</ele>
        <time>2012-03-04T07:38:00Z</time>
      </trkpt>
      <trkpt lat="48.40521" lon="2.66446">
        <ele>93.39</ele>
        <time>2012-03-04T07:38:01Z</time>
      </trkpt>
      <trkpt lat="48.40518" lon="2.6645">
        <ele>92.9</ele>
        <time>2012-03-04T07:38:02Z</time>
      </trkpt>
      <trkpt lat="48.40515" lon="2.66454">
        <ele>92.42</ele>
        <time>2012-03-04T07:38:03Z</time>
      </trkpt>
      <trkpt lat="48.40506" lon="2.66468">
        <ele>91.94</ele>
        <time>2012-03-04T07:38:06Z</time>
      </trkpt>
      <trkpt lat="48.40502" lon="2.66472">
        <ele>91.46</ele>
        <time>2012-03-04T07:38:07Z</time>
      </trkpt>
      <trkpt lat="48.40498" lon="2.66476">
        <ele>91.46</ele>
        <time>2012-03-04T07:38:08Z</time>
      </trkpt>
      <trkpt lat="48.40495" lon="2.66481">
        <ele>90.5</ele>
        <time>2012-03-04T07:38:09Z</time>
      </trkpt>
      <trkpt lat="48.40492" lon="2.66487">
        <ele>90.02</ele>
        <time>2012-03-04T07:38:10Z</time>
      </trkpt>
      <trkpt lat="48.40488" lon="2.66494">
        <ele>89.06</ele>
        <time>2012-03-04T07:38:11Z</time>
      </trkpt>
      <trkpt lat="48.40481" lon="2.66513">
        <ele>86.66</ele>
        <time>2012-03-04T07:38:13Z</time>
      </trkpt>
      <trkpt lat="48.40476" lon="2.66535">
        <ele>85.21</ele>
        <time>2012-03-04T07:38:15Z</time>
      </trkpt>
      <trkpt lat="48.40474" lon="2.66546">
        <ele>84.73</ele>
        <time>2012-03-04T07:38:16Z</time>
      </trkpt>
      <trkpt lat="48.40471" lon="2.66557">
        <ele>84.25</ele>
        <time>2012-03-04T07:38:17Z</time>
      </trkpt>
      <trkpt lat="48.4047" lon="2.66567">
        <ele>83.77</ele>
        <time>2012-03-04T07:38:18Z</time>
      </trkpt>
      <trkpt lat="48.40469" lon="2.66578">
        <ele>83.77</ele>
        <time>2012-03-04T07:38:19Z</time>
      </trkpt>
      <trkpt lat="48.40466" lon="2.66617">
        <ele>83.29</ele>
        <time>2012-03-04T07:38:23Z</time>
      </trkpt>
      <trkpt lat="48.4047" lon="2.66666">
        <ele>83.29</ele>
        <time>2012-03-04T07:38:28Z</time>
      </trkpt>
      <trkpt lat="48.40473" lon="2.66684">
        <ele>83.29</ele>
        <time>2012-03-04T07:38:30Z</time>
      </trkpt>
      <trkpt lat="48.40476" lon="2.66718">
        <ele>82.33</ele>
        <time>2012-03-04T07:38:34Z</time>
      </trkpt>
      <trkpt lat="48.40473" lon="2.66757">
        <ele>82.33</ele>
        <time>2012-03-04T07:38:39Z</time>
      </trkpt>
      <trkpt lat="48.40471" lon="2.66758">
        <ele>81.37</ele>
        <time>2012-03-04T07:38:40Z</time>
      </trkpt>
      <trkpt lat="48.40469" lon="2.66756">
        <ele>81.85</ele>
        <time>2012-03-04T07:38:41Z</time>
      </trkpt>
      <trkpt lat="48.40468" lon="2.66754">
        <ele>81.85</ele>
        <time>2012-03-04T07:38:42Z</time>
      </trkpt>
      <trkpt lat="48.40467" lon="2.6675">
        <ele>81.85</ele>
        <time>2012-03-04T07:38:43Z</time>
      </trkpt>
      <trkpt lat="48.40465" lon="2.66747">
        <ele>81.85</ele>
        <time>2012-03-04T07:38:44Z</time>
      </trkpt>
      <trkpt lat="48.40463" lon="2.66742">
        <ele>81.85</ele>
        <time>2012-03-04T07:38:45Z</time>
      </trkpt>
      <trkpt lat="48.40461" lon="2.66736">
        <ele>81.85</ele>
        <time>2012-03-04T07:38:46Z</time>
      </trkpt>
      <trkpt lat="48.40457" lon="2.66726">
        <ele>81.85</ele>
        <time>2012-03-04T07:38:48Z</time>
      </trkpt>
      <trkpt lat="48.40456" lon="2.6672">
        <ele>82.33</ele>
        <time>2012-03-04T07:38:49Z</time>
      </trkpt>
      <trkpt lat="48.40437" lon="2.66677">
        <ele>82.33</ele>
        <time>2012-03-04T07:38:59Z</time>
      </trkpt>
      <trkpt lat="48.40419" lon="2.66629">
        <ele>82.33</ele>
        <time>2012-03-04T07:39:12Z</time>
      </trkpt>
      <trkpt lat="48.40402" lon="2.66587">
        <ele>83.77</ele>
        <time>2012-03-04T07:39:24Z</time>
      </trkpt>
      <trkpt lat="48.40398" lon="2.66574">
        <ele>84.73</ele>
        <time>2012-03-04T07:39:28Z</time>
      </trkpt>
      <trkpt lat="48.40397" lon="2.66571">
        <ele>85.21</ele>
        <time>2012-03-04T07:39:29Z</time>
      </trkpt>
      <trkpt lat="48.40397" lon="2.66567">
        <ele>85.21</ele>
        <time>2012-03-04T07:39:30Z</time>
      </trkpt>
      <trkpt lat="48.40397" lon="2.66564">
        <ele>84.73</ele>
        <time>2012-03-04T07:39:31Z</time>
      </trkpt>
      <trkpt lat="48.40396" lon="2.66561">
        <ele>85.21</ele>
        <time>2012-03-04T07:39:32Z</time>
      </trkpt>
      <trkpt lat="48.40396" lon="2.66557">
        <ele>85.69</ele>
        <time>2012-03-04T07:39:33Z</time>
      </trkpt>
      <trkpt lat="48.40395" lon="2.66554">
        <ele>86.66</ele>
        <time>2012-03-04T07:39:34Z</time>
      </trkpt>
      <trkpt lat="48.40394" lon="2.66551">
        <ele>86.66</ele>
        <time>2012-03-04T07:39:35Z</time>
      </trkpt>
      <trkpt lat="48.40392" lon="2.66548">
        <ele>86.66</ele>
        <time>2012-03-04T07:39:36Z</time>
      </trkpt>
      <trkpt lat="48.40386" lon="2.66532">
        <ele>88.58</ele>
        <time>2012-03-04T07:39:43Z</time>
      </trkpt>
      <trkpt lat="48.40386" lon="2.66529">
        <ele>88.58</ele>
        <time>2012-03-04T07:39:44Z</time>
      </trkpt>
      <trkpt lat="48.40385" lon="2.66514">
        <ele>90.02</ele>
        <time>2012-03-04T07:39:52Z</time>
      </trkpt>
      <trkpt lat="48.40385" lon="2.66512">
        <ele>90.5</ele>
        <time>2012-03-04T07:39:53Z</time>
      </trkpt>
      <trkpt lat="48.40386" lon="2.6651">
        <ele>90.5</ele>
        <time>2012-03-04T07:39:54Z</time>
      </trkpt>
      <trkpt lat="48.40386" lon="2.66507">
        <ele>90.5</ele>
        <time>2012-03-04T07:39:55Z</time>
      </trkpt>
      <trkpt lat="48.40395" lon="2.66492">
        <ele>92.42</ele>
        <time>2012-03-04T07:40:03Z</time>
      </trkpt>
      <trkpt lat="48.40398" lon="2.66486">
        <ele>93.87</ele>
        <time>2012-03-04T07:40:07Z</time>
      </trkpt>
      <trkpt lat="48.40404" lon="2.66476">
        <ele>96.75</ele>
        <time>2012-03-04T07:40:13Z</time>
      </trkpt>
      <trkpt lat="48.40403" lon="2.66472">
        <ele>96.75</ele>
        <time>2012-03-04T07:40:20Z</time>
      </trkpt>
      <trkpt lat="48.40395" lon="2.66463">
        <ele>96.75</ele>
        <time>2012-03-04T07:40:30Z</time>
      </trkpt>
      <trkpt lat="48.40395" lon="2.66463">
        <ele>96.75</ele>
        <time>2012-03-04T07:40:56Z</time>
      </trkpt>
      <trkpt lat="48.40395" lon="2.66463">
        <ele>96.75</ele>
        <time>2012-03-04T07:40:58Z</time>
      </trkpt>
      <trkpt lat="48.40375" lon="2.66445">
        <ele>97.23</ele>
        <time>2012-03-04T07:41:11Z</time>
      </trkpt>
      <trkpt lat="48.40372" lon="2.66443">
        <ele>97.71</ele>
        <time>2012-03-04T07:41:13Z</time>
      </trkpt>
      <trkpt lat="48.40365" lon="2.66433">
        <ele>98.67</ele>
        <time>2012-03-04T07:41:19Z</time>
      </trkpt>
      <trkpt lat="48.40365" lon="2.66425">
        <ele>100.11</ele>
        <time>2012-03-04T07:41:23Z</time>
      </trkpt>
      <trkpt lat="48.40363" lon="2.66417">
        <ele>101.08</ele>
        <time>2012-03-04T07:41:26Z</time>
      </trkpt>
      <trkpt lat="48.40363" lon="2.66405">
        <ele>103</ele>
        <time>2012-03-04T07:41:30Z</time>
      </trkpt>
      <trkpt lat="48.40363" lon="2.664">
        <ele>103.96</ele>
        <time>2012-03-04T07:41:32Z</time>
      </trkpt>
      <trkpt lat="48.40359" lon="2.6639">
        <ele>104.44</ele>
        <time>2012-03-04T07:41:36Z</time>
      </trkpt>
      <trkpt lat="48.40344" lon="2.6637">
        <ele>103.96</ele>
        <time>2012-03-04T07:41:46Z</time>
      </trkpt>
      <trkpt lat="48.40343" lon="2.66362">
        <ele>103</ele>
        <time>2012-03-04T07:41:51Z</time>
      </trkpt>
      <trkpt lat="48.40342" lon="2.66346">
        <ele>101.08</ele>
        <time>2012-03-04T07:41:55Z</time>
      </trkpt>
      <trkpt lat="48.4035" lon="2.66334">
        <ele>99.15</ele>
        <time>2012-03-04T07:41:59Z</time>
      </trkpt>
      <trkpt lat="48.40359" lon="2.66322">
        <ele>98.19</ele>
        <time>2012-03-04T07:42:08Z</time>
      </trkpt>
      <trkpt lat="48.40358" lon="2.66324">
        <ele>98.19</ele>
        <time>2012-03-04T07:42:14Z</time>
      </trkpt>
      <trkpt lat="48.40363" lon="2.66304">
        <ele>94.83</ele>
        <time>2012-03-04T07:42:21Z</time>
      </trkpt>
      <trkpt lat="48.40369" lon="2.66287">
        <ele>93.39</ele>
        <time>2012-03-04T07:42:24Z</time>
      </trkpt>
      <trkpt lat="48.40371" lon="2.6628">
        <ele>92.9</ele>
        <time>2012-03-04T07:42:25Z</time>
      </trkpt>
      <trkpt lat="48.40374" lon="2.66268">
        <ele>91.94</ele>
        <time>2012-03-04T07:42:27Z</time>
      </trkpt>
      <trkpt lat="48.40376" lon="2.66255">
        <ele>91.94</ele>
        <time>2012-03-04T07:42:36Z</time>
      </trkpt>
      <trkpt lat="48.40381" lon="2.66234">
        <ele>90.5</ele>
        <time>2012-03-04T07:42:44Z</time>
      </trkpt>
      <trkpt lat="48.4038" lon="2.66186">
        <ele>87.14</ele>
        <time>2012-03-04T07:42:53Z</time>
      </trkpt>
      <trkpt lat="48.4038" lon="2.66179">
        <ele>86.66</ele>
        <time>2012-03-04T07:42:54Z</time>
      </trkpt>
      <trkpt lat="48.40378" lon="2.66121">
        <ele>85.69</ele>
        <time>2012-03-04T07:43:01Z</time>
      </trkpt>
      <trkpt lat="48.40381" lon="2.66081">
        <ele>85.21</ele>
        <time>2012-03-04T07:43:07Z</time>
      </trkpt>
      <trkpt lat="48.40382" lon="2.66078">
        <ele>85.21</ele>
        <time>2012-03-04T07:43:08Z</time>
      </trkpt>
      <trkpt lat="48.40384" lon="2.66077">
        <ele>85.69</ele>
        <time>2012-03-04T07:43:09Z</time>
      </trkpt>
      <trkpt lat="48.40386" lon="2.66077">
        <ele>86.18</ele>
        <time>2012-03-04T07:43:10Z</time>
      </trkpt>
      <trkpt lat="48.40388" lon="2.66079">
        <ele>85.21</ele>
        <time>2012-03-04T07:43:11Z</time>
      </trkpt>
      <trkpt lat="48.4039" lon="2.66081">
        <ele>85.69</ele>
        <time>2012-03-04T07:43:12Z</time>
      </trkpt>
      <trkpt lat="48.40391" lon="2.66083">
        <ele>86.18</ele>
        <time>2012-03-04T07:43:13Z</time>
      </trkpt>
      <trkpt lat="48.40394" lon="2.66085">
        <ele>85.69</ele>
        <time>2012-03-04T07:43:14Z</time>
      </trkpt>
      <trkpt lat="48.40396" lon="2.66088">
        <ele>86.18</ele>
        <time>2012-03-04T07:43:15Z</time>
      </trkpt>
      <trkpt lat="48.40398" lon="2.66092">
        <ele>86.18</ele>
        <time>2012-03-04T07:43:16Z</time>
      </trkpt>
      <trkpt lat="48.40426" lon="2.66131">
        <ele>87.14</ele>
        <time>2012-03-04T07:43:28Z</time>
      </trkpt>
      <trkpt lat="48.40459" lon="2.66123">
        <ele>87.62</ele>
        <time>2012-03-04T07:43:38Z</time>
      </trkpt>
      <trkpt lat="48.40487" lon="2.66112">
        <ele>89.06</ele>
        <time>2012-03-04T07:43:47Z</time>
      </trkpt>
      <trkpt lat="48.40524" lon="2.66102">
        <ele>90.02</ele>
        <time>2012-03-04T07:43:58Z</time>
      </trkpt>
      <trkpt lat="48.40541" lon="2.66091">
        <ele>90.98</ele>
        <time>2012-03-04T07:44:04Z</time>
      </trkpt>
      <trkpt lat="48.40542" lon="2.66087">
        <ele>90.5</ele>
        <time>2012-03-04T07:44:05Z</time>
      </trkpt>
      <trkpt lat="48.40553" lon="2.66033">
        <ele>91.46</ele>
        <time>2012-03-04T07:44:16Z</time>
      </trkpt>
      <trkpt lat="48.40566" lon="2.65968">
        <ele>91.94</ele>
        <time>2012-03-04T07:44:28Z</time>
      </trkpt>
      <trkpt lat="48.40565" lon="2.65907">
        <ele>91.94</ele>
        <time>2012-03-04T07:44:40Z</time>
      </trkpt>
      <trkpt lat="48.40549" lon="2.65885">
        <ele>91.94</ele>
        <time>2012-03-04T07:44:48Z</time>
      </trkpt>
      <trkpt lat="48.40548" lon="2.65882">
        <ele>91.94</ele>
        <time>2012-03-04T07:44:49Z</time>
      </trkpt>
      <trkpt lat="48.40547" lon="2.6588">
        <ele>92.42</ele>
        <time>2012-03-04T07:44:50Z</time>
      </trkpt>
      <trkpt lat="48.40544" lon="2.65879">
        <ele>92.42</ele>
        <time>2012-03-04T07:44:51Z</time>
      </trkpt>
      <trkpt lat="48.40528" lon="2.65862">
        <ele>92.9</ele>
        <time>2012-03-04T07:44:58Z</time>
      </trkpt>
      <trkpt lat="48.40521" lon="2.65848">
        <ele>92.9</ele>
        <time>2012-03-04T07:45:02Z</time>
      </trkpt>
      <trkpt lat="48.40513" lon="2.6584">
        <ele>93.39</ele>
        <time>2012-03-04T07:45:07Z</time>
      </trkpt>
      <trkpt lat="48.40508" lon="2.65839">
        <ele>92.9</ele>
        <time>2012-03-04T07:45:09Z</time>
      </trkpt>
      <trkpt lat="48.40493" lon="2.65845">
        <ele>93.39</ele>
        <time>2012-03-04T07:45:15Z</time>
      </trkpt>
      <trkpt lat="48.40489" lon="2.65845">
        <ele>92.9</ele>
        <time>2012-03-04T07:45:16Z</time>
      </trkpt>
      <trkpt lat="48.40485" lon="2.65845">
        <ele>92.9</ele>
        <time>2012-03-04T07:45:17Z</time>
      </trkpt>
      <trkpt lat="48.40482" lon="2.65843">
        <ele>93.39</ele>
        <time>2012-03-04T07:45:18Z</time>
      </trkpt>
      <trkpt lat="48.4048" lon="2.65841">
        <ele>93.39</ele>
        <time>2012-03-04T07:45:19Z</time>
      </trkpt>
      <trkpt lat="48.40479" lon="2.65838">
        <ele>93.87</ele>
        <time>2012-03-04T07:45:20Z</time>
      </trkpt>
      <trkpt lat="48.40482" lon="2.65829">
        <ele>93.87</ele>
        <time>2012-03-04T07:45:23Z</time>
      </trkpt>
      <trkpt lat="48.40489" lon="2.65815">
        <ele>94.35</ele>
        <time>2012-03-04T07:45:33Z</time>
      </trkpt>
      <trkpt lat="48.40489" lon="2.6581">
        <ele>93.87</ele>
        <time>2012-03-04T07:45:36Z</time>
      </trkpt>
      <trkpt lat="48.40491" lon="2.65781">
        <ele>91.94</ele>
        <time>2012-03-04T07:45:44Z</time>
      </trkpt>
      <trkpt lat="48.40493" lon="2.65775">
        <ele>91.46</ele>
        <time>2012-03-04T07:45:45Z</time>
      </trkpt>
      <trkpt lat="48.40495" lon="2.6577">
        <ele>91.94</ele>
        <time>2012-03-04T07:45:46Z</time>
      </trkpt>
      <trkpt lat="48.40495" lon="2.65764">
        <ele>91.94</ele>
        <time>2012-03-04T07:45:47Z</time>
      </trkpt>
      <trkpt lat="48.40494" lon="2.65758">
        <ele>91.46</ele>
        <time>2012-03-04T07:45:48Z</time>
      </trkpt>
      <trkpt lat="48.40495" lon="2.6575">
        <ele>91.94</ele>
        <time>2012-03-04T07:45:49Z</time>
      </trkpt>
      <trkpt lat="48.40496" lon="2.65744">
        <ele>92.9</ele>
        <time>2012-03-04T07:45:50Z</time>
      </trkpt>
      <trkpt lat="48.40496" lon="2.65738">
        <ele>93.87</ele>
        <time>2012-03-04T07:45:51Z</time>
      </trkpt>
      <trkpt lat="48.40497" lon="2.65732">
        <ele>93.87</ele>
        <time>2012-03-04T07:45:52Z</time>
      </trkpt>
      <trkpt lat="48.40496" lon="2.65728">
        <ele>94.35</ele>
        <time>2012-03-04T07:45:53Z</time>
      </trkpt>
      <trkpt lat="48.40496" lon="2.65726">
        <ele>95.31</ele>
        <time>2012-03-04T07:45:54Z</time>
      </trkpt>
      <trkpt lat="48.40495" lon="2.65724">
        <ele>95.31</ele>
        <time>2012-03-04T07:45:55Z</time>
      </trkpt>
      <trkpt lat="48.40494" lon="2.65723">
        <ele>95.31</ele>
        <time>2012-03-04T07:45:56Z</time>
      </trkpt>
      <trkpt lat="48.40493" lon="2.65722">
        <ele>94.83</ele>
        <time>2012-03-04T07:45:57Z</time>
      </trkpt>
      <trkpt lat="48.40492" lon="2.65721">
        <ele>94.35</ele>
        <time>2012-03-04T07:45:58Z</time>
      </trkpt>
      <trkpt lat="48.40492" lon="2.65715">
        <ele>94.83</ele>
        <time>2012-03-04T07:46:09Z</time>
      </trkpt>
      <trkpt lat="48.40493" lon="2.65713">
        <ele>94.83</ele>
        <time>2012-03-04T07:46:15Z</time>
      </trkpt>
      <trkpt lat="48.40492" lon="2.65711">
        <ele>94.83</ele>
        <time>2012-03-04T07:46:16Z</time>
      </trkpt>
      <trkpt lat="48.40491" lon="2.65709">
        <ele>94.35</ele>
        <time>2012-03-04T07:46:17Z</time>
      </trkpt>
      <trkpt lat="48.4049" lon="2.65706">
        <ele>93.87</ele>
        <time>2012-03-04T07:46:18Z</time>
      </trkpt>
      <trkpt lat="48.4049" lon="2.65701">
        <ele>92.42</ele>
        <time>2012-03-04T07:46:19Z</time>
      </trkpt>
      <trkpt lat="48.40489" lon="2.65696">
        <ele>92.42</ele>
        <time>2012-03-04T07:46:20Z</time>
      </trkpt>
      <trkpt lat="48.4049" lon="2.65692">
        <ele>91.94</ele>
        <time>2012-03-04T07:46:21Z</time>
      </trkpt>
      <trkpt lat="48.40492" lon="2.6569">
        <ele>91.94</ele>
        <time>2012-03-04T07:46:22Z</time>
      </trkpt>
      <trkpt lat="48.40493" lon="2.65689">
        <ele>92.42</ele>
        <time>2012-03-04T07:46:23Z</time>
      </trkpt>
      <trkpt lat="48.40495" lon="2.65688">
        <ele>92.42</ele>
        <time>2012-03-04T07:46:24Z</time>
      </trkpt>
      <trkpt lat="48.40498" lon="2.65689">
        <ele>92.9</ele>
        <time>2012-03-04T07:46:25Z</time>
      </trkpt>
      <trkpt lat="48.40517" lon="2.65694">
        <ele>95.31</ele>
        <time>2012-03-04T07:46:35Z</time>
      </trkpt>
      <trkpt lat="48.4052" lon="2.65694">
        <ele>95.31</ele>
        <time>2012-03-04T07:46:49Z</time>
      </trkpt>
      <trkpt lat="48.40523" lon="2.65693">
        <ele>95.79</ele>
        <time>2012-03-04T07:47:00Z</time>
      </trkpt>
      <trkpt lat="48.40539" lon="2.65695">
        <ele>97.23</ele>
        <time>2012-03-04T07:47:10Z</time>
      </trkpt>
      <trkpt lat="48.40541" lon="2.65695">
        <ele>97.23</ele>
        <time>2012-03-04T07:47:11Z</time>
      </trkpt>
      <trkpt lat="48.40546" lon="2.65696">
        <ele>97.71</ele>
        <time>2012-03-04T07:47:27Z</time>
      </trkpt>
      <trkpt lat="48.40551" lon="2.65696">
        <ele>97.23</ele>
        <time>2012-03-04T07:47:29Z</time>
      </trkpt>
      <trkpt lat="48.4059" lon="2.65699">
        <ele>95.79</ele>
        <time>2012-03-04T07:47:39Z</time>
      </trkpt>
      <trkpt lat="48.40616" lon="2.65701">
        <ele>96.75</ele>
        <time>2012-03-04T07:47:46Z</time>
      </trkpt>
      <trkpt lat="48.40618" lon="2.65698">
        <ele>96.75</ele>
        <time>2012-03-04T07:47:47Z</time>
      </trkpt>
      <trkpt lat="48.4062" lon="2.65695">
        <ele>97.23</ele>
        <time>2012-03-04T07:47:48Z</time>
      </trkpt>
      <trkpt lat="48.40621" lon="2.65692">
        <ele>97.23</ele>
        <time>2012-03-04T07:47:49Z</time>
      </trkpt>
      <trkpt lat="48.40622" lon="2.65689">
        <ele>97.23</ele>
        <time>2012-03-04T07:47:50Z</time>
      </trkpt>
      <trkpt lat="48.40623" lon="2.65686">
        <ele>97.71</ele>
        <time>2012-03-04T07:47:51Z</time>
      </trkpt>
      <trkpt lat="48.40641" lon="2.65642">
        <ele>100.11</ele>
        <time>2012-03-04T07:48:04Z</time>
      </trkpt>
      <trkpt lat="48.40642" lon="2.65639">
        <ele>100.6</ele>
        <time>2012-03-04T07:48:05Z</time>
      </trkpt>
      <trkpt lat="48.40642" lon="2.65636">
        <ele>100.6</ele>
        <time>2012-03-04T07:48:06Z</time>
      </trkpt>
      <trkpt lat="48.40652" lon="2.65598">
        <ele>103.48</ele>
        <time>2012-03-04T07:48:17Z</time>
      </trkpt>
      <trkpt lat="48.40653" lon="2.65596">
        <ele>103.96</ele>
        <time>2012-03-04T07:48:18Z</time>
      </trkpt>
      <trkpt lat="48.40653" lon="2.65594">
        <ele>103.96</ele>
        <time>2012-03-04T07:48:19Z</time>
      </trkpt>
      <trkpt lat="48.40654" lon="2.65591">
        <ele>103.96</ele>
        <time>2012-03-04T07:48:20Z</time>
      </trkpt>
      <trkpt lat="48.40655" lon="2.65588">
        <ele>104.44</ele>
        <time>2012-03-04T07:48:21Z</time>
      </trkpt>
      <trkpt lat="48.40658" lon="2.65557">
        <ele>107.32</ele>
        <time>2012-03-04T07:48:30Z</time>
      </trkpt>
      <trkpt lat="48.40665" lon="2.65516">
        <ele>109.73</ele>
        <time>2012-03-04T07:48:41Z</time>
      </trkpt>
      <trkpt lat="48.40664" lon="2.65512">
        <ele>109.73</ele>
        <time>2012-03-04T07:48:42Z</time>
      </trkpt>
      <trkpt lat="48.40663" lon="2.65508">
        <ele>109.73</ele>
        <time>2012-03-04T07:48:43Z</time>
      </trkpt>
      <trkpt lat="48.40662" lon="2.65504">
        <ele>109.25</ele>
        <time>2012-03-04T07:48:44Z</time>
      </trkpt>
      <trkpt lat="48.40661" lon="2.655">
        <ele>109.25</ele>
        <time>2012-03-04T07:48:45Z</time>
      </trkpt>
      <trkpt lat="48.4065" lon="2.65436">
        <ele>107.81</ele>
        <time>2012-03-04T07:48:57Z</time>
      </trkpt>
      <trkpt lat="48.40649" lon="2.65424">
        <ele>107.32</ele>
        <time>2012-03-04T07:48:59Z</time>
      </trkpt>
      <trkpt lat="48.40648" lon="2.65417">
        <ele>106.84</ele>
        <time>2012-03-04T07:49:00Z</time>
      </trkpt>
      <trkpt lat="48.40648" lon="2.65411">
        <ele>106.84</ele>
        <time>2012-03-04T07:49:01Z</time>
      </trkpt>
      <trkpt lat="48.40646" lon="2.65374">
        <ele>105.88</ele>
        <time>2012-03-04T07:49:06Z</time>
      </trkpt>
      <trkpt lat="48.40644" lon="2.65368">
        <ele>105.4</ele>
        <time>2012-03-04T07:49:07Z</time>
      </trkpt>
      <trkpt lat="48.40642" lon="2.65362">
        <ele>104.92</ele>
        <time>2012-03-04T07:49:08Z</time>
      </trkpt>
      <trkpt lat="48.40639" lon="2.65358">
        <ele>104.92</ele>
        <time>2012-03-04T07:49:09Z</time>
      </trkpt>
      <trkpt lat="48.40636" lon="2.65354">
        <ele>105.88</ele>
        <time>2012-03-04T07:49:10Z</time>
      </trkpt>
      <trkpt lat="48.40634" lon="2.6535">
        <ele>105.88</ele>
        <time>2012-03-04T07:49:11Z</time>
      </trkpt>
      <trkpt lat="48.40607" lon="2.65322">
        <ele>106.36</ele>
        <time>2012-03-04T07:49:23Z</time>
      </trkpt>
      <trkpt lat="48.40598" lon="2.65312">
        <ele>107.81</ele>
        <time>2012-03-04T07:49:28Z</time>
      </trkpt>
      <trkpt lat="48.40595" lon="2.65306">
        <ele>108.77</ele>
        <time>2012-03-04T07:49:31Z</time>
      </trkpt>
      <trkpt lat="48.40593" lon="2.65305">
        <ele>109.25</ele>
        <time>2012-03-04T07:49:32Z</time>
      </trkpt>
      <trkpt lat="48.40591" lon="2.65304">
        <ele>109.25</ele>
        <time>2012-03-04T07:49:33Z</time>
      </trkpt>
      <trkpt lat="48.40589" lon="2.65302">
        <ele>109.73</ele>
        <time>2012-03-04T07:49:34Z</time>
      </trkpt>
      <trkpt lat="48.40588" lon="2.653">
        <ele>110.21</ele>
        <time>2012-03-04T07:49:35Z</time>
      </trkpt>
      <trkpt lat="48.40586" lon="2.65299">
        <ele>110.69</ele>
        <time>2012-03-04T07:49:36Z</time>
      </trkpt>
      <trkpt lat="48.40584" lon="2.65299">
        <ele>111.17</ele>
        <time>2012-03-04T07:49:37Z</time>
      </trkpt>
      <trkpt lat="48.40583" lon="2.65299">
        <ele>111.65</ele>
        <time>2012-03-04T07:49:38Z</time>
      </trkpt>
      <trkpt lat="48.4058" lon="2.65294">
        <ele>112.61</ele>
        <time>2012-03-04T07:49:42Z</time>
      </trkpt>
      <trkpt lat="48.40579" lon="2.65293">
        <ele>113.09</ele>
        <time>2012-03-04T07:49:43Z</time>
      </trkpt>
      <trkpt lat="48.40578" lon="2.65291">
        <ele>113.09</ele>
        <time>2012-03-04T07:49:44Z</time>
      </trkpt>
      <trkpt lat="48.40577" lon="2.65289">
        <ele>113.57</ele>
        <time>2012-03-04T07:49:45Z</time>
      </trkpt>
      <trkpt lat="48.40577" lon="2.65286">
        <ele>113.57</ele>
        <time>2012-03-04T07:49:46Z</time>
      </trkpt>
      <trkpt lat="48.40576" lon="2.65283">
        <ele>115.5</ele>
        <time>2012-03-04T07:49:48Z</time>
      </trkpt>
      <trkpt lat="48.40575" lon="2.65282">
        <ele>115.5</ele>
        <time>2012-03-04T07:49:49Z</time>
      </trkpt>
      <trkpt lat="48.40574" lon="2.6528">
        <ele>115.98</ele>
        <time>2012-03-04T07:49:50Z</time>
      </trkpt>
      <trkpt lat="48.40572" lon="2.65279">
        <ele>116.94</ele>
        <time>2012-03-04T07:49:51Z</time>
      </trkpt>
      <trkpt lat="48.4057" lon="2.65274">
        <ele>117.9</ele>
        <time>2012-03-04T07:49:54Z</time>
      </trkpt>
      <trkpt lat="48.40568" lon="2.6526">
        <ele>118.86</ele>
        <time>2012-03-04T07:49:59Z</time>
      </trkpt>
      <trkpt lat="48.40567" lon="2.65258">
        <ele>118.38</ele>
        <time>2012-03-04T07:50:00Z</time>
      </trkpt>
      <trkpt lat="48.40566" lon="2.65256">
        <ele>118.38</ele>
        <time>2012-03-04T07:50:01Z</time>
      </trkpt>
      <trkpt lat="48.40564" lon="2.65253">
        <ele>118.38</ele>
        <time>2012-03-04T07:50:02Z</time>
      </trkpt>
      <trkpt lat="48.40563" lon="2.65251">
        <ele>117.9</ele>
        <time>2012-03-04T07:50:03Z</time>
      </trkpt>
      <trkpt lat="48.40562" lon="2.65249">
        <ele>118.38</ele>
        <time>2012-03-04T07:50:04Z</time>
      </trkpt>
      <trkpt lat="48.4056" lon="2.65248">
        <ele>118.38</ele>
        <time>2012-03-04T07:50:05Z</time>
      </trkpt>
      <trkpt lat="48.4056" lon="2.65246">
        <ele>117.9</ele>
        <time>2012-03-04T07:50:06Z</time>
      </trkpt>
      <trkpt lat="48.4056" lon="2.65242">
        <ele>117.42</ele>
        <time>2012-03-04T07:50:07Z</time>
      </trkpt>
      <trkpt lat="48.4056" lon="2.6524">
        <ele>116.94</ele>
        <time>2012-03-04T07:50:08Z</time>
      </trkpt>
      <trkpt lat="48.40559" lon="2.65237">
        <ele>116.94</ele>
        <time>2012-03-04T07:50:09Z</time>
      </trkpt>
      <trkpt lat="48.40558" lon="2.65234">
        <ele>116.94</ele>
        <time>2012-03-04T07:50:10Z</time>
      </trkpt>
      <trkpt lat="48.40561" lon="2.65213">
        <ele>113.57</ele>
        <time>2012-03-04T07:50:16Z</time>
      </trkpt>
      <trkpt lat="48.40557" lon="2.65209">
        <ele>113.09</ele>
        <time>2012-03-04T07:50:17Z</time>
      </trkpt>
      <trkpt lat="48.40555" lon="2.65205">
        <ele>112.61</ele>
        <time>2012-03-04T07:50:18Z</time>
      </trkpt>
      <trkpt lat="48.40554" lon="2.65201">
        <ele>113.09</ele>
        <time>2012-03-04T07:50:19Z</time>
      </trkpt>
      <trkpt lat="48.40552" lon="2.65196">
        <ele>112.13</ele>
        <time>2012-03-04T07:50:20Z</time>
      </trkpt>
      <trkpt lat="48.40546" lon="2.65175">
        <ele>109.25</ele>
        <time>2012-03-04T07:50:27Z</time>
      </trkpt>
      <trkpt lat="48.40542" lon="2.65159">
        <ele>106.36</ele>
        <time>2012-03-04T07:50:31Z</time>
      </trkpt>
      <trkpt lat="48.40537" lon="2.6515">
        <ele>104.92</ele>
        <time>2012-03-04T07:50:34Z</time>
      </trkpt>
      <trkpt lat="48.40536" lon="2.65147">
        <ele>104.44</ele>
        <time>2012-03-04T07:50:35Z</time>
      </trkpt>
      <trkpt lat="48.40537" lon="2.65143">
        <ele>104.44</ele>
        <time>2012-03-04T07:50:36Z</time>
      </trkpt>
      <trkpt lat="48.40539" lon="2.65138">
        <ele>104.44</ele>
        <time>2012-03-04T07:50:37Z</time>
      </trkpt>
      <trkpt lat="48.40541" lon="2.65133">
        <ele>104.44</ele>
        <time>2012-03-04T07:50:38Z</time>
      </trkpt>
      <trkpt lat="48.40542" lon="2.65129">
        <ele>105.4</ele>
        <time>2012-03-04T07:50:39Z</time>
      </trkpt>
      <trkpt lat="48.40544" lon="2.65124">
        <ele>105.4</ele>
        <time>2012-03-04T07:50:40Z</time>
      </trkpt>
      <trkpt lat="48.40548" lon="2.65099">
        <ele>105.88</ele>
        <time>2012-03-04T07:50:47Z</time>
      </trkpt>
      <trkpt lat="48.40545" lon="2.65072">
        <ele>104.44</ele>
        <time>2012-03-04T07:50:52Z</time>
      </trkpt>
      <trkpt lat="48.40541" lon="2.65051">
        <ele>104.44</ele>
        <time>2012-03-04T07:50:59Z</time>
      </trkpt>
      <trkpt lat="48.40543" lon="2.65038">
        <ele>105.88</ele>
        <time>2012-03-04T07:51:03Z</time>
      </trkpt>
      <trkpt lat="48.40546" lon="2.65014">
        <ele>102.52</ele>
        <time>2012-03-04T07:51:08Z</time>
      </trkpt>
      <trkpt lat="48.40545" lon="2.65004">
        <ele>99.63</ele>
        <time>2012-03-04T07:51:10Z</time>
      </trkpt>
      <trkpt lat="48.40546" lon="2.64995">
        <ele>96.27</ele>
        <time>2012-03-04T07:51:12Z</time>
      </trkpt>
      <trkpt lat="48.40546" lon="2.6496">
        <ele>97.23</ele>
        <time>2012-03-04T07:51:17Z</time>
      </trkpt>
      <trkpt lat="48.40545" lon="2.64959">
        <ele>97.23</ele>
        <time>2012-03-04T07:51:30Z</time>
      </trkpt>
      <trkpt lat="48.40545" lon="2.64958">
        <ele>97.23</ele>
        <time>2012-03-04T07:51:59Z</time>
      </trkpt>
      <trkpt lat="48.40542" lon="2.64959">
        <ele>97.71</ele>
        <time>2012-03-04T07:52:12Z</time>
      </trkpt>
      <trkpt lat="48.40541" lon="2.64959">
        <ele>97.23</ele>
        <time>2012-03-04T07:52:13Z</time>
      </trkpt>
      <trkpt lat="48.40539" lon="2.6496">
        <ele>97.23</ele>
        <time>2012-03-04T07:52:14Z</time>
      </trkpt>
      <trkpt lat="48.40521" lon="2.64972">
        <ele>96.27</ele>
        <time>2012-03-04T07:52:27Z</time>
      </trkpt>
      <trkpt lat="48.40516" lon="2.64972">
        <ele>95.79</ele>
        <time>2012-03-04T07:52:32Z</time>
      </trkpt>
      <trkpt lat="48.40494" lon="2.64954">
        <ele>95.79</ele>
        <time>2012-03-04T07:52:43Z</time>
      </trkpt>
      <trkpt lat="48.40481" lon="2.6494">
        <ele>99.15</ele>
        <time>2012-03-04T07:52:49Z</time>
      </trkpt>
      <trkpt lat="48.4048" lon="2.64938">
        <ele>99.15</ele>
        <time>2012-03-04T07:52:50Z</time>
      </trkpt>
      <trkpt lat="48.40475" lon="2.64933">
        <ele>100.11</ele>
        <time>2012-03-04T07:52:53Z</time>
      </trkpt>
      <trkpt lat="48.40473" lon="2.64931">
        <ele>100.6</ele>
        <time>2012-03-04T07:52:54Z</time>
      </trkpt>
      <trkpt lat="48.4047" lon="2.64929">
        <ele>101.08</ele>
        <time>2012-03-04T07:52:55Z</time>
      </trkpt>
      <trkpt lat="48.40468" lon="2.64928">
        <ele>101.56</ele>
        <time>2012-03-04T07:52:56Z</time>
      </trkpt>
      <trkpt lat="48.40466" lon="2.64926">
        <ele>102.04</ele>
        <time>2012-03-04T07:52:57Z</time>
      </trkpt>
      <trkpt lat="48.40464" lon="2.64925">
        <ele>102.04</ele>
        <time>2012-03-04T07:52:58Z</time>
      </trkpt>
      <trkpt lat="48.40462" lon="2.64924">
        <ele>103</ele>
        <time>2012-03-04T07:52:59Z</time>
      </trkpt>
      <trkpt lat="48.4046" lon="2.64924">
        <ele>103</ele>
        <time>2012-03-04T07:53:00Z</time>
      </trkpt>
      <trkpt lat="48.40458" lon="2.64923">
        <ele>103.48</ele>
        <time>2012-03-04T07:53:01Z</time>
      </trkpt>
      <trkpt lat="48.40456" lon="2.64923">
        <ele>104.44</ele>
        <time>2012-03-04T07:53:02Z</time>
      </trkpt>
      <trkpt lat="48.40455" lon="2.64922">
        <ele>104.44</ele>
        <time>2012-03-04T07:53:03Z</time>
      </trkpt>
      <trkpt lat="48.40453" lon="2.64922">
        <ele>104.44</ele>
        <time>2012-03-04T07:53:04Z</time>
      </trkpt>
      <trkpt lat="48.40452" lon="2.6492">
        <ele>105.4</ele>
        <time>2012-03-04T07:53:05Z</time>
      </trkpt>
      <trkpt lat="48.4045" lon="2.64918">
        <ele>105.88</ele>
        <time>2012-03-04T07:53:06Z</time>
      </trkpt>
      <trkpt lat="48.40448" lon="2.64915">
        <ele>106.84</ele>
        <time>2012-03-04T07:53:08Z</time>
      </trkpt>
      <trkpt lat="48.40447" lon="2.64913">
        <ele>107.32</ele>
        <time>2012-03-04T07:53:21Z</time>
      </trkpt>
      <trkpt lat="48.40446" lon="2.64912">
        <ele>108.29</ele>
        <time>2012-03-04T07:53:38Z</time>
      </trkpt>
      <trkpt lat="48.40442" lon="2.64909">
        <ele>109.73</ele>
        <time>2012-03-04T07:53:54Z</time>
      </trkpt>
      <trkpt lat="48.40437" lon="2.64905">
        <ele>110.69</ele>
        <time>2012-03-04T07:54:04Z</time>
      </trkpt>
      <trkpt lat="48.40436" lon="2.64905">
        <ele>110.69</ele>
        <time>2012-03-04T07:54:05Z</time>
      </trkpt>
      <trkpt lat="48.40435" lon="2.64904">
        <ele>110.69</ele>
        <time>2012-03-04T07:54:06Z</time>
      </trkpt>
      <trkpt lat="48.40433" lon="2.64904">
        <ele>110.69</ele>
        <time>2012-03-04T07:54:07Z</time>
      </trkpt>
      <trkpt lat="48.40432" lon="2.64904">
        <ele>110.69</ele>
        <time>2012-03-04T07:54:08Z</time>
      </trkpt>
      <trkpt lat="48.4043" lon="2.64903">
        <ele>111.17</ele>
        <time>2012-03-04T07:54:09Z</time>
      </trkpt>
      <trkpt lat="48.40414" lon="2.64894">
        <ele>113.09</ele>
        <time>2012-03-04T07:54:18Z</time>
      </trkpt>
      <trkpt lat="48.40412" lon="2.64894">
        <ele>113.09</ele>
        <time>2012-03-04T07:54:19Z</time>
      </trkpt>
      <trkpt lat="48.40399" lon="2.64886">
        <ele>114.53</ele>
        <time>2012-03-04T07:54:28Z</time>
      </trkpt>
      <trkpt lat="48.40397" lon="2.64885">
        <ele>115.01</ele>
        <time>2012-03-04T07:54:29Z</time>
      </trkpt>
      <trkpt lat="48.40394" lon="2.64881">
        <ele>114.05</ele>
        <time>2012-03-04T07:54:33Z</time>
      </trkpt>
      <trkpt lat="48.404" lon="2.64874">
        <ele>115.98</ele>
        <time>2012-03-04T07:54:39Z</time>
      </trkpt>
      <trkpt lat="48.40403" lon="2.64872">
        <ele>116.46</ele>
        <time>2012-03-04T07:54:41Z</time>
      </trkpt>
      <trkpt lat="48.40424" lon="2.64869">
        <ele>117.9</ele>
        <time>2012-03-04T07:54:52Z</time>
      </trkpt>
      <trkpt lat="48.40426" lon="2.64861">
        <ele>117.9</ele>
        <time>2012-03-04T07:54:55Z</time>
      </trkpt>
      <trkpt lat="48.40413" lon="2.64826">
        <ele>120.3</ele>
        <time>2012-03-04T07:55:08Z</time>
      </trkpt>
      <trkpt lat="48.40397" lon="2.64803">
        <ele>120.3</ele>
        <time>2012-03-04T07:55:19Z</time>
      </trkpt>
      <trkpt lat="48.40399" lon="2.64778">
        <ele>121.74</ele>
        <time>2012-03-04T07:55:28Z</time>
      </trkpt>
      <trkpt lat="48.40411" lon="2.64757">
        <ele>124.15</ele>
        <time>2012-03-04T07:55:37Z</time>
      </trkpt>
      <trkpt lat="48.40406" lon="2.64739">
        <ele>125.11</ele>
        <time>2012-03-04T07:55:49Z</time>
      </trkpt>
      <trkpt lat="48.404" lon="2.64745">
        <ele>126.55</ele>
        <time>2012-03-04T07:56:01Z</time>
      </trkpt>
      <trkpt lat="48.404" lon="2.64745">
        <ele>122.22</ele>
        <time>2012-03-04T07:56:03Z</time>
      </trkpt>
      <trkpt lat="48.404" lon="2.64745">
        <ele>126.55</ele>
        <time>2012-03-04T07:56:04Z</time>
      </trkpt>
      <trkpt lat="48.404" lon="2.64745">
        <ele>132.8</ele>
        <time>2012-03-04T07:56:05Z</time>
      </trkpt>
      <trkpt lat="48.404" lon="2.64745">
        <ele>127.03</ele>
        <time>2012-03-04T07:56:06Z</time>
      </trkpt>
      <trkpt lat="48.404" lon="2.64745">
        <ele>126.55</ele>
        <time>2012-03-04T07:56:35Z</time>
      </trkpt>
      <trkpt lat="48.404" lon="2.64745">
        <ele>126.55</ele>
        <time>2012-03-04T07:57:01Z</time>
      </trkpt>
      <trkpt lat="48.40395" lon="2.64744">
        <ele>126.55</ele>
        <time>2012-03-04T07:57:12Z</time>
      </trkpt>
      <trkpt lat="48.40393" lon="2.64741">
        <ele>126.55</ele>
        <time>2012-03-04T07:57:14Z</time>
      </trkpt>
      <trkpt lat="48.40391" lon="2.64732">
        <ele>127.03</ele>
        <time>2012-03-04T07:57:26Z</time>
      </trkpt>
      <trkpt lat="48.40391" lon="2.64731">
        <ele>127.03</ele>
        <time>2012-03-04T07:57:32Z</time>
      </trkpt>
      <trkpt lat="48.40389" lon="2.64725">
        <ele>126.55</ele>
        <time>2012-03-04T07:57:44Z</time>
      </trkpt>
      <trkpt lat="48.40389" lon="2.64725">
        <ele>127.03</ele>
        <time>2012-03-04T07:58:15Z</time>
      </trkpt>
      <trkpt lat="48.40389" lon="2.64712">
        <ele>126.55</ele>
        <time>2012-03-04T07:58:27Z</time>
      </trkpt>
      <trkpt lat="48.40392" lon="2.64709">
        <ele>126.07</ele>
        <time>2012-03-04T07:58:39Z</time>
      </trkpt>
      <trkpt lat="48.40393" lon="2.64702">
        <ele>125.59</ele>
        <time>2012-03-04T07:58:50Z</time>
      </trkpt>
      <trkpt lat="48.40395" lon="2.64702">
        <ele>126.07</ele>
        <time>2012-03-04T07:59:02Z</time>
      </trkpt>
      <trkpt lat="48.40395" lon="2.64701">
        <ele>125.11</ele>
        <time>2012-03-04T07:59:03Z</time>
      </trkpt>
      <trkpt lat="48.40401" lon="2.64682">
        <ele>122.22</ele>
        <time>2012-03-04T07:59:09Z</time>
      </trkpt>
      <trkpt lat="48.40405" lon="2.64683">
        <ele>123.19</ele>
        <time>2012-03-04T07:59:12Z</time>
      </trkpt>
      <trkpt lat="48.40407" lon="2.64689">
        <ele>124.15</ele>
        <time>2012-03-04T07:59:21Z</time>
      </trkpt>
      <trkpt lat="48.4041" lon="2.64694">
        <ele>124.15</ele>
        <time>2012-03-04T07:59:25Z</time>
      </trkpt>
      <trkpt lat="48.40427" lon="2.64711">
        <ele>121.74</ele>
        <time>2012-03-04T07:59:33Z</time>
      </trkpt>
      <trkpt lat="48.40431" lon="2.64716">
        <ele>120.3</ele>
        <time>2012-03-04T07:59:34Z</time>
      </trkpt>
      <trkpt lat="48.40442" lon="2.6473">
        <ele>116.94</ele>
        <time>2012-03-04T07:59:38Z</time>
      </trkpt>
      <trkpt lat="48.40445" lon="2.6473">
        <ele>116.94</ele>
        <time>2012-03-04T07:59:39Z</time>
      </trkpt>
      <trkpt lat="48.40448" lon="2.64731">
        <ele>115.5</ele>
        <time>2012-03-04T07:59:40Z</time>
      </trkpt>
      <trkpt lat="48.4045" lon="2.64733">
        <ele>114.53</ele>
        <time>2012-03-04T07:59:41Z</time>
      </trkpt>
      <trkpt lat="48.40452" lon="2.64734">
        <ele>113.57</ele>
        <time>2012-03-04T07:59:42Z</time>
      </trkpt>
      <trkpt lat="48.40455" lon="2.64735">
        <ele>112.61</ele>
        <time>2012-03-04T07:59:43Z</time>
      </trkpt>
      <trkpt lat="48.40457" lon="2.64735">
        <ele>112.13</ele>
        <time>2012-03-04T07:59:44Z</time>
      </trkpt>
      <trkpt lat="48.40461" lon="2.64735">
        <ele>111.65</ele>
        <time>2012-03-04T07:59:45Z</time>
      </trkpt>
      <trkpt lat="48.40467" lon="2.64734">
        <ele>109.25</ele>
        <time>2012-03-04T07:59:47Z</time>
      </trkpt>
      <trkpt lat="48.40474" lon="2.64733">
        <ele>108.29</ele>
        <time>2012-03-04T07:59:49Z</time>
      </trkpt>
      <trkpt lat="48.40502" lon="2.64747">
        <ele>105.88</ele>
        <time>2012-03-04T07:59:55Z</time>
      </trkpt>
      <trkpt lat="48.40519" lon="2.64764">
        <ele>106.36</ele>
        <time>2012-03-04T08:00:04Z</time>
      </trkpt>
      <trkpt lat="48.40521" lon="2.64765">
        <ele>106.36</ele>
        <time>2012-03-04T08:00:05Z</time>
      </trkpt>
      <trkpt lat="48.40525" lon="2.64766">
        <ele>105.88</ele>
        <time>2012-03-04T08:00:06Z</time>
      </trkpt>
      <trkpt lat="48.4057" lon="2.64782">
        <ele>103.96</ele>
        <time>2012-03-04T08:00:17Z</time>
      </trkpt>
      <trkpt lat="48.40596" lon="2.64799">
        <ele>107.32</ele>
        <time>2012-03-04T08:00:27Z</time>
      </trkpt>
      <trkpt lat="48.40621" lon="2.6481">
        <ele>109.73</ele>
        <time>2012-03-04T08:00:38Z</time>
      </trkpt>
      <trkpt lat="48.40623" lon="2.64807">
        <ele>109.73</ele>
        <time>2012-03-04T08:00:40Z</time>
      </trkpt>
      <trkpt lat="48.40624" lon="2.64806">
        <ele>110.21</ele>
        <time>2012-03-04T08:00:41Z</time>
      </trkpt>
      <trkpt lat="48.40627" lon="2.64801">
        <ele>112.61</ele>
        <time>2012-03-04T08:00:45Z</time>
      </trkpt>
      <trkpt lat="48.40628" lon="2.64799">
        <ele>112.61</ele>
        <time>2012-03-04T08:00:46Z</time>
      </trkpt>
      <trkpt lat="48.40629" lon="2.64796">
        <ele>112.61</ele>
        <time>2012-03-04T08:00:47Z</time>
      </trkpt>
      <trkpt lat="48.40629" lon="2.64793">
        <ele>113.09</ele>
        <time>2012-03-04T08:00:48Z</time>
      </trkpt>
      <trkpt lat="48.4063" lon="2.6479">
        <ele>113.09</ele>
        <time>2012-03-04T08:00:49Z</time>
      </trkpt>
      <trkpt lat="48.40632" lon="2.64788">
        <ele>114.05</ele>
        <time>2012-03-04T08:00:50Z</time>
      </trkpt>
      <trkpt lat="48.40634" lon="2.64786">
        <ele>114.05</ele>
        <time>2012-03-04T08:00:51Z</time>
      </trkpt>
      <trkpt lat="48.40644" lon="2.64774">
        <ele>115.01</ele>
        <time>2012-03-04T08:01:00Z</time>
      </trkpt>
      <trkpt lat="48.40645" lon="2.64772">
        <ele>115.01</ele>
        <time>2012-03-04T08:01:01Z</time>
      </trkpt>
      <trkpt lat="48.40645" lon="2.6477">
        <ele>115.5</ele>
        <time>2012-03-04T08:01:02Z</time>
      </trkpt>
      <trkpt lat="48.40647" lon="2.64767">
        <ele>116.46</ele>
        <time>2012-03-04T08:01:04Z</time>
      </trkpt>
      <trkpt lat="48.40646" lon="2.64764">
        <ele>116.46</ele>
        <time>2012-03-04T08:01:06Z</time>
      </trkpt>
      <trkpt lat="48.40645" lon="2.64761">
        <ele>116.46</ele>
        <time>2012-03-04T08:01:07Z</time>
      </trkpt>
      <trkpt lat="48.40645" lon="2.64758">
        <ele>116.46</ele>
        <time>2012-03-04T08:01:08Z</time>
      </trkpt>
      <trkpt lat="48.40645" lon="2.64755">
        <ele>116.94</ele>
        <time>2012-03-04T08:01:09Z</time>
      </trkpt>
      <trkpt lat="48.4065" lon="2.64747">
        <ele>117.9</ele>
        <time>2012-03-04T08:01:18Z</time>
      </trkpt>
      <trkpt lat="48.40656" lon="2.64739">
        <ele>120.78</ele>
        <time>2012-03-04T08:01:27Z</time>
      </trkpt>
      <trkpt lat="48.40658" lon="2.64737">
        <ele>121.74</ele>
        <time>2012-03-04T08:01:29Z</time>
      </trkpt>
      <trkpt lat="48.40663" lon="2.64729">
        <ele>122.71</ele>
        <time>2012-03-04T08:01:34Z</time>
      </trkpt>
      <trkpt lat="48.40664" lon="2.64727">
        <ele>123.19</ele>
        <time>2012-03-04T08:01:35Z</time>
      </trkpt>
      <trkpt lat="48.40664" lon="2.64724">
        <ele>123.19</ele>
        <time>2012-03-04T08:01:36Z</time>
      </trkpt>
      <trkpt lat="48.40663" lon="2.64721">
        <ele>123.19</ele>
        <time>2012-03-04T08:01:37Z</time>
      </trkpt>
      <trkpt lat="48.40663" lon="2.64718">
        <ele>123.19</ele>
        <time>2012-03-04T08:01:38Z</time>
      </trkpt>
      <trkpt lat="48.40661" lon="2.64693">
        <ele>126.07</ele>
        <time>2012-03-04T08:01:50Z</time>
      </trkpt>
      <trkpt lat="48.40661" lon="2.64691">
        <ele>126.07</ele>
        <time>2012-03-04T08:01:51Z</time>
      </trkpt>
      <trkpt lat="48.40662" lon="2.64689">
        <ele>126.55</ele>
        <time>2012-03-04T08:01:52Z</time>
      </trkpt>
      <trkpt lat="48.40663" lon="2.64686">
        <ele>127.03</ele>
        <time>2012-03-04T08:01:53Z</time>
      </trkpt>
      <trkpt lat="48.40663" lon="2.64684">
        <ele>127.51</ele>
        <time>2012-03-04T08:01:54Z</time>
      </trkpt>
      <trkpt lat="48.40664" lon="2.64681">
        <ele>127.99</ele>
        <time>2012-03-04T08:01:55Z</time>
      </trkpt>
      <trkpt lat="48.40665" lon="2.64679">
        <ele>128.47</ele>
        <time>2012-03-04T08:01:56Z</time>
      </trkpt>
      <trkpt lat="48.40668" lon="2.64674">
        <ele>129.43</ele>
        <time>2012-03-04T08:02:01Z</time>
      </trkpt>
      <trkpt lat="48.40671" lon="2.64672">
        <ele>128.47</ele>
        <time>2012-03-04T08:02:03Z</time>
      </trkpt>
      <trkpt lat="48.40675" lon="2.64663">
        <ele>128.47</ele>
        <time>2012-03-04T08:02:07Z</time>
      </trkpt>
      <trkpt lat="48.40674" lon="2.64661">
        <ele>128.95</ele>
        <time>2012-03-04T08:02:08Z</time>
      </trkpt>
      <trkpt lat="48.40676" lon="2.64629">
        <ele>128.47</ele>
        <time>2012-03-04T08:02:21Z</time>
      </trkpt>
      <trkpt lat="48.40676" lon="2.64624">
        <ele>128.95</ele>
        <time>2012-03-04T08:02:24Z</time>
      </trkpt>
      <trkpt lat="48.40677" lon="2.64622">
        <ele>128.47</ele>
        <time>2012-03-04T08:02:25Z</time>
      </trkpt>
      <trkpt lat="48.40678" lon="2.64619">
        <ele>127.99</ele>
        <time>2012-03-04T08:02:26Z</time>
      </trkpt>
      <trkpt lat="48.40679" lon="2.6461">
        <ele>128.95</ele>
        <time>2012-03-04T08:02:29Z</time>
      </trkpt>
      <trkpt lat="48.40676" lon="2.64602">
        <ele>131.36</ele>
        <time>2012-03-04T08:02:38Z</time>
      </trkpt>
      <trkpt lat="48.40675" lon="2.64601">
        <ele>131.36</ele>
        <time>2012-03-04T08:02:41Z</time>
      </trkpt>
      <trkpt lat="48.4067" lon="2.64594">
        <ele>132.32</ele>
        <time>2012-03-04T08:02:54Z</time>
      </trkpt>
      <trkpt lat="48.4067" lon="2.64594">
        <ele>132.32</ele>
        <time>2012-03-04T08:03:11Z</time>
      </trkpt>
      <trkpt lat="48.4067" lon="2.64594">
        <ele>132.8</ele>
        <time>2012-03-04T08:03:42Z</time>
      </trkpt>
      <trkpt lat="48.4067" lon="2.64594">
        <ele>132.8</ele>
        <time>2012-03-04T08:04:13Z</time>
      </trkpt>
      <trkpt lat="48.40671" lon="2.64594">
        <ele>132.8</ele>
        <time>2012-03-04T08:04:49Z</time>
      </trkpt>
      <trkpt lat="48.4067" lon="2.64592">
        <ele>132.8</ele>
        <time>2012-03-04T08:04:55Z</time>
      </trkpt>
      <trkpt lat="48.40669" lon="2.6459">
        <ele>132.8</ele>
        <time>2012-03-04T08:04:56Z</time>
      </trkpt>
      <trkpt lat="48.40667" lon="2.6456">
        <ele>133.76</ele>
        <time>2012-03-04T08:05:07Z</time>
      </trkpt>
      <trkpt lat="48.4066" lon="2.64526">
        <ele>133.28</ele>
        <time>2012-03-04T08:05:16Z</time>
      </trkpt>
      <trkpt lat="48.40652" lon="2.64491">
        <ele>133.28</ele>
        <time>2012-03-04T08:05:27Z</time>
      </trkpt>
      <trkpt lat="48.40652" lon="2.64488">
        <ele>132.8</ele>
        <time>2012-03-04T08:05:31Z</time>
      </trkpt>
      <trkpt lat="48.40652" lon="2.64484">
        <ele>132.32</ele>
        <time>2012-03-04T08:05:32Z</time>
      </trkpt>
      <trkpt lat="48.40653" lon="2.64478">
        <ele>131.84</ele>
        <time>2012-03-04T08:05:33Z</time>
      </trkpt>
      <trkpt lat="48.40653" lon="2.64473">
        <ele>131.84</ele>
        <time>2012-03-04T08:05:34Z</time>
      </trkpt>
      <trkpt lat="48.40654" lon="2.64469">
        <ele>131.84</ele>
        <time>2012-03-04T08:05:35Z</time>
      </trkpt>
      <trkpt lat="48.40654" lon="2.64465">
        <ele>132.32</ele>
        <time>2012-03-04T08:05:36Z</time>
      </trkpt>
      <trkpt lat="48.40656" lon="2.64461">
        <ele>131.84</ele>
        <time>2012-03-04T08:05:37Z</time>
      </trkpt>
      <trkpt lat="48.40663" lon="2.64429">
        <ele>133.28</ele>
        <time>2012-03-04T08:05:47Z</time>
      </trkpt>
      <trkpt lat="48.40669" lon="2.64412">
        <ele>131.36</ele>
        <time>2012-03-04T08:05:51Z</time>
      </trkpt>
      <trkpt lat="48.4067" lon="2.64409">
        <ele>132.32</ele>
        <time>2012-03-04T08:05:52Z</time>
      </trkpt>
      <trkpt lat="48.4067" lon="2.64405">
        <ele>132.8</ele>
        <time>2012-03-04T08:05:53Z</time>
      </trkpt>
      <trkpt lat="48.4067" lon="2.64402">
        <ele>132.32</ele>
        <time>2012-03-04T08:05:54Z</time>
      </trkpt>
      <trkpt lat="48.4067" lon="2.64398">
        <ele>132.8</ele>
        <time>2012-03-04T08:05:55Z</time>
      </trkpt>
      <trkpt lat="48.4067" lon="2.64393">
        <ele>132.8</ele>
        <time>2012-03-04T08:05:56Z</time>
      </trkpt>
      <trkpt lat="48.40672" lon="2.64388">
        <ele>132.32</ele>
        <time>2012-03-04T08:05:57Z</time>
      </trkpt>
      <trkpt lat="48.40673" lon="2.64382">
        <ele>132.32</ele>
        <time>2012-03-04T08:05:58Z</time>
      </trkpt>
      <trkpt lat="48.40679" lon="2.64341">
        <ele>131.36</ele>
        <time>2012-03-04T08:06:05Z</time>
      </trkpt>
      <trkpt lat="48.40678" lon="2.64334">
        <ele>131.36</ele>
        <time>2012-03-04T08:06:06Z</time>
      </trkpt>
      <trkpt lat="48.40663" lon="2.64294">
        <ele>132.8</ele>
        <time>2012-03-04T08:06:16Z</time>
      </trkpt>
      <trkpt lat="48.40658" lon="2.64264">
        <ele>132.8</ele>
        <time>2012-03-04T08:06:26Z</time>
      </trkpt>
      <trkpt lat="48.40658" lon="2.64249">
        <ele>131.36</ele>
        <time>2012-03-04T08:06:30Z</time>
      </trkpt>
      <trkpt lat="48.40657" lon="2.64246">
        <ele>131.36</ele>
        <time>2012-03-04T08:06:31Z</time>
      </trkpt>
      <trkpt lat="48.40654" lon="2.64244">
        <ele>130.88</ele>
        <time>2012-03-04T08:06:32Z</time>
      </trkpt>
      <trkpt lat="48.40632" lon="2.64234">
        <ele>130.88</ele>
        <time>2012-03-04T08:06:42Z</time>
      </trkpt>
      <trkpt lat="48.40629" lon="2.64234">
        <ele>130.88</ele>
        <time>2012-03-04T08:06:52Z</time>
      </trkpt>
      <trkpt lat="48.40626" lon="2.64234">
        <ele>130.88</ele>
        <time>2012-03-04T08:06:59Z</time>
      </trkpt>
      <trkpt lat="48.4062" lon="2.64232">
        <ele>131.84</ele>
        <time>2012-03-04T08:07:03Z</time>
      </trkpt>
      <trkpt lat="48.40617" lon="2.6423">
        <ele>131.84</ele>
        <time>2012-03-04T08:07:06Z</time>
      </trkpt>
      <trkpt lat="48.40615" lon="2.64229">
        <ele>131.36</ele>
        <time>2012-03-04T08:07:07Z</time>
      </trkpt>
      <trkpt lat="48.40613" lon="2.64227">
        <ele>131.84</ele>
        <time>2012-03-04T08:07:08Z</time>
      </trkpt>
      <trkpt lat="48.40611" lon="2.64227">
        <ele>131.84</ele>
        <time>2012-03-04T08:07:09Z</time>
      </trkpt>
      <trkpt lat="48.40608" lon="2.64227">
        <ele>131.84</ele>
        <time>2012-03-04T08:07:10Z</time>
      </trkpt>
      <trkpt lat="48.40598" lon="2.64227">
        <ele>130.88</ele>
        <time>2012-03-04T08:07:13Z</time>
      </trkpt>
      <trkpt lat="48.40594" lon="2.64227">
        <ele>130.88</ele>
        <time>2012-03-04T08:07:14Z</time>
      </trkpt>
      <trkpt lat="48.40588" lon="2.64228">
        <ele>131.36</ele>
        <time>2012-03-04T08:07:16Z</time>
      </trkpt>
      <trkpt lat="48.40585" lon="2.6423">
        <ele>131.84</ele>
        <time>2012-03-04T08:07:17Z</time>
      </trkpt>
      <trkpt lat="48.40558" lon="2.64266">
        <ele>131.84</ele>
        <time>2012-03-04T08:07:27Z</time>
      </trkpt>
      <trkpt lat="48.40553" lon="2.6427">
        <ele>131.84</ele>
        <time>2012-03-04T08:07:29Z</time>
      </trkpt>
      <trkpt lat="48.40551" lon="2.6427">
        <ele>131.84</ele>
        <time>2012-03-04T08:07:30Z</time>
      </trkpt>
      <trkpt lat="48.4055" lon="2.6427">
        <ele>132.32</ele>
        <time>2012-03-04T08:07:31Z</time>
      </trkpt>
      <trkpt lat="48.40548" lon="2.6427">
        <ele>131.84</ele>
        <time>2012-03-04T08:07:32Z</time>
      </trkpt>
      <trkpt lat="48.40546" lon="2.6427">
        <ele>131.36</ele>
        <time>2012-03-04T08:07:33Z</time>
      </trkpt>
      <trkpt lat="48.40544" lon="2.64272">
        <ele>130.88</ele>
        <time>2012-03-04T08:07:34Z</time>
      </trkpt>
      <trkpt lat="48.4054" lon="2.64273">
        <ele>131.36</ele>
        <time>2012-03-04T08:07:35Z</time>
      </trkpt>
      <trkpt lat="48.40528" lon="2.64283">
        <ele>132.32</ele>
        <time>2012-03-04T08:07:40Z</time>
      </trkpt>
      <trkpt lat="48.40527" lon="2.64286">
        <ele>131.84</ele>
        <time>2012-03-04T08:07:41Z</time>
      </trkpt>
      <trkpt lat="48.40526" lon="2.6429">
        <ele>130.88</ele>
        <time>2012-03-04T08:07:42Z</time>
      </trkpt>
      <trkpt lat="48.40525" lon="2.64296">
        <ele>130.88</ele>
        <time>2012-03-04T08:07:43Z</time>
      </trkpt>
      <trkpt lat="48.40524" lon="2.64302">
        <ele>130.88</ele>
        <time>2012-03-04T08:07:44Z</time>
      </trkpt>
      <trkpt lat="48.40524" lon="2.64306">
        <ele>130.88</ele>
        <time>2012-03-04T08:07:45Z</time>
      </trkpt>
      <trkpt lat="48.40524" lon="2.64311">
        <ele>130.88</ele>
        <time>2012-03-04T08:07:46Z</time>
      </trkpt>
      <trkpt lat="48.40524" lon="2.64314">
        <ele>131.36</ele>
        <time>2012-03-04T08:07:47Z</time>
      </trkpt>
      <trkpt lat="48.40525" lon="2.64317">
        <ele>131.84</ele>
        <time>2012-03-04T08:07:48Z</time>
      </trkpt>
      <trkpt lat="48.40525" lon="2.64319">
        <ele>131.84</ele>
        <time>2012-03-04T08:07:49Z</time>
      </trkpt>
      <trkpt lat="48.40526" lon="2.64324">
        <ele>131.36</ele>
        <time>2012-03-04T08:08:06Z</time>
      </trkpt>
      <trkpt lat="48.40524" lon="2.64327">
        <ele>131.36</ele>
        <time>2012-03-04T08:08:16Z</time>
      </trkpt>
      <trkpt lat="48.40519" lon="2.64331">
        <ele>129.92</ele>
        <time>2012-03-04T08:08:27Z</time>
      </trkpt>
      <trkpt lat="48.40518" lon="2.64332">
        <ele>129.43</ele>
        <time>2012-03-04T08:08:42Z</time>
      </trkpt>
      <trkpt lat="48.40515" lon="2.64334">
        <ele>128.47</ele>
        <time>2012-03-04T08:08:49Z</time>
      </trkpt>
      <trkpt lat="48.40513" lon="2.64335">
        <ele>127.99</ele>
        <time>2012-03-04T08:08:53Z</time>
      </trkpt>
      <trkpt lat="48.40511" lon="2.64335">
        <ele>127.51</ele>
        <time>2012-03-04T08:08:54Z</time>
      </trkpt>
      <trkpt lat="48.4051" lon="2.64336">
        <ele>127.03</ele>
        <time>2012-03-04T08:08:55Z</time>
      </trkpt>
      <trkpt lat="48.40508" lon="2.64337">
        <ele>127.03</ele>
        <time>2012-03-04T08:08:56Z</time>
      </trkpt>
      <trkpt lat="48.40506" lon="2.64338">
        <ele>126.07</ele>
        <time>2012-03-04T08:08:57Z</time>
      </trkpt>
      <trkpt lat="48.40502" lon="2.64339">
        <ele>125.11</ele>
        <time>2012-03-04T08:08:58Z</time>
      </trkpt>
      <trkpt lat="48.40499" lon="2.64341">
        <ele>124.63</ele>
        <time>2012-03-04T08:08:59Z</time>
      </trkpt>
      <trkpt lat="48.40497" lon="2.64344">
        <ele>124.15</ele>
        <time>2012-03-04T08:09:00Z</time>
      </trkpt>
      <trkpt lat="48.40492" lon="2.64352">
        <ele>123.19</ele>
        <time>2012-03-04T08:09:11Z</time>
      </trkpt>
      <trkpt lat="48.40491" lon="2.64354">
        <ele>123.19</ele>
        <time>2012-03-04T08:09:12Z</time>
      </trkpt>
      <trkpt lat="48.40489" lon="2.64357">
        <ele>123.19</ele>
        <time>2012-03-04T08:09:13Z</time>
      </trkpt>
      <trkpt lat="48.40476" lon="2.64374">
        <ele>123.67</ele>
        <time>2012-03-04T08:09:24Z</time>
      </trkpt>
      <trkpt lat="48.40457" lon="2.64405">
        <ele>124.63</ele>
        <time>2012-03-04T08:09:37Z</time>
      </trkpt>
      <trkpt lat="48.4043" lon="2.6443">
        <ele>127.51</ele>
        <time>2012-03-04T08:09:51Z</time>
      </trkpt>
      <trkpt lat="48.40416" lon="2.64432">
        <ele>128.95</ele>
        <time>2012-03-04T08:10:03Z</time>
      </trkpt>
      <trkpt lat="48.40415" lon="2.64431">
        <ele>128.95</ele>
        <time>2012-03-04T08:10:04Z</time>
      </trkpt>
      <trkpt lat="48.40413" lon="2.6443">
        <ele>128.95</ele>
        <time>2012-03-04T08:10:05Z</time>
      </trkpt>
      <trkpt lat="48.40412" lon="2.64428">
        <ele>128.95</ele>
        <time>2012-03-04T08:10:06Z</time>
      </trkpt>
      <trkpt lat="48.4041" lon="2.64428">
        <ele>128.95</ele>
        <time>2012-03-04T08:10:07Z</time>
      </trkpt>
      <trkpt lat="48.40409" lon="2.64428">
        <ele>129.43</ele>
        <time>2012-03-04T08:10:08Z</time>
      </trkpt>
      <trkpt lat="48.40408" lon="2.6443">
        <ele>129.43</ele>
        <time>2012-03-04T08:10:09Z</time>
      </trkpt>
      <trkpt lat="48.40404" lon="2.64437">
        <ele>130.4</ele>
        <time>2012-03-04T08:10:22Z</time>
      </trkpt>
      <trkpt lat="48.40402" lon="2.6443">
        <ele>131.36</ele>
        <time>2012-03-04T08:10:31Z</time>
      </trkpt>
      <trkpt lat="48.40407" lon="2.64415">
        <ele>131.84</ele>
        <time>2012-03-04T08:10:43Z</time>
      </trkpt>
      <trkpt lat="48.40409" lon="2.6441">
        <ele>132.32</ele>
        <time>2012-03-04T08:10:53Z</time>
      </trkpt>
      <trkpt lat="48.4041" lon="2.6441">
        <ele>131.84</ele>
        <time>2012-03-04T08:11:15Z</time>
      </trkpt>
      <trkpt lat="48.4041" lon="2.6441">
        <ele>131.84</ele>
        <time>2012-03-04T08:11:47Z</time>
      </trkpt>
      <trkpt lat="48.4041" lon="2.64411">
        <ele>131.84</ele>
        <time>2012-03-04T08:12:09Z</time>
      </trkpt>
      <trkpt lat="48.40411" lon="2.64409">
        <ele>131.84</ele>
        <time>2012-03-04T08:12:36Z</time>
      </trkpt>
      <trkpt lat="48.40415" lon="2.64394">
        <ele>131.36</ele>
        <time>2012-03-04T08:12:41Z</time>
      </trkpt>
      <trkpt lat="48.40412" lon="2.64353">
        <ele>131.36</ele>
        <time>2012-03-04T08:12:51Z</time>
      </trkpt>
      <trkpt lat="48.40412" lon="2.64342">
        <ele>131.36</ele>
        <time>2012-03-04T08:12:53Z</time>
      </trkpt>
      <trkpt lat="48.40417" lon="2.64285">
        <ele>130.88</ele>
        <time>2012-03-04T08:13:03Z</time>
      </trkpt>
      <trkpt lat="48.40424" lon="2.64262">
        <ele>131.84</ele>
        <time>2012-03-04T08:13:09Z</time>
      </trkpt>
      <trkpt lat="48.40422" lon="2.64221">
        <ele>128.95</ele>
        <time>2012-03-04T08:13:18Z</time>
      </trkpt>
      <trkpt lat="48.40426" lon="2.64205">
        <ele>129.92</ele>
        <time>2012-03-04T08:13:24Z</time>
      </trkpt>
      <trkpt lat="48.40437" lon="2.64198">
        <ele>127.51</ele>
        <time>2012-03-04T08:13:28Z</time>
      </trkpt>
      <trkpt lat="48.4044" lon="2.64195">
        <ele>127.03</ele>
        <time>2012-03-04T08:13:29Z</time>
      </trkpt>
      <trkpt lat="48.40448" lon="2.6419">
        <ele>127.51</ele>
        <time>2012-03-04T08:13:32Z</time>
      </trkpt>
      <trkpt lat="48.40466" lon="2.64135">
        <ele>128.95</ele>
        <time>2012-03-04T08:13:47Z</time>
      </trkpt>
      <trkpt lat="48.40469" lon="2.64089">
        <ele>129.92</ele>
        <time>2012-03-04T08:13:58Z</time>
      </trkpt>
      <trkpt lat="48.40453" lon="2.64045">
        <ele>130.4</ele>
        <time>2012-03-04T08:14:09Z</time>
      </trkpt>
      <trkpt lat="48.40448" lon="2.63982">
        <ele>130.4</ele>
        <time>2012-03-04T08:14:22Z</time>
      </trkpt>
      <trkpt lat="48.40461" lon="2.63915">
        <ele>129.43</ele>
        <time>2012-03-04T08:14:36Z</time>
      </trkpt>
      <trkpt lat="48.40464" lon="2.63906">
        <ele>129.43</ele>
        <time>2012-03-04T08:14:38Z</time>
      </trkpt>
      <trkpt lat="48.40474" lon="2.63902">
        <ele>129.43</ele>
        <time>2012-03-04T08:14:42Z</time>
      </trkpt>
      <trkpt lat="48.40505" lon="2.63919">
        <ele>128.47</ele>
        <time>2012-03-04T08:14:51Z</time>
      </trkpt>
      <trkpt lat="48.40508" lon="2.63923">
        <ele>128.47</ele>
        <time>2012-03-04T08:14:52Z</time>
      </trkpt>
      <trkpt lat="48.40511" lon="2.63928">
        <ele>127.99</ele>
        <time>2012-03-04T08:14:53Z</time>
      </trkpt>
      <trkpt lat="48.40532" lon="2.63961">
        <ele>127.99</ele>
        <time>2012-03-04T08:15:01Z</time>
      </trkpt>
      <trkpt lat="48.40574" lon="2.6399">
        <ele>127.51</ele>
        <time>2012-03-04T08:15:13Z</time>
      </trkpt>
      <trkpt lat="48.40615" lon="2.64032">
        <ele>127.51</ele>
        <time>2012-03-04T08:15:26Z</time>
      </trkpt>
      <trkpt lat="48.40648" lon="2.64068">
        <ele>128.95</ele>
        <time>2012-03-04T08:15:39Z</time>
      </trkpt>
      <trkpt lat="48.40675" lon="2.64095">
        <ele>131.84</ele>
        <time>2012-03-04T08:15:49Z</time>
      </trkpt>
      <trkpt lat="48.4069" lon="2.64101">
        <ele>131.36</ele>
        <time>2012-03-04T08:15:54Z</time>
      </trkpt>
      <trkpt lat="48.40693" lon="2.64098">
        <ele>131.36</ele>
        <time>2012-03-04T08:15:55Z</time>
      </trkpt>
      <trkpt lat="48.40695" lon="2.64095">
        <ele>131.36</ele>
        <time>2012-03-04T08:15:56Z</time>
      </trkpt>
      <trkpt lat="48.40696" lon="2.64092">
        <ele>131.36</ele>
        <time>2012-03-04T08:15:57Z</time>
      </trkpt>
      <trkpt lat="48.40696" lon="2.64089">
        <ele>131.36</ele>
        <time>2012-03-04T08:15:58Z</time>
      </trkpt>
      <trkpt lat="48.40697" lon="2.64086">
        <ele>131.36</ele>
        <time>2012-03-04T08:15:59Z</time>
      </trkpt>
      <trkpt lat="48.40697" lon="2.64083">
        <ele>131.36</ele>
        <time>2012-03-04T08:16:00Z</time>
      </trkpt>
      <trkpt lat="48.40698" lon="2.6408">
        <ele>131.36</ele>
        <time>2012-03-04T08:16:01Z</time>
      </trkpt>
      <trkpt lat="48.40698" lon="2.64078">
        <ele>131.36</ele>
        <time>2012-03-04T08:16:02Z</time>
      </trkpt>
      <trkpt lat="48.40699" lon="2.64075">
        <ele>131.36</ele>
        <time>2012-03-04T08:16:03Z</time>
      </trkpt>
      <trkpt lat="48.40703" lon="2.64069">
        <ele>131.84</ele>
        <time>2012-03-04T08:16:09Z</time>
      </trkpt>
      <trkpt lat="48.40704" lon="2.64068">
        <ele>131.84</ele>
        <time>2012-03-04T08:16:10Z</time>
      </trkpt>
      <trkpt lat="48.40707" lon="2.64067">
        <ele>131.84</ele>
        <time>2012-03-04T08:16:11Z</time>
      </trkpt>
      <trkpt lat="48.40709" lon="2.64065">
        <ele>131.84</ele>
        <time>2012-03-04T08:16:12Z</time>
      </trkpt>
      <trkpt lat="48.40711" lon="2.64063">
        <ele>131.36</ele>
        <time>2012-03-04T08:16:13Z</time>
      </trkpt>
      <trkpt lat="48.40713" lon="2.64061">
        <ele>131.36</ele>
        <time>2012-03-04T08:16:14Z</time>
      </trkpt>
      <trkpt lat="48.40714" lon="2.64058">
        <ele>131.84</ele>
        <time>2012-03-04T08:16:15Z</time>
      </trkpt>
      <trkpt lat="48.40727" lon="2.64042">
        <ele>132.32</ele>
        <time>2012-03-04T08:16:22Z</time>
      </trkpt>
      <trkpt lat="48.40729" lon="2.64041">
        <ele>132.32</ele>
        <time>2012-03-04T08:16:23Z</time>
      </trkpt>
      <trkpt lat="48.40733" lon="2.64039">
        <ele>132.32</ele>
        <time>2012-03-04T08:16:25Z</time>
      </trkpt>
      <trkpt lat="48.40736" lon="2.64035">
        <ele>132.8</ele>
        <time>2012-03-04T08:16:27Z</time>
      </trkpt>
      <trkpt lat="48.40738" lon="2.64035">
        <ele>132.32</ele>
        <time>2012-03-04T08:16:28Z</time>
      </trkpt>
      <trkpt lat="48.4074" lon="2.64034">
        <ele>132.32</ele>
        <time>2012-03-04T08:16:29Z</time>
      </trkpt>
      <trkpt lat="48.40757" lon="2.64016">
        <ele>131.84</ele>
        <time>2012-03-04T08:16:37Z</time>
      </trkpt>
      <trkpt lat="48.40759" lon="2.64013">
        <ele>131.84</ele>
        <time>2012-03-04T08:16:38Z</time>
      </trkpt>
      <trkpt lat="48.40761" lon="2.6401">
        <ele>132.32</ele>
        <time>2012-03-04T08:16:39Z</time>
      </trkpt>
      <trkpt lat="48.40776" lon="2.63991">
        <ele>132.8</ele>
        <time>2012-03-04T08:16:46Z</time>
      </trkpt>
      <trkpt lat="48.40777" lon="2.6399">
        <ele>132.8</ele>
        <time>2012-03-04T08:16:47Z</time>
      </trkpt>
      <trkpt lat="48.40778" lon="2.63989">
        <ele>132.32</ele>
        <time>2012-03-04T08:16:48Z</time>
      </trkpt>
      <trkpt lat="48.4078" lon="2.63988">
        <ele>132.32</ele>
        <time>2012-03-04T08:16:49Z</time>
      </trkpt>
      <trkpt lat="48.40782" lon="2.63986">
        <ele>132.32</ele>
        <time>2012-03-04T08:16:50Z</time>
      </trkpt>
      <trkpt lat="48.40784" lon="2.63983">
        <ele>132.32</ele>
        <time>2012-03-04T08:16:51Z</time>
      </trkpt>
      <trkpt lat="48.40786" lon="2.63979">
        <ele>132.32</ele>
        <time>2012-03-04T08:16:52Z</time>
      </trkpt>
      <trkpt lat="48.40788" lon="2.63976">
        <ele>131.84</ele>
        <time>2012-03-04T08:16:53Z</time>
      </trkpt>
      <trkpt lat="48.40791" lon="2.63974">
        <ele>131.36</ele>
        <time>2012-03-04T08:16:54Z</time>
      </trkpt>
      <trkpt lat="48.40823" lon="2.63937">
        <ele>130.88</ele>
        <time>2012-03-04T08:17:06Z</time>
      </trkpt>
      <trkpt lat="48.40837" lon="2.63919">
        <ele>131.36</ele>
        <time>2012-03-04T08:17:12Z</time>
      </trkpt>
      <trkpt lat="48.40839" lon="2.63918">
        <ele>131.36</ele>
        <time>2012-03-04T08:17:13Z</time>
      </trkpt>
      <trkpt lat="48.40871" lon="2.63924">
        <ele>131.84</ele>
        <time>2012-03-04T08:17:25Z</time>
      </trkpt>
      <trkpt lat="48.40878" lon="2.63895">
        <ele>131.36</ele>
        <time>2012-03-04T08:17:33Z</time>
      </trkpt>
      <trkpt lat="48.40873" lon="2.63838">
        <ele>131.84</ele>
        <time>2012-03-04T08:17:46Z</time>
      </trkpt>
      <trkpt lat="48.40859" lon="2.63791">
        <ele>131.84</ele>
        <time>2012-03-04T08:17:58Z</time>
      </trkpt>
      <trkpt lat="48.4084" lon="2.63792">
        <ele>131.36</ele>
        <time>2012-03-04T08:18:04Z</time>
      </trkpt>
      <trkpt lat="48.40837" lon="2.63789">
        <ele>131.84</ele>
        <time>2012-03-04T08:18:05Z</time>
      </trkpt>
      <trkpt lat="48.40835" lon="2.63786">
        <ele>131.84</ele>
        <time>2012-03-04T08:18:06Z</time>
      </trkpt>
      <trkpt lat="48.40825" lon="2.63773">
        <ele>134.72</ele>
        <time>2012-03-04T08:18:10Z</time>
      </trkpt>
      <trkpt lat="48.40821" lon="2.63766">
        <ele>131.36</ele>
        <time>2012-03-04T08:18:12Z</time>
      </trkpt>
      <trkpt lat="48.40818" lon="2.63762">
        <ele>130.88</ele>
        <time>2012-03-04T08:18:13Z</time>
      </trkpt>
      <trkpt lat="48.40795" lon="2.63758">
        <ele>131.36</ele>
        <time>2012-03-04T08:18:23Z</time>
      </trkpt>
      <trkpt lat="48.40786" lon="2.63765">
        <ele>129.92</ele>
        <time>2012-03-04T08:18:28Z</time>
      </trkpt>
      <trkpt lat="48.40782" lon="2.63763">
        <ele>128.95</ele>
        <time>2012-03-04T08:18:29Z</time>
      </trkpt>
      <trkpt lat="48.40778" lon="2.63761">
        <ele>127.51</ele>
        <time>2012-03-04T08:18:30Z</time>
      </trkpt>
      <trkpt lat="48.40773" lon="2.6376">
        <ele>127.51</ele>
        <time>2012-03-04T08:18:31Z</time>
      </trkpt>
      <trkpt lat="48.40769" lon="2.63759">
        <ele>127.03</ele>
        <time>2012-03-04T08:18:32Z</time>
      </trkpt>
      <trkpt lat="48.40764" lon="2.63757">
        <ele>127.03</ele>
        <time>2012-03-04T08:18:33Z</time>
      </trkpt>
      <trkpt lat="48.4076" lon="2.63753">
        <ele>126.55</ele>
        <time>2012-03-04T08:18:34Z</time>
      </trkpt>
      <trkpt lat="48.40756" lon="2.63749">
        <ele>126.55</ele>
        <time>2012-03-04T08:18:35Z</time>
      </trkpt>
      <trkpt lat="48.40753" lon="2.63744">
        <ele>126.55</ele>
        <time>2012-03-04T08:18:36Z</time>
      </trkpt>
      <trkpt lat="48.40741" lon="2.63722">
        <ele>127.51</ele>
        <time>2012-03-04T08:18:42Z</time>
      </trkpt>
      <trkpt lat="48.4074" lon="2.6372">
        <ele>127.99</ele>
        <time>2012-03-04T08:18:43Z</time>
      </trkpt>
      <trkpt lat="48.40738" lon="2.63719">
        <ele>127.99</ele>
        <time>2012-03-04T08:18:44Z</time>
      </trkpt>
      <trkpt lat="48.40736" lon="2.63718">
        <ele>128.47</ele>
        <time>2012-03-04T08:18:45Z</time>
      </trkpt>
      <trkpt lat="48.40735" lon="2.63717">
        <ele>128.95</ele>
        <time>2012-03-04T08:18:46Z</time>
      </trkpt>
      <trkpt lat="48.40734" lon="2.63715">
        <ele>129.43</ele>
        <time>2012-03-04T08:18:47Z</time>
      </trkpt>
      <trkpt lat="48.40733" lon="2.63713">
        <ele>129.43</ele>
        <time>2012-03-04T08:18:48Z</time>
      </trkpt>
      <trkpt lat="48.40733" lon="2.63711">
        <ele>128.95</ele>
        <time>2012-03-04T08:18:49Z</time>
      </trkpt>
      <trkpt lat="48.40733" lon="2.63708">
        <ele>129.43</ele>
        <time>2012-03-04T08:18:50Z</time>
      </trkpt>
      <trkpt lat="48.40732" lon="2.63706">
        <ele>129.43</ele>
        <time>2012-03-04T08:18:51Z</time>
      </trkpt>
      <trkpt lat="48.40731" lon="2.63694">
        <ele>128.95</ele>
        <time>2012-03-04T08:18:56Z</time>
      </trkpt>
      <trkpt lat="48.4073" lon="2.63692">
        <ele>128.95</ele>
        <time>2012-03-04T08:18:57Z</time>
      </trkpt>
      <trkpt lat="48.40727" lon="2.63685">
        <ele>128.95</ele>
        <time>2012-03-04T08:19:00Z</time>
      </trkpt>
      <trkpt lat="48.40726" lon="2.63683">
        <ele>128.95</ele>
        <time>2012-03-04T08:19:01Z</time>
      </trkpt>
      <trkpt lat="48.40725" lon="2.63681">
        <ele>128.95</ele>
        <time>2012-03-04T08:19:02Z</time>
      </trkpt>
      <trkpt lat="48.40724" lon="2.63677">
        <ele>128.95</ele>
        <time>2012-03-04T08:19:03Z</time>
      </trkpt>
      <trkpt lat="48.40723" lon="2.63674">
        <ele>128.95</ele>
        <time>2012-03-04T08:19:04Z</time>
      </trkpt>
      <trkpt lat="48.40721" lon="2.6367">
        <ele>127.99</ele>
        <time>2012-03-04T08:19:05Z</time>
      </trkpt>
      <trkpt lat="48.4072" lon="2.63667">
        <ele>127.99</ele>
        <time>2012-03-04T08:19:06Z</time>
      </trkpt>
      <trkpt lat="48.40718" lon="2.63663">
        <ele>127.99</ele>
        <time>2012-03-04T08:19:07Z</time>
      </trkpt>
      <trkpt lat="48.40717" lon="2.63659">
        <ele>127.99</ele>
        <time>2012-03-04T08:19:08Z</time>
      </trkpt>
      <trkpt lat="48.40715" lon="2.63655">
        <ele>128.47</ele>
        <time>2012-03-04T08:19:09Z</time>
      </trkpt>
      <trkpt lat="48.40713" lon="2.63653">
        <ele>129.43</ele>
        <time>2012-03-04T08:19:10Z</time>
      </trkpt>
      <trkpt lat="48.40711" lon="2.63651">
        <ele>129.92</ele>
        <time>2012-03-04T08:19:11Z</time>
      </trkpt>
      <trkpt lat="48.4071" lon="2.6365">
        <ele>129.92</ele>
        <time>2012-03-04T08:19:12Z</time>
      </trkpt>
      <trkpt lat="48.40708" lon="2.63649">
        <ele>129.92</ele>
        <time>2012-03-04T08:19:13Z</time>
      </trkpt>
      <trkpt lat="48.40707" lon="2.6365">
        <ele>129.92</ele>
        <time>2012-03-04T08:19:14Z</time>
      </trkpt>
      <trkpt lat="48.40706" lon="2.63649">
        <ele>129.92</ele>
        <time>2012-03-04T08:19:15Z</time>
      </trkpt>
      <trkpt lat="48.40704" lon="2.63648">
        <ele>129.92</ele>
        <time>2012-03-04T08:19:16Z</time>
      </trkpt>
      <trkpt lat="48.40702" lon="2.63647">
        <ele>130.4</ele>
        <time>2012-03-04T08:19:17Z</time>
      </trkpt>
      <trkpt lat="48.407" lon="2.63645">
        <ele>130.88</ele>
        <time>2012-03-04T08:19:18Z</time>
      </trkpt>
      <trkpt lat="48.40699" lon="2.63644">
        <ele>130.88</ele>
        <time>2012-03-04T08:19:19Z</time>
      </trkpt>
      <trkpt lat="48.40698" lon="2.63642">
        <ele>130.88</ele>
        <time>2012-03-04T08:19:20Z</time>
      </trkpt>
      <trkpt lat="48.40697" lon="2.63639">
        <ele>130.4</ele>
        <time>2012-03-04T08:19:21Z</time>
      </trkpt>
      <trkpt lat="48.40697" lon="2.63636">
        <ele>130.88</ele>
        <time>2012-03-04T08:19:22Z</time>
      </trkpt>
      <trkpt lat="48.40696" lon="2.63633">
        <ele>131.36</ele>
        <time>2012-03-04T08:19:23Z</time>
      </trkpt>
      <trkpt lat="48.40696" lon="2.6363">
        <ele>130.88</ele>
        <time>2012-03-04T08:19:24Z</time>
      </trkpt>
      <trkpt lat="48.40695" lon="2.63628">
        <ele>131.36</ele>
        <time>2012-03-04T08:19:25Z</time>
      </trkpt>
      <trkpt lat="48.40694" lon="2.63625">
        <ele>130.88</ele>
        <time>2012-03-04T08:19:26Z</time>
      </trkpt>
      <trkpt lat="48.40692" lon="2.63622">
        <ele>130.88</ele>
        <time>2012-03-04T08:19:27Z</time>
      </trkpt>
      <trkpt lat="48.40673" lon="2.63609">
        <ele>129.92</ele>
        <time>2012-03-04T08:19:33Z</time>
      </trkpt>
      <trkpt lat="48.40668" lon="2.63609">
        <ele>129.43</ele>
        <time>2012-03-04T08:19:34Z</time>
      </trkpt>
      <trkpt lat="48.40664" lon="2.6361">
        <ele>129.43</ele>
        <time>2012-03-04T08:19:35Z</time>
      </trkpt>
      <trkpt lat="48.40619" lon="2.6361">
        <ele>127.99</ele>
        <time>2012-03-04T08:19:47Z</time>
      </trkpt>
      <trkpt lat="48.40583" lon="2.63594">
        <ele>128.47</ele>
        <time>2012-03-04T08:20:00Z</time>
      </trkpt>
      <trkpt lat="48.40555" lon="2.6356">
        <ele>128.95</ele>
        <time>2012-03-04T08:20:13Z</time>
      </trkpt>
      <trkpt lat="48.40552" lon="2.63545">
        <ele>129.43</ele>
        <time>2012-03-04T08:20:19Z</time>
      </trkpt>
      <trkpt lat="48.4055" lon="2.63543">
        <ele>129.43</ele>
        <time>2012-03-04T08:20:20Z</time>
      </trkpt>
      <trkpt lat="48.40548" lon="2.63543">
        <ele>129.92</ele>
        <time>2012-03-04T08:20:21Z</time>
      </trkpt>
      <trkpt lat="48.40546" lon="2.63542">
        <ele>129.92</ele>
        <time>2012-03-04T08:20:22Z</time>
      </trkpt>
      <trkpt lat="48.40545" lon="2.63541">
        <ele>129.92</ele>
        <time>2012-03-04T08:20:23Z</time>
      </trkpt>
      <trkpt lat="48.40543" lon="2.63539">
        <ele>130.4</ele>
        <time>2012-03-04T08:20:24Z</time>
      </trkpt>
      <trkpt lat="48.40542" lon="2.63537">
        <ele>130.88</ele>
        <time>2012-03-04T08:20:25Z</time>
      </trkpt>
      <trkpt lat="48.4054" lon="2.63536">
        <ele>130.4</ele>
        <time>2012-03-04T08:20:26Z</time>
      </trkpt>
      <trkpt lat="48.40539" lon="2.63534">
        <ele>130.4</ele>
        <time>2012-03-04T08:20:27Z</time>
      </trkpt>
      <trkpt lat="48.40539" lon="2.63532">
        <ele>130.88</ele>
        <time>2012-03-04T08:20:28Z</time>
      </trkpt>
      <trkpt lat="48.40539" lon="2.63531">
        <ele>131.36</ele>
        <time>2012-03-04T08:20:29Z</time>
      </trkpt>
      <trkpt lat="48.4054" lon="2.63529">
        <ele>130.88</ele>
        <time>2012-03-04T08:20:30Z</time>
      </trkpt>
      <trkpt lat="48.4054" lon="2.63527">
        <ele>131.36</ele>
        <time>2012-03-04T08:20:31Z</time>
      </trkpt>
      <trkpt lat="48.40542" lon="2.63525">
        <ele>131.36</ele>
        <time>2012-03-04T08:20:32Z</time>
      </trkpt>
      <trkpt lat="48.40543" lon="2.63522">
        <ele>131.36</ele>
        <time>2012-03-04T08:20:33Z</time>
      </trkpt>
      <trkpt lat="48.40548" lon="2.63511">
        <ele>131.84</ele>
        <time>2012-03-04T08:20:37Z</time>
      </trkpt>
      <trkpt lat="48.40549" lon="2.63507">
        <ele>131.84</ele>
        <time>2012-03-04T08:20:38Z</time>
      </trkpt>
      <trkpt lat="48.40551" lon="2.63483">
        <ele>130.88</ele>
        <time>2012-03-04T08:20:43Z</time>
      </trkpt>
      <trkpt lat="48.40553" lon="2.63479">
        <ele>130.88</ele>
        <time>2012-03-04T08:20:44Z</time>
      </trkpt>
      <trkpt lat="48.40555" lon="2.63475">
        <ele>130.88</ele>
        <time>2012-03-04T08:20:45Z</time>
      </trkpt>
      <trkpt lat="48.40555" lon="2.63472">
        <ele>130.88</ele>
        <time>2012-03-04T08:20:46Z</time>
      </trkpt>
      <trkpt lat="48.40555" lon="2.63469">
        <ele>130.4</ele>
        <time>2012-03-04T08:20:47Z</time>
      </trkpt>
      <trkpt lat="48.40556" lon="2.63466">
        <ele>130.88</ele>
        <time>2012-03-04T08:20:48Z</time>
      </trkpt>
      <trkpt lat="48.40556" lon="2.63463">
        <ele>130.88</ele>
        <time>2012-03-04T08:20:49Z</time>
      </trkpt>
      <trkpt lat="48.40557" lon="2.6346">
        <ele>130.88</ele>
        <time>2012-03-04T08:20:50Z</time>
      </trkpt>
      <trkpt lat="48.40558" lon="2.63458">
        <ele>130.88</ele>
        <time>2012-03-04T08:20:51Z</time>
      </trkpt>
      <trkpt lat="48.40558" lon="2.63456">
        <ele>130.88</ele>
        <time>2012-03-04T08:20:52Z</time>
      </trkpt>
      <trkpt lat="48.40558" lon="2.63453">
        <ele>130.88</ele>
        <time>2012-03-04T08:20:53Z</time>
      </trkpt>
      <trkpt lat="48.40558" lon="2.6345">
        <ele>130.88</ele>
        <time>2012-03-04T08:20:54Z</time>
      </trkpt>
      <trkpt lat="48.40557" lon="2.63447">
        <ele>130.88</ele>
        <time>2012-03-04T08:20:55Z</time>
      </trkpt>
      <trkpt lat="48.40557" lon="2.63444">
        <ele>130.88</ele>
        <time>2012-03-04T08:20:56Z</time>
      </trkpt>
      <trkpt lat="48.40557" lon="2.63441">
        <ele>130.88</ele>
        <time>2012-03-04T08:20:57Z</time>
      </trkpt>
      <trkpt lat="48.40556" lon="2.63438">
        <ele>130.88</ele>
        <time>2012-03-04T08:20:58Z</time>
      </trkpt>
      <trkpt lat="48.40556" lon="2.63435">
        <ele>130.88</ele>
        <time>2012-03-04T08:20:59Z</time>
      </trkpt>
      <trkpt lat="48.40555" lon="2.63431">
        <ele>130.4</ele>
        <time>2012-03-04T08:21:00Z</time>
      </trkpt>
      <trkpt lat="48.40555" lon="2.63428">
        <ele>130.88</ele>
        <time>2012-03-04T08:21:01Z</time>
      </trkpt>
      <trkpt lat="48.40554" lon="2.63425">
        <ele>130.88</ele>
        <time>2012-03-04T08:21:02Z</time>
      </trkpt>
      <trkpt lat="48.40554" lon="2.63423">
        <ele>130.88</ele>
        <time>2012-03-04T08:21:03Z</time>
      </trkpt>
      <trkpt lat="48.40554" lon="2.63419">
        <ele>130.4</ele>
        <time>2012-03-04T08:21:04Z</time>
      </trkpt>
      <trkpt lat="48.40555" lon="2.63416">
        <ele>130.88</ele>
        <time>2012-03-04T08:21:05Z</time>
      </trkpt>
      <trkpt lat="48.40556" lon="2.63414">
        <ele>130.88</ele>
        <time>2012-03-04T08:21:06Z</time>
      </trkpt>
      <trkpt lat="48.40557" lon="2.63411">
        <ele>130.4</ele>
        <time>2012-03-04T08:21:07Z</time>
      </trkpt>
      <trkpt lat="48.40558" lon="2.63408">
        <ele>130.4</ele>
        <time>2012-03-04T08:21:08Z</time>
      </trkpt>
      <trkpt lat="48.40558" lon="2.63405">
        <ele>130.88</ele>
        <time>2012-03-04T08:21:09Z</time>
      </trkpt>
      <trkpt lat="48.40559" lon="2.63403">
        <ele>130.88</ele>
        <time>2012-03-04T08:21:10Z</time>
      </trkpt>
      <trkpt lat="48.40563" lon="2.63388">
        <ele>130.4</ele>
        <time>2012-03-04T08:21:15Z</time>
      </trkpt>
      <trkpt lat="48.40565" lon="2.63386">
        <ele>130.4</ele>
        <time>2012-03-04T08:21:16Z</time>
      </trkpt>
      <trkpt lat="48.40566" lon="2.63384">
        <ele>130.88</ele>
        <time>2012-03-04T08:21:17Z</time>
      </trkpt>
      <trkpt lat="48.40567" lon="2.63383">
        <ele>130.88</ele>
        <time>2012-03-04T08:21:18Z</time>
      </trkpt>
      <trkpt lat="48.40569" lon="2.63382">
        <ele>130.88</ele>
        <time>2012-03-04T08:21:19Z</time>
      </trkpt>
      <trkpt lat="48.4057" lon="2.63379">
        <ele>130.4</ele>
        <time>2012-03-04T08:21:20Z</time>
      </trkpt>
      <trkpt lat="48.40571" lon="2.63377">
        <ele>130.88</ele>
        <time>2012-03-04T08:21:21Z</time>
      </trkpt>
      <trkpt lat="48.40572" lon="2.63375">
        <ele>131.36</ele>
        <time>2012-03-04T08:21:22Z</time>
      </trkpt>
      <trkpt lat="48.40574" lon="2.63373">
        <ele>130.88</ele>
        <time>2012-03-04T08:21:23Z</time>
      </trkpt>
      <trkpt lat="48.40576" lon="2.63372">
        <ele>130.4</ele>
        <time>2012-03-04T08:21:24Z</time>
      </trkpt>
      <trkpt lat="48.40578" lon="2.63371">
        <ele>131.36</ele>
        <time>2012-03-04T08:21:25Z</time>
      </trkpt>
      <trkpt lat="48.4058" lon="2.6337">
        <ele>131.84</ele>
        <time>2012-03-04T08:21:26Z</time>
      </trkpt>
      <trkpt lat="48.40581" lon="2.63368">
        <ele>131.36</ele>
        <time>2012-03-04T08:21:27Z</time>
      </trkpt>
      <trkpt lat="48.40583" lon="2.63365">
        <ele>131.36</ele>
        <time>2012-03-04T08:21:28Z</time>
      </trkpt>
      <trkpt lat="48.40584" lon="2.63362">
        <ele>131.84</ele>
        <time>2012-03-04T08:21:29Z</time>
      </trkpt>
      <trkpt lat="48.40587" lon="2.63356">
        <ele>131.36</ele>
        <time>2012-03-04T08:21:33Z</time>
      </trkpt>
      <trkpt lat="48.40589" lon="2.63354">
        <ele>131.36</ele>
        <time>2012-03-04T08:21:34Z</time>
      </trkpt>
      <trkpt lat="48.4059" lon="2.63353">
        <ele>131.36</ele>
        <time>2012-03-04T08:21:35Z</time>
      </trkpt>
      <trkpt lat="48.40594" lon="2.63344">
        <ele>129.92</ele>
        <time>2012-03-04T08:21:41Z</time>
      </trkpt>
      <trkpt lat="48.40596" lon="2.63339">
        <ele>129.92</ele>
        <time>2012-03-04T08:21:42Z</time>
      </trkpt>
      <trkpt lat="48.40598" lon="2.63334">
        <ele>129.43</ele>
        <time>2012-03-04T08:21:43Z</time>
      </trkpt>
      <trkpt lat="48.40599" lon="2.63329">
        <ele>129.92</ele>
        <time>2012-03-04T08:21:44Z</time>
      </trkpt>
      <trkpt lat="48.406" lon="2.63323">
        <ele>129.43</ele>
        <time>2012-03-04T08:21:45Z</time>
      </trkpt>
      <trkpt lat="48.40611" lon="2.63277">
        <ele>128.95</ele>
        <time>2012-03-04T08:21:54Z</time>
      </trkpt>
      <trkpt lat="48.40614" lon="2.63256">
        <ele>128.47</ele>
        <time>2012-03-04T08:21:59Z</time>
      </trkpt>
      <trkpt lat="48.40614" lon="2.63254">
        <ele>127.99</ele>
        <time>2012-03-04T08:22:00Z</time>
      </trkpt>
      <trkpt lat="48.40613" lon="2.63251">
        <ele>127.99</ele>
        <time>2012-03-04T08:22:01Z</time>
      </trkpt>
      <trkpt lat="48.40613" lon="2.63248">
        <ele>127.99</ele>
        <time>2012-03-04T08:22:02Z</time>
      </trkpt>
      <trkpt lat="48.40612" lon="2.63245">
        <ele>127.99</ele>
        <time>2012-03-04T08:22:03Z</time>
      </trkpt>
      <trkpt lat="48.40613" lon="2.63242">
        <ele>128.47</ele>
        <time>2012-03-04T08:22:04Z</time>
      </trkpt>
      <trkpt lat="48.40614" lon="2.63239">
        <ele>128.47</ele>
        <time>2012-03-04T08:22:05Z</time>
      </trkpt>
      <trkpt lat="48.40615" lon="2.63235">
        <ele>127.99</ele>
        <time>2012-03-04T08:22:06Z</time>
      </trkpt>
      <trkpt lat="48.40615" lon="2.6323">
        <ele>127.99</ele>
        <time>2012-03-04T08:22:07Z</time>
      </trkpt>
      <trkpt lat="48.40618" lon="2.63221">
        <ele>127.51</ele>
        <time>2012-03-04T08:22:09Z</time>
      </trkpt>
      <trkpt lat="48.40619" lon="2.63216">
        <ele>128.95</ele>
        <time>2012-03-04T08:22:10Z</time>
      </trkpt>
      <trkpt lat="48.4062" lon="2.63212">
        <ele>128.47</ele>
        <time>2012-03-04T08:22:11Z</time>
      </trkpt>
      <trkpt lat="48.4062" lon="2.63208">
        <ele>128.95</ele>
        <time>2012-03-04T08:22:12Z</time>
      </trkpt>
      <trkpt lat="48.4062" lon="2.63206">
        <ele>128.95</ele>
        <time>2012-03-04T08:22:13Z</time>
      </trkpt>
      <trkpt lat="48.4062" lon="2.63203">
        <ele>128.95</ele>
        <time>2012-03-04T08:22:14Z</time>
      </trkpt>
      <trkpt lat="48.40619" lon="2.632">
        <ele>128.95</ele>
        <time>2012-03-04T08:22:15Z</time>
      </trkpt>
      <trkpt lat="48.40618" lon="2.63198">
        <ele>128.95</ele>
        <time>2012-03-04T08:22:16Z</time>
      </trkpt>
      <trkpt lat="48.40616" lon="2.63196">
        <ele>128.95</ele>
        <time>2012-03-04T08:22:18Z</time>
      </trkpt>
      <trkpt lat="48.40615" lon="2.63196">
        <ele>128.95</ele>
        <time>2012-03-04T08:22:19Z</time>
      </trkpt>
      <trkpt lat="48.40613" lon="2.63195">
        <ele>128.95</ele>
        <time>2012-03-04T08:22:20Z</time>
      </trkpt>
      <trkpt lat="48.40611" lon="2.63196">
        <ele>128.47</ele>
        <time>2012-03-04T08:22:21Z</time>
      </trkpt>
      <trkpt lat="48.4061" lon="2.63195">
        <ele>127.51</ele>
        <time>2012-03-04T08:22:22Z</time>
      </trkpt>
      <trkpt lat="48.40608" lon="2.63194">
        <ele>127.03</ele>
        <time>2012-03-04T08:22:23Z</time>
      </trkpt>
      <trkpt lat="48.40608" lon="2.63191">
        <ele>127.51</ele>
        <time>2012-03-04T08:22:24Z</time>
      </trkpt>
      <trkpt lat="48.40607" lon="2.63187">
        <ele>127.03</ele>
        <time>2012-03-04T08:22:25Z</time>
      </trkpt>
      <trkpt lat="48.40608" lon="2.63182">
        <ele>126.55</ele>
        <time>2012-03-04T08:22:26Z</time>
      </trkpt>
      <trkpt lat="48.4061" lon="2.63179">
        <ele>127.03</ele>
        <time>2012-03-04T08:22:27Z</time>
      </trkpt>
      <trkpt lat="48.40612" lon="2.63174">
        <ele>127.03</ele>
        <time>2012-03-04T08:22:28Z</time>
      </trkpt>
      <trkpt lat="48.40614" lon="2.63171">
        <ele>127.03</ele>
        <time>2012-03-04T08:22:29Z</time>
      </trkpt>
      <trkpt lat="48.40614" lon="2.63167">
        <ele>127.51</ele>
        <time>2012-03-04T08:22:30Z</time>
      </trkpt>
      <trkpt lat="48.40613" lon="2.63162">
        <ele>127.51</ele>
        <time>2012-03-04T08:22:31Z</time>
      </trkpt>
      <trkpt lat="48.40613" lon="2.63159">
        <ele>127.03</ele>
        <time>2012-03-04T08:22:32Z</time>
      </trkpt>
      <trkpt lat="48.40614" lon="2.63155">
        <ele>127.51</ele>
        <time>2012-03-04T08:22:33Z</time>
      </trkpt>
      <trkpt lat="48.40614" lon="2.63152">
        <ele>127.03</ele>
        <time>2012-03-04T08:22:34Z</time>
      </trkpt>
      <trkpt lat="48.40621" lon="2.63142">
        <ele>127.99</ele>
        <time>2012-03-04T08:22:41Z</time>
      </trkpt>
      <trkpt lat="48.40623" lon="2.63142">
        <ele>127.51</ele>
        <time>2012-03-04T08:22:42Z</time>
      </trkpt>
      <trkpt lat="48.4063" lon="2.63145">
        <ele>128.47</ele>
        <time>2012-03-04T08:22:54Z</time>
      </trkpt>
      <trkpt lat="48.40634" lon="2.63146">
        <ele>129.43</ele>
        <time>2012-03-04T08:23:06Z</time>
      </trkpt>
      <trkpt lat="48.40642" lon="2.63152">
        <ele>129.43</ele>
        <time>2012-03-04T08:23:15Z</time>
      </trkpt>
      <trkpt lat="48.40644" lon="2.63153">
        <ele>128.95</ele>
        <time>2012-03-04T08:23:16Z</time>
      </trkpt>
      <trkpt lat="48.40645" lon="2.63156">
        <ele>129.92</ele>
        <time>2012-03-04T08:23:17Z</time>
      </trkpt>
      <trkpt lat="48.40645" lon="2.6316">
        <ele>130.4</ele>
        <time>2012-03-04T08:23:19Z</time>
      </trkpt>
      <trkpt lat="48.40647" lon="2.63162">
        <ele>130.88</ele>
        <time>2012-03-04T08:23:20Z</time>
      </trkpt>
      <trkpt lat="48.40658" lon="2.63144">
        <ele>130.4</ele>
        <time>2012-03-04T08:23:27Z</time>
      </trkpt>
      <trkpt lat="48.40663" lon="2.63139">
        <ele>130.88</ele>
        <time>2012-03-04T08:23:30Z</time>
      </trkpt>
      <trkpt lat="48.40669" lon="2.63135">
        <ele>130.4</ele>
        <time>2012-03-04T08:23:42Z</time>
      </trkpt>
      <trkpt lat="48.40669" lon="2.63135">
        <ele>130.88</ele>
        <time>2012-03-04T08:24:08Z</time>
      </trkpt>
      <trkpt lat="48.40669" lon="2.63135">
        <ele>130.88</ele>
        <time>2012-03-04T08:24:42Z</time>
      </trkpt>
      <trkpt lat="48.40669" lon="2.63135">
        <ele>130.88</ele>
        <time>2012-03-04T08:25:10Z</time>
      </trkpt>
      <trkpt lat="48.40669" lon="2.63135">
        <ele>130.88</ele>
        <time>2012-03-04T08:25:24Z</time>
      </trkpt>
      <trkpt lat="48.40672" lon="2.6313">
        <ele>130.88</ele>
        <time>2012-03-04T08:25:27Z</time>
      </trkpt>
      <trkpt lat="48.40679" lon="2.63123">
        <ele>130.88</ele>
        <time>2012-03-04T08:25:32Z</time>
      </trkpt>
      <trkpt lat="48.40683" lon="2.63119">
        <ele>130.4</ele>
        <time>2012-03-04T08:25:41Z</time>
      </trkpt>
      <trkpt lat="48.40691" lon="2.63127">
        <ele>130.4</ele>
        <time>2012-03-04T08:25:46Z</time>
      </trkpt>
      <trkpt lat="48.40695" lon="2.63134">
        <ele>130.88</ele>
        <time>2012-03-04T08:25:48Z</time>
      </trkpt>
      <trkpt lat="48.40702" lon="2.63151">
        <ele>131.36</ele>
        <time>2012-03-04T08:25:55Z</time>
      </trkpt>
      <trkpt lat="48.40729" lon="2.63149">
        <ele>130.4</ele>
        <time>2012-03-04T08:26:07Z</time>
      </trkpt>
      <trkpt lat="48.40747" lon="2.63144">
        <ele>130.4</ele>
        <time>2012-03-04T08:26:16Z</time>
      </trkpt>
      <trkpt lat="48.40753" lon="2.6314">
        <ele>129.92</ele>
        <time>2012-03-04T08:26:24Z</time>
      </trkpt>
      <trkpt lat="48.4076" lon="2.63129">
        <ele>130.88</ele>
        <time>2012-03-04T08:26:30Z</time>
      </trkpt>
      <trkpt lat="48.40768" lon="2.63127">
        <ele>131.36</ele>
        <time>2012-03-04T08:26:40Z</time>
      </trkpt>
      <trkpt lat="48.40768" lon="2.63127">
        <ele>131.36</ele>
        <time>2012-03-04T08:27:04Z</time>
      </trkpt>
      <trkpt lat="48.40768" lon="2.63127">
        <ele>131.36</ele>
        <time>2012-03-04T08:27:11Z</time>
      </trkpt>
      <trkpt lat="48.40778" lon="2.63115">
        <ele>132.32</ele>
        <time>2012-03-04T08:27:22Z</time>
      </trkpt>
      <trkpt lat="48.40779" lon="2.63115">
        <ele>132.32</ele>
        <time>2012-03-04T08:27:30Z</time>
      </trkpt>
      <trkpt lat="48.40785" lon="2.63108">
        <ele>130.88</ele>
        <time>2012-03-04T08:27:33Z</time>
      </trkpt>
      <trkpt lat="48.40789" lon="2.63096">
        <ele>130.88</ele>
        <time>2012-03-04T08:27:45Z</time>
      </trkpt>
      <trkpt lat="48.40793" lon="2.63093">
        <ele>130.88</ele>
        <time>2012-03-04T08:27:48Z</time>
      </trkpt>
      <trkpt lat="48.40799" lon="2.63087">
        <ele>131.84</ele>
        <time>2012-03-04T08:27:53Z</time>
      </trkpt>
      <trkpt lat="48.40806" lon="2.63087">
        <ele>132.32</ele>
        <time>2012-03-04T08:28:03Z</time>
      </trkpt>
      <trkpt lat="48.40817" lon="2.63086">
        <ele>132.8</ele>
        <time>2012-03-04T08:28:09Z</time>
      </trkpt>
      <trkpt lat="48.40827" lon="2.63072">
        <ele>132.8</ele>
        <time>2012-03-04T08:28:18Z</time>
      </trkpt>
      <trkpt lat="48.40831" lon="2.63068">
        <ele>132.8</ele>
        <time>2012-03-04T08:28:28Z</time>
      </trkpt>
      <trkpt lat="48.40833" lon="2.63066">
        <ele>132.32</ele>
        <time>2012-03-04T08:28:47Z</time>
      </trkpt>
      <trkpt lat="48.4083" lon="2.63042">
        <ele>132.8</ele>
        <time>2012-03-04T08:28:57Z</time>
      </trkpt>
      <trkpt lat="48.4083" lon="2.63041">
        <ele>132.8</ele>
        <time>2012-03-04T08:28:58Z</time>
      </trkpt>
      <trkpt lat="48.40828" lon="2.63032">
        <ele>132.8</ele>
        <time>2012-03-04T08:29:02Z</time>
      </trkpt>
      <trkpt lat="48.40829" lon="2.63029">
        <ele>132.8</ele>
        <time>2012-03-04T08:29:04Z</time>
      </trkpt>
      <trkpt lat="48.40831" lon="2.63027">
        <ele>132.8</ele>
        <time>2012-03-04T08:29:06Z</time>
      </trkpt>
      <trkpt lat="48.40834" lon="2.63019">
        <ele>132.8</ele>
        <time>2012-03-04T08:29:10Z</time>
      </trkpt>
      <trkpt lat="48.40838" lon="2.63011">
        <ele>132.32</ele>
        <time>2012-03-04T08:29:13Z</time>
      </trkpt>
      <trkpt lat="48.40854" lon="2.63005">
        <ele>132.32</ele>
        <time>2012-03-04T08:29:22Z</time>
      </trkpt>
      <trkpt lat="48.4086" lon="2.63007">
        <ele>132.32</ele>
        <time>2012-03-04T08:29:26Z</time>
      </trkpt>
      <trkpt lat="48.4087" lon="2.63015">
        <ele>132.8</ele>
        <time>2012-03-04T08:29:36Z</time>
      </trkpt>
      <trkpt lat="48.40895" lon="2.63031">
        <ele>131.84</ele>
        <time>2012-03-04T08:29:46Z</time>
      </trkpt>
      <trkpt lat="48.40898" lon="2.63034">
        <ele>130.88</ele>
        <time>2012-03-04T08:29:47Z</time>
      </trkpt>
      <trkpt lat="48.40911" lon="2.63019">
        <ele>130.4</ele>
        <time>2012-03-04T08:29:53Z</time>
      </trkpt>
      <trkpt lat="48.40912" lon="2.62994">
        <ele>131.36</ele>
        <time>2012-03-04T08:30:03Z</time>
      </trkpt>
      <trkpt lat="48.40912" lon="2.62994">
        <ele>131.84</ele>
        <time>2012-03-04T08:30:04Z</time>
      </trkpt>
      <trkpt lat="48.40913" lon="2.62972">
        <ele>132.8</ele>
        <time>2012-03-04T08:30:15Z</time>
      </trkpt>
      <trkpt lat="48.40913" lon="2.62972">
        <ele>132.8</ele>
        <time>2012-03-04T08:30:21Z</time>
      </trkpt>
      <trkpt lat="48.40908" lon="2.62966">
        <ele>132.8</ele>
        <time>2012-03-04T08:30:31Z</time>
      </trkpt>
      <trkpt lat="48.40916" lon="2.62948">
        <ele>132.32</ele>
        <time>2012-03-04T08:30:42Z</time>
      </trkpt>
      <trkpt lat="48.40928" lon="2.62925">
        <ele>128.47</ele>
        <time>2012-03-04T08:30:50Z</time>
      </trkpt>
      <trkpt lat="48.4093" lon="2.6292">
        <ele>128.47</ele>
        <time>2012-03-04T08:30:51Z</time>
      </trkpt>
      <trkpt lat="48.40929" lon="2.62908">
        <ele>128.47</ele>
        <time>2012-03-04T08:30:59Z</time>
      </trkpt>
      <trkpt lat="48.40927" lon="2.62907">
        <ele>129.43</ele>
        <time>2012-03-04T08:31:02Z</time>
      </trkpt>
      <trkpt lat="48.40924" lon="2.62906">
        <ele>128.47</ele>
        <time>2012-03-04T08:31:05Z</time>
      </trkpt>
      <trkpt lat="48.4092" lon="2.629">
        <ele>129.43</ele>
        <time>2012-03-04T08:31:08Z</time>
      </trkpt>
      <trkpt lat="48.40919" lon="2.62898">
        <ele>130.4</ele>
        <time>2012-03-04T08:31:09Z</time>
      </trkpt>
      <trkpt lat="48.40917" lon="2.62896">
        <ele>130.4</ele>
        <time>2012-03-04T08:31:10Z</time>
      </trkpt>
      <trkpt lat="48.40915" lon="2.62894">
        <ele>129.92</ele>
        <time>2012-03-04T08:31:11Z</time>
      </trkpt>
      <trkpt lat="48.40914" lon="2.62891">
        <ele>130.4</ele>
        <time>2012-03-04T08:31:12Z</time>
      </trkpt>
      <trkpt lat="48.40912" lon="2.62887">
        <ele>129.92</ele>
        <time>2012-03-04T08:31:13Z</time>
      </trkpt>
      <trkpt lat="48.40905" lon="2.62871">
        <ele>129.92</ele>
        <time>2012-03-04T08:31:18Z</time>
      </trkpt>
      <trkpt lat="48.40905" lon="2.62868">
        <ele>130.4</ele>
        <time>2012-03-04T08:31:19Z</time>
      </trkpt>
      <trkpt lat="48.40908" lon="2.6285">
        <ele>130.4</ele>
        <time>2012-03-04T08:31:29Z</time>
      </trkpt>
      <trkpt lat="48.40907" lon="2.62848">
        <ele>130.4</ele>
        <time>2012-03-04T08:31:30Z</time>
      </trkpt>
      <trkpt lat="48.40906" lon="2.62847">
        <ele>130.4</ele>
        <time>2012-03-04T08:31:31Z</time>
      </trkpt>
      <trkpt lat="48.40902" lon="2.62848">
        <ele>130.4</ele>
        <time>2012-03-04T08:31:38Z</time>
      </trkpt>
      <trkpt lat="48.40901" lon="2.62846">
        <ele>129.43</ele>
        <time>2012-03-04T08:31:39Z</time>
      </trkpt>
      <trkpt lat="48.40899" lon="2.62844">
        <ele>128.95</ele>
        <time>2012-03-04T08:31:40Z</time>
      </trkpt>
      <trkpt lat="48.409" lon="2.62837">
        <ele>129.43</ele>
        <time>2012-03-04T08:31:42Z</time>
      </trkpt>
      <trkpt lat="48.40897" lon="2.628">
        <ele>128.95</ele>
        <time>2012-03-04T08:31:52Z</time>
      </trkpt>
      <trkpt lat="48.40891" lon="2.62793">
        <ele>128.47</ele>
        <time>2012-03-04T08:31:54Z</time>
      </trkpt>
      <trkpt lat="48.40887" lon="2.6279">
        <ele>128.47</ele>
        <time>2012-03-04T08:31:55Z</time>
      </trkpt>
      <trkpt lat="48.40879" lon="2.62785">
        <ele>128.47</ele>
        <time>2012-03-04T08:31:57Z</time>
      </trkpt>
      <trkpt lat="48.40868" lon="2.62782">
        <ele>127.99</ele>
        <time>2012-03-04T08:32:00Z</time>
      </trkpt>
      <trkpt lat="48.40866" lon="2.62779">
        <ele>127.99</ele>
        <time>2012-03-04T08:32:01Z</time>
      </trkpt>
      <trkpt lat="48.40865" lon="2.62775">
        <ele>128.47</ele>
        <time>2012-03-04T08:32:02Z</time>
      </trkpt>
      <trkpt lat="48.40863" lon="2.62771">
        <ele>128.47</ele>
        <time>2012-03-04T08:32:03Z</time>
      </trkpt>
      <trkpt lat="48.40861" lon="2.62768">
        <ele>128.47</ele>
        <time>2012-03-04T08:32:04Z</time>
      </trkpt>
      <trkpt lat="48.40859" lon="2.62767">
        <ele>128.47</ele>
        <time>2012-03-04T08:32:05Z</time>
      </trkpt>
      <trkpt lat="48.40857" lon="2.62765">
        <ele>128.95</ele>
        <time>2012-03-04T08:32:06Z</time>
      </trkpt>
      <trkpt lat="48.40856" lon="2.62764">
        <ele>128.95</ele>
        <time>2012-03-04T08:32:07Z</time>
      </trkpt>
      <trkpt lat="48.40854" lon="2.62761">
        <ele>128.95</ele>
        <time>2012-03-04T08:32:08Z</time>
      </trkpt>
      <trkpt lat="48.40853" lon="2.62759">
        <ele>129.43</ele>
        <time>2012-03-04T08:32:09Z</time>
      </trkpt>
      <trkpt lat="48.40852" lon="2.62756">
        <ele>128.95</ele>
        <time>2012-03-04T08:32:10Z</time>
      </trkpt>
      <trkpt lat="48.40852" lon="2.62754">
        <ele>129.43</ele>
        <time>2012-03-04T08:32:11Z</time>
      </trkpt>
      <trkpt lat="48.40851" lon="2.62752">
        <ele>129.43</ele>
        <time>2012-03-04T08:32:12Z</time>
      </trkpt>
      <trkpt lat="48.40852" lon="2.6275">
        <ele>129.43</ele>
        <time>2012-03-04T08:32:13Z</time>
      </trkpt>
      <trkpt lat="48.40856" lon="2.62744">
        <ele>128.95</ele>
        <time>2012-03-04T08:32:16Z</time>
      </trkpt>
      <trkpt lat="48.40858" lon="2.62741">
        <ele>128.95</ele>
        <time>2012-03-04T08:32:17Z</time>
      </trkpt>
      <trkpt lat="48.4086" lon="2.62738">
        <ele>128.47</ele>
        <time>2012-03-04T08:32:18Z</time>
      </trkpt>
      <trkpt lat="48.4086" lon="2.62735">
        <ele>128.95</ele>
        <time>2012-03-04T08:32:19Z</time>
      </trkpt>
      <trkpt lat="48.40862" lon="2.62725">
        <ele>128.95</ele>
        <time>2012-03-04T08:32:26Z</time>
      </trkpt>
      <trkpt lat="48.40865" lon="2.62725">
        <ele>129.43</ele>
        <time>2012-03-04T08:32:31Z</time>
      </trkpt>
      <trkpt lat="48.40867" lon="2.6273">
        <ele>128.95</ele>
        <time>2012-03-04T08:32:39Z</time>
      </trkpt>
      <trkpt lat="48.40874" lon="2.6273">
        <ele>130.4</ele>
        <time>2012-03-04T08:32:44Z</time>
      </trkpt>
      <trkpt lat="48.40877" lon="2.62702">
        <ele>129.92</ele>
        <time>2012-03-04T08:32:52Z</time>
      </trkpt>
      <trkpt lat="48.40877" lon="2.6269">
        <ele>129.92</ele>
        <time>2012-03-04T08:32:56Z</time>
      </trkpt>
      <trkpt lat="48.40879" lon="2.62685">
        <ele>129.92</ele>
        <time>2012-03-04T08:32:58Z</time>
      </trkpt>
      <trkpt lat="48.40878" lon="2.6267">
        <ele>129.43</ele>
        <time>2012-03-04T08:33:03Z</time>
      </trkpt>
      <trkpt lat="48.40885" lon="2.62647">
        <ele>128.95</ele>
        <time>2012-03-04T08:33:13Z</time>
      </trkpt>
      <trkpt lat="48.40887" lon="2.62624">
        <ele>129.43</ele>
        <time>2012-03-04T08:33:22Z</time>
      </trkpt>
      <trkpt lat="48.40897" lon="2.62602">
        <ele>129.43</ele>
        <time>2012-03-04T08:33:32Z</time>
      </trkpt>
      <trkpt lat="48.40898" lon="2.626">
        <ele>129.43</ele>
        <time>2012-03-04T08:33:44Z</time>
      </trkpt>
      <trkpt lat="48.40896" lon="2.62603">
        <ele>128.95</ele>
        <time>2012-03-04T08:33:46Z</time>
      </trkpt>
      <trkpt lat="48.40898" lon="2.6261">
        <ele>129.43</ele>
        <time>2012-03-04T08:33:51Z</time>
      </trkpt>
      <trkpt lat="48.40906" lon="2.62611">
        <ele>127.99</ele>
        <time>2012-03-04T08:34:01Z</time>
      </trkpt>
      <trkpt lat="48.40906" lon="2.62603">
        <ele>127.99</ele>
        <time>2012-03-04T08:34:03Z</time>
      </trkpt>
      <trkpt lat="48.40901" lon="2.62583">
        <ele>128.95</ele>
        <time>2012-03-04T08:34:14Z</time>
      </trkpt>
      <trkpt lat="48.40904" lon="2.62577">
        <ele>129.92</ele>
        <time>2012-03-04T08:34:26Z</time>
      </trkpt>
      <trkpt lat="48.40905" lon="2.62575">
        <ele>129.43</ele>
        <time>2012-03-04T08:34:38Z</time>
      </trkpt>
      <trkpt lat="48.40906" lon="2.62572">
        <ele>129.92</ele>
        <time>2012-03-04T08:34:51Z</time>
      </trkpt>
      <trkpt lat="48.40906" lon="2.62572">
        <ele>129.92</ele>
        <time>2012-03-04T08:35:15Z</time>
      </trkpt>
      <trkpt lat="48.40906" lon="2.62545">
        <ele>129.92</ele>
        <time>2012-03-04T08:35:25Z</time>
      </trkpt>
      <trkpt lat="48.40909" lon="2.62504">
        <ele>129.92</ele>
        <time>2012-03-04T08:35:37Z</time>
      </trkpt>
      <trkpt lat="48.4092" lon="2.62463">
        <ele>128.47</ele>
        <time>2012-03-04T08:35:48Z</time>
      </trkpt>
      <trkpt lat="48.40926" lon="2.62452">
        <ele>127.99</ele>
        <time>2012-03-04T08:35:50Z</time>
      </trkpt>
      <trkpt lat="48.40928" lon="2.62446">
        <ele>127.51</ele>
        <time>2012-03-04T08:35:51Z</time>
      </trkpt>
      <trkpt lat="48.4093" lon="2.62441">
        <ele>127.51</ele>
        <time>2012-03-04T08:35:52Z</time>
      </trkpt>
      <trkpt lat="48.40931" lon="2.62436">
        <ele>127.99</ele>
        <time>2012-03-04T08:35:53Z</time>
      </trkpt>
      <trkpt lat="48.40932" lon="2.62432">
        <ele>127.51</ele>
        <time>2012-03-04T08:35:54Z</time>
      </trkpt>
      <trkpt lat="48.40933" lon="2.62429">
        <ele>127.99</ele>
        <time>2012-03-04T08:35:55Z</time>
      </trkpt>
      <trkpt lat="48.40934" lon="2.62426">
        <ele>127.99</ele>
        <time>2012-03-04T08:35:56Z</time>
      </trkpt>
      <trkpt lat="48.40934" lon="2.62423">
        <ele>128.47</ele>
        <time>2012-03-04T08:35:57Z</time>
      </trkpt>
      <trkpt lat="48.40934" lon="2.62419">
        <ele>128.47</ele>
        <time>2012-03-04T08:35:58Z</time>
      </trkpt>
      <trkpt lat="48.40936" lon="2.62405">
        <ele>127.99</ele>
        <time>2012-03-04T08:36:02Z</time>
      </trkpt>
      <trkpt lat="48.40937" lon="2.62402">
        <ele>128.47</ele>
        <time>2012-03-04T08:36:03Z</time>
      </trkpt>
      <trkpt lat="48.40938" lon="2.62399">
        <ele>128.47</ele>
        <time>2012-03-04T08:36:04Z</time>
      </trkpt>
      <trkpt lat="48.40944" lon="2.62383">
        <ele>131.36</ele>
        <time>2012-03-04T08:36:13Z</time>
      </trkpt>
      <trkpt lat="48.40943" lon="2.62381">
        <ele>129.92</ele>
        <time>2012-03-04T08:36:18Z</time>
      </trkpt>
      <trkpt lat="48.40942" lon="2.6238">
        <ele>129.43</ele>
        <time>2012-03-04T08:36:19Z</time>
      </trkpt>
      <trkpt lat="48.4094" lon="2.62379">
        <ele>129.92</ele>
        <time>2012-03-04T08:36:20Z</time>
      </trkpt>
      <trkpt lat="48.40926" lon="2.62368">
        <ele>129.43</ele>
        <time>2012-03-04T08:36:28Z</time>
      </trkpt>
      <trkpt lat="48.40921" lon="2.62358">
        <ele>128.95</ele>
        <time>2012-03-04T08:36:32Z</time>
      </trkpt>
      <trkpt lat="48.40915" lon="2.62351">
        <ele>129.43</ele>
        <time>2012-03-04T08:36:36Z</time>
      </trkpt>
      <trkpt lat="48.40912" lon="2.62319">
        <ele>128.47</ele>
        <time>2012-03-04T08:36:46Z</time>
      </trkpt>
      <trkpt lat="48.40916" lon="2.62308">
        <ele>128.95</ele>
        <time>2012-03-04T08:36:49Z</time>
      </trkpt>
      <trkpt lat="48.40922" lon="2.62302">
        <ele>128.47</ele>
        <time>2012-03-04T08:36:52Z</time>
      </trkpt>
      <trkpt lat="48.40933" lon="2.62303">
        <ele>128.47</ele>
        <time>2012-03-04T08:37:01Z</time>
      </trkpt>
      <trkpt lat="48.40942" lon="2.62309">
        <ele>127.99</ele>
        <time>2012-03-04T08:37:11Z</time>
      </trkpt>
      <trkpt lat="48.40955" lon="2.62305">
        <ele>126.55</ele>
        <time>2012-03-04T08:37:19Z</time>
      </trkpt>
      <trkpt lat="48.40961" lon="2.62298">
        <ele>126.55</ele>
        <time>2012-03-04T08:37:21Z</time>
      </trkpt>
      <trkpt lat="48.40952" lon="2.62278">
        <ele>125.59</ele>
        <time>2012-03-04T08:37:28Z</time>
      </trkpt>
      <trkpt lat="48.40937" lon="2.62271">
        <ele>126.07</ele>
        <time>2012-03-04T08:37:38Z</time>
      </trkpt>
      <trkpt lat="48.40922" lon="2.62268">
        <ele>124.63</ele>
        <time>2012-03-04T08:37:43Z</time>
      </trkpt>
      <trkpt lat="48.40912" lon="2.62253">
        <ele>124.63</ele>
        <time>2012-03-04T08:37:48Z</time>
      </trkpt>
      <trkpt lat="48.40912" lon="2.62234">
        <ele>125.59</ele>
        <time>2012-03-04T08:37:54Z</time>
      </trkpt>
      <trkpt lat="48.40912" lon="2.6222">
        <ele>126.07</ele>
        <time>2012-03-04T08:37:58Z</time>
      </trkpt>
      <trkpt lat="48.40899" lon="2.622">
        <ele>127.51</ele>
        <time>2012-03-04T08:38:09Z</time>
      </trkpt>
      <trkpt lat="48.40893" lon="2.62195">
        <ele>128.47</ele>
        <time>2012-03-04T08:38:12Z</time>
      </trkpt>
      <trkpt lat="48.40896" lon="2.62174">
        <ele>128.95</ele>
        <time>2012-03-04T08:38:21Z</time>
      </trkpt>
      <trkpt lat="48.40896" lon="2.62168">
        <ele>129.43</ele>
        <time>2012-03-04T08:38:23Z</time>
      </trkpt>
      <trkpt lat="48.40896" lon="2.62161">
        <ele>128.95</ele>
        <time>2012-03-04T08:38:26Z</time>
      </trkpt>
      <trkpt lat="48.40897" lon="2.62151">
        <ele>128.47</ele>
        <time>2012-03-04T08:38:37Z</time>
      </trkpt>
      <trkpt lat="48.40895" lon="2.62142">
        <ele>127.51</ele>
        <time>2012-03-04T08:38:41Z</time>
      </trkpt>
      <trkpt lat="48.40903" lon="2.62113">
        <ele>127.51</ele>
        <time>2012-03-04T08:38:49Z</time>
      </trkpt>
      <trkpt lat="48.40907" lon="2.62104">
        <ele>127.99</ele>
        <time>2012-03-04T08:38:53Z</time>
      </trkpt>
      <trkpt lat="48.4091" lon="2.62095">
        <ele>126.55</ele>
        <time>2012-03-04T08:38:55Z</time>
      </trkpt>
      <trkpt lat="48.4091" lon="2.62091">
        <ele>127.03</ele>
        <time>2012-03-04T08:38:57Z</time>
      </trkpt>
      <trkpt lat="48.40909" lon="2.62086">
        <ele>126.55</ele>
        <time>2012-03-04T08:39:02Z</time>
      </trkpt>
      <trkpt lat="48.4091" lon="2.62085">
        <ele>127.03</ele>
        <time>2012-03-04T08:39:04Z</time>
      </trkpt>
      <trkpt lat="48.40916" lon="2.62075">
        <ele>126.07</ele>
        <time>2012-03-04T08:39:10Z</time>
      </trkpt>
      <trkpt lat="48.40917" lon="2.6206">
        <ele>126.07</ele>
        <time>2012-03-04T08:39:17Z</time>
      </trkpt>
      <trkpt lat="48.40916" lon="2.62051">
        <ele>126.07</ele>
        <time>2012-03-04T08:39:21Z</time>
      </trkpt>
      <trkpt lat="48.40927" lon="2.62021">
        <ele>125.59</ele>
        <time>2012-03-04T08:39:31Z</time>
      </trkpt>
      <trkpt lat="48.40928" lon="2.62017">
        <ele>126.07</ele>
        <time>2012-03-04T08:39:32Z</time>
      </trkpt>
      <trkpt lat="48.40941" lon="2.61991">
        <ele>127.51</ele>
        <time>2012-03-04T08:39:42Z</time>
      </trkpt>
      <trkpt lat="48.40947" lon="2.61984">
        <ele>127.03</ele>
        <time>2012-03-04T08:39:45Z</time>
      </trkpt>
      <trkpt lat="48.40955" lon="2.6196">
        <ele>127.03</ele>
        <time>2012-03-04T08:39:55Z</time>
      </trkpt>
      <trkpt lat="48.40956" lon="2.61958">
        <ele>127.03</ele>
        <time>2012-03-04T08:39:56Z</time>
      </trkpt>
      <trkpt lat="48.40969" lon="2.61954">
        <ele>127.99</ele>
        <time>2012-03-04T08:40:07Z</time>
      </trkpt>
      <trkpt lat="48.40969" lon="2.61952">
        <ele>127.99</ele>
        <time>2012-03-04T08:40:10Z</time>
      </trkpt>
      <trkpt lat="48.40969" lon="2.61947">
        <ele>126.55</ele>
        <time>2012-03-04T08:40:12Z</time>
      </trkpt>
      <trkpt lat="48.4097" lon="2.61944">
        <ele>127.03</ele>
        <time>2012-03-04T08:40:25Z</time>
      </trkpt>
      <trkpt lat="48.4097" lon="2.61942">
        <ele>127.03</ele>
        <time>2012-03-04T08:40:40Z</time>
      </trkpt>
      <trkpt lat="48.40961" lon="2.61933">
        <ele>124.15</ele>
        <time>2012-03-04T08:40:45Z</time>
      </trkpt>
      <trkpt lat="48.40958" lon="2.6193">
        <ele>123.67</ele>
        <time>2012-03-04T08:40:46Z</time>
      </trkpt>
      <trkpt lat="48.40952" lon="2.61923">
        <ele>123.67</ele>
        <time>2012-03-04T08:40:48Z</time>
      </trkpt>
      <trkpt lat="48.40947" lon="2.61897">
        <ele>124.15</ele>
        <time>2012-03-04T08:40:57Z</time>
      </trkpt>
      <trkpt lat="48.40948" lon="2.61896">
        <ele>124.15</ele>
        <time>2012-03-04T08:41:05Z</time>
      </trkpt>
      <trkpt lat="48.40954" lon="2.61884">
        <ele>124.63</ele>
        <time>2012-03-04T08:41:11Z</time>
      </trkpt>
      <trkpt lat="48.40944" lon="2.61874">
        <ele>125.11</ele>
        <time>2012-03-04T08:41:18Z</time>
      </trkpt>
      <trkpt lat="48.40941" lon="2.61867">
        <ele>125.59</ele>
        <time>2012-03-04T08:41:22Z</time>
      </trkpt>
      <trkpt lat="48.4094" lon="2.61844">
        <ele>125.11</ele>
        <time>2012-03-04T08:41:28Z</time>
      </trkpt>
      <trkpt lat="48.40946" lon="2.61826">
        <ele>126.55</ele>
        <time>2012-03-04T08:41:36Z</time>
      </trkpt>
      <trkpt lat="48.40962" lon="2.61819">
        <ele>127.03</ele>
        <time>2012-03-04T08:41:47Z</time>
      </trkpt>
      <trkpt lat="48.40963" lon="2.61818">
        <ele>127.03</ele>
        <time>2012-03-04T08:41:48Z</time>
      </trkpt>
      <trkpt lat="48.4097" lon="2.61807">
        <ele>127.51</ele>
        <time>2012-03-04T08:41:54Z</time>
      </trkpt>
      <trkpt lat="48.4097" lon="2.61798">
        <ele>127.03</ele>
        <time>2012-03-04T08:41:57Z</time>
      </trkpt>
      <trkpt lat="48.40966" lon="2.6178">
        <ele>126.55</ele>
        <time>2012-03-04T08:42:03Z</time>
      </trkpt>
      <trkpt lat="48.40969" lon="2.61766">
        <ele>125.59</ele>
        <time>2012-03-04T08:42:11Z</time>
      </trkpt>
      <trkpt lat="48.4097" lon="2.61766">
        <ele>125.59</ele>
        <time>2012-03-04T08:42:27Z</time>
      </trkpt>
      <trkpt lat="48.40971" lon="2.61763">
        <ele>125.59</ele>
        <time>2012-03-04T08:42:41Z</time>
      </trkpt>
      <trkpt lat="48.40972" lon="2.61761">
        <ele>125.59</ele>
        <time>2012-03-04T08:42:56Z</time>
      </trkpt>
      <trkpt lat="48.40973" lon="2.61758">
        <ele>124.63</ele>
        <time>2012-03-04T08:43:24Z</time>
      </trkpt>
      <trkpt lat="48.40977" lon="2.61751">
        <ele>123.67</ele>
        <time>2012-03-04T08:43:26Z</time>
      </trkpt>
      <trkpt lat="48.40981" lon="2.61742">
        <ele>125.59</ele>
        <time>2012-03-04T08:43:30Z</time>
      </trkpt>
      <trkpt lat="48.40978" lon="2.61731">
        <ele>127.03</ele>
        <time>2012-03-04T08:43:44Z</time>
      </trkpt>
      <trkpt lat="48.40984" lon="2.61725">
        <ele>127.99</ele>
        <time>2012-03-04T08:43:55Z</time>
      </trkpt>
      <trkpt lat="48.40986" lon="2.61722">
        <ele>127.99</ele>
        <time>2012-03-04T08:44:03Z</time>
      </trkpt>
      <trkpt lat="48.40981" lon="2.61704">
        <ele>128.47</ele>
        <time>2012-03-04T08:44:11Z</time>
      </trkpt>
      <trkpt lat="48.40976" lon="2.61677">
        <ele>127.99</ele>
        <time>2012-03-04T08:44:19Z</time>
      </trkpt>
      <trkpt lat="48.4098" lon="2.61668">
        <ele>129.43</ele>
        <time>2012-03-04T08:44:22Z</time>
      </trkpt>
      <trkpt lat="48.40984" lon="2.61655">
        <ele>130.4</ele>
        <time>2012-03-04T08:44:27Z</time>
      </trkpt>
      <trkpt lat="48.40992" lon="2.61645">
        <ele>129.92</ele>
        <time>2012-03-04T08:44:34Z</time>
      </trkpt>
      <trkpt lat="48.40989" lon="2.61625">
        <ele>128.95</ele>
        <time>2012-03-04T08:44:40Z</time>
      </trkpt>
      <trkpt lat="48.40988" lon="2.61615">
        <ele>129.92</ele>
        <time>2012-03-04T08:44:51Z</time>
      </trkpt>
      <trkpt lat="48.40986" lon="2.61611">
        <ele>129.43</ele>
        <time>2012-03-04T08:44:57Z</time>
      </trkpt>
      <trkpt lat="48.40982" lon="2.61604">
        <ele>128.47</ele>
        <time>2012-03-04T08:45:01Z</time>
      </trkpt>
      <trkpt lat="48.40994" lon="2.61579">
        <ele>126.55</ele>
        <time>2012-03-04T08:45:10Z</time>
      </trkpt>
      <trkpt lat="48.41007" lon="2.61547">
        <ele>127.99</ele>
        <time>2012-03-04T08:45:22Z</time>
      </trkpt>
      <trkpt lat="48.41008" lon="2.61547">
        <ele>127.51</ele>
        <time>2012-03-04T08:45:23Z</time>
      </trkpt>
      <trkpt lat="48.41008" lon="2.61538">
        <ele>125.59</ele>
        <time>2012-03-04T08:45:27Z</time>
      </trkpt>
      <trkpt lat="48.41005" lon="2.61521">
        <ele>123.67</ele>
        <time>2012-03-04T08:45:31Z</time>
      </trkpt>
      <trkpt lat="48.41006" lon="2.61517">
        <ele>124.15</ele>
        <time>2012-03-04T08:45:36Z</time>
      </trkpt>
      <trkpt lat="48.41009" lon="2.61499">
        <ele>123.67</ele>
        <time>2012-03-04T08:45:48Z</time>
      </trkpt>
      <trkpt lat="48.41012" lon="2.61492">
        <ele>122.22</ele>
        <time>2012-03-04T08:45:51Z</time>
      </trkpt>
      <trkpt lat="48.41011" lon="2.6149">
        <ele>121.26</ele>
        <time>2012-03-04T08:46:01Z</time>
      </trkpt>
      <trkpt lat="48.4101" lon="2.61488">
        <ele>119.82</ele>
        <time>2012-03-04T08:46:12Z</time>
      </trkpt>
      <trkpt lat="48.41009" lon="2.61474">
        <ele>117.42</ele>
        <time>2012-03-04T08:46:20Z</time>
      </trkpt>
      <trkpt lat="48.4101" lon="2.61474">
        <ele>117.42</ele>
        <time>2012-03-04T08:46:21Z</time>
      </trkpt>
      <trkpt lat="48.4101" lon="2.61467">
        <ele>115.98</ele>
        <time>2012-03-04T08:46:28Z</time>
      </trkpt>
      <trkpt lat="48.4101" lon="2.61465">
        <ele>115.5</ele>
        <time>2012-03-04T08:46:38Z</time>
      </trkpt>
      <trkpt lat="48.4101" lon="2.61465">
        <ele>114.53</ele>
        <time>2012-03-04T08:47:04Z</time>
      </trkpt>
      <trkpt lat="48.41012" lon="2.61458">
        <ele>114.53</ele>
        <time>2012-03-04T08:47:14Z</time>
      </trkpt>
      <trkpt lat="48.41012" lon="2.61455">
        <ele>115.01</ele>
        <time>2012-03-04T08:47:24Z</time>
      </trkpt>
      <trkpt lat="48.41016" lon="2.61447">
        <ele>116.46</ele>
        <time>2012-03-04T08:47:38Z</time>
      </trkpt>
      <trkpt lat="48.41016" lon="2.61442">
        <ele>116.94</ele>
        <time>2012-03-04T08:47:42Z</time>
      </trkpt>
      <trkpt lat="48.41009" lon="2.61423">
        <ele>117.42</ele>
        <time>2012-03-04T08:47:57Z</time>
      </trkpt>
      <trkpt lat="48.41006" lon="2.6142">
        <ele>116.94</ele>
        <time>2012-03-04T08:48:00Z</time>
      </trkpt>
      <trkpt lat="48.41007" lon="2.61405">
        <ele>119.34</ele>
        <time>2012-03-04T08:48:10Z</time>
      </trkpt>
      <trkpt lat="48.41008" lon="2.61405">
        <ele>119.82</ele>
        <time>2012-03-04T08:48:19Z</time>
      </trkpt>
      <trkpt lat="48.41012" lon="2.61407">
        <ele>121.26</ele>
        <time>2012-03-04T08:48:23Z</time>
      </trkpt>
      <trkpt lat="48.41014" lon="2.61408">
        <ele>123.19</ele>
        <time>2012-03-04T08:48:33Z</time>
      </trkpt>
      <trkpt lat="48.41016" lon="2.6141">
        <ele>123.19</ele>
        <time>2012-03-04T08:48:35Z</time>
      </trkpt>
      <trkpt lat="48.41021" lon="2.61416">
        <ele>123.67</ele>
        <time>2012-03-04T08:48:40Z</time>
      </trkpt>
      <trkpt lat="48.41027" lon="2.61414">
        <ele>122.22</ele>
        <time>2012-03-04T08:48:52Z</time>
      </trkpt>
      <trkpt lat="48.41027" lon="2.61414">
        <ele>122.71</ele>
        <time>2012-03-04T08:49:30Z</time>
      </trkpt>
      <trkpt lat="48.41027" lon="2.61416">
        <ele>122.71</ele>
        <time>2012-03-04T08:50:02Z</time>
      </trkpt>
      <trkpt lat="48.41027" lon="2.61416">
        <ele>122.71</ele>
        <time>2012-03-04T08:50:05Z</time>
      </trkpt>
      <trkpt lat="48.41036" lon="2.61414">
        <ele>118.86</ele>
        <time>2012-03-04T08:50:11Z</time>
      </trkpt>
      <trkpt lat="48.41037" lon="2.61412">
        <ele>118.86</ele>
        <time>2012-03-04T08:50:12Z</time>
      </trkpt>
      <trkpt lat="48.41039" lon="2.61409">
        <ele>117.42</ele>
        <time>2012-03-04T08:50:20Z</time>
      </trkpt>
      <trkpt lat="48.41039" lon="2.61409">
        <ele>117.42</ele>
        <time>2012-03-04T08:50:51Z</time>
      </trkpt>
      <trkpt lat="48.41039" lon="2.61409">
        <ele>117.42</ele>
        <time>2012-03-04T08:51:19Z</time>
      </trkpt>
      <trkpt lat="48.41039" lon="2.61409">
        <ele>117.9</ele>
        <time>2012-03-04T08:51:50Z</time>
      </trkpt>
      <trkpt lat="48.41039" lon="2.61412">
        <ele>118.38</ele>
        <time>2012-03-04T08:52:02Z</time>
      </trkpt>
      <trkpt lat="48.41039" lon="2.61413">
        <ele>117.9</ele>
        <time>2012-03-04T08:52:27Z</time>
      </trkpt>
      <trkpt lat="48.41039" lon="2.61413">
        <ele>118.38</ele>
        <time>2012-03-04T08:52:53Z</time>
      </trkpt>
      <trkpt lat="48.41039" lon="2.61413">
        <ele>118.38</ele>
        <time>2012-03-04T08:52:56Z</time>
      </trkpt>
      <trkpt lat="48.41042" lon="2.61419">
        <ele>115.5</ele>
        <time>2012-03-04T08:52:59Z</time>
      </trkpt>
      <trkpt lat="48.41044" lon="2.61425">
        <ele>114.05</ele>
        <time>2012-03-04T08:53:00Z</time>
      </trkpt>
      <trkpt lat="48.41046" lon="2.6143">
        <ele>114.05</ele>
        <time>2012-03-04T08:53:01Z</time>
      </trkpt>
      <trkpt lat="48.41047" lon="2.61433">
        <ele>113.09</ele>
        <time>2012-03-04T08:53:02Z</time>
      </trkpt>
      <trkpt lat="48.41048" lon="2.61436">
        <ele>112.13</ele>
        <time>2012-03-04T08:53:04Z</time>
      </trkpt>
      <trkpt lat="48.41049" lon="2.61437">
        <ele>110.69</ele>
        <time>2012-03-04T08:53:21Z</time>
      </trkpt>
      <trkpt lat="48.41049" lon="2.61439">
        <ele>109.73</ele>
        <time>2012-03-04T08:53:31Z</time>
      </trkpt>
      <trkpt lat="48.41053" lon="2.61445">
        <ele>107.81</ele>
        <time>2012-03-04T08:53:33Z</time>
      </trkpt>
      <trkpt lat="48.41057" lon="2.61448">
        <ele>107.32</ele>
        <time>2012-03-04T08:53:44Z</time>
      </trkpt>
      <trkpt lat="48.41059" lon="2.61447">
        <ele>107.32</ele>
        <time>2012-03-04T08:53:59Z</time>
      </trkpt>
      <trkpt lat="48.41059" lon="2.61447">
        <ele>107.32</ele>
        <time>2012-03-04T08:54:05Z</time>
      </trkpt>
      <trkpt lat="48.41063" lon="2.61447">
        <ele>107.32</ele>
        <time>2012-03-04T08:54:18Z</time>
      </trkpt>
      <trkpt lat="48.41064" lon="2.61448">
        <ele>105.4</ele>
        <time>2012-03-04T08:54:33Z</time>
      </trkpt>
      <trkpt lat="48.41066" lon="2.61448">
        <ele>103.96</ele>
        <time>2012-03-04T08:54:47Z</time>
      </trkpt>
      <trkpt lat="48.41066" lon="2.61448">
        <ele>103.96</ele>
        <time>2012-03-04T08:54:49Z</time>
      </trkpt>
      <trkpt lat="48.41073" lon="2.61457">
        <ele>103.48</ele>
        <time>2012-03-04T08:54:59Z</time>
      </trkpt>
      <trkpt lat="48.41073" lon="2.61457">
        <ele>103</ele>
        <time>2012-03-04T08:55:09Z</time>
      </trkpt>
      <trkpt lat="48.41075" lon="2.61461">
        <ele>102.52</ele>
        <time>2012-03-04T08:55:14Z</time>
      </trkpt>
      <trkpt lat="48.41084" lon="2.61459">
        <ele>99.15</ele>
        <time>2012-03-04T08:55:19Z</time>
      </trkpt>
      <trkpt lat="48.41087" lon="2.61458">
        <ele>97.71</ele>
        <time>2012-03-04T08:55:20Z</time>
      </trkpt>
      <trkpt lat="48.41091" lon="2.61457">
        <ele>96.75</ele>
        <time>2012-03-04T08:55:23Z</time>
      </trkpt>
      <trkpt lat="48.41095" lon="2.61458">
        <ele>93.87</ele>
        <time>2012-03-04T08:55:25Z</time>
      </trkpt>
      <trkpt lat="48.411" lon="2.6146">
        <ele>92.42</ele>
        <time>2012-03-04T08:55:26Z</time>
      </trkpt>
      <trkpt lat="48.41104" lon="2.61462">
        <ele>90.98</ele>
        <time>2012-03-04T08:55:27Z</time>
      </trkpt>
      <trkpt lat="48.4111" lon="2.61467">
        <ele>90.02</ele>
        <time>2012-03-04T08:55:28Z</time>
      </trkpt>
      <trkpt lat="48.41116" lon="2.61471">
        <ele>90.02</ele>
        <time>2012-03-04T08:55:29Z</time>
      </trkpt>
      <trkpt lat="48.41121" lon="2.61474">
        <ele>90.02</ele>
        <time>2012-03-04T08:55:30Z</time>
      </trkpt>
      <trkpt lat="48.41126" lon="2.61476">
        <ele>89.54</ele>
        <time>2012-03-04T08:55:31Z</time>
      </trkpt>
      <trkpt lat="48.41131" lon="2.61478">
        <ele>88.58</ele>
        <time>2012-03-04T08:55:32Z</time>
      </trkpt>
      <trkpt lat="48.41137" lon="2.61481">
        <ele>88.1</ele>
        <time>2012-03-04T08:55:33Z</time>
      </trkpt>
      <trkpt lat="48.4116" lon="2.61492">
        <ele>88.1</ele>
        <time>2012-03-04T08:55:41Z</time>
      </trkpt>
      <trkpt lat="48.4116" lon="2.61495">
        <ele>88.1</ele>
        <time>2012-03-04T08:56:02Z</time>
      </trkpt>
      <trkpt lat="48.41159" lon="2.61499">
        <ele>88.1</ele>
        <time>2012-03-04T08:56:04Z</time>
      </trkpt>
      <trkpt lat="48.41159" lon="2.61501">
        <ele>88.58</ele>
        <time>2012-03-04T08:56:05Z</time>
      </trkpt>
      <trkpt lat="48.41159" lon="2.61504">
        <ele>88.1</ele>
        <time>2012-03-04T08:56:06Z</time>
      </trkpt>
      <trkpt lat="48.41158" lon="2.61507">
        <ele>88.1</ele>
        <time>2012-03-04T08:56:07Z</time>
      </trkpt>
      <trkpt lat="48.41158" lon="2.61511">
        <ele>88.1</ele>
        <time>2012-03-04T08:56:08Z</time>
      </trkpt>
      <trkpt lat="48.41157" lon="2.61516">
        <ele>88.58</ele>
        <time>2012-03-04T08:56:09Z</time>
      </trkpt>
      <trkpt lat="48.41157" lon="2.61519">
        <ele>88.58</ele>
        <time>2012-03-04T08:56:10Z</time>
      </trkpt>
      <trkpt lat="48.41156" lon="2.61523">
        <ele>88.58</ele>
        <time>2012-03-04T08:56:11Z</time>
      </trkpt>
      <trkpt lat="48.41153" lon="2.61535">
        <ele>89.06</ele>
        <time>2012-03-04T08:56:16Z</time>
      </trkpt>
      <trkpt lat="48.41152" lon="2.61538">
        <ele>88.58</ele>
        <time>2012-03-04T08:56:17Z</time>
      </trkpt>
      <trkpt lat="48.41143" lon="2.61585">
        <ele>89.54</ele>
        <time>2012-03-04T08:56:28Z</time>
      </trkpt>
      <trkpt lat="48.41129" lon="2.61634">
        <ele>90.02</ele>
        <time>2012-03-04T08:56:39Z</time>
      </trkpt>
      <trkpt lat="48.41118" lon="2.6171">
        <ele>91.94</ele>
        <time>2012-03-04T08:56:52Z</time>
      </trkpt>
      <trkpt lat="48.41105" lon="2.61785">
        <ele>93.87</ele>
        <time>2012-03-04T08:57:07Z</time>
      </trkpt>
      <trkpt lat="48.41089" lon="2.61811">
        <ele>94.83</ele>
        <time>2012-03-04T08:57:17Z</time>
      </trkpt>
      <trkpt lat="48.41068" lon="2.61826">
        <ele>95.79</ele>
        <time>2012-03-04T08:57:29Z</time>
      </trkpt>
      <trkpt lat="48.41052" lon="2.61835">
        <ele>99.15</ele>
        <time>2012-03-04T08:57:38Z</time>
      </trkpt>
      <trkpt lat="48.4104" lon="2.61847">
        <ele>101.56</ele>
        <time>2012-03-04T08:57:46Z</time>
      </trkpt>
      <trkpt lat="48.41033" lon="2.61855">
        <ele>103</ele>
        <time>2012-03-04T08:57:53Z</time>
      </trkpt>
      <trkpt lat="48.41031" lon="2.61858">
        <ele>104.44</ele>
        <time>2012-03-04T08:57:57Z</time>
      </trkpt>
      <trkpt lat="48.41024" lon="2.61858">
        <ele>106.36</ele>
        <time>2012-03-04T08:58:09Z</time>
      </trkpt>
      <trkpt lat="48.41022" lon="2.61859">
        <ele>107.81</ele>
        <time>2012-03-04T08:58:19Z</time>
      </trkpt>
      <trkpt lat="48.41017" lon="2.61857">
        <ele>110.21</ele>
        <time>2012-03-04T08:58:31Z</time>
      </trkpt>
      <trkpt lat="48.4101" lon="2.61849">
        <ele>112.61</ele>
        <time>2012-03-04T08:58:42Z</time>
      </trkpt>
      <trkpt lat="48.41005" lon="2.61846">
        <ele>115.98</ele>
        <time>2012-03-04T08:58:54Z</time>
      </trkpt>
      <trkpt lat="48.41005" lon="2.61848">
        <ele>116.46</ele>
        <time>2012-03-04T08:58:56Z</time>
      </trkpt>
      <trkpt lat="48.41" lon="2.61841">
        <ele>117.9</ele>
        <time>2012-03-04T08:59:07Z</time>
      </trkpt>
      <trkpt lat="48.40991" lon="2.61838">
        <ele>120.78</ele>
        <time>2012-03-04T08:59:18Z</time>
      </trkpt>
      <trkpt lat="48.40983" lon="2.6183">
        <ele>122.22</ele>
        <time>2012-03-04T08:59:27Z</time>
      </trkpt>
      <trkpt lat="48.40977" lon="2.61825">
        <ele>123.67</ele>
        <time>2012-03-04T08:59:34Z</time>
      </trkpt>
      <trkpt lat="48.4097" lon="2.6182">
        <ele>126.55</ele>
        <time>2012-03-04T08:59:44Z</time>
      </trkpt>
      <trkpt lat="48.40967" lon="2.61807">
        <ele>128.47</ele>
        <time>2012-03-04T08:59:56Z</time>
      </trkpt>
      <trkpt lat="48.40967" lon="2.61805">
        <ele>128.47</ele>
        <time>2012-03-04T08:59:59Z</time>
      </trkpt>
      <trkpt lat="48.40969" lon="2.61792">
        <ele>128.47</ele>
        <time>2012-03-04T09:00:04Z</time>
      </trkpt>
      <trkpt lat="48.40967" lon="2.61779">
        <ele>127.99</ele>
        <time>2012-03-04T09:00:14Z</time>
      </trkpt>
      <trkpt lat="48.40968" lon="2.61778">
        <ele>128.47</ele>
        <time>2012-03-04T09:00:18Z</time>
      </trkpt>
      <trkpt lat="48.40973" lon="2.6177">
        <ele>127.51</ele>
        <time>2012-03-04T09:00:24Z</time>
      </trkpt>
      <trkpt lat="48.40975" lon="2.61765">
        <ele>127.03</ele>
        <time>2012-03-04T09:00:31Z</time>
      </trkpt>
      <trkpt lat="48.40977" lon="2.61756">
        <ele>125.59</ele>
        <time>2012-03-04T09:00:40Z</time>
      </trkpt>
      <trkpt lat="48.40977" lon="2.61756">
        <ele>125.59</ele>
        <time>2012-03-04T09:01:00Z</time>
      </trkpt>
      <trkpt lat="48.40977" lon="2.61756">
        <ele>126.07</ele>
        <time>2012-03-04T09:01:27Z</time>
      </trkpt>
      <trkpt lat="48.40977" lon="2.61756">
        <ele>126.07</ele>
        <time>2012-03-04T09:01:50Z</time>
      </trkpt>
      <trkpt lat="48.40976" lon="2.61751">
        <ele>126.07</ele>
        <time>2012-03-04T09:02:15Z</time>
      </trkpt>
      <trkpt lat="48.40975" lon="2.6175">
        <ele>126.07</ele>
        <time>2012-03-04T09:02:29Z</time>
      </trkpt>
      <trkpt lat="48.40975" lon="2.6175">
        <ele>126.07</ele>
        <time>2012-03-04T09:03:02Z</time>
      </trkpt>
      <trkpt lat="48.40975" lon="2.6175">
        <ele>126.55</ele>
        <time>2012-03-04T09:03:24Z</time>
      </trkpt>
      <trkpt lat="48.40976" lon="2.6175">
        <ele>127.03</ele>
        <time>2012-03-04T09:03:48Z</time>
      </trkpt>
      <trkpt lat="48.40971" lon="2.61744">
        <ele>126.07</ele>
        <time>2012-03-04T09:04:05Z</time>
      </trkpt>
      <trkpt lat="48.40968" lon="2.61736">
        <ele>125.11</ele>
        <time>2012-03-04T09:04:08Z</time>
      </trkpt>
      <trkpt lat="48.40955" lon="2.61715">
        <ele>126.07</ele>
        <time>2012-03-04T09:04:19Z</time>
      </trkpt>
      <trkpt lat="48.40948" lon="2.61712">
        <ele>125.59</ele>
        <time>2012-03-04T09:04:27Z</time>
      </trkpt>
      <trkpt lat="48.4094" lon="2.61707">
        <ele>123.19</ele>
        <time>2012-03-04T09:04:31Z</time>
      </trkpt>
      <trkpt lat="48.40939" lon="2.61705">
        <ele>123.19</ele>
        <time>2012-03-04T09:04:32Z</time>
      </trkpt>
      <trkpt lat="48.40937" lon="2.61701">
        <ele>121.74</ele>
        <time>2012-03-04T09:04:34Z</time>
      </trkpt>
      <trkpt lat="48.40929" lon="2.61691">
        <ele>118.86</ele>
        <time>2012-03-04T09:04:38Z</time>
      </trkpt>
      <trkpt lat="48.40925" lon="2.61683">
        <ele>117.42</ele>
        <time>2012-03-04T09:04:40Z</time>
      </trkpt>
      <trkpt lat="48.40923" lon="2.61678">
        <ele>116.94</ele>
        <time>2012-03-04T09:04:41Z</time>
      </trkpt>
      <trkpt lat="48.40922" lon="2.61674">
        <ele>116.46</ele>
        <time>2012-03-04T09:04:42Z</time>
      </trkpt>
      <trkpt lat="48.40922" lon="2.61671">
        <ele>116.46</ele>
        <time>2012-03-04T09:04:43Z</time>
      </trkpt>
      <trkpt lat="48.40922" lon="2.61669">
        <ele>116.46</ele>
        <time>2012-03-04T09:04:44Z</time>
      </trkpt>
      <trkpt lat="48.40922" lon="2.61667">
        <ele>116.46</ele>
        <time>2012-03-04T09:04:45Z</time>
      </trkpt>
      <trkpt lat="48.40921" lon="2.61666">
        <ele>115.01</ele>
        <time>2012-03-04T09:04:46Z</time>
      </trkpt>
      <trkpt lat="48.40919" lon="2.61663">
        <ele>114.05</ele>
        <time>2012-03-04T09:04:47Z</time>
      </trkpt>
      <trkpt lat="48.40918" lon="2.61661">
        <ele>113.57</ele>
        <time>2012-03-04T09:04:48Z</time>
      </trkpt>
      <trkpt lat="48.40918" lon="2.61658">
        <ele>113.09</ele>
        <time>2012-03-04T09:04:49Z</time>
      </trkpt>
      <trkpt lat="48.4092" lon="2.61652">
        <ele>112.61</ele>
        <time>2012-03-04T09:04:58Z</time>
      </trkpt>
      <trkpt lat="48.4092" lon="2.6165">
        <ele>112.61</ele>
        <time>2012-03-04T09:05:00Z</time>
      </trkpt>
      <trkpt lat="48.40924" lon="2.61644">
        <ele>112.13</ele>
        <time>2012-03-04T09:05:09Z</time>
      </trkpt>
      <trkpt lat="48.40924" lon="2.61643">
        <ele>111.65</ele>
        <time>2012-03-04T09:05:26Z</time>
      </trkpt>
      <trkpt lat="48.40922" lon="2.61643">
        <ele>111.65</ele>
        <time>2012-03-04T09:05:32Z</time>
      </trkpt>
      <trkpt lat="48.40914" lon="2.61645">
        <ele>109.73</ele>
        <time>2012-03-04T09:05:36Z</time>
      </trkpt>
      <trkpt lat="48.40913" lon="2.61646">
        <ele>109.25</ele>
        <time>2012-03-04T09:05:37Z</time>
      </trkpt>
      <trkpt lat="48.40912" lon="2.61647">
        <ele>108.77</ele>
        <time>2012-03-04T09:05:38Z</time>
      </trkpt>
      <trkpt lat="48.4091" lon="2.61646">
        <ele>108.77</ele>
        <time>2012-03-04T09:05:39Z</time>
      </trkpt>
      <trkpt lat="48.40909" lon="2.61644">
        <ele>107.81</ele>
        <time>2012-03-04T09:05:40Z</time>
      </trkpt>
      <trkpt lat="48.40908" lon="2.61641">
        <ele>107.32</ele>
        <time>2012-03-04T09:05:41Z</time>
      </trkpt>
      <trkpt lat="48.40908" lon="2.61639">
        <ele>106.84</ele>
        <time>2012-03-04T09:05:42Z</time>
      </trkpt>
      <trkpt lat="48.40907" lon="2.61637">
        <ele>106.36</ele>
        <time>2012-03-04T09:05:43Z</time>
      </trkpt>
      <trkpt lat="48.40905" lon="2.61636">
        <ele>105.88</ele>
        <time>2012-03-04T09:05:44Z</time>
      </trkpt>
      <trkpt lat="48.40904" lon="2.61634">
        <ele>104.92</ele>
        <time>2012-03-04T09:05:45Z</time>
      </trkpt>
      <trkpt lat="48.40902" lon="2.61631">
        <ele>104.44</ele>
        <time>2012-03-04T09:05:46Z</time>
      </trkpt>
      <trkpt lat="48.40897" lon="2.61627">
        <ele>101.56</ele>
        <time>2012-03-04T09:05:48Z</time>
      </trkpt>
      <trkpt lat="48.40883" lon="2.61622">
        <ele>98.19</ele>
        <time>2012-03-04T09:05:51Z</time>
      </trkpt>
      <trkpt lat="48.40879" lon="2.6162">
        <ele>98.19</ele>
        <time>2012-03-04T09:05:52Z</time>
      </trkpt>
      <trkpt lat="48.40848" lon="2.61598">
        <ele>94.83</ele>
        <time>2012-03-04T09:06:00Z</time>
      </trkpt>
      <trkpt lat="48.40862" lon="2.61573">
        <ele>94.35</ele>
        <time>2012-03-04T09:06:10Z</time>
      </trkpt>
      <trkpt lat="48.40867" lon="2.61568">
        <ele>93.87</ele>
        <time>2012-03-04T09:06:12Z</time>
      </trkpt>
      <trkpt lat="48.40896" lon="2.61512">
        <ele>93.39</ele>
        <time>2012-03-04T09:06:25Z</time>
      </trkpt>
      <trkpt lat="48.40912" lon="2.61443">
        <ele>90.5</ele>
        <time>2012-03-04T09:06:37Z</time>
      </trkpt>
      <trkpt lat="48.40913" lon="2.61437">
        <ele>90.5</ele>
        <time>2012-03-04T09:06:38Z</time>
      </trkpt>
      <trkpt lat="48.40911" lon="2.61378">
        <ele>89.06</ele>
        <time>2012-03-04T09:06:48Z</time>
      </trkpt>
      <trkpt lat="48.40902" lon="2.61313">
        <ele>88.58</ele>
        <time>2012-03-04T09:07:00Z</time>
      </trkpt>
      <trkpt lat="48.40889" lon="2.61239">
        <ele>88.58</ele>
        <time>2012-03-04T09:07:14Z</time>
      </trkpt>
      <trkpt lat="48.40882" lon="2.61179">
        <ele>90.5</ele>
        <time>2012-03-04T09:07:26Z</time>
      </trkpt>
      <trkpt lat="48.40881" lon="2.61119">
        <ele>92.42</ele>
        <time>2012-03-04T09:07:38Z</time>
      </trkpt>
      <trkpt lat="48.40887" lon="2.61076">
        <ele>94.83</ele>
        <time>2012-03-04T09:07:49Z</time>
      </trkpt>
      <trkpt lat="48.40896" lon="2.6105">
        <ele>96.75</ele>
        <time>2012-03-04T09:07:59Z</time>
      </trkpt>
      <trkpt lat="48.40895" lon="2.61048">
        <ele>96.75</ele>
        <time>2012-03-04T09:08:00Z</time>
      </trkpt>
      <trkpt lat="48.40895" lon="2.61047">
        <ele>97.23</ele>
        <time>2012-03-04T09:08:01Z</time>
      </trkpt>
      <trkpt lat="48.4089" lon="2.61044">
        <ele>98.19</ele>
        <time>2012-03-04T09:08:04Z</time>
      </trkpt>
      <trkpt lat="48.40888" lon="2.61044">
        <ele>98.19</ele>
        <time>2012-03-04T09:08:06Z</time>
      </trkpt>
      <trkpt lat="48.40886" lon="2.61043">
        <ele>98.19</ele>
        <time>2012-03-04T09:08:07Z</time>
      </trkpt>
      <trkpt lat="48.40883" lon="2.61042">
        <ele>98.67</ele>
        <time>2012-03-04T09:08:08Z</time>
      </trkpt>
      <trkpt lat="48.40881" lon="2.61041">
        <ele>98.67</ele>
        <time>2012-03-04T09:08:09Z</time>
      </trkpt>
      <trkpt lat="48.40879" lon="2.6104">
        <ele>99.15</ele>
        <time>2012-03-04T09:08:10Z</time>
      </trkpt>
      <trkpt lat="48.40874" lon="2.61035">
        <ele>99.63</ele>
        <time>2012-03-04T09:08:13Z</time>
      </trkpt>
      <trkpt lat="48.40873" lon="2.61032">
        <ele>100.11</ele>
        <time>2012-03-04T09:08:14Z</time>
      </trkpt>
      <trkpt lat="48.4087" lon="2.61027">
        <ele>101.08</ele>
        <time>2012-03-04T09:08:16Z</time>
      </trkpt>
      <trkpt lat="48.40869" lon="2.61024">
        <ele>101.56</ele>
        <time>2012-03-04T09:08:18Z</time>
      </trkpt>
      <trkpt lat="48.40869" lon="2.61022">
        <ele>102.04</ele>
        <time>2012-03-04T09:08:19Z</time>
      </trkpt>
      <trkpt lat="48.40869" lon="2.6102">
        <ele>101.56</ele>
        <time>2012-03-04T09:08:20Z</time>
      </trkpt>
      <trkpt lat="48.40868" lon="2.61017">
        <ele>102.52</ele>
        <time>2012-03-04T09:08:21Z</time>
      </trkpt>
      <trkpt lat="48.40867" lon="2.61015">
        <ele>102.52</ele>
        <time>2012-03-04T09:08:22Z</time>
      </trkpt>
      <trkpt lat="48.40866" lon="2.61013">
        <ele>103</ele>
        <time>2012-03-04T09:08:23Z</time>
      </trkpt>
      <trkpt lat="48.40864" lon="2.61011">
        <ele>103</ele>
        <time>2012-03-04T09:08:24Z</time>
      </trkpt>
      <trkpt lat="48.40862" lon="2.6101">
        <ele>103.48</ele>
        <time>2012-03-04T09:08:25Z</time>
      </trkpt>
      <trkpt lat="48.4086" lon="2.61009">
        <ele>104.44</ele>
        <time>2012-03-04T09:08:26Z</time>
      </trkpt>
      <trkpt lat="48.40855" lon="2.60996">
        <ele>106.36</ele>
        <time>2012-03-04T09:08:35Z</time>
      </trkpt>
      <trkpt lat="48.40851" lon="2.60982">
        <ele>109.25</ele>
        <time>2012-03-04T09:08:45Z</time>
      </trkpt>
      <trkpt lat="48.4085" lon="2.60979">
        <ele>109.73</ele>
        <time>2012-03-04T09:08:47Z</time>
      </trkpt>
      <trkpt lat="48.40849" lon="2.60977">
        <ele>110.21</ele>
        <time>2012-03-04T09:08:48Z</time>
      </trkpt>
      <trkpt lat="48.40844" lon="2.60964">
        <ele>112.61</ele>
        <time>2012-03-04T09:08:59Z</time>
      </trkpt>
      <trkpt lat="48.40841" lon="2.60956">
        <ele>113.57</ele>
        <time>2012-03-04T09:09:03Z</time>
      </trkpt>
      <trkpt lat="48.40835" lon="2.60954">
        <ele>114.05</ele>
        <time>2012-03-04T09:09:08Z</time>
      </trkpt>
      <trkpt lat="48.40833" lon="2.60951">
        <ele>114.53</ele>
        <time>2012-03-04T09:09:23Z</time>
      </trkpt>
      <trkpt lat="48.40832" lon="2.60952">
        <ele>114.05</ele>
        <time>2012-03-04T09:09:53Z</time>
      </trkpt>
      <trkpt lat="48.40831" lon="2.60951">
        <ele>114.05</ele>
        <time>2012-03-04T09:10:11Z</time>
      </trkpt>
      <trkpt lat="48.40827" lon="2.60941">
        <ele>113.09</ele>
        <time>2012-03-04T09:10:15Z</time>
      </trkpt>
      <trkpt lat="48.40825" lon="2.60939">
        <ele>112.61</ele>
        <time>2012-03-04T09:10:16Z</time>
      </trkpt>
      <trkpt lat="48.40823" lon="2.60937">
        <ele>112.13</ele>
        <time>2012-03-04T09:10:17Z</time>
      </trkpt>
      <trkpt lat="48.40822" lon="2.60934">
        <ele>112.13</ele>
        <time>2012-03-04T09:10:18Z</time>
      </trkpt>
      <trkpt lat="48.40821" lon="2.60932">
        <ele>111.65</ele>
        <time>2012-03-04T09:10:19Z</time>
      </trkpt>
      <trkpt lat="48.4082" lon="2.6093">
        <ele>111.65</ele>
        <time>2012-03-04T09:10:20Z</time>
      </trkpt>
      <trkpt lat="48.4082" lon="2.60926">
        <ele>110.69</ele>
        <time>2012-03-04T09:10:22Z</time>
      </trkpt>
      <trkpt lat="48.40823" lon="2.60908">
        <ele>107.81</ele>
        <time>2012-03-04T09:10:28Z</time>
      </trkpt>
      <trkpt lat="48.40824" lon="2.60882">
        <ele>103.48</ele>
        <time>2012-03-04T09:10:34Z</time>
      </trkpt>
      <trkpt lat="48.40825" lon="2.60878">
        <ele>103.48</ele>
        <time>2012-03-04T09:10:35Z</time>
      </trkpt>
      <trkpt lat="48.40825" lon="2.60873">
        <ele>103.48</ele>
        <time>2012-03-04T09:10:37Z</time>
      </trkpt>
      <trkpt lat="48.40814" lon="2.60863">
        <ele>99.63</ele>
        <time>2012-03-04T09:10:42Z</time>
      </trkpt>
      <trkpt lat="48.40813" lon="2.6086">
        <ele>99.15</ele>
        <time>2012-03-04T09:10:43Z</time>
      </trkpt>
      <trkpt lat="48.40816" lon="2.60864">
        <ele>99.15</ele>
        <time>2012-03-04T09:10:54Z</time>
      </trkpt>
      <trkpt lat="48.40817" lon="2.60867">
        <ele>99.15</ele>
        <time>2012-03-04T09:11:09Z</time>
      </trkpt>
      <trkpt lat="48.40817" lon="2.60867">
        <ele>98.67</ele>
        <time>2012-03-04T09:11:10Z</time>
      </trkpt>
      <trkpt lat="48.40827" lon="2.60874">
        <ele>101.08</ele>
        <time>2012-03-04T09:11:16Z</time>
      </trkpt>
      <trkpt lat="48.40837" lon="2.60876">
        <ele>103</ele>
        <time>2012-03-04T09:11:26Z</time>
      </trkpt>
      <trkpt lat="48.40837" lon="2.60875">
        <ele>103</ele>
        <time>2012-03-04T09:11:27Z</time>
      </trkpt>
      <trkpt lat="48.40833" lon="2.6086">
        <ele>98.19</ele>
        <time>2012-03-04T09:11:31Z</time>
      </trkpt>
      <trkpt lat="48.40835" lon="2.60848">
        <ele>95.79</ele>
        <time>2012-03-04T09:11:34Z</time>
      </trkpt>
      <trkpt lat="48.40841" lon="2.60832">
        <ele>91.46</ele>
        <time>2012-03-04T09:11:37Z</time>
      </trkpt>
      <trkpt lat="48.40843" lon="2.60828">
        <ele>91.46</ele>
        <time>2012-03-04T09:11:38Z</time>
      </trkpt>
      <trkpt lat="48.40844" lon="2.60824">
        <ele>91.94</ele>
        <time>2012-03-04T09:11:39Z</time>
      </trkpt>
      <trkpt lat="48.40844" lon="2.60822">
        <ele>91.46</ele>
        <time>2012-03-04T09:11:40Z</time>
      </trkpt>
      <trkpt lat="48.40845" lon="2.6082">
        <ele>91.46</ele>
        <time>2012-03-04T09:11:41Z</time>
      </trkpt>
      <trkpt lat="48.40846" lon="2.60818">
        <ele>91.46</ele>
        <time>2012-03-04T09:11:42Z</time>
      </trkpt>
      <trkpt lat="48.40845" lon="2.60816">
        <ele>91.46</ele>
        <time>2012-03-04T09:11:45Z</time>
      </trkpt>
      <trkpt lat="48.40843" lon="2.60817">
        <ele>91.46</ele>
        <time>2012-03-04T09:11:47Z</time>
      </trkpt>
      <trkpt lat="48.40842" lon="2.60818">
        <ele>91.94</ele>
        <time>2012-03-04T09:11:48Z</time>
      </trkpt>
      <trkpt lat="48.40824" lon="2.6083">
        <ele>92.9</ele>
        <time>2012-03-04T09:11:59Z</time>
      </trkpt>
      <trkpt lat="48.40799" lon="2.60854">
        <ele>94.35</ele>
        <time>2012-03-04T09:12:12Z</time>
      </trkpt>
      <trkpt lat="48.4078" lon="2.60871">
        <ele>95.31</ele>
        <time>2012-03-04T09:12:22Z</time>
      </trkpt>
      <trkpt lat="48.40779" lon="2.6087">
        <ele>94.83</ele>
        <time>2012-03-04T09:12:23Z</time>
      </trkpt>
      <trkpt lat="48.40778" lon="2.60867">
        <ele>94.83</ele>
        <time>2012-03-04T09:12:24Z</time>
      </trkpt>
      <trkpt lat="48.40777" lon="2.60864">
        <ele>95.31</ele>
        <time>2012-03-04T09:12:25Z</time>
      </trkpt>
      <trkpt lat="48.40777" lon="2.6086">
        <ele>94.83</ele>
        <time>2012-03-04T09:12:26Z</time>
      </trkpt>
      <trkpt lat="48.40777" lon="2.60855">
        <ele>94.83</ele>
        <time>2012-03-04T09:12:27Z</time>
      </trkpt>
      <trkpt lat="48.40778" lon="2.60851">
        <ele>94.83</ele>
        <time>2012-03-04T09:12:28Z</time>
      </trkpt>
      <trkpt lat="48.40778" lon="2.60847">
        <ele>94.83</ele>
        <time>2012-03-04T09:12:29Z</time>
      </trkpt>
      <trkpt lat="48.40778" lon="2.60843">
        <ele>94.83</ele>
        <time>2012-03-04T09:12:30Z</time>
      </trkpt>
      <trkpt lat="48.40779" lon="2.60798">
        <ele>95.31</ele>
        <time>2012-03-04T09:12:39Z</time>
      </trkpt>
      <trkpt lat="48.40781" lon="2.60751">
        <ele>98.19</ele>
        <time>2012-03-04T09:12:50Z</time>
      </trkpt>
      <trkpt lat="48.40782" lon="2.60706">
        <ele>97.23</ele>
        <time>2012-03-04T09:13:01Z</time>
      </trkpt>
      <trkpt lat="48.40781" lon="2.60698">
        <ele>97.23</ele>
        <time>2012-03-04T09:13:03Z</time>
      </trkpt>
      <trkpt lat="48.4078" lon="2.60695">
        <ele>97.23</ele>
        <time>2012-03-04T09:13:04Z</time>
      </trkpt>
      <trkpt lat="48.40779" lon="2.60694">
        <ele>97.71</ele>
        <time>2012-03-04T09:13:05Z</time>
      </trkpt>
      <trkpt lat="48.40778" lon="2.60693">
        <ele>97.71</ele>
        <time>2012-03-04T09:13:06Z</time>
      </trkpt>
      <trkpt lat="48.40777" lon="2.60693">
        <ele>97.71</ele>
        <time>2012-03-04T09:13:07Z</time>
      </trkpt>
      <trkpt lat="48.40775" lon="2.60692">
        <ele>98.19</ele>
        <time>2012-03-04T09:13:08Z</time>
      </trkpt>
      <trkpt lat="48.40752" lon="2.60689">
        <ele>100.6</ele>
        <time>2012-03-04T09:13:19Z</time>
      </trkpt>
      <trkpt lat="48.40744" lon="2.6069">
        <ele>102.04</ele>
        <time>2012-03-04T09:13:24Z</time>
      </trkpt>
      <trkpt lat="48.40743" lon="2.60689">
        <ele>102.04</ele>
        <time>2012-03-04T09:13:25Z</time>
      </trkpt>
      <trkpt lat="48.40741" lon="2.60689">
        <ele>102.52</ele>
        <time>2012-03-04T09:13:26Z</time>
      </trkpt>
      <trkpt lat="48.40739" lon="2.60687">
        <ele>103</ele>
        <time>2012-03-04T09:13:27Z</time>
      </trkpt>
      <trkpt lat="48.40737" lon="2.60688">
        <ele>103</ele>
        <time>2012-03-04T09:13:28Z</time>
      </trkpt>
      <trkpt lat="48.40736" lon="2.60687">
        <ele>103.48</ele>
        <time>2012-03-04T09:13:29Z</time>
      </trkpt>
      <trkpt lat="48.40735" lon="2.60686">
        <ele>103.48</ele>
        <time>2012-03-04T09:13:30Z</time>
      </trkpt>
      <trkpt lat="48.40733" lon="2.60685">
        <ele>103.96</ele>
        <time>2012-03-04T09:13:31Z</time>
      </trkpt>
      <trkpt lat="48.40731" lon="2.60685">
        <ele>104.44</ele>
        <time>2012-03-04T09:13:32Z</time>
      </trkpt>
      <trkpt lat="48.4073" lon="2.60684">
        <ele>104.44</ele>
        <time>2012-03-04T09:13:33Z</time>
      </trkpt>
      <trkpt lat="48.40729" lon="2.60684">
        <ele>104.92</ele>
        <time>2012-03-04T09:13:34Z</time>
      </trkpt>
      <trkpt lat="48.40725" lon="2.60681">
        <ele>105.88</ele>
        <time>2012-03-04T09:13:47Z</time>
      </trkpt>
      <trkpt lat="48.40723" lon="2.60677">
        <ele>107.81</ele>
        <time>2012-03-04T09:14:03Z</time>
      </trkpt>
      <trkpt lat="48.40722" lon="2.60675">
        <ele>110.21</ele>
        <time>2012-03-04T09:14:15Z</time>
      </trkpt>
      <trkpt lat="48.40713" lon="2.60677">
        <ele>112.13</ele>
        <time>2012-03-04T09:14:30Z</time>
      </trkpt>
      <trkpt lat="48.40709" lon="2.60676">
        <ele>112.61</ele>
        <time>2012-03-04T09:14:41Z</time>
      </trkpt>
      <trkpt lat="48.40709" lon="2.60676">
        <ele>113.09</ele>
        <time>2012-03-04T09:15:00Z</time>
      </trkpt>
      <trkpt lat="48.40709" lon="2.60676">
        <ele>113.09</ele>
        <time>2012-03-04T09:15:29Z</time>
      </trkpt>
      <trkpt lat="48.40709" lon="2.60674">
        <ele>113.09</ele>
        <time>2012-03-04T09:15:34Z</time>
      </trkpt>
      <trkpt lat="48.40707" lon="2.60673">
        <ele>113.09</ele>
        <time>2012-03-04T09:15:35Z</time>
      </trkpt>
      <trkpt lat="48.40705" lon="2.60672">
        <ele>113.09</ele>
        <time>2012-03-04T09:15:39Z</time>
      </trkpt>
      <trkpt lat="48.40703" lon="2.60671">
        <ele>113.57</ele>
        <time>2012-03-04T09:15:40Z</time>
      </trkpt>
      <trkpt lat="48.407" lon="2.60669">
        <ele>114.05</ele>
        <time>2012-03-04T09:15:42Z</time>
      </trkpt>
      <trkpt lat="48.40699" lon="2.60667">
        <ele>114.05</ele>
        <time>2012-03-04T09:15:43Z</time>
      </trkpt>
      <trkpt lat="48.40699" lon="2.60664">
        <ele>114.53</ele>
        <time>2012-03-04T09:15:44Z</time>
      </trkpt>
      <trkpt lat="48.40699" lon="2.60662">
        <ele>114.53</ele>
        <time>2012-03-04T09:15:45Z</time>
      </trkpt>
      <trkpt lat="48.407" lon="2.60659">
        <ele>115.01</ele>
        <time>2012-03-04T09:15:46Z</time>
      </trkpt>
      <trkpt lat="48.407" lon="2.60656">
        <ele>115.5</ele>
        <time>2012-03-04T09:15:47Z</time>
      </trkpt>
      <trkpt lat="48.40699" lon="2.60653">
        <ele>115.98</ele>
        <time>2012-03-04T09:15:48Z</time>
      </trkpt>
      <trkpt lat="48.40698" lon="2.60652">
        <ele>116.46</ele>
        <time>2012-03-04T09:15:49Z</time>
      </trkpt>
      <trkpt lat="48.40697" lon="2.6065">
        <ele>116.94</ele>
        <time>2012-03-04T09:15:50Z</time>
      </trkpt>
      <trkpt lat="48.40696" lon="2.60648">
        <ele>116.46</ele>
        <time>2012-03-04T09:15:51Z</time>
      </trkpt>
      <trkpt lat="48.40696" lon="2.60646">
        <ele>116.94</ele>
        <time>2012-03-04T09:15:52Z</time>
      </trkpt>
      <trkpt lat="48.40695" lon="2.60642">
        <ele>117.42</ele>
        <time>2012-03-04T09:15:53Z</time>
      </trkpt>
      <trkpt lat="48.40695" lon="2.6064">
        <ele>117.9</ele>
        <time>2012-03-04T09:15:54Z</time>
      </trkpt>
      <trkpt lat="48.40694" lon="2.60638">
        <ele>118.38</ele>
        <time>2012-03-04T09:15:55Z</time>
      </trkpt>
      <trkpt lat="48.40678" lon="2.60617">
        <ele>121.26</ele>
        <time>2012-03-04T09:16:06Z</time>
      </trkpt>
      <trkpt lat="48.40677" lon="2.60615">
        <ele>121.74</ele>
        <time>2012-03-04T09:16:07Z</time>
      </trkpt>
      <trkpt lat="48.40676" lon="2.60612">
        <ele>122.22</ele>
        <time>2012-03-04T09:16:08Z</time>
      </trkpt>
      <trkpt lat="48.40672" lon="2.6061">
        <ele>123.19</ele>
        <time>2012-03-04T09:16:10Z</time>
      </trkpt>
      <trkpt lat="48.40667" lon="2.60604">
        <ele>124.63</ele>
        <time>2012-03-04T09:16:15Z</time>
      </trkpt>
      <trkpt lat="48.40668" lon="2.606">
        <ele>124.63</ele>
        <time>2012-03-04T09:16:18Z</time>
      </trkpt>
      <trkpt lat="48.40677" lon="2.60591">
        <ele>124.15</ele>
        <time>2012-03-04T09:16:25Z</time>
      </trkpt>
      <trkpt lat="48.40692" lon="2.60547">
        <ele>124.15</ele>
        <time>2012-03-04T09:16:41Z</time>
      </trkpt>
      <trkpt lat="48.40692" lon="2.60497">
        <ele>123.67</ele>
        <time>2012-03-04T09:16:52Z</time>
      </trkpt>
      <trkpt lat="48.40694" lon="2.60433">
        <ele>124.15</ele>
        <time>2012-03-04T09:17:05Z</time>
      </trkpt>
      <trkpt lat="48.40692" lon="2.60411">
        <ele>124.63</ele>
        <time>2012-03-04T09:17:10Z</time>
      </trkpt>
      <trkpt lat="48.40661" lon="2.60384">
        <ele>123.19</ele>
        <time>2012-03-04T09:17:22Z</time>
      </trkpt>
      <trkpt lat="48.40629" lon="2.60349">
        <ele>123.67</ele>
        <time>2012-03-04T09:17:34Z</time>
      </trkpt>
      <trkpt lat="48.40604" lon="2.60304">
        <ele>124.15</ele>
        <time>2012-03-04T09:17:47Z</time>
      </trkpt>
      <trkpt lat="48.40615" lon="2.60235">
        <ele>124.15</ele>
        <time>2012-03-04T09:18:00Z</time>
      </trkpt>
      <trkpt lat="48.4062" lon="2.60198">
        <ele>124.15</ele>
        <time>2012-03-04T09:18:07Z</time>
      </trkpt>
      <trkpt lat="48.40638" lon="2.60113">
        <ele>123.19</ele>
        <time>2012-03-04T09:18:23Z</time>
      </trkpt>
      <trkpt lat="48.40643" lon="2.60084">
        <ele>123.67</ele>
        <time>2012-03-04T09:18:28Z</time>
      </trkpt>
      <trkpt lat="48.40646" lon="2.60033">
        <ele>123.67</ele>
        <time>2012-03-04T09:18:36Z</time>
      </trkpt>
      <trkpt lat="48.40646" lon="2.60027">
        <ele>123.19</ele>
        <time>2012-03-04T09:18:37Z</time>
      </trkpt>
      <trkpt lat="48.40645" lon="2.59953">
        <ele>123.67</ele>
        <time>2012-03-04T09:18:49Z</time>
      </trkpt>
      <trkpt lat="48.40634" lon="2.59879">
        <ele>123.19</ele>
        <time>2012-03-04T09:19:02Z</time>
      </trkpt>
      <trkpt lat="48.40605" lon="2.59837">
        <ele>124.15</ele>
        <time>2012-03-04T09:19:14Z</time>
      </trkpt>
      <trkpt lat="48.406" lon="2.59826">
        <ele>123.67</ele>
        <time>2012-03-04T09:19:18Z</time>
      </trkpt>
      <trkpt lat="48.406" lon="2.59823">
        <ele>123.19</ele>
        <time>2012-03-04T09:19:19Z</time>
      </trkpt>
      <trkpt lat="48.40601" lon="2.59821">
        <ele>123.19</ele>
        <time>2012-03-04T09:19:20Z</time>
      </trkpt>
      <trkpt lat="48.40602" lon="2.59818">
        <ele>123.19</ele>
        <time>2012-03-04T09:19:21Z</time>
      </trkpt>
      <trkpt lat="48.40605" lon="2.59813">
        <ele>123.19</ele>
        <time>2012-03-04T09:19:22Z</time>
      </trkpt>
      <trkpt lat="48.40617" lon="2.5979">
        <ele>122.22</ele>
        <time>2012-03-04T09:19:30Z</time>
      </trkpt>
      <trkpt lat="48.40618" lon="2.59788">
        <ele>122.22</ele>
        <time>2012-03-04T09:19:31Z</time>
      </trkpt>
      <trkpt lat="48.4063" lon="2.59773">
        <ele>120.78</ele>
        <time>2012-03-04T09:19:37Z</time>
      </trkpt>
      <trkpt lat="48.40631" lon="2.59771">
        <ele>120.78</ele>
        <time>2012-03-04T09:19:38Z</time>
      </trkpt>
      <trkpt lat="48.40632" lon="2.59769">
        <ele>120.78</ele>
        <time>2012-03-04T09:19:39Z</time>
      </trkpt>
      <trkpt lat="48.40633" lon="2.59765">
        <ele>119.82</ele>
        <time>2012-03-04T09:19:45Z</time>
      </trkpt>
      <trkpt lat="48.40635" lon="2.59755">
        <ele>117.9</ele>
        <time>2012-03-04T09:19:53Z</time>
      </trkpt>
      <trkpt lat="48.40639" lon="2.59743">
        <ele>115.5</ele>
        <time>2012-03-04T09:19:59Z</time>
      </trkpt>
      <trkpt lat="48.40642" lon="2.59737">
        <ele>115.98</ele>
        <time>2012-03-04T09:20:00Z</time>
      </trkpt>
      <trkpt lat="48.40643" lon="2.5973">
        <ele>118.38</ele>
        <time>2012-03-04T09:20:06Z</time>
      </trkpt>
      <trkpt lat="48.40647" lon="2.59717">
        <ele>119.82</ele>
        <time>2012-03-04T09:20:16Z</time>
      </trkpt>
      <trkpt lat="48.40646" lon="2.59716">
        <ele>120.3</ele>
        <time>2012-03-04T09:20:18Z</time>
      </trkpt>
      <trkpt lat="48.40645" lon="2.59714">
        <ele>120.3</ele>
        <time>2012-03-04T09:20:19Z</time>
      </trkpt>
      <trkpt lat="48.40643" lon="2.59712">
        <ele>120.78</ele>
        <time>2012-03-04T09:20:21Z</time>
      </trkpt>
      <trkpt lat="48.40641" lon="2.5971">
        <ele>121.74</ele>
        <time>2012-03-04T09:20:23Z</time>
      </trkpt>
      <trkpt lat="48.40641" lon="2.59709">
        <ele>121.74</ele>
        <time>2012-03-04T09:20:24Z</time>
      </trkpt>
      <trkpt lat="48.40641" lon="2.59703">
        <ele>121.74</ele>
        <time>2012-03-04T09:20:28Z</time>
      </trkpt>
      <trkpt lat="48.4064" lon="2.59701">
        <ele>121.26</ele>
        <time>2012-03-04T09:20:29Z</time>
      </trkpt>
      <trkpt lat="48.40639" lon="2.59699">
        <ele>121.26</ele>
        <time>2012-03-04T09:20:30Z</time>
      </trkpt>
      <trkpt lat="48.40638" lon="2.59697">
        <ele>122.22</ele>
        <time>2012-03-04T09:20:31Z</time>
      </trkpt>
      <trkpt lat="48.40636" lon="2.59695">
        <ele>121.74</ele>
        <time>2012-03-04T09:20:32Z</time>
      </trkpt>
      <trkpt lat="48.40634" lon="2.59692">
        <ele>121.74</ele>
        <time>2012-03-04T09:20:33Z</time>
      </trkpt>
      <trkpt lat="48.40632" lon="2.5969">
        <ele>122.22</ele>
        <time>2012-03-04T09:20:34Z</time>
      </trkpt>
      <trkpt lat="48.40631" lon="2.59687">
        <ele>122.22</ele>
        <time>2012-03-04T09:20:35Z</time>
      </trkpt>
      <trkpt lat="48.40631" lon="2.59684">
        <ele>122.22</ele>
        <time>2012-03-04T09:20:36Z</time>
      </trkpt>
      <trkpt lat="48.4063" lon="2.59682">
        <ele>122.22</ele>
        <time>2012-03-04T09:20:37Z</time>
      </trkpt>
      <trkpt lat="48.40629" lon="2.5968">
        <ele>122.22</ele>
        <time>2012-03-04T09:20:38Z</time>
      </trkpt>
      <trkpt lat="48.40629" lon="2.59677">
        <ele>122.22</ele>
        <time>2012-03-04T09:20:39Z</time>
      </trkpt>
      <trkpt lat="48.40629" lon="2.59673">
        <ele>121.74</ele>
        <time>2012-03-04T09:20:40Z</time>
      </trkpt>
      <trkpt lat="48.40629" lon="2.59667">
        <ele>120.78</ele>
        <time>2012-03-04T09:20:41Z</time>
      </trkpt>
      <trkpt lat="48.4063" lon="2.59663">
        <ele>120.78</ele>
        <time>2012-03-04T09:20:42Z</time>
      </trkpt>
      <trkpt lat="48.4063" lon="2.59653">
        <ele>122.22</ele>
        <time>2012-03-04T09:20:49Z</time>
      </trkpt>
      <trkpt lat="48.40638" lon="2.59623">
        <ele>121.26</ele>
        <time>2012-03-04T09:20:56Z</time>
      </trkpt>
      <trkpt lat="48.40639" lon="2.59619">
        <ele>121.74</ele>
        <time>2012-03-04T09:20:57Z</time>
      </trkpt>
      <trkpt lat="48.40643" lon="2.59602">
        <ele>122.22</ele>
        <time>2012-03-04T09:21:01Z</time>
      </trkpt>
      <trkpt lat="48.40651" lon="2.59583">
        <ele>121.26</ele>
        <time>2012-03-04T09:21:10Z</time>
      </trkpt>
      <trkpt lat="48.40651" lon="2.59583">
        <ele>121.26</ele>
        <time>2012-03-04T09:21:33Z</time>
      </trkpt>
      <trkpt lat="48.40663" lon="2.59573">
        <ele>120.78</ele>
        <time>2012-03-04T09:21:43Z</time>
      </trkpt>
      <trkpt lat="48.40664" lon="2.5957">
        <ele>120.78</ele>
        <time>2012-03-04T09:21:45Z</time>
      </trkpt>
      <trkpt lat="48.40663" lon="2.59562">
        <ele>118.86</ele>
        <time>2012-03-04T09:21:48Z</time>
      </trkpt>
      <trkpt lat="48.40664" lon="2.59558">
        <ele>118.86</ele>
        <time>2012-03-04T09:21:49Z</time>
      </trkpt>
      <trkpt lat="48.40683" lon="2.59521">
        <ele>118.38</ele>
        <time>2012-03-04T09:21:59Z</time>
      </trkpt>
      <trkpt lat="48.40685" lon="2.59516">
        <ele>116.94</ele>
        <time>2012-03-04T09:22:01Z</time>
      </trkpt>
      <trkpt lat="48.40694" lon="2.59503">
        <ele>116.46</ele>
        <time>2012-03-04T09:22:03Z</time>
      </trkpt>
      <trkpt lat="48.40691" lon="2.59469">
        <ele>115.98</ele>
        <time>2012-03-04T09:22:12Z</time>
      </trkpt>
      <trkpt lat="48.40686" lon="2.59462">
        <ele>114.53</ele>
        <time>2012-03-04T09:22:22Z</time>
      </trkpt>
      <trkpt lat="48.4068" lon="2.59458">
        <ele>115.98</ele>
        <time>2012-03-04T09:22:25Z</time>
      </trkpt>
      <trkpt lat="48.40673" lon="2.59455">
        <ele>116.94</ele>
        <time>2012-03-04T09:22:29Z</time>
      </trkpt>
      <trkpt lat="48.4067" lon="2.59452">
        <ele>118.86</ele>
        <time>2012-03-04T09:22:41Z</time>
      </trkpt>
      <trkpt lat="48.40669" lon="2.59452">
        <ele>119.34</ele>
        <time>2012-03-04T09:22:56Z</time>
      </trkpt>
      <trkpt lat="48.40668" lon="2.59449">
        <ele>119.82</ele>
        <time>2012-03-04T09:23:11Z</time>
      </trkpt>
      <trkpt lat="48.40667" lon="2.59448">
        <ele>119.34</ele>
        <time>2012-03-04T09:23:14Z</time>
      </trkpt>
      <trkpt lat="48.40655" lon="2.5943">
        <ele>121.74</ele>
        <time>2012-03-04T09:23:23Z</time>
      </trkpt>
      <trkpt lat="48.4065" lon="2.59418">
        <ele>121.74</ele>
        <time>2012-03-04T09:23:27Z</time>
      </trkpt>
      <trkpt lat="48.40643" lon="2.59381">
        <ele>121.74</ele>
        <time>2012-03-04T09:23:37Z</time>
      </trkpt>
      <trkpt lat="48.40635" lon="2.59343">
        <ele>123.19</ele>
        <time>2012-03-04T09:23:50Z</time>
      </trkpt>
      <trkpt lat="48.40634" lon="2.59336">
        <ele>123.19</ele>
        <time>2012-03-04T09:23:57Z</time>
      </trkpt>
      <trkpt lat="48.4064" lon="2.59333">
        <ele>122.22</ele>
        <time>2012-03-04T09:24:01Z</time>
      </trkpt>
      <trkpt lat="48.40656" lon="2.59342">
        <ele>119.82</ele>
        <time>2012-03-04T09:24:08Z</time>
      </trkpt>
      <trkpt lat="48.40667" lon="2.59345">
        <ele>118.86</ele>
        <time>2012-03-04T09:24:11Z</time>
      </trkpt>
      <trkpt lat="48.40672" lon="2.59343">
        <ele>117.9</ele>
        <time>2012-03-04T09:24:17Z</time>
      </trkpt>
      <trkpt lat="48.40673" lon="2.59346">
        <ele>116.94</ele>
        <time>2012-03-04T09:24:18Z</time>
      </trkpt>
      <trkpt lat="48.40672" lon="2.59347">
        <ele>115.5</ele>
        <time>2012-03-04T09:24:19Z</time>
      </trkpt>
      <trkpt lat="48.40672" lon="2.59349">
        <ele>115.5</ele>
        <time>2012-03-04T09:24:20Z</time>
      </trkpt>
      <trkpt lat="48.40672" lon="2.59352">
        <ele>114.05</ele>
        <time>2012-03-04T09:24:21Z</time>
      </trkpt>
      <trkpt lat="48.40675" lon="2.59355">
        <ele>111.65</ele>
        <time>2012-03-04T09:24:22Z</time>
      </trkpt>
      <trkpt lat="48.40678" lon="2.5936">
        <ele>109.73</ele>
        <time>2012-03-04T09:24:23Z</time>
      </trkpt>
      <trkpt lat="48.40681" lon="2.59367">
        <ele>109.25</ele>
        <time>2012-03-04T09:24:24Z</time>
      </trkpt>
      <trkpt lat="48.40684" lon="2.59373">
        <ele>107.81</ele>
        <time>2012-03-04T09:24:25Z</time>
      </trkpt>
      <trkpt lat="48.40687" lon="2.59377">
        <ele>106.84</ele>
        <time>2012-03-04T09:24:26Z</time>
      </trkpt>
      <trkpt lat="48.40691" lon="2.59379">
        <ele>105.88</ele>
        <time>2012-03-04T09:24:27Z</time>
      </trkpt>
      <trkpt lat="48.40707" lon="2.59375">
        <ele>103</ele>
        <time>2012-03-04T09:24:30Z</time>
      </trkpt>
      <trkpt lat="48.40713" lon="2.59372">
        <ele>101.56</ele>
        <time>2012-03-04T09:24:31Z</time>
      </trkpt>
      <trkpt lat="48.40719" lon="2.59369">
        <ele>101.08</ele>
        <time>2012-03-04T09:24:32Z</time>
      </trkpt>
      <trkpt lat="48.40724" lon="2.59368">
        <ele>100.11</ele>
        <time>2012-03-04T09:24:33Z</time>
      </trkpt>
      <trkpt lat="48.40729" lon="2.59369">
        <ele>99.63</ele>
        <time>2012-03-04T09:24:34Z</time>
      </trkpt>
      <trkpt lat="48.40734" lon="2.59371">
        <ele>99.63</ele>
        <time>2012-03-04T09:24:35Z</time>
      </trkpt>
      <trkpt lat="48.40738" lon="2.59373">
        <ele>100.6</ele>
        <time>2012-03-04T09:24:36Z</time>
      </trkpt>
      <trkpt lat="48.40746" lon="2.59379">
        <ele>102.04</ele>
        <time>2012-03-04T09:24:39Z</time>
      </trkpt>
      <trkpt lat="48.40747" lon="2.59382">
        <ele>103</ele>
        <time>2012-03-04T09:24:40Z</time>
      </trkpt>
      <trkpt lat="48.40749" lon="2.59384">
        <ele>103.48</ele>
        <time>2012-03-04T09:24:42Z</time>
      </trkpt>
      <trkpt lat="48.40759" lon="2.59393">
        <ele>106.84</ele>
        <time>2012-03-04T09:24:56Z</time>
      </trkpt>
      <trkpt lat="48.40762" lon="2.594">
        <ele>107.32</ele>
        <time>2012-03-04T09:25:10Z</time>
      </trkpt>
      <trkpt lat="48.40763" lon="2.59405">
        <ele>108.29</ele>
        <time>2012-03-04T09:25:14Z</time>
      </trkpt>
      <trkpt lat="48.40764" lon="2.59416">
        <ele>108.29</ele>
        <time>2012-03-04T09:25:21Z</time>
      </trkpt>
      <trkpt lat="48.40763" lon="2.59423">
        <ele>107.32</ele>
        <time>2012-03-04T09:25:23Z</time>
      </trkpt>
      <trkpt lat="48.40762" lon="2.59425">
        <ele>106.84</ele>
        <time>2012-03-04T09:25:24Z</time>
      </trkpt>
      <trkpt lat="48.40763" lon="2.59429">
        <ele>104.92</ele>
        <time>2012-03-04T09:25:26Z</time>
      </trkpt>
      <trkpt lat="48.40771" lon="2.59433">
        <ele>100.11</ele>
        <time>2012-03-04T09:25:30Z</time>
      </trkpt>
      <trkpt lat="48.40775" lon="2.59433">
        <ele>98.67</ele>
        <time>2012-03-04T09:25:31Z</time>
      </trkpt>
      <trkpt lat="48.4079" lon="2.59437">
        <ele>94.35</ele>
        <time>2012-03-04T09:25:35Z</time>
      </trkpt>
      <trkpt lat="48.40793" lon="2.59438">
        <ele>94.35</ele>
        <time>2012-03-04T09:25:36Z</time>
      </trkpt>
      <trkpt lat="48.40801" lon="2.59434">
        <ele>93.39</ele>
        <time>2012-03-04T09:25:48Z</time>
      </trkpt>
      <trkpt lat="48.40801" lon="2.59434">
        <ele>93.87</ele>
        <time>2012-03-04T09:25:52Z</time>
      </trkpt>
      <trkpt lat="48.40802" lon="2.59434">
        <ele>93.39</ele>
        <time>2012-03-04T09:26:12Z</time>
      </trkpt>
      <trkpt lat="48.40803" lon="2.59434">
        <ele>93.39</ele>
        <time>2012-03-04T09:26:39Z</time>
      </trkpt>
      <trkpt lat="48.40804" lon="2.59434">
        <ele>94.35</ele>
        <time>2012-03-04T09:27:06Z</time>
      </trkpt>
      <trkpt lat="48.40805" lon="2.59435">
        <ele>93.87</ele>
        <time>2012-03-04T09:27:08Z</time>
      </trkpt>
      <trkpt lat="48.40813" lon="2.5944">
        <ele>92.42</ele>
        <time>2012-03-04T09:27:12Z</time>
      </trkpt>
      <trkpt lat="48.40828" lon="2.59429">
        <ele>93.39</ele>
        <time>2012-03-04T09:27:20Z</time>
      </trkpt>
      <trkpt lat="48.40832" lon="2.5941">
        <ele>94.35</ele>
        <time>2012-03-04T09:27:31Z</time>
      </trkpt>
      <trkpt lat="48.40833" lon="2.59407">
        <ele>94.35</ele>
        <time>2012-03-04T09:27:43Z</time>
      </trkpt>
      <trkpt lat="48.40833" lon="2.59407">
        <ele>94.35</ele>
        <time>2012-03-04T09:28:18Z</time>
      </trkpt>
      <trkpt lat="48.40833" lon="2.59402">
        <ele>94.83</ele>
        <time>2012-03-04T09:28:49Z</time>
      </trkpt>
      <trkpt lat="48.40832" lon="2.59396">
        <ele>94.83</ele>
        <time>2012-03-04T09:28:51Z</time>
      </trkpt>
      <trkpt lat="48.40831" lon="2.59382">
        <ele>95.79</ele>
        <time>2012-03-04T09:28:57Z</time>
      </trkpt>
      <trkpt lat="48.40833" lon="2.5938">
        <ele>95.79</ele>
        <time>2012-03-04T09:28:59Z</time>
      </trkpt>
      <trkpt lat="48.40834" lon="2.59372">
        <ele>94.83</ele>
        <time>2012-03-04T09:29:03Z</time>
      </trkpt>
      <trkpt lat="48.40833" lon="2.59362">
        <ele>93.87</ele>
        <time>2012-03-04T09:29:05Z</time>
      </trkpt>
      <trkpt lat="48.40837" lon="2.59328">
        <ele>90.98</ele>
        <time>2012-03-04T09:29:10Z</time>
      </trkpt>
      <trkpt lat="48.40839" lon="2.59319">
        <ele>90.98</ele>
        <time>2012-03-04T09:29:11Z</time>
      </trkpt>
      <trkpt lat="48.40842" lon="2.59311">
        <ele>90.98</ele>
        <time>2012-03-04T09:29:12Z</time>
      </trkpt>
      <trkpt lat="48.40844" lon="2.59304">
        <ele>90.5</ele>
        <time>2012-03-04T09:29:13Z</time>
      </trkpt>
      <trkpt lat="48.40846" lon="2.59297">
        <ele>90.5</ele>
        <time>2012-03-04T09:29:14Z</time>
      </trkpt>
      <trkpt lat="48.40848" lon="2.59289">
        <ele>89.06</ele>
        <time>2012-03-04T09:29:15Z</time>
      </trkpt>
      <trkpt lat="48.40849" lon="2.59282">
        <ele>88.1</ele>
        <time>2012-03-04T09:29:16Z</time>
      </trkpt>
      <trkpt lat="48.40851" lon="2.59276">
        <ele>87.14</ele>
        <time>2012-03-04T09:29:17Z</time>
      </trkpt>
      <trkpt lat="48.40853" lon="2.59271">
        <ele>85.69</ele>
        <time>2012-03-04T09:29:18Z</time>
      </trkpt>
      <trkpt lat="48.40855" lon="2.59267">
        <ele>86.18</ele>
        <time>2012-03-04T09:29:19Z</time>
      </trkpt>
      <trkpt lat="48.40858" lon="2.59262">
        <ele>84.73</ele>
        <time>2012-03-04T09:29:20Z</time>
      </trkpt>
      <trkpt lat="48.40861" lon="2.59257">
        <ele>84.25</ele>
        <time>2012-03-04T09:29:21Z</time>
      </trkpt>
      <trkpt lat="48.40865" lon="2.59253">
        <ele>83.77</ele>
        <time>2012-03-04T09:29:22Z</time>
      </trkpt>
      <trkpt lat="48.40868" lon="2.59253">
        <ele>83.29</ele>
        <time>2012-03-04T09:29:23Z</time>
      </trkpt>
      <trkpt lat="48.40871" lon="2.59254">
        <ele>83.29</ele>
        <time>2012-03-04T09:29:24Z</time>
      </trkpt>
      <trkpt lat="48.40873" lon="2.59254">
        <ele>82.81</ele>
        <time>2012-03-04T09:29:25Z</time>
      </trkpt>
      <trkpt lat="48.40875" lon="2.5925">
        <ele>82.81</ele>
        <time>2012-03-04T09:29:26Z</time>
      </trkpt>
      <trkpt lat="48.40877" lon="2.59245">
        <ele>81.85</ele>
        <time>2012-03-04T09:29:27Z</time>
      </trkpt>
      <trkpt lat="48.4088" lon="2.59241">
        <ele>81.37</ele>
        <time>2012-03-04T09:29:28Z</time>
      </trkpt>
      <trkpt lat="48.40883" lon="2.59239">
        <ele>80.89</ele>
        <time>2012-03-04T09:29:29Z</time>
      </trkpt>
      <trkpt lat="48.40888" lon="2.59238">
        <ele>80.41</ele>
        <time>2012-03-04T09:29:30Z</time>
      </trkpt>
      <trkpt lat="48.40893" lon="2.59235">
        <ele>79.93</ele>
        <time>2012-03-04T09:29:31Z</time>
      </trkpt>
      <trkpt lat="48.40898" lon="2.59233">
        <ele>79.93</ele>
        <time>2012-03-04T09:29:32Z</time>
      </trkpt>
      <trkpt lat="48.40903" lon="2.59231">
        <ele>80.41</ele>
        <time>2012-03-04T09:29:33Z</time>
      </trkpt>
      <trkpt lat="48.40907" lon="2.5923">
        <ele>79.93</ele>
        <time>2012-03-04T09:29:34Z</time>
      </trkpt>
      <trkpt lat="48.4092" lon="2.59223">
        <ele>78</ele>
        <time>2012-03-04T09:29:37Z</time>
      </trkpt>
      <trkpt lat="48.40924" lon="2.59221">
        <ele>77.52</ele>
        <time>2012-03-04T09:29:38Z</time>
      </trkpt>
      <trkpt lat="48.40933" lon="2.59213">
        <ele>77.52</ele>
        <time>2012-03-04T09:29:40Z</time>
      </trkpt>
      <trkpt lat="48.40938" lon="2.5921">
        <ele>77.04</ele>
        <time>2012-03-04T09:29:41Z</time>
      </trkpt>
      <trkpt lat="48.40941" lon="2.5921">
        <ele>77.04</ele>
        <time>2012-03-04T09:29:42Z</time>
      </trkpt>
      <trkpt lat="48.40951" lon="2.59213">
        <ele>76.56</ele>
        <time>2012-03-04T09:29:44Z</time>
      </trkpt>
      <trkpt lat="48.40957" lon="2.59212">
        <ele>76.08</ele>
        <time>2012-03-04T09:29:45Z</time>
      </trkpt>
      <trkpt lat="48.40963" lon="2.59209">
        <ele>76.08</ele>
        <time>2012-03-04T09:29:46Z</time>
      </trkpt>
      <trkpt lat="48.40968" lon="2.59205">
        <ele>76.08</ele>
        <time>2012-03-04T09:29:47Z</time>
      </trkpt>
      <trkpt lat="48.40971" lon="2.59201">
        <ele>76.08</ele>
        <time>2012-03-04T09:29:48Z</time>
      </trkpt>
      <trkpt lat="48.40976" lon="2.59197">
        <ele>76.08</ele>
        <time>2012-03-04T09:29:49Z</time>
      </trkpt>
      <trkpt lat="48.40978" lon="2.59192">
        <ele>76.08</ele>
        <time>2012-03-04T09:29:51Z</time>
      </trkpt>
      <trkpt lat="48.40979" lon="2.5919">
        <ele>76.08</ele>
        <time>2012-03-04T09:29:52Z</time>
      </trkpt>
      <trkpt lat="48.40979" lon="2.59188">
        <ele>76.08</ele>
        <time>2012-03-04T09:29:53Z</time>
      </trkpt>
      <trkpt lat="48.4098" lon="2.59186">
        <ele>76.08</ele>
        <time>2012-03-04T09:29:54Z</time>
      </trkpt>
      <trkpt lat="48.40981" lon="2.59184">
        <ele>76.08</ele>
        <time>2012-03-04T09:29:55Z</time>
      </trkpt>
      <trkpt lat="48.40987" lon="2.59172">
        <ele>75.6</ele>
        <time>2012-03-04T09:30:07Z</time>
      </trkpt>
      <trkpt lat="48.40987" lon="2.59172">
        <ele>76.08</ele>
        <time>2012-03-04T09:30:31Z</time>
      </trkpt>
      <trkpt lat="48.40988" lon="2.59173">
        <ele>75.12</ele>
        <time>2012-03-04T09:30:43Z</time>
      </trkpt>
      <trkpt lat="48.40988" lon="2.59174">
        <ele>75.6</ele>
        <time>2012-03-04T09:30:44Z</time>
      </trkpt>
      <trkpt lat="48.40989" lon="2.59176">
        <ele>75.12</ele>
        <time>2012-03-04T09:30:45Z</time>
      </trkpt>
      <trkpt lat="48.40989" lon="2.59178">
        <ele>75.6</ele>
        <time>2012-03-04T09:30:46Z</time>
      </trkpt>
      <trkpt lat="48.40989" lon="2.5918">
        <ele>75.6</ele>
        <time>2012-03-04T09:30:47Z</time>
      </trkpt>
      <trkpt lat="48.40988" lon="2.59183">
        <ele>75.6</ele>
        <time>2012-03-04T09:30:48Z</time>
      </trkpt>
      <trkpt lat="48.40987" lon="2.59184">
        <ele>75.6</ele>
        <time>2012-03-04T09:30:49Z</time>
      </trkpt>
      <trkpt lat="48.40986" lon="2.59186">
        <ele>75.6</ele>
        <time>2012-03-04T09:30:50Z</time>
      </trkpt>
      <trkpt lat="48.40985" lon="2.59187">
        <ele>75.6</ele>
        <time>2012-03-04T09:30:51Z</time>
      </trkpt>
      <trkpt lat="48.40964" lon="2.59192">
        <ele>76.56</ele>
        <time>2012-03-04T09:31:04Z</time>
      </trkpt>
      <trkpt lat="48.40926" lon="2.59205">
        <ele>78.48</ele>
        <time>2012-03-04T09:31:18Z</time>
      </trkpt>
      <trkpt lat="48.40892" lon="2.59227">
        <ele>81.37</ele>
        <time>2012-03-04T09:31:30Z</time>
      </trkpt>
      <trkpt lat="48.4086" lon="2.59246">
        <ele>84.73</ele>
        <time>2012-03-04T09:31:42Z</time>
      </trkpt>
      <trkpt lat="48.4083" lon="2.59261">
        <ele>87.62</ele>
        <time>2012-03-04T09:31:53Z</time>
      </trkpt>
      <trkpt lat="48.40801" lon="2.59279">
        <ele>90.98</ele>
        <time>2012-03-04T09:32:04Z</time>
      </trkpt>
      <trkpt lat="48.40775" lon="2.59282">
        <ele>93.87</ele>
        <time>2012-03-04T09:32:14Z</time>
      </trkpt>
      <trkpt lat="48.40762" lon="2.59282">
        <ele>95.79</ele>
        <time>2012-03-04T09:32:19Z</time>
      </trkpt>
      <trkpt lat="48.40736" lon="2.59268">
        <ele>99.15</ele>
        <time>2012-03-04T09:32:30Z</time>
      </trkpt>
      <trkpt lat="48.40728" lon="2.59242">
        <ele>102.04</ele>
        <time>2012-03-04T09:32:39Z</time>
      </trkpt>
      <trkpt lat="48.40727" lon="2.59231">
        <ele>103</ele>
        <time>2012-03-04T09:32:43Z</time>
      </trkpt>
      <trkpt lat="48.40727" lon="2.59218">
        <ele>104.44</ele>
        <time>2012-03-04T09:32:47Z</time>
      </trkpt>
      <trkpt lat="48.40727" lon="2.59197">
        <ele>105.88</ele>
        <time>2012-03-04T09:32:54Z</time>
      </trkpt>
      <trkpt lat="48.40726" lon="2.59194">
        <ele>105.88</ele>
        <time>2012-03-04T09:32:55Z</time>
      </trkpt>
      <trkpt lat="48.40725" lon="2.59192">
        <ele>106.36</ele>
        <time>2012-03-04T09:32:56Z</time>
      </trkpt>
      <trkpt lat="48.40722" lon="2.59189">
        <ele>106.84</ele>
        <time>2012-03-04T09:32:58Z</time>
      </trkpt>
      <trkpt lat="48.40717" lon="2.59188">
        <ele>107.81</ele>
        <time>2012-03-04T09:33:01Z</time>
      </trkpt>
      <trkpt lat="48.40715" lon="2.59188">
        <ele>107.81</ele>
        <time>2012-03-04T09:33:02Z</time>
      </trkpt>
      <trkpt lat="48.40714" lon="2.59189">
        <ele>108.29</ele>
        <time>2012-03-04T09:33:03Z</time>
      </trkpt>
      <trkpt lat="48.40712" lon="2.59191">
        <ele>108.29</ele>
        <time>2012-03-04T09:33:04Z</time>
      </trkpt>
      <trkpt lat="48.4071" lon="2.59192">
        <ele>108.77</ele>
        <time>2012-03-04T09:33:05Z</time>
      </trkpt>
      <trkpt lat="48.40709" lon="2.59194">
        <ele>108.77</ele>
        <time>2012-03-04T09:33:06Z</time>
      </trkpt>
      <trkpt lat="48.40707" lon="2.59196">
        <ele>109.25</ele>
        <time>2012-03-04T09:33:07Z</time>
      </trkpt>
      <trkpt lat="48.40706" lon="2.59199">
        <ele>109.73</ele>
        <time>2012-03-04T09:33:08Z</time>
      </trkpt>
      <trkpt lat="48.40704" lon="2.59201">
        <ele>109.73</ele>
        <time>2012-03-04T09:33:09Z</time>
      </trkpt>
      <trkpt lat="48.40703" lon="2.59203">
        <ele>110.21</ele>
        <time>2012-03-04T09:33:10Z</time>
      </trkpt>
      <trkpt lat="48.40682" lon="2.59228">
        <ele>113.57</ele>
        <time>2012-03-04T09:33:23Z</time>
      </trkpt>
      <trkpt lat="48.40666" lon="2.59221">
        <ele>115.01</ele>
        <time>2012-03-04T09:33:34Z</time>
      </trkpt>
      <trkpt lat="48.40654" lon="2.59206">
        <ele>115.5</ele>
        <time>2012-03-04T09:33:45Z</time>
      </trkpt>
      <trkpt lat="48.40648" lon="2.59205">
        <ele>114.53</ele>
        <time>2012-03-04T09:33:58Z</time>
      </trkpt>
      <trkpt lat="48.40646" lon="2.59208">
        <ele>114.53</ele>
        <time>2012-03-04T09:33:59Z</time>
      </trkpt>
      <trkpt lat="48.40646" lon="2.59211">
        <ele>115.01</ele>
        <time>2012-03-04T09:34:00Z</time>
      </trkpt>
      <trkpt lat="48.40645" lon="2.59215">
        <ele>116.46</ele>
        <time>2012-03-04T09:34:03Z</time>
      </trkpt>
      <trkpt lat="48.40643" lon="2.59218">
        <ele>117.9</ele>
        <time>2012-03-04T09:34:06Z</time>
      </trkpt>
      <trkpt lat="48.40642" lon="2.5922">
        <ele>118.38</ele>
        <time>2012-03-04T09:34:07Z</time>
      </trkpt>
      <trkpt lat="48.40641" lon="2.59228">
        <ele>120.78</ele>
        <time>2012-03-04T09:34:15Z</time>
      </trkpt>
      <trkpt lat="48.40642" lon="2.5923">
        <ele>121.74</ele>
        <time>2012-03-04T09:34:17Z</time>
      </trkpt>
      <trkpt lat="48.40642" lon="2.59232">
        <ele>121.74</ele>
        <time>2012-03-04T09:34:18Z</time>
      </trkpt>
      <trkpt lat="48.40646" lon="2.59243">
        <ele>124.15</ele>
        <time>2012-03-04T09:34:26Z</time>
      </trkpt>
      <trkpt lat="48.40645" lon="2.59246">
        <ele>124.15</ele>
        <time>2012-03-04T09:34:27Z</time>
      </trkpt>
      <trkpt lat="48.40645" lon="2.59248">
        <ele>124.63</ele>
        <time>2012-03-04T09:34:28Z</time>
      </trkpt>
      <trkpt lat="48.40644" lon="2.59277">
        <ele>124.15</ele>
        <time>2012-03-04T09:34:39Z</time>
      </trkpt>
      <trkpt lat="48.40636" lon="2.59309">
        <ele>123.19</ele>
        <time>2012-03-04T09:34:51Z</time>
      </trkpt>
      <trkpt lat="48.40636" lon="2.59313">
        <ele>123.67</ele>
        <time>2012-03-04T09:34:52Z</time>
      </trkpt>
      <trkpt lat="48.40636" lon="2.59316">
        <ele>123.67</ele>
        <time>2012-03-04T09:34:53Z</time>
      </trkpt>
      <trkpt lat="48.40636" lon="2.5932">
        <ele>123.19</ele>
        <time>2012-03-04T09:34:54Z</time>
      </trkpt>
      <trkpt lat="48.40635" lon="2.59323">
        <ele>123.67</ele>
        <time>2012-03-04T09:34:55Z</time>
      </trkpt>
      <trkpt lat="48.40635" lon="2.59327">
        <ele>124.15</ele>
        <time>2012-03-04T09:34:56Z</time>
      </trkpt>
      <trkpt lat="48.40634" lon="2.59332">
        <ele>124.63</ele>
        <time>2012-03-04T09:34:58Z</time>
      </trkpt>
      <trkpt lat="48.40633" lon="2.59333">
        <ele>124.15</ele>
        <time>2012-03-04T09:34:59Z</time>
      </trkpt>
      <trkpt lat="48.40632" lon="2.59333">
        <ele>124.15</ele>
        <time>2012-03-04T09:35:00Z</time>
      </trkpt>
      <trkpt lat="48.4063" lon="2.59334">
        <ele>124.15</ele>
        <time>2012-03-04T09:35:01Z</time>
      </trkpt>
      <trkpt lat="48.40627" lon="2.59327">
        <ele>124.15</ele>
        <time>2012-03-04T09:35:13Z</time>
      </trkpt>
      <trkpt lat="48.40626" lon="2.59325">
        <ele>124.15</ele>
        <time>2012-03-04T09:35:22Z</time>
      </trkpt>
      <trkpt lat="48.40623" lon="2.59324">
        <ele>123.67</ele>
        <time>2012-03-04T09:35:23Z</time>
      </trkpt>
      <trkpt lat="48.40622" lon="2.59323">
        <ele>123.67</ele>
        <time>2012-03-04T09:35:24Z</time>
      </trkpt>
      <trkpt lat="48.4062" lon="2.5932">
        <ele>123.67</ele>
        <time>2012-03-04T09:35:25Z</time>
      </trkpt>
      <trkpt lat="48.40619" lon="2.59317">
        <ele>123.67</ele>
        <time>2012-03-04T09:35:26Z</time>
      </trkpt>
      <trkpt lat="48.40619" lon="2.59314">
        <ele>124.15</ele>
        <time>2012-03-04T09:35:27Z</time>
      </trkpt>
      <trkpt lat="48.4062" lon="2.59311">
        <ele>124.15</ele>
        <time>2012-03-04T09:35:28Z</time>
      </trkpt>
      <trkpt lat="48.40633" lon="2.593">
        <ele>123.67</ele>
        <time>2012-03-04T09:35:36Z</time>
      </trkpt>
      <trkpt lat="48.40633" lon="2.59297">
        <ele>123.67</ele>
        <time>2012-03-04T09:35:37Z</time>
      </trkpt>
      <trkpt lat="48.40634" lon="2.59293">
        <ele>123.67</ele>
        <time>2012-03-04T09:35:38Z</time>
      </trkpt>
      <trkpt lat="48.40634" lon="2.59289">
        <ele>123.67</ele>
        <time>2012-03-04T09:35:39Z</time>
      </trkpt>
      <trkpt lat="48.40633" lon="2.59286">
        <ele>123.67</ele>
        <time>2012-03-04T09:35:40Z</time>
      </trkpt>
      <trkpt lat="48.40632" lon="2.5927">
        <ele>123.67</ele>
        <time>2012-03-04T09:35:44Z</time>
      </trkpt>
      <trkpt lat="48.40631" lon="2.59267">
        <ele>123.67</ele>
        <time>2012-03-04T09:35:45Z</time>
      </trkpt>
      <trkpt lat="48.40629" lon="2.59264">
        <ele>123.67</ele>
        <time>2012-03-04T09:35:46Z</time>
      </trkpt>
      <trkpt lat="48.40626" lon="2.59263">
        <ele>123.67</ele>
        <time>2012-03-04T09:35:47Z</time>
      </trkpt>
      <trkpt lat="48.40623" lon="2.59262">
        <ele>123.67</ele>
        <time>2012-03-04T09:35:48Z</time>
      </trkpt>
      <trkpt lat="48.40619" lon="2.59258">
        <ele>123.19</ele>
        <time>2012-03-04T09:35:50Z</time>
      </trkpt>
      <trkpt lat="48.4061" lon="2.59242">
        <ele>123.19</ele>
        <time>2012-03-04T09:35:55Z</time>
      </trkpt>
      <trkpt lat="48.40612" lon="2.5922">
        <ele>118.86</ele>
        <time>2012-03-04T09:36:00Z</time>
      </trkpt>
      <trkpt lat="48.40612" lon="2.59216">
        <ele>118.38</ele>
        <time>2012-03-04T09:36:01Z</time>
      </trkpt>
      <trkpt lat="48.40611" lon="2.59213">
        <ele>116.46</ele>
        <time>2012-03-04T09:36:02Z</time>
      </trkpt>
      <trkpt lat="48.40609" lon="2.5921">
        <ele>115.5</ele>
        <time>2012-03-04T09:36:03Z</time>
      </trkpt>
      <trkpt lat="48.40607" lon="2.5919">
        <ele>113.09</ele>
        <time>2012-03-04T09:36:10Z</time>
      </trkpt>
      <trkpt lat="48.40606" lon="2.59189">
        <ele>113.09</ele>
        <time>2012-03-04T09:36:11Z</time>
      </trkpt>
      <trkpt lat="48.40604" lon="2.59187">
        <ele>113.57</ele>
        <time>2012-03-04T09:36:12Z</time>
      </trkpt>
      <trkpt lat="48.40602" lon="2.59186">
        <ele>113.57</ele>
        <time>2012-03-04T09:36:13Z</time>
      </trkpt>
      <trkpt lat="48.406" lon="2.59185">
        <ele>112.61</ele>
        <time>2012-03-04T09:36:14Z</time>
      </trkpt>
      <trkpt lat="48.40596" lon="2.59183">
        <ele>111.65</ele>
        <time>2012-03-04T09:36:15Z</time>
      </trkpt>
      <trkpt lat="48.4058" lon="2.59179">
        <ele>109.25</ele>
        <time>2012-03-04T09:36:20Z</time>
      </trkpt>
      <trkpt lat="48.40564" lon="2.59188">
        <ele>107.32</ele>
        <time>2012-03-04T09:36:24Z</time>
      </trkpt>
      <trkpt lat="48.4056" lon="2.59191">
        <ele>106.84</ele>
        <time>2012-03-04T09:36:25Z</time>
      </trkpt>
      <trkpt lat="48.40556" lon="2.59192">
        <ele>106.84</ele>
        <time>2012-03-04T09:36:26Z</time>
      </trkpt>
      <trkpt lat="48.40553" lon="2.59191">
        <ele>105.88</ele>
        <time>2012-03-04T09:36:27Z</time>
      </trkpt>
      <trkpt lat="48.4055" lon="2.5919">
        <ele>105.4</ele>
        <time>2012-03-04T09:36:28Z</time>
      </trkpt>
      <trkpt lat="48.40547" lon="2.59189">
        <ele>104.92</ele>
        <time>2012-03-04T09:36:29Z</time>
      </trkpt>
      <trkpt lat="48.40544" lon="2.59188">
        <ele>103.96</ele>
        <time>2012-03-04T09:36:30Z</time>
      </trkpt>
      <trkpt lat="48.4054" lon="2.59188">
        <ele>103</ele>
        <time>2012-03-04T09:36:31Z</time>
      </trkpt>
      <trkpt lat="48.40532" lon="2.59187">
        <ele>101.08</ele>
        <time>2012-03-04T09:36:34Z</time>
      </trkpt>
      <trkpt lat="48.40529" lon="2.59188">
        <ele>100.11</ele>
        <time>2012-03-04T09:36:35Z</time>
      </trkpt>
      <trkpt lat="48.40527" lon="2.5919">
        <ele>99.15</ele>
        <time>2012-03-04T09:36:36Z</time>
      </trkpt>
      <trkpt lat="48.40524" lon="2.59191">
        <ele>98.19</ele>
        <time>2012-03-04T09:36:37Z</time>
      </trkpt>
      <trkpt lat="48.40522" lon="2.59192">
        <ele>97.71</ele>
        <time>2012-03-04T09:36:38Z</time>
      </trkpt>
      <trkpt lat="48.40511" lon="2.59192">
        <ele>94.83</ele>
        <time>2012-03-04T09:36:42Z</time>
      </trkpt>
      <trkpt lat="48.4051" lon="2.59193">
        <ele>94.35</ele>
        <time>2012-03-04T09:36:43Z</time>
      </trkpt>
      <trkpt lat="48.4051" lon="2.59196">
        <ele>94.35</ele>
        <time>2012-03-04T09:36:44Z</time>
      </trkpt>
      <trkpt lat="48.40508" lon="2.59199">
        <ele>93.39</ele>
        <time>2012-03-04T09:36:45Z</time>
      </trkpt>
      <trkpt lat="48.40506" lon="2.59203">
        <ele>91.94</ele>
        <time>2012-03-04T09:36:46Z</time>
      </trkpt>
      <trkpt lat="48.40503" lon="2.59206">
        <ele>91.94</ele>
        <time>2012-03-04T09:36:47Z</time>
      </trkpt>
      <trkpt lat="48.40502" lon="2.59208">
        <ele>90.98</ele>
        <time>2012-03-04T09:36:48Z</time>
      </trkpt>
      <trkpt lat="48.405" lon="2.5921">
        <ele>90.5</ele>
        <time>2012-03-04T09:36:49Z</time>
      </trkpt>
      <trkpt lat="48.40494" lon="2.59218">
        <ele>90.02</ele>
        <time>2012-03-04T09:36:51Z</time>
      </trkpt>
      <trkpt lat="48.4049" lon="2.59221">
        <ele>90.02</ele>
        <time>2012-03-04T09:36:52Z</time>
      </trkpt>
      <trkpt lat="48.40486" lon="2.59222">
        <ele>89.06</ele>
        <time>2012-03-04T09:36:53Z</time>
      </trkpt>
      <trkpt lat="48.40482" lon="2.59222">
        <ele>89.06</ele>
        <time>2012-03-04T09:36:54Z</time>
      </trkpt>
      <trkpt lat="48.40479" lon="2.5922">
        <ele>90.02</ele>
        <time>2012-03-04T09:37:05Z</time>
      </trkpt>
      <trkpt lat="48.40479" lon="2.5922">
        <ele>90.02</ele>
        <time>2012-03-04T09:37:26Z</time>
      </trkpt>
      <trkpt lat="48.40478" lon="2.59219">
        <ele>90.02</ele>
        <time>2012-03-04T09:37:29Z</time>
      </trkpt>
      <trkpt lat="48.40476" lon="2.59217">
        <ele>90.02</ele>
        <time>2012-03-04T09:37:30Z</time>
      </trkpt>
      <trkpt lat="48.40474" lon="2.59216">
        <ele>90.5</ele>
        <time>2012-03-04T09:37:31Z</time>
      </trkpt>
      <trkpt lat="48.40472" lon="2.59214">
        <ele>90.02</ele>
        <time>2012-03-04T09:37:32Z</time>
      </trkpt>
      <trkpt lat="48.4047" lon="2.59212">
        <ele>90.5</ele>
        <time>2012-03-04T09:37:33Z</time>
      </trkpt>
      <trkpt lat="48.40469" lon="2.5921">
        <ele>90.02</ele>
        <time>2012-03-04T09:37:34Z</time>
      </trkpt>
      <trkpt lat="48.40467" lon="2.59209">
        <ele>90.5</ele>
        <time>2012-03-04T09:37:35Z</time>
      </trkpt>
      <trkpt lat="48.40451" lon="2.5919">
        <ele>92.42</ele>
        <time>2012-03-04T09:37:45Z</time>
      </trkpt>
      <trkpt lat="48.40423" lon="2.59171">
        <ele>94.83</ele>
        <time>2012-03-04T09:37:56Z</time>
      </trkpt>
      <trkpt lat="48.40389" lon="2.59157">
        <ele>94.83</ele>
        <time>2012-03-04T09:38:07Z</time>
      </trkpt>
      <trkpt lat="48.40366" lon="2.59168">
        <ele>97.23</ele>
        <time>2012-03-04T09:38:17Z</time>
      </trkpt>
      <trkpt lat="48.40363" lon="2.59175">
        <ele>98.19</ele>
        <time>2012-03-04T09:38:19Z</time>
      </trkpt>
      <trkpt lat="48.40361" lon="2.59177">
        <ele>98.19</ele>
        <time>2012-03-04T09:38:20Z</time>
      </trkpt>
      <trkpt lat="48.40358" lon="2.59179">
        <ele>98.19</ele>
        <time>2012-03-04T09:38:21Z</time>
      </trkpt>
      <trkpt lat="48.4033" lon="2.59196">
        <ele>95.79</ele>
        <time>2012-03-04T09:38:31Z</time>
      </trkpt>
      <trkpt lat="48.40328" lon="2.592">
        <ele>94.83</ele>
        <time>2012-03-04T09:38:32Z</time>
      </trkpt>
      <trkpt lat="48.40325" lon="2.59206">
        <ele>95.31</ele>
        <time>2012-03-04T09:38:33Z</time>
      </trkpt>
      <trkpt lat="48.40322" lon="2.59212">
        <ele>94.83</ele>
        <time>2012-03-04T09:38:34Z</time>
      </trkpt>
      <trkpt lat="48.40319" lon="2.59218">
        <ele>94.83</ele>
        <time>2012-03-04T09:38:35Z</time>
      </trkpt>
      <trkpt lat="48.40318" lon="2.59224">
        <ele>93.87</ele>
        <time>2012-03-04T09:38:36Z</time>
      </trkpt>
      <trkpt lat="48.40316" lon="2.59232">
        <ele>93.39</ele>
        <time>2012-03-04T09:38:37Z</time>
      </trkpt>
      <trkpt lat="48.40314" lon="2.59239">
        <ele>92.9</ele>
        <time>2012-03-04T09:38:38Z</time>
      </trkpt>
      <trkpt lat="48.40311" lon="2.59247">
        <ele>91.46</ele>
        <time>2012-03-04T09:38:39Z</time>
      </trkpt>
      <trkpt lat="48.40306" lon="2.59254">
        <ele>90.02</ele>
        <time>2012-03-04T09:38:40Z</time>
      </trkpt>
      <trkpt lat="48.403" lon="2.5926">
        <ele>89.06</ele>
        <time>2012-03-04T09:38:41Z</time>
      </trkpt>
      <trkpt lat="48.40295" lon="2.59268">
        <ele>88.58</ele>
        <time>2012-03-04T09:38:42Z</time>
      </trkpt>
      <trkpt lat="48.4029" lon="2.59276">
        <ele>88.58</ele>
        <time>2012-03-04T09:38:43Z</time>
      </trkpt>
      <trkpt lat="48.40281" lon="2.5929">
        <ele>89.06</ele>
        <time>2012-03-04T09:38:45Z</time>
      </trkpt>
      <trkpt lat="48.40277" lon="2.59295">
        <ele>89.54</ele>
        <time>2012-03-04T09:38:46Z</time>
      </trkpt>
      <trkpt lat="48.40274" lon="2.59298">
        <ele>90.02</ele>
        <time>2012-03-04T09:38:47Z</time>
      </trkpt>
      <trkpt lat="48.40271" lon="2.59299">
        <ele>90.5</ele>
        <time>2012-03-04T09:38:48Z</time>
      </trkpt>
      <trkpt lat="48.40269" lon="2.593">
        <ele>90.98</ele>
        <time>2012-03-04T09:38:49Z</time>
      </trkpt>
      <trkpt lat="48.4025" lon="2.59312">
        <ele>93.87</ele>
        <time>2012-03-04T09:38:58Z</time>
      </trkpt>
      <trkpt lat="48.40227" lon="2.59324">
        <ele>97.23</ele>
        <time>2012-03-04T09:39:12Z</time>
      </trkpt>
      <trkpt lat="48.40212" lon="2.59332">
        <ele>100.6</ele>
        <time>2012-03-04T09:39:22Z</time>
      </trkpt>
      <trkpt lat="48.40211" lon="2.59334">
        <ele>101.08</ele>
        <time>2012-03-04T09:39:23Z</time>
      </trkpt>
      <trkpt lat="48.40211" lon="2.59335">
        <ele>101.56</ele>
        <time>2012-03-04T09:39:24Z</time>
      </trkpt>
      <trkpt lat="48.4021" lon="2.59337">
        <ele>102.04</ele>
        <time>2012-03-04T09:39:25Z</time>
      </trkpt>
      <trkpt lat="48.4021" lon="2.59339">
        <ele>102.52</ele>
        <time>2012-03-04T09:39:26Z</time>
      </trkpt>
      <trkpt lat="48.40204" lon="2.5935">
        <ele>104.92</ele>
        <time>2012-03-04T09:39:32Z</time>
      </trkpt>
      <trkpt lat="48.40203" lon="2.59352">
        <ele>104.92</ele>
        <time>2012-03-04T09:39:33Z</time>
      </trkpt>
      <trkpt lat="48.40202" lon="2.59353">
        <ele>105.4</ele>
        <time>2012-03-04T09:39:34Z</time>
      </trkpt>
      <trkpt lat="48.40201" lon="2.59354">
        <ele>105.4</ele>
        <time>2012-03-04T09:39:35Z</time>
      </trkpt>
      <trkpt lat="48.402" lon="2.59354">
        <ele>105.88</ele>
        <time>2012-03-04T09:39:36Z</time>
      </trkpt>
      <trkpt lat="48.40199" lon="2.59355">
        <ele>105.88</ele>
        <time>2012-03-04T09:39:37Z</time>
      </trkpt>
      <trkpt lat="48.40197" lon="2.59356">
        <ele>106.36</ele>
        <time>2012-03-04T09:39:38Z</time>
      </trkpt>
      <trkpt lat="48.40194" lon="2.59359">
        <ele>107.81</ele>
        <time>2012-03-04T09:39:41Z</time>
      </trkpt>
      <trkpt lat="48.40192" lon="2.59359">
        <ele>108.29</ele>
        <time>2012-03-04T09:39:42Z</time>
      </trkpt>
      <trkpt lat="48.40186" lon="2.59361">
        <ele>110.21</ele>
        <time>2012-03-04T09:39:48Z</time>
      </trkpt>
      <trkpt lat="48.40184" lon="2.59362">
        <ele>111.17</ele>
        <time>2012-03-04T09:39:52Z</time>
      </trkpt>
      <trkpt lat="48.40178" lon="2.59363">
        <ele>112.61</ele>
        <time>2012-03-04T09:39:57Z</time>
      </trkpt>
      <trkpt lat="48.4017" lon="2.59368">
        <ele>115.01</ele>
        <time>2012-03-04T09:40:03Z</time>
      </trkpt>
      <trkpt lat="48.40167" lon="2.5937">
        <ele>115.5</ele>
        <time>2012-03-04T09:40:05Z</time>
      </trkpt>
      <trkpt lat="48.40167" lon="2.59371">
        <ele>115.5</ele>
        <time>2012-03-04T09:40:06Z</time>
      </trkpt>
      <trkpt lat="48.40166" lon="2.59373">
        <ele>116.46</ele>
        <time>2012-03-04T09:40:07Z</time>
      </trkpt>
      <trkpt lat="48.40162" lon="2.59373">
        <ele>117.42</ele>
        <time>2012-03-04T09:40:17Z</time>
      </trkpt>
      <trkpt lat="48.40157" lon="2.59373">
        <ele>121.26</ele>
        <time>2012-03-04T09:40:31Z</time>
      </trkpt>
      <trkpt lat="48.40154" lon="2.59372">
        <ele>122.71</ele>
        <time>2012-03-04T09:40:43Z</time>
      </trkpt>
      <trkpt lat="48.40154" lon="2.59372">
        <ele>122.22</ele>
        <time>2012-03-04T09:41:09Z</time>
      </trkpt>
      <trkpt lat="48.40153" lon="2.5937">
        <ele>122.22</ele>
        <time>2012-03-04T09:41:43Z</time>
      </trkpt>
      <trkpt lat="48.40153" lon="2.59369">
        <ele>122.71</ele>
        <time>2012-03-04T09:42:00Z</time>
      </trkpt>
      <trkpt lat="48.40154" lon="2.59366">
        <ele>122.22</ele>
        <time>2012-03-04T09:42:14Z</time>
      </trkpt>
      <trkpt lat="48.40155" lon="2.59364">
        <ele>122.71</ele>
        <time>2012-03-04T09:42:15Z</time>
      </trkpt>
      <trkpt lat="48.40156" lon="2.59361">
        <ele>122.22</ele>
        <time>2012-03-04T09:42:16Z</time>
      </trkpt>
      <trkpt lat="48.40157" lon="2.59358">
        <ele>122.71</ele>
        <time>2012-03-04T09:42:17Z</time>
      </trkpt>
      <trkpt lat="48.40158" lon="2.59356">
        <ele>122.71</ele>
        <time>2012-03-04T09:42:18Z</time>
      </trkpt>
      <trkpt lat="48.40159" lon="2.59353">
        <ele>122.71</ele>
        <time>2012-03-04T09:42:19Z</time>
      </trkpt>
      <trkpt lat="48.4016" lon="2.5935">
        <ele>122.22</ele>
        <time>2012-03-04T09:42:20Z</time>
      </trkpt>
      <trkpt lat="48.40163" lon="2.59323">
        <ele>121.74</ele>
        <time>2012-03-04T09:42:27Z</time>
      </trkpt>
      <trkpt lat="48.40162" lon="2.5932">
        <ele>122.22</ele>
        <time>2012-03-04T09:42:28Z</time>
      </trkpt>
      <trkpt lat="48.40161" lon="2.59316">
        <ele>121.74</ele>
        <time>2012-03-04T09:42:29Z</time>
      </trkpt>
      <trkpt lat="48.40154" lon="2.59298">
        <ele>122.22</ele>
        <time>2012-03-04T09:42:34Z</time>
      </trkpt>
      <trkpt lat="48.40152" lon="2.59296">
        <ele>122.71</ele>
        <time>2012-03-04T09:42:35Z</time>
      </trkpt>
      <trkpt lat="48.4015" lon="2.59294">
        <ele>122.71</ele>
        <time>2012-03-04T09:42:36Z</time>
      </trkpt>
      <trkpt lat="48.40149" lon="2.59291">
        <ele>122.71</ele>
        <time>2012-03-04T09:42:37Z</time>
      </trkpt>
      <trkpt lat="48.40147" lon="2.59288">
        <ele>122.71</ele>
        <time>2012-03-04T09:42:38Z</time>
      </trkpt>
      <trkpt lat="48.40145" lon="2.59285">
        <ele>122.71</ele>
        <time>2012-03-04T09:42:39Z</time>
      </trkpt>
      <trkpt lat="48.40143" lon="2.59282">
        <ele>122.71</ele>
        <time>2012-03-04T09:42:40Z</time>
      </trkpt>
      <trkpt lat="48.40141" lon="2.59279">
        <ele>122.71</ele>
        <time>2012-03-04T09:42:41Z</time>
      </trkpt>
      <trkpt lat="48.40132" lon="2.59251">
        <ele>123.67</ele>
        <time>2012-03-04T09:42:53Z</time>
      </trkpt>
      <trkpt lat="48.40132" lon="2.59251">
        <ele>123.67</ele>
        <time>2012-03-04T09:43:10Z</time>
      </trkpt>
      <trkpt lat="48.40132" lon="2.5925">
        <ele>123.19</ele>
        <time>2012-03-04T09:43:43Z</time>
      </trkpt>
      <trkpt lat="48.40133" lon="2.59249">
        <ele>123.67</ele>
        <time>2012-03-04T09:44:18Z</time>
      </trkpt>
      <trkpt lat="48.40133" lon="2.59249">
        <ele>123.67</ele>
        <time>2012-03-04T09:44:50Z</time>
      </trkpt>
      <trkpt lat="48.40133" lon="2.59249">
        <ele>123.67</ele>
        <time>2012-03-04T09:45:22Z</time>
      </trkpt>
      <trkpt lat="48.40133" lon="2.59248">
        <ele>123.19</ele>
        <time>2012-03-04T09:45:56Z</time>
      </trkpt>
      <trkpt lat="48.40132" lon="2.59248">
        <ele>123.67</ele>
        <time>2012-03-04T09:46:34Z</time>
      </trkpt>
      <trkpt lat="48.40132" lon="2.59249">
        <ele>123.19</ele>
        <time>2012-03-04T09:47:13Z</time>
      </trkpt>
      <trkpt lat="48.40132" lon="2.59249">
        <ele>122.71</ele>
        <time>2012-03-04T09:47:46Z</time>
      </trkpt>
      <trkpt lat="48.40132" lon="2.59248">
        <ele>123.19</ele>
        <time>2012-03-04T09:48:25Z</time>
      </trkpt>
      <trkpt lat="48.40131" lon="2.59248">
        <ele>123.19</ele>
        <time>2012-03-04T09:48:57Z</time>
      </trkpt>
      <trkpt lat="48.40131" lon="2.59248">
        <ele>123.19</ele>
        <time>2012-03-04T09:49:30Z</time>
      </trkpt>
      <trkpt lat="48.40131" lon="2.59248">
        <ele>123.19</ele>
        <time>2012-03-04T09:50:00Z</time>
      </trkpt>
      <trkpt lat="48.40131" lon="2.59248">
        <ele>123.19</ele>
        <time>2012-03-04T09:50:32Z</time>
      </trkpt>
      <trkpt lat="48.40131" lon="2.59247">
        <ele>123.19</ele>
        <time>2012-03-04T09:51:02Z</time>
      </trkpt>
      <trkpt lat="48.40131" lon="2.59247">
        <ele>123.19</ele>
        <time>2012-03-04T09:51:28Z</time>
      </trkpt>
      <trkpt lat="48.40131" lon="2.59248">
        <ele>123.67</ele>
        <time>2012-03-04T09:52:00Z</time>
      </trkpt>
      <trkpt lat="48.4013" lon="2.59248">
        <ele>123.19</ele>
        <time>2012-03-04T09:52:22Z</time>
      </trkpt>
      <trkpt lat="48.40129" lon="2.59246">
        <ele>123.19</ele>
        <time>2012-03-04T09:52:38Z</time>
      </trkpt>
      <trkpt lat="48.4013" lon="2.59246">
        <ele>123.19</ele>
        <time>2012-03-04T09:53:06Z</time>
      </trkpt>
      <trkpt lat="48.4013" lon="2.59246">
        <ele>123.19</ele>
        <time>2012-03-04T09:53:37Z</time>
      </trkpt>
      <trkpt lat="48.4013" lon="2.59243">
        <ele>122.71</ele>
        <time>2012-03-04T09:53:47Z</time>
      </trkpt>
      <trkpt lat="48.40131" lon="2.59241">
        <ele>122.71</ele>
        <time>2012-03-04T09:53:48Z</time>
      </trkpt>
      <trkpt lat="48.40131" lon="2.59239">
        <ele>122.22</ele>
        <time>2012-03-04T09:53:49Z</time>
      </trkpt>
      <trkpt lat="48.40132" lon="2.59236">
        <ele>122.22</ele>
        <time>2012-03-04T09:53:50Z</time>
      </trkpt>
      <trkpt lat="48.40133" lon="2.59235">
        <ele>121.74</ele>
        <time>2012-03-04T09:53:51Z</time>
      </trkpt>
      <trkpt lat="48.40135" lon="2.5923">
        <ele>120.3</ele>
        <time>2012-03-04T09:53:53Z</time>
      </trkpt>
      <trkpt lat="48.40137" lon="2.59212">
        <ele>116.46</ele>
        <time>2012-03-04T09:53:57Z</time>
      </trkpt>
      <trkpt lat="48.40137" lon="2.59194">
        <ele>113.57</ele>
        <time>2012-03-04T09:54:02Z</time>
      </trkpt>
      <trkpt lat="48.40147" lon="2.59175">
        <ele>108.77</ele>
        <time>2012-03-04T09:54:08Z</time>
      </trkpt>
      <trkpt lat="48.40155" lon="2.59171">
        <ele>105.4</ele>
        <time>2012-03-04T09:54:11Z</time>
      </trkpt>
      <trkpt lat="48.40161" lon="2.59169">
        <ele>102.04</ele>
        <time>2012-03-04T09:54:13Z</time>
      </trkpt>
      <trkpt lat="48.40164" lon="2.59168">
        <ele>100.11</ele>
        <time>2012-03-04T09:54:14Z</time>
      </trkpt>
      <trkpt lat="48.40168" lon="2.59169">
        <ele>99.63</ele>
        <time>2012-03-04T09:54:15Z</time>
      </trkpt>
      <trkpt lat="48.40172" lon="2.59169">
        <ele>98.67</ele>
        <time>2012-03-04T09:54:16Z</time>
      </trkpt>
      <trkpt lat="48.40175" lon="2.59168">
        <ele>97.71</ele>
        <time>2012-03-04T09:54:17Z</time>
      </trkpt>
      <trkpt lat="48.40177" lon="2.59167">
        <ele>97.71</ele>
        <time>2012-03-04T09:54:18Z</time>
      </trkpt>
      <trkpt lat="48.40179" lon="2.59165">
        <ele>96.75</ele>
        <time>2012-03-04T09:54:19Z</time>
      </trkpt>
      <trkpt lat="48.4018" lon="2.59163">
        <ele>96.75</ele>
        <time>2012-03-04T09:54:20Z</time>
      </trkpt>
      <trkpt lat="48.40182" lon="2.59162">
        <ele>95.79</ele>
        <time>2012-03-04T09:54:21Z</time>
      </trkpt>
      <trkpt lat="48.40183" lon="2.59159">
        <ele>95.31</ele>
        <time>2012-03-04T09:54:22Z</time>
      </trkpt>
      <trkpt lat="48.40184" lon="2.59157">
        <ele>94.35</ele>
        <time>2012-03-04T09:54:23Z</time>
      </trkpt>
      <trkpt lat="48.40191" lon="2.59143">
        <ele>90.5</ele>
        <time>2012-03-04T09:54:26Z</time>
      </trkpt>
      <trkpt lat="48.40205" lon="2.59122">
        <ele>87.62</ele>
        <time>2012-03-04T09:54:30Z</time>
      </trkpt>
      <trkpt lat="48.4021" lon="2.59114">
        <ele>86.18</ele>
        <time>2012-03-04T09:54:32Z</time>
      </trkpt>
      <trkpt lat="48.40211" lon="2.59109">
        <ele>86.18</ele>
        <time>2012-03-04T09:54:33Z</time>
      </trkpt>
      <trkpt lat="48.40214" lon="2.59105">
        <ele>85.69</ele>
        <time>2012-03-04T09:54:41Z</time>
      </trkpt>
      <trkpt lat="48.40215" lon="2.59102">
        <ele>85.69</ele>
        <time>2012-03-04T09:54:42Z</time>
      </trkpt>
      <trkpt lat="48.40216" lon="2.59098">
        <ele>85.69</ele>
        <time>2012-03-04T09:54:43Z</time>
      </trkpt>
      <trkpt lat="48.40217" lon="2.59093">
        <ele>85.21</ele>
        <time>2012-03-04T09:54:44Z</time>
      </trkpt>
      <trkpt lat="48.40219" lon="2.59089">
        <ele>84.73</ele>
        <time>2012-03-04T09:54:45Z</time>
      </trkpt>
      <trkpt lat="48.40221" lon="2.59085">
        <ele>84.25</ele>
        <time>2012-03-04T09:54:46Z</time>
      </trkpt>
      <trkpt lat="48.40224" lon="2.59081">
        <ele>83.77</ele>
        <time>2012-03-04T09:54:47Z</time>
      </trkpt>
      <trkpt lat="48.40226" lon="2.59079">
        <ele>83.29</ele>
        <time>2012-03-04T09:54:48Z</time>
      </trkpt>
      <trkpt lat="48.40229" lon="2.59076">
        <ele>82.81</ele>
        <time>2012-03-04T09:54:49Z</time>
      </trkpt>
      <trkpt lat="48.40231" lon="2.59073">
        <ele>82.33</ele>
        <time>2012-03-04T09:54:50Z</time>
      </trkpt>
      <trkpt lat="48.40233" lon="2.5907">
        <ele>82.33</ele>
        <time>2012-03-04T09:54:51Z</time>
      </trkpt>
      <trkpt lat="48.40234" lon="2.59067">
        <ele>81.85</ele>
        <time>2012-03-04T09:54:52Z</time>
      </trkpt>
      <trkpt lat="48.40236" lon="2.59063">
        <ele>81.37</ele>
        <time>2012-03-04T09:54:53Z</time>
      </trkpt>
      <trkpt lat="48.40238" lon="2.59058">
        <ele>80.89</ele>
        <time>2012-03-04T09:54:54Z</time>
      </trkpt>
      <trkpt lat="48.40241" lon="2.59054">
        <ele>80.41</ele>
        <time>2012-03-04T09:54:55Z</time>
      </trkpt>
      <trkpt lat="48.40243" lon="2.59049">
        <ele>80.89</ele>
        <time>2012-03-04T09:54:56Z</time>
      </trkpt>
      <trkpt lat="48.40256" lon="2.59002">
        <ele>79.93</ele>
        <time>2012-03-04T09:55:04Z</time>
      </trkpt>
      <trkpt lat="48.40253" lon="2.58949">
        <ele>78.97</ele>
        <time>2012-03-04T09:55:16Z</time>
      </trkpt>
      <trkpt lat="48.40248" lon="2.58892">
        <ele>78.48</ele>
        <time>2012-03-04T09:55:28Z</time>
      </trkpt>
      <trkpt lat="48.40243" lon="2.58836">
        <ele>77.04</ele>
        <time>2012-03-04T09:55:39Z</time>
      </trkpt>
      <trkpt lat="48.40233" lon="2.58778">
        <ele>75.6</ele>
        <time>2012-03-04T09:55:52Z</time>
      </trkpt>
      <trkpt lat="48.40199" lon="2.58757">
        <ele>76.56</ele>
        <time>2012-03-04T09:56:04Z</time>
      </trkpt>
      <trkpt lat="48.40163" lon="2.58736">
        <ele>77.52</ele>
        <time>2012-03-04T09:56:16Z</time>
      </trkpt>
      <trkpt lat="48.40129" lon="2.58738">
        <ele>78.48</ele>
        <time>2012-03-04T09:56:27Z</time>
      </trkpt>
      <trkpt lat="48.40091" lon="2.58761">
        <ele>79.45</ele>
        <time>2012-03-04T09:56:39Z</time>
      </trkpt>
      <trkpt lat="48.40067" lon="2.58802">
        <ele>80.89</ele>
        <time>2012-03-04T09:56:51Z</time>
      </trkpt>
      <trkpt lat="48.40047" lon="2.58847">
        <ele>83.77</ele>
        <time>2012-03-04T09:57:03Z</time>
      </trkpt>
      <trkpt lat="48.40039" lon="2.58895">
        <ele>86.18</ele>
        <time>2012-03-04T09:57:15Z</time>
      </trkpt>
      <trkpt lat="48.40033" lon="2.58927">
        <ele>87.62</ele>
        <time>2012-03-04T09:57:24Z</time>
      </trkpt>
      <trkpt lat="48.40032" lon="2.5893">
        <ele>87.62</ele>
        <time>2012-03-04T09:57:25Z</time>
      </trkpt>
      <trkpt lat="48.40032" lon="2.58934">
        <ele>87.62</ele>
        <time>2012-03-04T09:57:26Z</time>
      </trkpt>
      <trkpt lat="48.40032" lon="2.58938">
        <ele>87.62</ele>
        <time>2012-03-04T09:57:27Z</time>
      </trkpt>
      <trkpt lat="48.40031" lon="2.58941">
        <ele>87.14</ele>
        <time>2012-03-04T09:57:28Z</time>
      </trkpt>
      <trkpt lat="48.40029" lon="2.58944">
        <ele>87.62</ele>
        <time>2012-03-04T09:57:29Z</time>
      </trkpt>
      <trkpt lat="48.40026" lon="2.58958">
        <ele>88.58</ele>
        <time>2012-03-04T09:57:35Z</time>
      </trkpt>
      <trkpt lat="48.40026" lon="2.5896">
        <ele>88.58</ele>
        <time>2012-03-04T09:57:36Z</time>
      </trkpt>
      <trkpt lat="48.40026" lon="2.58964">
        <ele>88.58</ele>
        <time>2012-03-04T09:57:37Z</time>
      </trkpt>
      <trkpt lat="48.40025" lon="2.58966">
        <ele>89.06</ele>
        <time>2012-03-04T09:57:38Z</time>
      </trkpt>
      <trkpt lat="48.40025" lon="2.58969">
        <ele>89.06</ele>
        <time>2012-03-04T09:57:39Z</time>
      </trkpt>
      <trkpt lat="48.40023" lon="2.58972">
        <ele>89.54</ele>
        <time>2012-03-04T09:57:40Z</time>
      </trkpt>
      <trkpt lat="48.40022" lon="2.58973">
        <ele>89.54</ele>
        <time>2012-03-04T09:57:41Z</time>
      </trkpt>
      <trkpt lat="48.4002" lon="2.58975">
        <ele>89.54</ele>
        <time>2012-03-04T09:57:42Z</time>
      </trkpt>
      <trkpt lat="48.40018" lon="2.58975">
        <ele>89.54</ele>
        <time>2012-03-04T09:57:43Z</time>
      </trkpt>
      <trkpt lat="48.40017" lon="2.58975">
        <ele>89.54</ele>
        <time>2012-03-04T09:57:44Z</time>
      </trkpt>
      <trkpt lat="48.40014" lon="2.58975">
        <ele>90.02</ele>
        <time>2012-03-04T09:57:45Z</time>
      </trkpt>
      <trkpt lat="48.40013" lon="2.58976">
        <ele>90.02</ele>
        <time>2012-03-04T09:57:46Z</time>
      </trkpt>
      <trkpt lat="48.40011" lon="2.58978">
        <ele>90.02</ele>
        <time>2012-03-04T09:57:47Z</time>
      </trkpt>
      <trkpt lat="48.4001" lon="2.5898">
        <ele>90.02</ele>
        <time>2012-03-04T09:57:48Z</time>
      </trkpt>
      <trkpt lat="48.40009" lon="2.58982">
        <ele>90.5</ele>
        <time>2012-03-04T09:57:49Z</time>
      </trkpt>
      <trkpt lat="48.4" lon="2.59">
        <ele>91.46</ele>
        <time>2012-03-04T09:57:57Z</time>
      </trkpt>
      <trkpt lat="48.39999" lon="2.59002">
        <ele>91.46</ele>
        <time>2012-03-04T09:57:58Z</time>
      </trkpt>
      <trkpt lat="48.39998" lon="2.59006">
        <ele>91.94</ele>
        <time>2012-03-04T09:58:00Z</time>
      </trkpt>
      <trkpt lat="48.39998" lon="2.59008">
        <ele>91.94</ele>
        <time>2012-03-04T09:58:01Z</time>
      </trkpt>
      <trkpt lat="48.39998" lon="2.5901">
        <ele>91.94</ele>
        <time>2012-03-04T09:58:02Z</time>
      </trkpt>
      <trkpt lat="48.39996" lon="2.59025">
        <ele>94.35</ele>
        <time>2012-03-04T09:58:08Z</time>
      </trkpt>
      <trkpt lat="48.39993" lon="2.59032">
        <ele>95.31</ele>
        <time>2012-03-04T09:58:11Z</time>
      </trkpt>
      <trkpt lat="48.39989" lon="2.59043">
        <ele>98.19</ele>
        <time>2012-03-04T09:58:24Z</time>
      </trkpt>
      <trkpt lat="48.39988" lon="2.59053">
        <ele>100.11</ele>
        <time>2012-03-04T09:58:36Z</time>
      </trkpt>
      <trkpt lat="48.39984" lon="2.59058">
        <ele>103</ele>
        <time>2012-03-04T09:58:51Z</time>
      </trkpt>
      <trkpt lat="48.39984" lon="2.59055">
        <ele>100.6</ele>
        <time>2012-03-04T09:59:01Z</time>
      </trkpt>
      <trkpt lat="48.39984" lon="2.59053">
        <ele>101.08</ele>
        <time>2012-03-04T09:59:02Z</time>
      </trkpt>
      <trkpt lat="48.3998" lon="2.59049">
        <ele>100.11</ele>
        <time>2012-03-04T09:59:04Z</time>
      </trkpt>
      <trkpt lat="48.39979" lon="2.59048">
        <ele>100.11</ele>
        <time>2012-03-04T09:59:05Z</time>
      </trkpt>
      <trkpt lat="48.39977" lon="2.59047">
        <ele>99.63</ele>
        <time>2012-03-04T09:59:06Z</time>
      </trkpt>
      <trkpt lat="48.39977" lon="2.59045">
        <ele>98.67</ele>
        <time>2012-03-04T09:59:07Z</time>
      </trkpt>
      <trkpt lat="48.39976" lon="2.59043">
        <ele>98.19</ele>
        <time>2012-03-04T09:59:08Z</time>
      </trkpt>
      <trkpt lat="48.39964" lon="2.5905">
        <ele>100.11</ele>
        <time>2012-03-04T09:59:18Z</time>
      </trkpt>
      <trkpt lat="48.39963" lon="2.59051">
        <ele>100.6</ele>
        <time>2012-03-04T09:59:19Z</time>
      </trkpt>
      <trkpt lat="48.39951" lon="2.59064">
        <ele>103</ele>
        <time>2012-03-04T09:59:30Z</time>
      </trkpt>
      <trkpt lat="48.39945" lon="2.59067">
        <ele>103.96</ele>
        <time>2012-03-04T09:59:34Z</time>
      </trkpt>
      <trkpt lat="48.39936" lon="2.59078">
        <ele>104.44</ele>
        <time>2012-03-04T09:59:43Z</time>
      </trkpt>
      <trkpt lat="48.39931" lon="2.59097">
        <ele>104.44</ele>
        <time>2012-03-04T09:59:53Z</time>
      </trkpt>
      <trkpt lat="48.39923" lon="2.59131">
        <ele>105.88</ele>
        <time>2012-03-04T10:00:09Z</time>
      </trkpt>
      <trkpt lat="48.39924" lon="2.59165">
        <ele>107.32</ele>
        <time>2012-03-04T10:00:21Z</time>
      </trkpt>
      <trkpt lat="48.39925" lon="2.59171">
        <ele>108.29</ele>
        <time>2012-03-04T10:00:23Z</time>
      </trkpt>
      <trkpt lat="48.39933" lon="2.59198">
        <ele>109.25</ele>
        <time>2012-03-04T10:00:32Z</time>
      </trkpt>
      <trkpt lat="48.39935" lon="2.59206">
        <ele>109.73</ele>
        <time>2012-03-04T10:00:35Z</time>
      </trkpt>
      <trkpt lat="48.39939" lon="2.59208">
        <ele>109.73</ele>
        <time>2012-03-04T10:00:38Z</time>
      </trkpt>
      <trkpt lat="48.39951" lon="2.59228">
        <ele>112.13</ele>
        <time>2012-03-04T10:00:50Z</time>
      </trkpt>
      <trkpt lat="48.3996" lon="2.59225">
        <ele>114.05</ele>
        <time>2012-03-04T10:01:02Z</time>
      </trkpt>
      <trkpt lat="48.39961" lon="2.59222">
        <ele>114.53</ele>
        <time>2012-03-04T10:01:17Z</time>
      </trkpt>
      <trkpt lat="48.39963" lon="2.59217">
        <ele>115.5</ele>
        <time>2012-03-04T10:01:21Z</time>
      </trkpt>
      <trkpt lat="48.39971" lon="2.59219">
        <ele>116.94</ele>
        <time>2012-03-04T10:01:28Z</time>
      </trkpt>
      <trkpt lat="48.39983" lon="2.59222">
        <ele>116.94</ele>
        <time>2012-03-04T10:01:35Z</time>
      </trkpt>
      <trkpt lat="48.39989" lon="2.59227">
        <ele>115.98</ele>
        <time>2012-03-04T10:01:38Z</time>
      </trkpt>
      <trkpt lat="48.39995" lon="2.59235">
        <ele>114.53</ele>
        <time>2012-03-04T10:01:40Z</time>
      </trkpt>
      <trkpt lat="48.40007" lon="2.59249">
        <ele>113.09</ele>
        <time>2012-03-04T10:01:43Z</time>
      </trkpt>
      <trkpt lat="48.40019" lon="2.59263">
        <ele>114.53</ele>
        <time>2012-03-04T10:01:47Z</time>
      </trkpt>
      <trkpt lat="48.40024" lon="2.59274">
        <ele>115.5</ele>
        <time>2012-03-04T10:01:51Z</time>
      </trkpt>
      <trkpt lat="48.40031" lon="2.59267">
        <ele>117.42</ele>
        <time>2012-03-04T10:01:56Z</time>
      </trkpt>
      <trkpt lat="48.40035" lon="2.59257">
        <ele>118.38</ele>
        <time>2012-03-04T10:02:01Z</time>
      </trkpt>
      <trkpt lat="48.4004" lon="2.5925">
        <ele>120.3</ele>
        <time>2012-03-04T10:02:05Z</time>
      </trkpt>
      <trkpt lat="48.40042" lon="2.59247">
        <ele>121.26</ele>
        <time>2012-03-04T10:02:07Z</time>
      </trkpt>
      <trkpt lat="48.40046" lon="2.59249">
        <ele>122.71</ele>
        <time>2012-03-04T10:02:14Z</time>
      </trkpt>
      <trkpt lat="48.4005" lon="2.59238">
        <ele>122.22</ele>
        <time>2012-03-04T10:02:20Z</time>
      </trkpt>
      <trkpt lat="48.40053" lon="2.5923">
        <ele>122.22</ele>
        <time>2012-03-04T10:02:23Z</time>
      </trkpt>
      <trkpt lat="48.40052" lon="2.59213">
        <ele>122.71</ele>
        <time>2012-03-04T10:02:29Z</time>
      </trkpt>
      <trkpt lat="48.40054" lon="2.59202">
        <ele>122.71</ele>
        <time>2012-03-04T10:02:32Z</time>
      </trkpt>
      <trkpt lat="48.40059" lon="2.59178">
        <ele>122.71</ele>
        <time>2012-03-04T10:02:40Z</time>
      </trkpt>
      <trkpt lat="48.40061" lon="2.59172">
        <ele>122.71</ele>
        <time>2012-03-04T10:02:43Z</time>
      </trkpt>
      <trkpt lat="48.40068" lon="2.59161">
        <ele>122.71</ele>
        <time>2012-03-04T10:02:55Z</time>
      </trkpt>
      <trkpt lat="48.40072" lon="2.59158">
        <ele>122.71</ele>
        <time>2012-03-04T10:02:59Z</time>
      </trkpt>
      <trkpt lat="48.40076" lon="2.59151">
        <ele>121.74</ele>
        <time>2012-03-04T10:03:05Z</time>
      </trkpt>
      <trkpt lat="48.40075" lon="2.59153">
        <ele>122.22</ele>
        <time>2012-03-04T10:03:08Z</time>
      </trkpt>
      <trkpt lat="48.40075" lon="2.5916">
        <ele>122.22</ele>
        <time>2012-03-04T10:03:13Z</time>
      </trkpt>
      <trkpt lat="48.40087" lon="2.59189">
        <ele>122.22</ele>
        <time>2012-03-04T10:03:23Z</time>
      </trkpt>
      <trkpt lat="48.40089" lon="2.5919">
        <ele>122.22</ele>
        <time>2012-03-04T10:03:24Z</time>
      </trkpt>
      <trkpt lat="48.40103" lon="2.59202">
        <ele>122.22</ele>
        <time>2012-03-04T10:03:35Z</time>
      </trkpt>
      <trkpt lat="48.40102" lon="2.59207">
        <ele>122.22</ele>
        <time>2012-03-04T10:03:39Z</time>
      </trkpt>
      <trkpt lat="48.40105" lon="2.59216">
        <ele>122.22</ele>
        <time>2012-03-04T10:03:43Z</time>
      </trkpt>
      <trkpt lat="48.40119" lon="2.5924">
        <ele>121.74</ele>
        <time>2012-03-04T10:03:52Z</time>
      </trkpt>
      <trkpt lat="48.40121" lon="2.59254">
        <ele>121.26</ele>
        <time>2012-03-04T10:03:56Z</time>
      </trkpt>
      <trkpt lat="48.4012" lon="2.5931">
        <ele>121.26</ele>
        <time>2012-03-04T10:04:09Z</time>
      </trkpt>
      <trkpt lat="48.40124" lon="2.5938">
        <ele>121.26</ele>
        <time>2012-03-04T10:04:23Z</time>
      </trkpt>
      <trkpt lat="48.40109" lon="2.59396">
        <ele>120.78</ele>
        <time>2012-03-04T10:04:28Z</time>
      </trkpt>
      <trkpt lat="48.40074" lon="2.5942">
        <ele>121.74</ele>
        <time>2012-03-04T10:04:38Z</time>
      </trkpt>
      <trkpt lat="48.40071" lon="2.59423">
        <ele>121.74</ele>
        <time>2012-03-04T10:04:39Z</time>
      </trkpt>
      <trkpt lat="48.40044" lon="2.59445">
        <ele>120.78</ele>
        <time>2012-03-04T10:04:50Z</time>
      </trkpt>
      <trkpt lat="48.40043" lon="2.59451">
        <ele>120.78</ele>
        <time>2012-03-04T10:04:52Z</time>
      </trkpt>
      <trkpt lat="48.40044" lon="2.59454">
        <ele>120.78</ele>
        <time>2012-03-04T10:04:53Z</time>
      </trkpt>
      <trkpt lat="48.40044" lon="2.59456">
        <ele>120.78</ele>
        <time>2012-03-04T10:04:54Z</time>
      </trkpt>
      <trkpt lat="48.40044" lon="2.59459">
        <ele>120.3</ele>
        <time>2012-03-04T10:04:55Z</time>
      </trkpt>
      <trkpt lat="48.40043" lon="2.59461">
        <ele>120.3</ele>
        <time>2012-03-04T10:04:56Z</time>
      </trkpt>
      <trkpt lat="48.40043" lon="2.59462">
        <ele>120.78</ele>
        <time>2012-03-04T10:04:57Z</time>
      </trkpt>
      <trkpt lat="48.40042" lon="2.59464">
        <ele>120.78</ele>
        <time>2012-03-04T10:05:13Z</time>
      </trkpt>
      <trkpt lat="48.40035" lon="2.59474">
        <ele>120.3</ele>
        <time>2012-03-04T10:05:32Z</time>
      </trkpt>
      <trkpt lat="48.40016" lon="2.59474">
        <ele>118.86</ele>
        <time>2012-03-04T10:05:41Z</time>
      </trkpt>
      <trkpt lat="48.40009" lon="2.59479">
        <ele>117.9</ele>
        <time>2012-03-04T10:05:50Z</time>
      </trkpt>
      <trkpt lat="48.40006" lon="2.59477">
        <ele>117.42</ele>
        <time>2012-03-04T10:05:53Z</time>
      </trkpt>
      <trkpt lat="48.40004" lon="2.59477">
        <ele>117.42</ele>
        <time>2012-03-04T10:05:54Z</time>
      </trkpt>
      <trkpt lat="48.40001" lon="2.59481">
        <ele>116.94</ele>
        <time>2012-03-04T10:06:07Z</time>
      </trkpt>
      <trkpt lat="48.40001" lon="2.59481">
        <ele>116.46</ele>
        <time>2012-03-04T10:06:23Z</time>
      </trkpt>
      <trkpt lat="48.39995" lon="2.59485">
        <ele>115.01</ele>
        <time>2012-03-04T10:06:33Z</time>
      </trkpt>
      <trkpt lat="48.39992" lon="2.59486">
        <ele>114.53</ele>
        <time>2012-03-04T10:06:34Z</time>
      </trkpt>
      <trkpt lat="48.3999" lon="2.59487">
        <ele>113.57</ele>
        <time>2012-03-04T10:06:35Z</time>
      </trkpt>
      <trkpt lat="48.39987" lon="2.59488">
        <ele>113.09</ele>
        <time>2012-03-04T10:06:36Z</time>
      </trkpt>
      <trkpt lat="48.39985" lon="2.59488">
        <ele>113.57</ele>
        <time>2012-03-04T10:06:37Z</time>
      </trkpt>
      <trkpt lat="48.39983" lon="2.59487">
        <ele>112.61</ele>
        <time>2012-03-04T10:06:38Z</time>
      </trkpt>
      <trkpt lat="48.39981" lon="2.59486">
        <ele>113.09</ele>
        <time>2012-03-04T10:06:39Z</time>
      </trkpt>
      <trkpt lat="48.39978" lon="2.59485">
        <ele>112.61</ele>
        <time>2012-03-04T10:06:40Z</time>
      </trkpt>
      <trkpt lat="48.39976" lon="2.59486">
        <ele>112.61</ele>
        <time>2012-03-04T10:06:41Z</time>
      </trkpt>
      <trkpt lat="48.39973" lon="2.59487">
        <ele>111.65</ele>
        <time>2012-03-04T10:06:42Z</time>
      </trkpt>
      <trkpt lat="48.39969" lon="2.59489">
        <ele>111.17</ele>
        <time>2012-03-04T10:06:43Z</time>
      </trkpt>
      <trkpt lat="48.39965" lon="2.5949">
        <ele>110.69</ele>
        <time>2012-03-04T10:06:44Z</time>
      </trkpt>
      <trkpt lat="48.39961" lon="2.59492">
        <ele>110.21</ele>
        <time>2012-03-04T10:06:45Z</time>
      </trkpt>
      <trkpt lat="48.39956" lon="2.59494">
        <ele>109.73</ele>
        <time>2012-03-04T10:06:46Z</time>
      </trkpt>
      <trkpt lat="48.39951" lon="2.59496">
        <ele>109.25</ele>
        <time>2012-03-04T10:06:47Z</time>
      </trkpt>
      <trkpt lat="48.39946" lon="2.59498">
        <ele>109.25</ele>
        <time>2012-03-04T10:06:48Z</time>
      </trkpt>
      <trkpt lat="48.39941" lon="2.595">
        <ele>108.29</ele>
        <time>2012-03-04T10:06:49Z</time>
      </trkpt>
      <trkpt lat="48.39936" lon="2.59502">
        <ele>107.81</ele>
        <time>2012-03-04T10:06:50Z</time>
      </trkpt>
      <trkpt lat="48.39931" lon="2.595">
        <ele>107.81</ele>
        <time>2012-03-04T10:06:51Z</time>
      </trkpt>
      <trkpt lat="48.39927" lon="2.59497">
        <ele>107.81</ele>
        <time>2012-03-04T10:06:52Z</time>
      </trkpt>
      <trkpt lat="48.39924" lon="2.59492">
        <ele>107.32</ele>
        <time>2012-03-04T10:06:53Z</time>
      </trkpt>
      <trkpt lat="48.39917" lon="2.59484">
        <ele>107.81</ele>
        <time>2012-03-04T10:06:55Z</time>
      </trkpt>
      <trkpt lat="48.39913" lon="2.59481">
        <ele>106.84</ele>
        <time>2012-03-04T10:06:56Z</time>
      </trkpt>
      <trkpt lat="48.399" lon="2.59471">
        <ele>106.84</ele>
        <time>2012-03-04T10:07:00Z</time>
      </trkpt>
      <trkpt lat="48.39898" lon="2.59469">
        <ele>106.36</ele>
        <time>2012-03-04T10:07:01Z</time>
      </trkpt>
      <trkpt lat="48.39866" lon="2.59452">
        <ele>106.84</ele>
        <time>2012-03-04T10:07:11Z</time>
      </trkpt>
      <trkpt lat="48.39843" lon="2.59446">
        <ele>108.77</ele>
        <time>2012-03-04T10:07:21Z</time>
      </trkpt>
      <trkpt lat="48.39832" lon="2.59442">
        <ele>110.21</ele>
        <time>2012-03-04T10:07:29Z</time>
      </trkpt>
      <trkpt lat="48.3983" lon="2.59441">
        <ele>110.21</ele>
        <time>2012-03-04T10:07:30Z</time>
      </trkpt>
      <trkpt lat="48.39829" lon="2.59441">
        <ele>110.69</ele>
        <time>2012-03-04T10:07:31Z</time>
      </trkpt>
      <trkpt lat="48.39827" lon="2.59442">
        <ele>111.17</ele>
        <time>2012-03-04T10:07:32Z</time>
      </trkpt>
      <trkpt lat="48.39825" lon="2.59443">
        <ele>112.13</ele>
        <time>2012-03-04T10:07:34Z</time>
      </trkpt>
      <trkpt lat="48.39822" lon="2.59443">
        <ele>113.09</ele>
        <time>2012-03-04T10:07:45Z</time>
      </trkpt>
      <trkpt lat="48.39818" lon="2.59445">
        <ele>114.53</ele>
        <time>2012-03-04T10:08:05Z</time>
      </trkpt>
      <trkpt lat="48.39812" lon="2.59451">
        <ele>117.42</ele>
        <time>2012-03-04T10:08:18Z</time>
      </trkpt>
      <trkpt lat="48.39811" lon="2.59448">
        <ele>117.42</ele>
        <time>2012-03-04T10:08:20Z</time>
      </trkpt>
      <trkpt lat="48.39811" lon="2.59447">
        <ele>117.9</ele>
        <time>2012-03-04T10:08:21Z</time>
      </trkpt>
      <trkpt lat="48.39811" lon="2.59445">
        <ele>118.38</ele>
        <time>2012-03-04T10:08:22Z</time>
      </trkpt>
      <trkpt lat="48.39811" lon="2.5944">
        <ele>118.38</ele>
        <time>2012-03-04T10:08:25Z</time>
      </trkpt>
      <trkpt lat="48.3981" lon="2.59437">
        <ele>118.86</ele>
        <time>2012-03-04T10:08:27Z</time>
      </trkpt>
      <trkpt lat="48.39808" lon="2.59429">
        <ele>119.82</ele>
        <time>2012-03-04T10:08:39Z</time>
      </trkpt>
      <trkpt lat="48.39808" lon="2.59429">
        <ele>120.3</ele>
        <time>2012-03-04T10:08:43Z</time>
      </trkpt>
      <trkpt lat="48.39806" lon="2.59425">
        <ele>121.74</ele>
        <time>2012-03-04T10:08:48Z</time>
      </trkpt>
      <trkpt lat="48.39802" lon="2.59422">
        <ele>122.22</ele>
        <time>2012-03-04T10:08:57Z</time>
      </trkpt>
      <trkpt lat="48.398" lon="2.59417">
        <ele>121.74</ele>
        <time>2012-03-04T10:09:08Z</time>
      </trkpt>
      <trkpt lat="48.39799" lon="2.59409">
        <ele>121.26</ele>
        <time>2012-03-04T10:09:21Z</time>
      </trkpt>
      <trkpt lat="48.398" lon="2.59407">
        <ele>121.74</ele>
        <time>2012-03-04T10:09:22Z</time>
      </trkpt>
      <trkpt lat="48.39801" lon="2.59405">
        <ele>120.78</ele>
        <time>2012-03-04T10:09:23Z</time>
      </trkpt>
      <trkpt lat="48.39807" lon="2.59398">
        <ele>120.3</ele>
        <time>2012-03-04T10:09:29Z</time>
      </trkpt>
      <trkpt lat="48.39815" lon="2.59371">
        <ele>121.26</ele>
        <time>2012-03-04T10:09:39Z</time>
      </trkpt>
      <trkpt lat="48.39827" lon="2.59353">
        <ele>123.19</ele>
        <time>2012-03-04T10:09:48Z</time>
      </trkpt>
      <trkpt lat="48.39839" lon="2.59344">
        <ele>122.71</ele>
        <time>2012-03-04T10:09:57Z</time>
      </trkpt>
      <trkpt lat="48.39849" lon="2.59346">
        <ele>122.71</ele>
        <time>2012-03-04T10:10:06Z</time>
      </trkpt>
      <trkpt lat="48.39852" lon="2.59346">
        <ele>123.19</ele>
        <time>2012-03-04T10:10:08Z</time>
      </trkpt>
      <trkpt lat="48.3986" lon="2.59335">
        <ele>123.67</ele>
        <time>2012-03-04T10:10:20Z</time>
      </trkpt>
      <trkpt lat="48.39861" lon="2.59334">
        <ele>109.73</ele>
        <time>2012-03-04T10:10:30Z</time>
      </trkpt>
      <trkpt lat="48.39861" lon="2.59334">
        <ele>126.07</ele>
        <time>2012-03-04T10:10:31Z</time>
      </trkpt>
      <trkpt lat="48.39861" lon="2.59334">
        <ele>123.67</ele>
        <time>2012-03-04T10:10:34Z</time>
      </trkpt>
      <trkpt lat="48.39861" lon="2.59323">
        <ele>123.67</ele>
        <time>2012-03-04T10:10:44Z</time>
      </trkpt>
      <trkpt lat="48.39859" lon="2.59314">
        <ele>123.67</ele>
        <time>2012-03-04T10:10:54Z</time>
      </trkpt>
      <trkpt lat="48.39857" lon="2.5931">
        <ele>123.19</ele>
        <time>2012-03-04T10:10:57Z</time>
      </trkpt>
      <trkpt lat="48.39866" lon="2.59288">
        <ele>119.34</ele>
        <time>2012-03-04T10:11:05Z</time>
      </trkpt>
      <trkpt lat="48.39869" lon="2.5927">
        <ele>117.42</ele>
        <time>2012-03-04T10:11:12Z</time>
      </trkpt>
      <trkpt lat="48.39869" lon="2.5927">
        <ele>117.42</ele>
        <time>2012-03-04T10:11:13Z</time>
      </trkpt>
      <trkpt lat="48.39874" lon="2.59254">
        <ele>117.9</ele>
        <time>2012-03-04T10:11:19Z</time>
      </trkpt>
      <trkpt lat="48.39879" lon="2.59221">
        <ele>119.82</ele>
        <time>2012-03-04T10:11:32Z</time>
      </trkpt>
      <trkpt lat="48.3988" lon="2.59219">
        <ele>119.82</ele>
        <time>2012-03-04T10:11:33Z</time>
      </trkpt>
      <trkpt lat="48.39887" lon="2.59205">
        <ele>122.22</ele>
        <time>2012-03-04T10:11:43Z</time>
      </trkpt>
      <trkpt lat="48.3989" lon="2.59205">
        <ele>122.71</ele>
        <time>2012-03-04T10:11:51Z</time>
      </trkpt>
      <trkpt lat="48.39892" lon="2.59193">
        <ele>121.74</ele>
        <time>2012-03-04T10:11:55Z</time>
      </trkpt>
      <trkpt lat="48.3989" lon="2.59187">
        <ele>121.74</ele>
        <time>2012-03-04T10:11:58Z</time>
      </trkpt>
      <trkpt lat="48.39885" lon="2.59178">
        <ele>120.3</ele>
        <time>2012-03-04T10:12:08Z</time>
      </trkpt>
      <trkpt lat="48.39884" lon="2.59175">
        <ele>120.3</ele>
        <time>2012-03-04T10:12:29Z</time>
      </trkpt>
      <trkpt lat="48.39883" lon="2.59173">
        <ele>119.82</ele>
        <time>2012-03-04T10:12:45Z</time>
      </trkpt>
      <trkpt lat="48.39884" lon="2.59165">
        <ele>118.86</ele>
        <time>2012-03-04T10:12:49Z</time>
      </trkpt>
      <trkpt lat="48.39877" lon="2.59125">
        <ele>119.34</ele>
        <time>2012-03-04T10:12:59Z</time>
      </trkpt>
      <trkpt lat="48.39873" lon="2.59112">
        <ele>121.26</ele>
        <time>2012-03-04T10:13:05Z</time>
      </trkpt>
      <trkpt lat="48.39873" lon="2.59102">
        <ele>122.22</ele>
        <time>2012-03-04T10:13:11Z</time>
      </trkpt>
      <trkpt lat="48.39873" lon="2.59097">
        <ele>122.71</ele>
        <time>2012-03-04T10:13:14Z</time>
      </trkpt>
      <trkpt lat="48.39877" lon="2.59085">
        <ele>122.22</ele>
        <time>2012-03-04T10:13:21Z</time>
      </trkpt>
      <trkpt lat="48.39883" lon="2.59064">
        <ele>119.82</ele>
        <time>2012-03-04T10:13:32Z</time>
      </trkpt>
      <trkpt lat="48.39884" lon="2.59061">
        <ele>119.34</ele>
        <time>2012-03-04T10:13:33Z</time>
      </trkpt>
      <trkpt lat="48.39885" lon="2.59057">
        <ele>118.38</ele>
        <time>2012-03-04T10:13:35Z</time>
      </trkpt>
      <trkpt lat="48.39886" lon="2.59052">
        <ele>116.94</ele>
        <time>2012-03-04T10:13:37Z</time>
      </trkpt>
      <trkpt lat="48.39889" lon="2.5904">
        <ele>115.01</ele>
        <time>2012-03-04T10:13:46Z</time>
      </trkpt>
      <trkpt lat="48.3989" lon="2.59039">
        <ele>115.01</ele>
        <time>2012-03-04T10:13:47Z</time>
      </trkpt>
      <trkpt lat="48.39892" lon="2.59035">
        <ele>114.53</ele>
        <time>2012-03-04T10:13:50Z</time>
      </trkpt>
      <trkpt lat="48.39894" lon="2.59027">
        <ele>113.57</ele>
        <time>2012-03-04T10:14:00Z</time>
      </trkpt>
      <trkpt lat="48.39894" lon="2.59027">
        <ele>112.61</ele>
        <time>2012-03-04T10:14:14Z</time>
      </trkpt>
      <trkpt lat="48.39877" lon="2.59014">
        <ele>109.25</ele>
        <time>2012-03-04T10:14:22Z</time>
      </trkpt>
      <trkpt lat="48.39873" lon="2.5901">
        <ele>108.29</ele>
        <time>2012-03-04T10:14:23Z</time>
      </trkpt>
      <trkpt lat="48.39869" lon="2.59009">
        <ele>107.32</ele>
        <time>2012-03-04T10:14:24Z</time>
      </trkpt>
      <trkpt lat="48.39866" lon="2.5901">
        <ele>106.84</ele>
        <time>2012-03-04T10:14:25Z</time>
      </trkpt>
      <trkpt lat="48.39863" lon="2.59013">
        <ele>107.32</ele>
        <time>2012-03-04T10:14:26Z</time>
      </trkpt>
      <trkpt lat="48.3986" lon="2.59015">
        <ele>106.84</ele>
        <time>2012-03-04T10:14:27Z</time>
      </trkpt>
      <trkpt lat="48.39857" lon="2.59018">
        <ele>106.84</ele>
        <time>2012-03-04T10:14:28Z</time>
      </trkpt>
      <trkpt lat="48.39853" lon="2.5902">
        <ele>106.84</ele>
        <time>2012-03-04T10:14:29Z</time>
      </trkpt>
      <trkpt lat="48.39851" lon="2.59021">
        <ele>106.36</ele>
        <time>2012-03-04T10:14:30Z</time>
      </trkpt>
      <trkpt lat="48.39849" lon="2.59019">
        <ele>106.84</ele>
        <time>2012-03-04T10:14:31Z</time>
      </trkpt>
      <trkpt lat="48.39846" lon="2.59016">
        <ele>106.36</ele>
        <time>2012-03-04T10:14:32Z</time>
      </trkpt>
      <trkpt lat="48.39843" lon="2.59013">
        <ele>106.36</ele>
        <time>2012-03-04T10:14:33Z</time>
      </trkpt>
      <trkpt lat="48.39841" lon="2.59013">
        <ele>106.36</ele>
        <time>2012-03-04T10:14:34Z</time>
      </trkpt>
      <trkpt lat="48.39839" lon="2.59013">
        <ele>106.36</ele>
        <time>2012-03-04T10:14:35Z</time>
      </trkpt>
      <trkpt lat="48.39838" lon="2.59012">
        <ele>105.88</ele>
        <time>2012-03-04T10:14:36Z</time>
      </trkpt>
      <trkpt lat="48.39837" lon="2.59013">
        <ele>105.88</ele>
        <time>2012-03-04T10:14:37Z</time>
      </trkpt>
      <trkpt lat="48.39834" lon="2.59013">
        <ele>104.44</ele>
        <time>2012-03-04T10:14:45Z</time>
      </trkpt>
      <trkpt lat="48.39832" lon="2.59003">
        <ele>102.52</ele>
        <time>2012-03-04T10:14:49Z</time>
      </trkpt>
      <trkpt lat="48.39822" lon="2.59001">
        <ele>100.6</ele>
        <time>2012-03-04T10:14:52Z</time>
      </trkpt>
      <trkpt lat="48.39818" lon="2.58998">
        <ele>99.63</ele>
        <time>2012-03-04T10:14:54Z</time>
      </trkpt>
      <trkpt lat="48.39807" lon="2.58988">
        <ele>96.75</ele>
        <time>2012-03-04T10:14:58Z</time>
      </trkpt>
      <trkpt lat="48.39806" lon="2.58982">
        <ele>96.75</ele>
        <time>2012-03-04T10:14:59Z</time>
      </trkpt>
      <trkpt lat="48.39803" lon="2.58969">
        <ele>96.75</ele>
        <time>2012-03-04T10:15:01Z</time>
      </trkpt>
      <trkpt lat="48.39801" lon="2.58966">
        <ele>96.75</ele>
        <time>2012-03-04T10:15:02Z</time>
      </trkpt>
      <trkpt lat="48.39797" lon="2.58967">
        <ele>96.27</ele>
        <time>2012-03-04T10:15:03Z</time>
      </trkpt>
      <trkpt lat="48.39794" lon="2.5897">
        <ele>95.79</ele>
        <time>2012-03-04T10:15:04Z</time>
      </trkpt>
      <trkpt lat="48.39791" lon="2.58975">
        <ele>95.31</ele>
        <time>2012-03-04T10:15:05Z</time>
      </trkpt>
      <trkpt lat="48.39788" lon="2.58978">
        <ele>95.31</ele>
        <time>2012-03-04T10:15:06Z</time>
      </trkpt>
      <trkpt lat="48.39786" lon="2.58979">
        <ele>94.83</ele>
        <time>2012-03-04T10:15:07Z</time>
      </trkpt>
      <trkpt lat="48.39784" lon="2.58977">
        <ele>94.83</ele>
        <time>2012-03-04T10:15:08Z</time>
      </trkpt>
      <trkpt lat="48.39781" lon="2.58975">
        <ele>94.35</ele>
        <time>2012-03-04T10:15:09Z</time>
      </trkpt>
      <trkpt lat="48.39777" lon="2.58973">
        <ele>94.83</ele>
        <time>2012-03-04T10:15:10Z</time>
      </trkpt>
      <trkpt lat="48.39774" lon="2.58971">
        <ele>93.87</ele>
        <time>2012-03-04T10:15:11Z</time>
      </trkpt>
      <trkpt lat="48.3977" lon="2.58971">
        <ele>93.39</ele>
        <time>2012-03-04T10:15:12Z</time>
      </trkpt>
      <trkpt lat="48.39757" lon="2.58966">
        <ele>93.39</ele>
        <time>2012-03-04T10:15:15Z</time>
      </trkpt>
      <trkpt lat="48.39753" lon="2.58963">
        <ele>93.87</ele>
        <time>2012-03-04T10:15:16Z</time>
      </trkpt>
      <trkpt lat="48.39745" lon="2.58958">
        <ele>93.39</ele>
        <time>2012-03-04T10:15:18Z</time>
      </trkpt>
      <trkpt lat="48.39741" lon="2.58956">
        <ele>93.39</ele>
        <time>2012-03-04T10:15:19Z</time>
      </trkpt>
      <trkpt lat="48.39731" lon="2.58954">
        <ele>91.94</ele>
        <time>2012-03-04T10:15:21Z</time>
      </trkpt>
      <trkpt lat="48.39726" lon="2.58954">
        <ele>90.98</ele>
        <time>2012-03-04T10:15:22Z</time>
      </trkpt>
      <trkpt lat="48.39722" lon="2.58956">
        <ele>89.54</ele>
        <time>2012-03-04T10:15:23Z</time>
      </trkpt>
      <trkpt lat="48.39718" lon="2.58959">
        <ele>88.58</ele>
        <time>2012-03-04T10:15:24Z</time>
      </trkpt>
      <trkpt lat="48.39714" lon="2.58964">
        <ele>87.62</ele>
        <time>2012-03-04T10:15:25Z</time>
      </trkpt>
      <trkpt lat="48.3971" lon="2.58968">
        <ele>86.66</ele>
        <time>2012-03-04T10:15:26Z</time>
      </trkpt>
      <trkpt lat="48.39706" lon="2.58971">
        <ele>85.69</ele>
        <time>2012-03-04T10:15:27Z</time>
      </trkpt>
      <trkpt lat="48.39704" lon="2.58969">
        <ele>85.21</ele>
        <time>2012-03-04T10:15:28Z</time>
      </trkpt>
      <trkpt lat="48.39702" lon="2.58967">
        <ele>84.73</ele>
        <time>2012-03-04T10:15:29Z</time>
      </trkpt>
      <trkpt lat="48.39694" lon="2.58954">
        <ele>81.85</ele>
        <time>2012-03-04T10:15:34Z</time>
      </trkpt>
      <trkpt lat="48.39688" lon="2.58952">
        <ele>80.41</ele>
        <time>2012-03-04T10:15:35Z</time>
      </trkpt>
      <trkpt lat="48.39683" lon="2.58949">
        <ele>79.45</ele>
        <time>2012-03-04T10:15:36Z</time>
      </trkpt>
      <trkpt lat="48.39678" lon="2.58944">
        <ele>79.45</ele>
        <time>2012-03-04T10:15:37Z</time>
      </trkpt>
      <trkpt lat="48.39674" lon="2.58938">
        <ele>78.97</ele>
        <time>2012-03-04T10:15:38Z</time>
      </trkpt>
      <trkpt lat="48.3967" lon="2.58931">
        <ele>78.48</ele>
        <time>2012-03-04T10:15:39Z</time>
      </trkpt>
      <trkpt lat="48.39666" lon="2.58924">
        <ele>78.48</ele>
        <time>2012-03-04T10:15:40Z</time>
      </trkpt>
      <trkpt lat="48.39664" lon="2.58916">
        <ele>77.52</ele>
        <time>2012-03-04T10:15:41Z</time>
      </trkpt>
      <trkpt lat="48.39661" lon="2.58909">
        <ele>78</ele>
        <time>2012-03-04T10:15:42Z</time>
      </trkpt>
      <trkpt lat="48.39655" lon="2.58882">
        <ele>78</ele>
        <time>2012-03-04T10:15:47Z</time>
      </trkpt>
      <trkpt lat="48.39653" lon="2.58879">
        <ele>77.52</ele>
        <time>2012-03-04T10:15:48Z</time>
      </trkpt>
      <trkpt lat="48.39649" lon="2.58878">
        <ele>77.52</ele>
        <time>2012-03-04T10:15:49Z</time>
      </trkpt>
      <trkpt lat="48.39646" lon="2.58879">
        <ele>77.52</ele>
        <time>2012-03-04T10:15:50Z</time>
      </trkpt>
      <trkpt lat="48.39645" lon="2.58881">
        <ele>77.52</ele>
        <time>2012-03-04T10:15:51Z</time>
      </trkpt>
      <trkpt lat="48.39643" lon="2.58883">
        <ele>77.04</ele>
        <time>2012-03-04T10:15:52Z</time>
      </trkpt>
      <trkpt lat="48.39636" lon="2.58913">
        <ele>77.52</ele>
        <time>2012-03-04T10:16:02Z</time>
      </trkpt>
      <trkpt lat="48.39632" lon="2.58926">
        <ele>77.04</ele>
        <time>2012-03-04T10:16:06Z</time>
      </trkpt>
      <trkpt lat="48.3963" lon="2.58928">
        <ele>77.04</ele>
        <time>2012-03-04T10:16:07Z</time>
      </trkpt>
      <trkpt lat="48.39628" lon="2.5893">
        <ele>76.56</ele>
        <time>2012-03-04T10:16:08Z</time>
      </trkpt>
      <trkpt lat="48.39594" lon="2.58953">
        <ele>77.04</ele>
        <time>2012-03-04T10:16:19Z</time>
      </trkpt>
      <trkpt lat="48.3955" lon="2.5898">
        <ele>78.48</ele>
        <time>2012-03-04T10:16:34Z</time>
      </trkpt>
      <trkpt lat="48.39513" lon="2.59">
        <ele>80.41</ele>
        <time>2012-03-04T10:16:48Z</time>
      </trkpt>
      <trkpt lat="48.39473" lon="2.59024">
        <ele>80.89</ele>
        <time>2012-03-04T10:17:02Z</time>
      </trkpt>
      <trkpt lat="48.39449" lon="2.59038">
        <ele>74.64</ele>
        <time>2012-03-04T10:17:10Z</time>
      </trkpt>
      <trkpt lat="48.39446" lon="2.5904">
        <ele>82.33</ele>
        <time>2012-03-04T10:17:11Z</time>
      </trkpt>
      <trkpt lat="48.39409" lon="2.59062">
        <ele>84.73</ele>
        <time>2012-03-04T10:17:25Z</time>
      </trkpt>
      <trkpt lat="48.394" lon="2.59067">
        <ele>86.66</ele>
        <time>2012-03-04T10:17:29Z</time>
      </trkpt>
      <trkpt lat="48.39375" lon="2.59083">
        <ele>88.58</ele>
        <time>2012-03-04T10:17:41Z</time>
      </trkpt>
      <trkpt lat="48.39336" lon="2.59104">
        <ele>88.58</ele>
        <time>2012-03-04T10:17:56Z</time>
      </trkpt>
      <trkpt lat="48.39303" lon="2.59124">
        <ele>90.02</ele>
        <time>2012-03-04T10:18:09Z</time>
      </trkpt>
      <trkpt lat="48.39273" lon="2.59134">
        <ele>90.98</ele>
        <time>2012-03-04T10:18:21Z</time>
      </trkpt>
      <trkpt lat="48.39236" lon="2.59147">
        <ele>93.87</ele>
        <time>2012-03-04T10:18:36Z</time>
      </trkpt>
      <trkpt lat="48.3921" lon="2.59155">
        <ele>97.23</ele>
        <time>2012-03-04T10:18:49Z</time>
      </trkpt>
      <trkpt lat="48.39197" lon="2.59159">
        <ele>99.15</ele>
        <time>2012-03-04T10:18:55Z</time>
      </trkpt>
      <trkpt lat="48.39193" lon="2.5916">
        <ele>100.6</ele>
        <time>2012-03-04T10:18:57Z</time>
      </trkpt>
      <trkpt lat="48.39179" lon="2.59166">
        <ele>103.96</ele>
        <time>2012-03-04T10:19:03Z</time>
      </trkpt>
      <trkpt lat="48.39167" lon="2.59171">
        <ele>106.84</ele>
        <time>2012-03-04T10:19:09Z</time>
      </trkpt>
      <trkpt lat="48.39165" lon="2.59172">
        <ele>108.29</ele>
        <time>2012-03-04T10:19:11Z</time>
      </trkpt>
      <trkpt lat="48.39163" lon="2.59172">
        <ele>108.77</ele>
        <time>2012-03-04T10:19:12Z</time>
      </trkpt>
      <trkpt lat="48.39162" lon="2.59173">
        <ele>109.73</ele>
        <time>2012-03-04T10:19:13Z</time>
      </trkpt>
      <trkpt lat="48.3916" lon="2.59173">
        <ele>109.73</ele>
        <time>2012-03-04T10:19:14Z</time>
      </trkpt>
      <trkpt lat="48.39159" lon="2.59173">
        <ele>110.21</ele>
        <time>2012-03-04T10:19:15Z</time>
      </trkpt>
      <trkpt lat="48.39145" lon="2.59177">
        <ele>113.09</ele>
        <time>2012-03-04T10:19:23Z</time>
      </trkpt>
      <trkpt lat="48.3912" lon="2.59185">
        <ele>115.5</ele>
        <time>2012-03-04T10:19:36Z</time>
      </trkpt>
      <trkpt lat="48.39097" lon="2.59193">
        <ele>116.94</ele>
        <time>2012-03-04T10:19:47Z</time>
      </trkpt>
      <trkpt lat="48.39069" lon="2.59204">
        <ele>117.9</ele>
        <time>2012-03-04T10:20:02Z</time>
      </trkpt>
      <trkpt lat="48.39068" lon="2.59205">
        <ele>117.9</ele>
        <time>2012-03-04T10:20:17Z</time>
      </trkpt>
      <trkpt lat="48.39068" lon="2.59205">
        <ele>116.94</ele>
        <time>2012-03-04T10:20:50Z</time>
      </trkpt>
      <trkpt lat="48.39068" lon="2.59205">
        <ele>117.9</ele>
        <time>2012-03-04T10:21:23Z</time>
      </trkpt>
      <trkpt lat="48.39046" lon="2.59212">
        <ele>117.42</ele>
        <time>2012-03-04T10:21:34Z</time>
      </trkpt>
      <trkpt lat="48.39016" lon="2.59223">
        <ele>116.46</ele>
        <time>2012-03-04T10:21:46Z</time>
      </trkpt>
      <trkpt lat="48.39006" lon="2.59229">
        <ele>115.01</ele>
        <time>2012-03-04T10:21:49Z</time>
      </trkpt>
      <trkpt lat="48.39004" lon="2.59233">
        <ele>115.5</ele>
        <time>2012-03-04T10:21:50Z</time>
      </trkpt>
      <trkpt lat="48.39004" lon="2.59237">
        <ele>115.5</ele>
        <time>2012-03-04T10:21:51Z</time>
      </trkpt>
      <trkpt lat="48.39005" lon="2.59243">
        <ele>115.5</ele>
        <time>2012-03-04T10:21:53Z</time>
      </trkpt>
      <trkpt lat="48.39003" lon="2.59246">
        <ele>115.5</ele>
        <time>2012-03-04T10:21:54Z</time>
      </trkpt>
      <trkpt lat="48.39002" lon="2.59249">
        <ele>115.01</ele>
        <time>2012-03-04T10:21:55Z</time>
      </trkpt>
      <trkpt lat="48.39" lon="2.59251">
        <ele>114.53</ele>
        <time>2012-03-04T10:21:56Z</time>
      </trkpt>
      <trkpt lat="48.38998" lon="2.59254">
        <ele>114.53</ele>
        <time>2012-03-04T10:21:57Z</time>
      </trkpt>
      <trkpt lat="48.38997" lon="2.59256">
        <ele>114.53</ele>
        <time>2012-03-04T10:21:58Z</time>
      </trkpt>
      <trkpt lat="48.38996" lon="2.59259">
        <ele>113.57</ele>
        <time>2012-03-04T10:22:00Z</time>
      </trkpt>
      <trkpt lat="48.38994" lon="2.5926">
        <ele>113.09</ele>
        <time>2012-03-04T10:22:01Z</time>
      </trkpt>
      <trkpt lat="48.38993" lon="2.59261">
        <ele>112.13</ele>
        <time>2012-03-04T10:22:02Z</time>
      </trkpt>
      <trkpt lat="48.38991" lon="2.59262">
        <ele>111.65</ele>
        <time>2012-03-04T10:22:03Z</time>
      </trkpt>
      <trkpt lat="48.38989" lon="2.59265">
        <ele>111.17</ele>
        <time>2012-03-04T10:22:04Z</time>
      </trkpt>
      <trkpt lat="48.38987" lon="2.59266">
        <ele>110.21</ele>
        <time>2012-03-04T10:22:05Z</time>
      </trkpt>
      <trkpt lat="48.38985" lon="2.59268">
        <ele>109.73</ele>
        <time>2012-03-04T10:22:06Z</time>
      </trkpt>
      <trkpt lat="48.38982" lon="2.5927">
        <ele>108.77</ele>
        <time>2012-03-04T10:22:07Z</time>
      </trkpt>
      <trkpt lat="48.38978" lon="2.59272">
        <ele>108.29</ele>
        <time>2012-03-04T10:22:08Z</time>
      </trkpt>
      <trkpt lat="48.38974" lon="2.59275">
        <ele>108.29</ele>
        <time>2012-03-04T10:22:09Z</time>
      </trkpt>
      <trkpt lat="48.38971" lon="2.5928">
        <ele>108.77</ele>
        <time>2012-03-04T10:22:10Z</time>
      </trkpt>
      <trkpt lat="48.3897" lon="2.59285">
        <ele>108.29</ele>
        <time>2012-03-04T10:22:11Z</time>
      </trkpt>
      <trkpt lat="48.3897" lon="2.59288">
        <ele>108.77</ele>
        <time>2012-03-04T10:22:12Z</time>
      </trkpt>
      <trkpt lat="48.38969" lon="2.59292">
        <ele>108.29</ele>
        <time>2012-03-04T10:22:13Z</time>
      </trkpt>
      <trkpt lat="48.38964" lon="2.59325">
        <ele>109.73</ele>
        <time>2012-03-04T10:22:25Z</time>
      </trkpt>
      <trkpt lat="48.38957" lon="2.59369">
        <ele>109.73</ele>
        <time>2012-03-04T10:22:37Z</time>
      </trkpt>
      <trkpt lat="48.38947" lon="2.5941">
        <ele>110.21</ele>
        <time>2012-03-04T10:22:48Z</time>
      </trkpt>
      <trkpt lat="48.38941" lon="2.59459">
        <ele>111.17</ele>
        <time>2012-03-04T10:23:01Z</time>
      </trkpt>
      <trkpt lat="48.38932" lon="2.59479">
        <ele>111.65</ele>
        <time>2012-03-04T10:23:12Z</time>
      </trkpt>
      <trkpt lat="48.38929" lon="2.59479">
        <ele>111.65</ele>
        <time>2012-03-04T10:23:24Z</time>
      </trkpt>
      <trkpt lat="48.38923" lon="2.59475">
        <ele>112.13</ele>
        <time>2012-03-04T10:23:27Z</time>
      </trkpt>
      <trkpt lat="48.38915" lon="2.59472">
        <ele>114.05</ele>
        <time>2012-03-04T10:23:37Z</time>
      </trkpt>
      <trkpt lat="48.38906" lon="2.59466">
        <ele>115.5</ele>
        <time>2012-03-04T10:23:44Z</time>
      </trkpt>
      <trkpt lat="48.38904" lon="2.59463">
        <ele>115.98</ele>
        <time>2012-03-04T10:23:46Z</time>
      </trkpt>
      <trkpt lat="48.38902" lon="2.59448">
        <ele>116.94</ele>
        <time>2012-03-04T10:23:56Z</time>
      </trkpt>
      <trkpt lat="48.38902" lon="2.59447">
        <ele>117.42</ele>
        <time>2012-03-04T10:24:02Z</time>
      </trkpt>
      <trkpt lat="48.389" lon="2.59423">
        <ele>117.42</ele>
        <time>2012-03-04T10:24:11Z</time>
      </trkpt>
      <trkpt lat="48.38899" lon="2.59419">
        <ele>117.9</ele>
        <time>2012-03-04T10:24:16Z</time>
      </trkpt>
      <trkpt lat="48.38899" lon="2.59405">
        <ele>117.42</ele>
        <time>2012-03-04T10:24:24Z</time>
      </trkpt>
      <trkpt lat="48.38908" lon="2.59377">
        <ele>117.42</ele>
        <time>2012-03-04T10:24:36Z</time>
      </trkpt>
      <trkpt lat="48.38913" lon="2.59352">
        <ele>116.94</ele>
        <time>2012-03-04T10:24:44Z</time>
      </trkpt>
      <trkpt lat="48.38912" lon="2.59348">
        <ele>116.94</ele>
        <time>2012-03-04T10:24:46Z</time>
      </trkpt>
      <trkpt lat="48.38913" lon="2.59326">
        <ele>117.9</ele>
        <time>2012-03-04T10:24:53Z</time>
      </trkpt>
      <trkpt lat="48.38914" lon="2.59314">
        <ele>117.42</ele>
        <time>2012-03-04T10:25:06Z</time>
      </trkpt>
      <trkpt lat="48.38914" lon="2.59314">
        <ele>117.42</ele>
        <time>2012-03-04T10:25:39Z</time>
      </trkpt>
      <trkpt lat="48.38915" lon="2.59313">
        <ele>116.94</ele>
        <time>2012-03-04T10:25:48Z</time>
      </trkpt>
      <trkpt lat="48.38916" lon="2.59302">
        <ele>117.42</ele>
        <time>2012-03-04T10:25:52Z</time>
      </trkpt>
      <trkpt lat="48.38926" lon="2.59271">
        <ele>117.9</ele>
        <time>2012-03-04T10:26:03Z</time>
      </trkpt>
      <trkpt lat="48.38932" lon="2.59256">
        <ele>118.86</ele>
        <time>2012-03-04T10:26:08Z</time>
      </trkpt>
      <trkpt lat="48.38938" lon="2.59214">
        <ele>117.9</ele>
        <time>2012-03-04T10:26:18Z</time>
      </trkpt>
      <trkpt lat="48.38939" lon="2.59186">
        <ele>116.94</ele>
        <time>2012-03-04T10:26:25Z</time>
      </trkpt>
      <trkpt lat="48.38938" lon="2.59166">
        <ele>117.9</ele>
        <time>2012-03-04T10:26:29Z</time>
      </trkpt>
      <trkpt lat="48.38933" lon="2.5913">
        <ele>118.38</ele>
        <time>2012-03-04T10:26:39Z</time>
      </trkpt>
      <trkpt lat="48.38932" lon="2.59126">
        <ele>117.9</ele>
        <time>2012-03-04T10:26:40Z</time>
      </trkpt>
      <trkpt lat="48.38932" lon="2.5909">
        <ele>117.9</ele>
        <time>2012-03-04T10:26:50Z</time>
      </trkpt>
      <trkpt lat="48.38933" lon="2.59071">
        <ele>118.86</ele>
        <time>2012-03-04T10:26:56Z</time>
      </trkpt>
      <trkpt lat="48.3894" lon="2.59039">
        <ele>118.38</ele>
        <time>2012-03-04T10:27:06Z</time>
      </trkpt>
      <trkpt lat="48.38941" lon="2.59036">
        <ele>118.38</ele>
        <time>2012-03-04T10:27:07Z</time>
      </trkpt>
      <trkpt lat="48.38942" lon="2.59009">
        <ele>118.38</ele>
        <time>2012-03-04T10:27:14Z</time>
      </trkpt>
      <trkpt lat="48.38932" lon="2.58988">
        <ele>119.82</ele>
        <time>2012-03-04T10:27:20Z</time>
      </trkpt>
      <trkpt lat="48.38937" lon="2.58964">
        <ele>119.34</ele>
        <time>2012-03-04T10:27:27Z</time>
      </trkpt>
      <trkpt lat="48.38935" lon="2.58936">
        <ele>119.34</ele>
        <time>2012-03-04T10:27:35Z</time>
      </trkpt>
      <trkpt lat="48.3893" lon="2.58907">
        <ele>119.82</ele>
        <time>2012-03-04T10:27:44Z</time>
      </trkpt>
      <trkpt lat="48.38932" lon="2.58893">
        <ele>119.82</ele>
        <time>2012-03-04T10:27:47Z</time>
      </trkpt>
      <trkpt lat="48.38933" lon="2.58879">
        <ele>119.34</ele>
        <time>2012-03-04T10:27:50Z</time>
      </trkpt>
      <trkpt lat="48.38929" lon="2.58842">
        <ele>119.34</ele>
        <time>2012-03-04T10:27:58Z</time>
      </trkpt>
      <trkpt lat="48.38926" lon="2.58819">
        <ele>118.86</ele>
        <time>2012-03-04T10:28:03Z</time>
      </trkpt>
      <trkpt lat="48.38925" lon="2.58809">
        <ele>119.34</ele>
        <time>2012-03-04T10:28:05Z</time>
      </trkpt>
      <trkpt lat="48.3893" lon="2.58785">
        <ele>118.86</ele>
        <time>2012-03-04T10:28:10Z</time>
      </trkpt>
      <trkpt lat="48.38943" lon="2.5873">
        <ele>119.34</ele>
        <time>2012-03-04T10:28:20Z</time>
      </trkpt>
      <trkpt lat="48.38945" lon="2.58714">
        <ele>119.34</ele>
        <time>2012-03-04T10:28:23Z</time>
      </trkpt>
      <trkpt lat="48.38945" lon="2.58685">
        <ele>118.86</ele>
        <time>2012-03-04T10:28:28Z</time>
      </trkpt>
      <trkpt lat="48.38947" lon="2.58667">
        <ele>119.34</ele>
        <time>2012-03-04T10:28:31Z</time>
      </trkpt>
      <trkpt lat="48.38955" lon="2.58639">
        <ele>120.3</ele>
        <time>2012-03-04T10:28:37Z</time>
      </trkpt>
      <trkpt lat="48.38965" lon="2.58605">
        <ele>119.82</ele>
        <time>2012-03-04T10:28:45Z</time>
      </trkpt>
      <trkpt lat="48.38979" lon="2.58566">
        <ele>120.3</ele>
        <time>2012-03-04T10:28:56Z</time>
      </trkpt>
      <trkpt lat="48.38987" lon="2.58529">
        <ele>119.82</ele>
        <time>2012-03-04T10:29:06Z</time>
      </trkpt>
      <trkpt lat="48.3899" lon="2.58517">
        <ele>119.82</ele>
        <time>2012-03-04T10:29:09Z</time>
      </trkpt>
      <trkpt lat="48.39004" lon="2.58488">
        <ele>119.82</ele>
        <time>2012-03-04T10:29:18Z</time>
      </trkpt>
      <trkpt lat="48.39012" lon="2.58468">
        <ele>119.82</ele>
        <time>2012-03-04T10:29:23Z</time>
      </trkpt>
      <trkpt lat="48.39014" lon="2.58451">
        <ele>120.3</ele>
        <time>2012-03-04T10:29:27Z</time>
      </trkpt>
      <trkpt lat="48.39015" lon="2.58437">
        <ele>120.78</ele>
        <time>2012-03-04T10:29:31Z</time>
      </trkpt>
      <trkpt lat="48.39023" lon="2.58402">
        <ele>120.78</ele>
        <time>2012-03-04T10:29:43Z</time>
      </trkpt>
      <trkpt lat="48.39028" lon="2.58387">
        <ele>120.3</ele>
        <time>2012-03-04T10:29:47Z</time>
      </trkpt>
      <trkpt lat="48.39024" lon="2.58367">
        <ele>119.82</ele>
        <time>2012-03-04T10:29:52Z</time>
      </trkpt>
      <trkpt lat="48.39022" lon="2.58347">
        <ele>120.3</ele>
        <time>2012-03-04T10:29:57Z</time>
      </trkpt>
      <trkpt lat="48.3902" lon="2.58339">
        <ele>120.78</ele>
        <time>2012-03-04T10:29:59Z</time>
      </trkpt>
      <trkpt lat="48.39024" lon="2.58331">
        <ele>121.26</ele>
        <time>2012-03-04T10:30:02Z</time>
      </trkpt>
      <trkpt lat="48.39021" lon="2.5831">
        <ele>121.26</ele>
        <time>2012-03-04T10:30:09Z</time>
      </trkpt>
      <trkpt lat="48.39024" lon="2.58298">
        <ele>120.78</ele>
        <time>2012-03-04T10:30:12Z</time>
      </trkpt>
      <trkpt lat="48.39021" lon="2.58281">
        <ele>120.3</ele>
        <time>2012-03-04T10:30:16Z</time>
      </trkpt>
      <trkpt lat="48.39014" lon="2.5826">
        <ele>120.78</ele>
        <time>2012-03-04T10:30:24Z</time>
      </trkpt>
      <trkpt lat="48.39012" lon="2.58258">
        <ele>120.3</ele>
        <time>2012-03-04T10:30:25Z</time>
      </trkpt>
      <trkpt lat="48.39007" lon="2.58255">
        <ele>119.82</ele>
        <time>2012-03-04T10:30:27Z</time>
      </trkpt>
      <trkpt lat="48.38998" lon="2.58236">
        <ele>119.82</ele>
        <time>2012-03-04T10:30:32Z</time>
      </trkpt>
      <trkpt lat="48.39001" lon="2.58205">
        <ele>120.3</ele>
        <time>2012-03-04T10:30:39Z</time>
      </trkpt>
      <trkpt lat="48.3901" lon="2.58171">
        <ele>119.82</ele>
        <time>2012-03-04T10:30:47Z</time>
      </trkpt>
      <trkpt lat="48.39017" lon="2.58155">
        <ele>119.82</ele>
        <time>2012-03-04T10:30:53Z</time>
      </trkpt>
      <trkpt lat="48.39017" lon="2.5815">
        <ele>119.82</ele>
        <time>2012-03-04T10:30:55Z</time>
      </trkpt>
      <trkpt lat="48.39026" lon="2.58141">
        <ele>119.82</ele>
        <time>2012-03-04T10:31:04Z</time>
      </trkpt>
      <trkpt lat="48.39026" lon="2.58141">
        <ele>120.3</ele>
        <time>2012-03-04T10:31:05Z</time>
      </trkpt>
      <trkpt lat="48.39032" lon="2.5813">
        <ele>120.78</ele>
        <time>2012-03-04T10:31:10Z</time>
      </trkpt>
      <trkpt lat="48.39033" lon="2.58131">
        <ele>120.78</ele>
        <time>2012-03-04T10:31:15Z</time>
      </trkpt>
      <trkpt lat="48.39033" lon="2.58127">
        <ele>120.78</ele>
        <time>2012-03-04T10:31:20Z</time>
      </trkpt>
      <trkpt lat="48.39039" lon="2.58108">
        <ele>119.82</ele>
        <time>2012-03-04T10:31:28Z</time>
      </trkpt>
      <trkpt lat="48.3904" lon="2.58078">
        <ele>119.34</ele>
        <time>2012-03-04T10:31:36Z</time>
      </trkpt>
      <trkpt lat="48.39044" lon="2.58057">
        <ele>118.86</ele>
        <time>2012-03-04T10:31:45Z</time>
      </trkpt>
      <trkpt lat="48.39042" lon="2.58049">
        <ele>118.86</ele>
        <time>2012-03-04T10:31:49Z</time>
      </trkpt>
      <trkpt lat="48.39039" lon="2.58043">
        <ele>119.34</ele>
        <time>2012-03-04T10:32:00Z</time>
      </trkpt>
      <trkpt lat="48.39039" lon="2.58043">
        <ele>118.86</ele>
        <time>2012-03-04T10:32:16Z</time>
      </trkpt>
      <trkpt lat="48.39039" lon="2.58043">
        <ele>118.86</ele>
        <time>2012-03-04T10:32:34Z</time>
      </trkpt>
      <trkpt lat="48.39038" lon="2.58009">
        <ele>118.38</ele>
        <time>2012-03-04T10:32:43Z</time>
      </trkpt>
      <trkpt lat="48.39036" lon="2.57982">
        <ele>118.86</ele>
        <time>2012-03-04T10:32:49Z</time>
      </trkpt>
      <trkpt lat="48.39042" lon="2.57955">
        <ele>118.38</ele>
        <time>2012-03-04T10:32:56Z</time>
      </trkpt>
      <trkpt lat="48.39048" lon="2.57942">
        <ele>118.38</ele>
        <time>2012-03-04T10:32:59Z</time>
      </trkpt>
      <trkpt lat="48.39041" lon="2.579">
        <ele>119.82</ele>
        <time>2012-03-04T10:33:08Z</time>
      </trkpt>
      <trkpt lat="48.39024" lon="2.57881">
        <ele>118.86</ele>
        <time>2012-03-04T10:33:14Z</time>
      </trkpt>
      <trkpt lat="48.39018" lon="2.57873">
        <ele>118.86</ele>
        <time>2012-03-04T10:33:16Z</time>
      </trkpt>
      <trkpt lat="48.39016" lon="2.57868">
        <ele>118.86</ele>
        <time>2012-03-04T10:33:17Z</time>
      </trkpt>
      <trkpt lat="48.39003" lon="2.57835">
        <ele>118.38</ele>
        <time>2012-03-04T10:33:25Z</time>
      </trkpt>
      <trkpt lat="48.39003" lon="2.57832">
        <ele>118.38</ele>
        <time>2012-03-04T10:33:26Z</time>
      </trkpt>
      <trkpt lat="48.39003" lon="2.57827">
        <ele>118.38</ele>
        <time>2012-03-04T10:33:27Z</time>
      </trkpt>
      <trkpt lat="48.39004" lon="2.57824">
        <ele>118.38</ele>
        <time>2012-03-04T10:33:28Z</time>
      </trkpt>
      <trkpt lat="48.39004" lon="2.5782">
        <ele>118.38</ele>
        <time>2012-03-04T10:33:29Z</time>
      </trkpt>
      <trkpt lat="48.39004" lon="2.57805">
        <ele>118.86</ele>
        <time>2012-03-04T10:33:34Z</time>
      </trkpt>
      <trkpt lat="48.39002" lon="2.57794">
        <ele>117.9</ele>
        <time>2012-03-04T10:33:37Z</time>
      </trkpt>
      <trkpt lat="48.39008" lon="2.57759">
        <ele>117.9</ele>
        <time>2012-03-04T10:33:47Z</time>
      </trkpt>
      <trkpt lat="48.39011" lon="2.57744">
        <ele>117.9</ele>
        <time>2012-03-04T10:33:51Z</time>
      </trkpt>
      <trkpt lat="48.39016" lon="2.57714">
        <ele>117.42</ele>
        <time>2012-03-04T10:33:59Z</time>
      </trkpt>
      <trkpt lat="48.39023" lon="2.57693">
        <ele>116.94</ele>
        <time>2012-03-04T10:34:04Z</time>
      </trkpt>
      <trkpt lat="48.39028" lon="2.5766">
        <ele>117.9</ele>
        <time>2012-03-04T10:34:11Z</time>
      </trkpt>
      <trkpt lat="48.39037" lon="2.57643">
        <ele>117.9</ele>
        <time>2012-03-04T10:34:17Z</time>
      </trkpt>
      <trkpt lat="48.39039" lon="2.57636">
        <ele>117.9</ele>
        <time>2012-03-04T10:34:19Z</time>
      </trkpt>
      <trkpt lat="48.39037" lon="2.57605">
        <ele>117.9</ele>
        <time>2012-03-04T10:34:26Z</time>
      </trkpt>
      <trkpt lat="48.39037" lon="2.57556">
        <ele>117.42</ele>
        <time>2012-03-04T10:34:36Z</time>
      </trkpt>
      <trkpt lat="48.39037" lon="2.57545">
        <ele>117.9</ele>
        <time>2012-03-04T10:34:43Z</time>
      </trkpt>
      <trkpt lat="48.39043" lon="2.57526">
        <ele>116.94</ele>
        <time>2012-03-04T10:34:50Z</time>
      </trkpt>
      <trkpt lat="48.39031" lon="2.57486">
        <ele>116.94</ele>
        <time>2012-03-04T10:35:00Z</time>
      </trkpt>
      <trkpt lat="48.39026" lon="2.57466">
        <ele>115.98</ele>
        <time>2012-03-04T10:35:06Z</time>
      </trkpt>
      <trkpt lat="48.39024" lon="2.57438">
        <ele>116.46</ele>
        <time>2012-03-04T10:35:14Z</time>
      </trkpt>
      <trkpt lat="48.39024" lon="2.57424">
        <ele>117.42</ele>
        <time>2012-03-04T10:35:18Z</time>
      </trkpt>
      <trkpt lat="48.39025" lon="2.57403">
        <ele>116.46</ele>
        <time>2012-03-04T10:35:23Z</time>
      </trkpt>
      <trkpt lat="48.39023" lon="2.57394">
        <ele>116.46</ele>
        <time>2012-03-04T10:35:36Z</time>
      </trkpt>
      <trkpt lat="48.39023" lon="2.57386">
        <ele>116.94</ele>
        <time>2012-03-04T10:35:49Z</time>
      </trkpt>
      <trkpt lat="48.39024" lon="2.57385">
        <ele>117.42</ele>
        <time>2012-03-04T10:35:52Z</time>
      </trkpt>
      <trkpt lat="48.39026" lon="2.57383">
        <ele>117.42</ele>
        <time>2012-03-04T10:35:55Z</time>
      </trkpt>
      <trkpt lat="48.39029" lon="2.57381">
        <ele>117.42</ele>
        <time>2012-03-04T10:36:00Z</time>
      </trkpt>
      <trkpt lat="48.39033" lon="2.57372">
        <ele>117.42</ele>
        <time>2012-03-04T10:36:05Z</time>
      </trkpt>
      <trkpt lat="48.39043" lon="2.57351">
        <ele>117.9</ele>
        <time>2012-03-04T10:36:13Z</time>
      </trkpt>
      <trkpt lat="48.39045" lon="2.57337">
        <ele>117.9</ele>
        <time>2012-03-04T10:36:17Z</time>
      </trkpt>
      <trkpt lat="48.39059" lon="2.57311">
        <ele>117.42</ele>
        <time>2012-03-04T10:36:25Z</time>
      </trkpt>
      <trkpt lat="48.39069" lon="2.57304">
        <ele>116.94</ele>
        <time>2012-03-04T10:36:30Z</time>
      </trkpt>
      <trkpt lat="48.39074" lon="2.57286">
        <ele>117.9</ele>
        <time>2012-03-04T10:36:36Z</time>
      </trkpt>
      <trkpt lat="48.39073" lon="2.57282">
        <ele>117.42</ele>
        <time>2012-03-04T10:36:37Z</time>
      </trkpt>
      <trkpt lat="48.39079" lon="2.5723">
        <ele>117.42</ele>
        <time>2012-03-04T10:36:48Z</time>
      </trkpt>
      <trkpt lat="48.39096" lon="2.57194">
        <ele>117.42</ele>
        <time>2012-03-04T10:36:57Z</time>
      </trkpt>
      <trkpt lat="48.39113" lon="2.57165">
        <ele>117.42</ele>
        <time>2012-03-04T10:37:06Z</time>
      </trkpt>
      <trkpt lat="48.39115" lon="2.57162">
        <ele>117.42</ele>
        <time>2012-03-04T10:37:08Z</time>
      </trkpt>
      <trkpt lat="48.39122" lon="2.57151">
        <ele>116.94</ele>
        <time>2012-03-04T10:37:14Z</time>
      </trkpt>
      <trkpt lat="48.39131" lon="2.57108">
        <ele>116.46</ele>
        <time>2012-03-04T10:37:24Z</time>
      </trkpt>
      <trkpt lat="48.39135" lon="2.57057">
        <ele>117.42</ele>
        <time>2012-03-04T10:37:34Z</time>
      </trkpt>
      <trkpt lat="48.3914" lon="2.57047">
        <ele>117.42</ele>
        <time>2012-03-04T10:37:37Z</time>
      </trkpt>
      <trkpt lat="48.3914" lon="2.57035">
        <ele>117.9</ele>
        <time>2012-03-04T10:37:40Z</time>
      </trkpt>
      <trkpt lat="48.39154" lon="2.56994">
        <ele>116.94</ele>
        <time>2012-03-04T10:37:49Z</time>
      </trkpt>
      <trkpt lat="48.39169" lon="2.56964">
        <ele>116.46</ele>
        <time>2012-03-04T10:37:57Z</time>
      </trkpt>
      <trkpt lat="48.39168" lon="2.5696">
        <ele>115.98</ele>
        <time>2012-03-04T10:37:58Z</time>
      </trkpt>
      <trkpt lat="48.39156" lon="2.56921">
        <ele>117.42</ele>
        <time>2012-03-04T10:38:08Z</time>
      </trkpt>
      <trkpt lat="48.39156" lon="2.56921">
        <ele>116.94</ele>
        <time>2012-03-04T10:38:15Z</time>
      </trkpt>
      <trkpt lat="48.39157" lon="2.56913">
        <ele>116.94</ele>
        <time>2012-03-04T10:38:21Z</time>
      </trkpt>
      <trkpt lat="48.39158" lon="2.5691">
        <ele>116.94</ele>
        <time>2012-03-04T10:38:22Z</time>
      </trkpt>
      <trkpt lat="48.39158" lon="2.56907">
        <ele>116.94</ele>
        <time>2012-03-04T10:38:23Z</time>
      </trkpt>
      <trkpt lat="48.3916" lon="2.56903">
        <ele>117.42</ele>
        <time>2012-03-04T10:38:25Z</time>
      </trkpt>
      <trkpt lat="48.39161" lon="2.569">
        <ele>116.94</ele>
        <time>2012-03-04T10:38:26Z</time>
      </trkpt>
      <trkpt lat="48.39163" lon="2.56898">
        <ele>116.94</ele>
        <time>2012-03-04T10:38:27Z</time>
      </trkpt>
      <trkpt lat="48.39164" lon="2.56895">
        <ele>116.94</ele>
        <time>2012-03-04T10:38:28Z</time>
      </trkpt>
      <trkpt lat="48.39166" lon="2.56893">
        <ele>116.94</ele>
        <time>2012-03-04T10:38:29Z</time>
      </trkpt>
      <trkpt lat="48.3917" lon="2.56884">
        <ele>116.46</ele>
        <time>2012-03-04T10:38:32Z</time>
      </trkpt>
      <trkpt lat="48.39171" lon="2.56883">
        <ele>116.94</ele>
        <time>2012-03-04T10:38:33Z</time>
      </trkpt>
      <trkpt lat="48.39172" lon="2.56881">
        <ele>116.94</ele>
        <time>2012-03-04T10:38:34Z</time>
      </trkpt>
      <trkpt lat="48.39172" lon="2.56878">
        <ele>116.46</ele>
        <time>2012-03-04T10:38:35Z</time>
      </trkpt>
      <trkpt lat="48.39172" lon="2.56875">
        <ele>116.94</ele>
        <time>2012-03-04T10:38:36Z</time>
      </trkpt>
      <trkpt lat="48.39174" lon="2.56846">
        <ele>116.94</ele>
        <time>2012-03-04T10:38:46Z</time>
      </trkpt>
      <trkpt lat="48.39174" lon="2.56844">
        <ele>116.94</ele>
        <time>2012-03-04T10:38:47Z</time>
      </trkpt>
      <trkpt lat="48.39175" lon="2.56835">
        <ele>117.42</ele>
        <time>2012-03-04T10:38:59Z</time>
      </trkpt>
      <trkpt lat="48.39175" lon="2.56835">
        <ele>116.94</ele>
        <time>2012-03-04T10:39:29Z</time>
      </trkpt>
      <trkpt lat="48.39175" lon="2.56835">
        <ele>116.94</ele>
        <time>2012-03-04T10:40:06Z</time>
      </trkpt>
      <trkpt lat="48.39176" lon="2.5683">
        <ele>116.94</ele>
        <time>2012-03-04T10:40:37Z</time>
      </trkpt>
      <trkpt lat="48.39176" lon="2.56827">
        <ele>117.42</ele>
        <time>2012-03-04T10:40:38Z</time>
      </trkpt>
      <trkpt lat="48.39175" lon="2.56823">
        <ele>117.42</ele>
        <time>2012-03-04T10:40:39Z</time>
      </trkpt>
      <trkpt lat="48.39175" lon="2.5682">
        <ele>116.94</ele>
        <time>2012-03-04T10:40:40Z</time>
      </trkpt>
      <trkpt lat="48.39176" lon="2.56817">
        <ele>116.94</ele>
        <time>2012-03-04T10:40:41Z</time>
      </trkpt>
      <trkpt lat="48.39176" lon="2.56813">
        <ele>116.94</ele>
        <time>2012-03-04T10:40:42Z</time>
      </trkpt>
      <trkpt lat="48.39176" lon="2.56809">
        <ele>116.46</ele>
        <time>2012-03-04T10:40:43Z</time>
      </trkpt>
      <trkpt lat="48.39177" lon="2.56805">
        <ele>116.94</ele>
        <time>2012-03-04T10:40:44Z</time>
      </trkpt>
      <trkpt lat="48.39176" lon="2.568">
        <ele>116.94</ele>
        <time>2012-03-04T10:40:45Z</time>
      </trkpt>
      <trkpt lat="48.39175" lon="2.56795">
        <ele>116.46</ele>
        <time>2012-03-04T10:40:46Z</time>
      </trkpt>
      <trkpt lat="48.39175" lon="2.56791">
        <ele>116.46</ele>
        <time>2012-03-04T10:40:47Z</time>
      </trkpt>
      <trkpt lat="48.39175" lon="2.56787">
        <ele>116.94</ele>
        <time>2012-03-04T10:40:48Z</time>
      </trkpt>
      <trkpt lat="48.39176" lon="2.56783">
        <ele>116.94</ele>
        <time>2012-03-04T10:40:49Z</time>
      </trkpt>
      <trkpt lat="48.39176" lon="2.56766">
        <ele>116.94</ele>
        <time>2012-03-04T10:40:53Z</time>
      </trkpt>
      <trkpt lat="48.39182" lon="2.56747">
        <ele>118.38</ele>
        <time>2012-03-04T10:40:58Z</time>
      </trkpt>
      <trkpt lat="48.39194" lon="2.5672">
        <ele>117.42</ele>
        <time>2012-03-04T10:41:05Z</time>
      </trkpt>
      <trkpt lat="48.39198" lon="2.56683">
        <ele>119.34</ele>
        <time>2012-03-04T10:41:15Z</time>
      </trkpt>
      <trkpt lat="48.39197" lon="2.56681">
        <ele>118.86</ele>
        <time>2012-03-04T10:41:24Z</time>
      </trkpt>
      <trkpt lat="48.39199" lon="2.56673">
        <ele>119.34</ele>
        <time>2012-03-04T10:41:34Z</time>
      </trkpt>
      <trkpt lat="48.39199" lon="2.56673">
        <ele>119.34</ele>
        <time>2012-03-04T10:41:35Z</time>
      </trkpt>
      <trkpt lat="48.39203" lon="2.5666">
        <ele>118.38</ele>
        <time>2012-03-04T10:41:39Z</time>
      </trkpt>
      <trkpt lat="48.39206" lon="2.56632">
        <ele>117.42</ele>
        <time>2012-03-04T10:41:45Z</time>
      </trkpt>
      <trkpt lat="48.39206" lon="2.56611">
        <ele>117.42</ele>
        <time>2012-03-04T10:41:50Z</time>
      </trkpt>
      <trkpt lat="48.39206" lon="2.56586">
        <ele>116.46</ele>
        <time>2012-03-04T10:41:57Z</time>
      </trkpt>
      <trkpt lat="48.39207" lon="2.5657">
        <ele>116.46</ele>
        <time>2012-03-04T10:42:01Z</time>
      </trkpt>
      <trkpt lat="48.39204" lon="2.56545">
        <ele>116.46</ele>
        <time>2012-03-04T10:42:07Z</time>
      </trkpt>
      <trkpt lat="48.39205" lon="2.56513">
        <ele>116.94</ele>
        <time>2012-03-04T10:42:17Z</time>
      </trkpt>
      <trkpt lat="48.39205" lon="2.56513">
        <ele>116.46</ele>
        <time>2012-03-04T10:42:23Z</time>
      </trkpt>
      <trkpt lat="48.3922" lon="2.5649">
        <ele>116.94</ele>
        <time>2012-03-04T10:42:33Z</time>
      </trkpt>
      <trkpt lat="48.39235" lon="2.56469">
        <ele>116.94</ele>
        <time>2012-03-04T10:42:43Z</time>
      </trkpt>
      <trkpt lat="48.39236" lon="2.56465">
        <ele>116.94</ele>
        <time>2012-03-04T10:42:44Z</time>
      </trkpt>
      <trkpt lat="48.39238" lon="2.56453">
        <ele>117.42</ele>
        <time>2012-03-04T10:42:47Z</time>
      </trkpt>
      <trkpt lat="48.3924" lon="2.56437">
        <ele>116.94</ele>
        <time>2012-03-04T10:42:51Z</time>
      </trkpt>
      <trkpt lat="48.39241" lon="2.56414">
        <ele>116.94</ele>
        <time>2012-03-04T10:42:57Z</time>
      </trkpt>
      <trkpt lat="48.39245" lon="2.56394">
        <ele>115.98</ele>
        <time>2012-03-04T10:43:05Z</time>
      </trkpt>
      <trkpt lat="48.39245" lon="2.56394">
        <ele>115.98</ele>
        <time>2012-03-04T10:43:20Z</time>
      </trkpt>
      <trkpt lat="48.39245" lon="2.56393">
        <ele>115.98</ele>
        <time>2012-03-04T10:43:56Z</time>
      </trkpt>
      <trkpt lat="48.39245" lon="2.56393">
        <ele>115.98</ele>
        <time>2012-03-04T10:44:22Z</time>
      </trkpt>
      <trkpt lat="48.39245" lon="2.56393">
        <ele>115.98</ele>
        <time>2012-03-04T10:44:52Z</time>
      </trkpt>
      <trkpt lat="48.39245" lon="2.56393">
        <ele>115.98</ele>
        <time>2012-03-04T10:44:57Z</time>
      </trkpt>
      <trkpt lat="48.39253" lon="2.56372">
        <ele>117.42</ele>
        <time>2012-03-04T10:45:06Z</time>
      </trkpt>
      <trkpt lat="48.39254" lon="2.56366">
        <ele>118.38</ele>
        <time>2012-03-04T10:45:18Z</time>
      </trkpt>
      <trkpt lat="48.39252" lon="2.56356">
        <ele>116.46</ele>
        <time>2012-03-04T10:45:29Z</time>
      </trkpt>
      <trkpt lat="48.39251" lon="2.56316">
        <ele>115.98</ele>
        <time>2012-03-04T10:45:39Z</time>
      </trkpt>
      <trkpt lat="48.39251" lon="2.56316">
        <ele>115.98</ele>
        <time>2012-03-04T10:46:04Z</time>
      </trkpt>
      <trkpt lat="48.39251" lon="2.56316">
        <ele>115.98</ele>
        <time>2012-03-04T10:46:05Z</time>
      </trkpt>
      <trkpt lat="48.39261" lon="2.56304">
        <ele>114.05</ele>
        <time>2012-03-04T10:46:13Z</time>
      </trkpt>
      <trkpt lat="48.39263" lon="2.56298">
        <ele>112.13</ele>
        <time>2012-03-04T10:46:17Z</time>
      </trkpt>
      <trkpt lat="48.39264" lon="2.56298">
        <ele>111.65</ele>
        <time>2012-03-04T10:46:27Z</time>
      </trkpt>
      <trkpt lat="48.39264" lon="2.56298">
        <ele>111.65</ele>
        <time>2012-03-04T10:46:28Z</time>
      </trkpt>
      <trkpt lat="48.39265" lon="2.56296">
        <ele>110.21</ele>
        <time>2012-03-04T10:46:31Z</time>
      </trkpt>
      <trkpt lat="48.39266" lon="2.56295">
        <ele>110.21</ele>
        <time>2012-03-04T10:46:33Z</time>
      </trkpt>
      <trkpt lat="48.39263" lon="2.56282">
        <ele>108.77</ele>
        <time>2012-03-04T10:46:39Z</time>
      </trkpt>
      <trkpt lat="48.39257" lon="2.56276">
        <ele>109.25</ele>
        <time>2012-03-04T10:46:49Z</time>
      </trkpt>
      <trkpt lat="48.39257" lon="2.56275">
        <ele>109.25</ele>
        <time>2012-03-04T10:46:50Z</time>
      </trkpt>
      <trkpt lat="48.39257" lon="2.56271">
        <ele>107.32</ele>
        <time>2012-03-04T10:46:56Z</time>
      </trkpt>
      <trkpt lat="48.39257" lon="2.56257">
        <ele>104.92</ele>
        <time>2012-03-04T10:47:00Z</time>
      </trkpt>
      <trkpt lat="48.39258" lon="2.56252">
        <ele>103.48</ele>
        <time>2012-03-04T10:47:01Z</time>
      </trkpt>
      <trkpt lat="48.3926" lon="2.56231">
        <ele>99.63</ele>
        <time>2012-03-04T10:47:07Z</time>
      </trkpt>
      <trkpt lat="48.39257" lon="2.56219">
        <ele>96.75</ele>
        <time>2012-03-04T10:47:11Z</time>
      </trkpt>
      <trkpt lat="48.39261" lon="2.5621">
        <ele>95.31</ele>
        <time>2012-03-04T10:47:14Z</time>
      </trkpt>
      <trkpt lat="48.39268" lon="2.56187">
        <ele>92.9</ele>
        <time>2012-03-04T10:47:20Z</time>
      </trkpt>
      <trkpt lat="48.39281" lon="2.56165">
        <ele>92.9</ele>
        <time>2012-03-04T10:47:29Z</time>
      </trkpt>
      <trkpt lat="48.39282" lon="2.56156">
        <ele>92.9</ele>
        <time>2012-03-04T10:47:32Z</time>
      </trkpt>
      <trkpt lat="48.39285" lon="2.56132">
        <ele>91.94</ele>
        <time>2012-03-04T10:47:39Z</time>
      </trkpt>
      <trkpt lat="48.39288" lon="2.56119">
        <ele>93.39</ele>
        <time>2012-03-04T10:47:43Z</time>
      </trkpt>
      <trkpt lat="48.39289" lon="2.56115">
        <ele>93.87</ele>
        <time>2012-03-04T10:47:44Z</time>
      </trkpt>
      <trkpt lat="48.3929" lon="2.56101">
        <ele>95.31</ele>
        <time>2012-03-04T10:47:48Z</time>
      </trkpt>
      <trkpt lat="48.39291" lon="2.56096">
        <ele>96.27</ele>
        <time>2012-03-04T10:47:50Z</time>
      </trkpt>
      <trkpt lat="48.3929" lon="2.56084">
        <ele>97.23</ele>
        <time>2012-03-04T10:47:55Z</time>
      </trkpt>
      <trkpt lat="48.3929" lon="2.56075">
        <ele>99.63</ele>
        <time>2012-03-04T10:47:59Z</time>
      </trkpt>
      <trkpt lat="48.39291" lon="2.56073">
        <ele>99.63</ele>
        <time>2012-03-04T10:48:00Z</time>
      </trkpt>
      <trkpt lat="48.39302" lon="2.56033">
        <ele>100.11</ele>
        <time>2012-03-04T10:48:13Z</time>
      </trkpt>
      <trkpt lat="48.39302" lon="2.56016">
        <ele>100.11</ele>
        <time>2012-03-04T10:48:17Z</time>
      </trkpt>
      <trkpt lat="48.39297" lon="2.56002">
        <ele>99.63</ele>
        <time>2012-03-04T10:48:21Z</time>
      </trkpt>
      <trkpt lat="48.39291" lon="2.56">
        <ele>100.11</ele>
        <time>2012-03-04T10:48:23Z</time>
      </trkpt>
      <trkpt lat="48.39278" lon="2.55985">
        <ele>97.23</ele>
        <time>2012-03-04T10:48:28Z</time>
      </trkpt>
      <trkpt lat="48.3928" lon="2.55955">
        <ele>98.67</ele>
        <time>2012-03-04T10:48:35Z</time>
      </trkpt>
      <trkpt lat="48.39282" lon="2.55952">
        <ele>98.67</ele>
        <time>2012-03-04T10:48:36Z</time>
      </trkpt>
      <trkpt lat="48.39286" lon="2.55931">
        <ele>97.23</ele>
        <time>2012-03-04T10:48:40Z</time>
      </trkpt>
      <trkpt lat="48.39286" lon="2.55909">
        <ele>95.31</ele>
        <time>2012-03-04T10:48:47Z</time>
      </trkpt>
      <trkpt lat="48.39289" lon="2.55885">
        <ele>90.98</ele>
        <time>2012-03-04T10:48:55Z</time>
      </trkpt>
      <trkpt lat="48.39299" lon="2.55852">
        <ele>90.98</ele>
        <time>2012-03-04T10:49:01Z</time>
      </trkpt>
      <trkpt lat="48.39314" lon="2.55822">
        <ele>90.98</ele>
        <time>2012-03-04T10:49:12Z</time>
      </trkpt>
      <trkpt lat="48.39319" lon="2.55813">
        <ele>90.5</ele>
        <time>2012-03-04T10:49:16Z</time>
      </trkpt>
      <trkpt lat="48.39317" lon="2.55806">
        <ele>90.98</ele>
        <time>2012-03-04T10:49:20Z</time>
      </trkpt>
      <trkpt lat="48.39322" lon="2.55787">
        <ele>90.98</ele>
        <time>2012-03-04T10:49:36Z</time>
      </trkpt>
      <trkpt lat="48.39322" lon="2.55787">
        <ele>90.98</ele>
        <time>2012-03-04T10:49:37Z</time>
      </trkpt>
      <trkpt lat="48.3932" lon="2.55776">
        <ele>89.06</ele>
        <time>2012-03-04T10:49:42Z</time>
      </trkpt>
      <trkpt lat="48.39323" lon="2.5576">
        <ele>85.69</ele>
        <time>2012-03-04T10:49:47Z</time>
      </trkpt>
      <trkpt lat="48.39324" lon="2.55752">
        <ele>84.25</ele>
        <time>2012-03-04T10:49:48Z</time>
      </trkpt>
      <trkpt lat="48.39331" lon="2.55728">
        <ele>84.25</ele>
        <time>2012-03-04T10:49:51Z</time>
      </trkpt>
      <trkpt lat="48.39329" lon="2.55707">
        <ele>82.33</ele>
        <time>2012-03-04T10:49:57Z</time>
      </trkpt>
      <trkpt lat="48.39315" lon="2.55684">
        <ele>77.52</ele>
        <time>2012-03-04T10:50:04Z</time>
      </trkpt>
      <trkpt lat="48.39313" lon="2.55679">
        <ele>77.52</ele>
        <time>2012-03-04T10:50:05Z</time>
      </trkpt>
      <trkpt lat="48.39305" lon="2.55662">
        <ele>74.16</ele>
        <time>2012-03-04T10:50:09Z</time>
      </trkpt>
      <trkpt lat="48.393" lon="2.55657">
        <ele>73.68</ele>
        <time>2012-03-04T10:50:23Z</time>
      </trkpt>
      <trkpt lat="48.393" lon="2.55657">
        <ele>73.2</ele>
        <time>2012-03-04T10:50:48Z</time>
      </trkpt>
      <trkpt lat="48.393" lon="2.55657">
        <ele>73.68</ele>
        <time>2012-03-04T10:51:11Z</time>
      </trkpt>
      <trkpt lat="48.393" lon="2.55657">
        <ele>73.68</ele>
        <time>2012-03-04T10:51:34Z</time>
      </trkpt>
      <trkpt lat="48.393" lon="2.55657">
        <ele>74.16</ele>
        <time>2012-03-04T10:52:04Z</time>
      </trkpt>
      <trkpt lat="48.393" lon="2.55657">
        <ele>74.16</ele>
        <time>2012-03-04T10:52:18Z</time>
      </trkpt>
      <trkpt lat="48.39296" lon="2.55649">
        <ele>72.24</ele>
        <time>2012-03-04T10:52:23Z</time>
      </trkpt>
      <trkpt lat="48.39282" lon="2.55633">
        <ele>69.35</ele>
        <time>2012-03-04T10:52:30Z</time>
      </trkpt>
      <trkpt lat="48.39278" lon="2.55617">
        <ele>67.43</ele>
        <time>2012-03-04T10:52:35Z</time>
      </trkpt>
      <trkpt lat="48.39252" lon="2.55592">
        <ele>65.03</ele>
        <time>2012-03-04T10:52:44Z</time>
      </trkpt>
      <trkpt lat="48.39249" lon="2.55589">
        <ele>65.99</ele>
        <time>2012-03-04T10:52:51Z</time>
      </trkpt>
      <trkpt lat="48.39249" lon="2.55589">
        <ele>65.51</ele>
        <time>2012-03-04T10:53:16Z</time>
      </trkpt>
      <trkpt lat="48.39249" lon="2.55589">
        <ele>65.51</ele>
        <time>2012-03-04T10:53:17Z</time>
      </trkpt>
      <trkpt lat="48.39245" lon="2.5559">
        <ele>65.51</ele>
        <time>2012-03-04T10:53:20Z</time>
      </trkpt>
      <trkpt lat="48.39241" lon="2.55605">
        <ele>65.99</ele>
        <time>2012-03-04T10:53:26Z</time>
      </trkpt>
      <trkpt lat="48.39232" lon="2.55641">
        <ele>65.99</ele>
        <time>2012-03-04T10:53:36Z</time>
      </trkpt>
      <trkpt lat="48.3922" lon="2.55707">
        <ele>66.47</ele>
        <time>2012-03-04T10:53:49Z</time>
      </trkpt>
      <trkpt lat="48.39207" lon="2.55771">
        <ele>66.95</ele>
        <time>2012-03-04T10:54:01Z</time>
      </trkpt>
      <trkpt lat="48.39192" lon="2.55833">
        <ele>66.95</ele>
        <time>2012-03-04T10:54:13Z</time>
      </trkpt>
      <trkpt lat="48.3917" lon="2.55935">
        <ele>67.91</ele>
        <time>2012-03-04T10:54:28Z</time>
      </trkpt>
      <trkpt lat="48.39164" lon="2.56">
        <ele>69.83</ele>
        <time>2012-03-04T10:54:39Z</time>
      </trkpt>
      <trkpt lat="48.39158" lon="2.56067">
        <ele>70.79</ele>
        <time>2012-03-04T10:54:49Z</time>
      </trkpt>
      <trkpt lat="48.39156" lon="2.56126">
        <ele>72.24</ele>
        <time>2012-03-04T10:55:01Z</time>
      </trkpt>
      <trkpt lat="48.39156" lon="2.56186">
        <ele>73.68</ele>
        <time>2012-03-04T10:55:12Z</time>
      </trkpt>
      <trkpt lat="48.39147" lon="2.56249">
        <ele>74.64</ele>
        <time>2012-03-04T10:55:23Z</time>
      </trkpt>
      <trkpt lat="48.39133" lon="2.56314">
        <ele>73.2</ele>
        <time>2012-03-04T10:55:31Z</time>
      </trkpt>
      <trkpt lat="48.39131" lon="2.56322">
        <ele>72.72</ele>
        <time>2012-03-04T10:55:32Z</time>
      </trkpt>
      <trkpt lat="48.39113" lon="2.56407">
        <ele>71.76</ele>
        <time>2012-03-04T10:55:43Z</time>
      </trkpt>
      <trkpt lat="48.39106" lon="2.5646">
        <ele>72.24</ele>
        <time>2012-03-04T10:55:50Z</time>
      </trkpt>
      <trkpt lat="48.39099" lon="2.56498">
        <ele>72.72</ele>
        <time>2012-03-04T10:55:55Z</time>
      </trkpt>
      <trkpt lat="48.39094" lon="2.56513">
        <ele>72.72</ele>
        <time>2012-03-04T10:55:57Z</time>
      </trkpt>
      <trkpt lat="48.39088" lon="2.56544">
        <ele>73.2</ele>
        <time>2012-03-04T10:56:01Z</time>
      </trkpt>
      <trkpt lat="48.39087" lon="2.56551">
        <ele>73.2</ele>
        <time>2012-03-04T10:56:02Z</time>
      </trkpt>
      <trkpt lat="48.39086" lon="2.56558">
        <ele>73.68</ele>
        <time>2012-03-04T10:56:03Z</time>
      </trkpt>
      <trkpt lat="48.39083" lon="2.56577">
        <ele>73.68</ele>
        <time>2012-03-04T10:56:06Z</time>
      </trkpt>
      <trkpt lat="48.3908" lon="2.566">
        <ele>73.68</ele>
        <time>2012-03-04T10:56:09Z</time>
      </trkpt>
      <trkpt lat="48.39079" lon="2.56607">
        <ele>73.68</ele>
        <time>2012-03-04T10:56:10Z</time>
      </trkpt>
      <trkpt lat="48.39063" lon="2.56682">
        <ele>75.12</ele>
        <time>2012-03-04T10:56:21Z</time>
      </trkpt>
      <trkpt lat="48.39062" lon="2.5669">
        <ele>75.12</ele>
        <time>2012-03-04T10:56:22Z</time>
      </trkpt>
      <trkpt lat="48.39062" lon="2.56705">
        <ele>75.6</ele>
        <time>2012-03-04T10:56:24Z</time>
      </trkpt>
      <trkpt lat="48.39061" lon="2.56712">
        <ele>76.08</ele>
        <time>2012-03-04T10:56:25Z</time>
      </trkpt>
      <trkpt lat="48.39059" lon="2.56718">
        <ele>76.08</ele>
        <time>2012-03-04T10:56:26Z</time>
      </trkpt>
      <trkpt lat="48.39058" lon="2.56725">
        <ele>76.08</ele>
        <time>2012-03-04T10:56:27Z</time>
      </trkpt>
      <trkpt lat="48.39056" lon="2.56733">
        <ele>76.08</ele>
        <time>2012-03-04T10:56:28Z</time>
      </trkpt>
      <trkpt lat="48.39054" lon="2.5674">
        <ele>76.08</ele>
        <time>2012-03-04T10:56:29Z</time>
      </trkpt>
      <trkpt lat="48.39045" lon="2.56779">
        <ele>76.56</ele>
        <time>2012-03-04T10:56:34Z</time>
      </trkpt>
      <trkpt lat="48.39029" lon="2.56848">
        <ele>77.52</ele>
        <time>2012-03-04T10:56:44Z</time>
      </trkpt>
      <trkpt lat="48.39019" lon="2.56908">
        <ele>78.97</ele>
        <time>2012-03-04T10:56:54Z</time>
      </trkpt>
      <trkpt lat="48.39011" lon="2.56964">
        <ele>80.41</ele>
        <time>2012-03-04T10:57:05Z</time>
      </trkpt>
      <trkpt lat="48.39" lon="2.57007">
        <ele>81.85</ele>
        <time>2012-03-04T10:57:14Z</time>
      </trkpt>
      <trkpt lat="48.38982" lon="2.57063">
        <ele>83.29</ele>
        <time>2012-03-04T10:57:24Z</time>
      </trkpt>
      <trkpt lat="48.38966" lon="2.57116">
        <ele>84.73</ele>
        <time>2012-03-04T10:57:36Z</time>
      </trkpt>
      <trkpt lat="48.38948" lon="2.57162">
        <ele>86.18</ele>
        <time>2012-03-04T10:57:46Z</time>
      </trkpt>
      <trkpt lat="48.38933" lon="2.57221">
        <ele>87.14</ele>
        <time>2012-03-04T10:57:58Z</time>
      </trkpt>
      <trkpt lat="48.38931" lon="2.57226">
        <ele>87.14</ele>
        <time>2012-03-04T10:57:59Z</time>
      </trkpt>
      <trkpt lat="48.3893" lon="2.57231">
        <ele>87.62</ele>
        <time>2012-03-04T10:58:00Z</time>
      </trkpt>
      <trkpt lat="48.38929" lon="2.57237">
        <ele>88.1</ele>
        <time>2012-03-04T10:58:01Z</time>
      </trkpt>
      <trkpt lat="48.38928" lon="2.57242">
        <ele>87.62</ele>
        <time>2012-03-04T10:58:02Z</time>
      </trkpt>
      <trkpt lat="48.38928" lon="2.57247">
        <ele>87.62</ele>
        <time>2012-03-04T10:58:03Z</time>
      </trkpt>
      <trkpt lat="48.38929" lon="2.57251">
        <ele>88.1</ele>
        <time>2012-03-04T10:58:04Z</time>
      </trkpt>
      <trkpt lat="48.38929" lon="2.57254">
        <ele>88.1</ele>
        <time>2012-03-04T10:58:05Z</time>
      </trkpt>
      <trkpt lat="48.3893" lon="2.57258">
        <ele>88.58</ele>
        <time>2012-03-04T10:58:06Z</time>
      </trkpt>
      <trkpt lat="48.38931" lon="2.57261">
        <ele>88.58</ele>
        <time>2012-03-04T10:58:07Z</time>
      </trkpt>
      <trkpt lat="48.3893" lon="2.57285">
        <ele>89.06</ele>
        <time>2012-03-04T10:58:12Z</time>
      </trkpt>
      <trkpt lat="48.3893" lon="2.5729">
        <ele>89.54</ele>
        <time>2012-03-04T10:58:13Z</time>
      </trkpt>
      <trkpt lat="48.38931" lon="2.57322">
        <ele>90.98</ele>
        <time>2012-03-04T10:58:20Z</time>
      </trkpt>
      <trkpt lat="48.3893" lon="2.57328">
        <ele>90.98</ele>
        <time>2012-03-04T10:58:21Z</time>
      </trkpt>
      <trkpt lat="48.3893" lon="2.57332">
        <ele>91.46</ele>
        <time>2012-03-04T10:58:22Z</time>
      </trkpt>
      <trkpt lat="48.38931" lon="2.57335">
        <ele>91.94</ele>
        <time>2012-03-04T10:58:23Z</time>
      </trkpt>
      <trkpt lat="48.38931" lon="2.57341">
        <ele>91.94</ele>
        <time>2012-03-04T10:58:24Z</time>
      </trkpt>
      <trkpt lat="48.38932" lon="2.57344">
        <ele>91.94</ele>
        <time>2012-03-04T10:58:25Z</time>
      </trkpt>
      <trkpt lat="48.38932" lon="2.5735">
        <ele>91.94</ele>
        <time>2012-03-04T10:58:26Z</time>
      </trkpt>
      <trkpt lat="48.38937" lon="2.57402">
        <ele>94.83</ele>
        <time>2012-03-04T10:58:38Z</time>
      </trkpt>
      <trkpt lat="48.38949" lon="2.57446">
        <ele>95.79</ele>
        <time>2012-03-04T10:58:49Z</time>
      </trkpt>
      <trkpt lat="48.38969" lon="2.5749">
        <ele>98.19</ele>
        <time>2012-03-04T10:59:01Z</time>
      </trkpt>
      <trkpt lat="48.38982" lon="2.57541">
        <ele>101.56</ele>
        <time>2012-03-04T10:59:12Z</time>
      </trkpt>
      <trkpt lat="48.38977" lon="2.57592">
        <ele>103.96</ele>
        <time>2012-03-04T10:59:23Z</time>
      </trkpt>
      <trkpt lat="48.38972" lon="2.57614">
        <ele>106.36</ele>
        <time>2012-03-04T10:59:31Z</time>
      </trkpt>
      <trkpt lat="48.38965" lon="2.57636">
        <ele>108.77</ele>
        <time>2012-03-04T10:59:38Z</time>
      </trkpt>
      <trkpt lat="48.38964" lon="2.5764">
        <ele>108.77</ele>
        <time>2012-03-04T10:59:39Z</time>
      </trkpt>
      <trkpt lat="48.38963" lon="2.57644">
        <ele>109.73</ele>
        <time>2012-03-04T10:59:40Z</time>
      </trkpt>
      <trkpt lat="48.38962" lon="2.57651">
        <ele>110.21</ele>
        <time>2012-03-04T10:59:42Z</time>
      </trkpt>
      <trkpt lat="48.38959" lon="2.57668">
        <ele>111.17</ele>
        <time>2012-03-04T10:59:46Z</time>
      </trkpt>
      <trkpt lat="48.38945" lon="2.57718">
        <ele>113.09</ele>
        <time>2012-03-04T10:59:59Z</time>
      </trkpt>
      <trkpt lat="48.38932" lon="2.57766">
        <ele>113.57</ele>
        <time>2012-03-04T11:00:12Z</time>
      </trkpt>
      <trkpt lat="48.38922" lon="2.57814">
        <ele>114.05</ele>
        <time>2012-03-04T11:00:24Z</time>
      </trkpt>
      <trkpt lat="48.38904" lon="2.5786">
        <ele>114.05</ele>
        <time>2012-03-04T11:00:35Z</time>
      </trkpt>
      <trkpt lat="48.3889" lon="2.57901">
        <ele>114.05</ele>
        <time>2012-03-04T11:00:48Z</time>
      </trkpt>
      <trkpt lat="48.3889" lon="2.57903">
        <ele>114.53</ele>
        <time>2012-03-04T11:01:06Z</time>
      </trkpt>
      <trkpt lat="48.3889" lon="2.57904">
        <ele>115.01</ele>
        <time>2012-03-04T11:01:36Z</time>
      </trkpt>
      <trkpt lat="48.3889" lon="2.57904">
        <ele>115.01</ele>
        <time>2012-03-04T11:02:04Z</time>
      </trkpt>
      <trkpt lat="48.3889" lon="2.57903">
        <ele>115.01</ele>
        <time>2012-03-04T11:02:37Z</time>
      </trkpt>
      <trkpt lat="48.3889" lon="2.57904">
        <ele>115.5</ele>
        <time>2012-03-04T11:03:10Z</time>
      </trkpt>
      <trkpt lat="48.3889" lon="2.57904">
        <ele>115.5</ele>
        <time>2012-03-04T11:03:38Z</time>
      </trkpt>
      <trkpt lat="48.38889" lon="2.57903">
        <ele>115.5</ele>
        <time>2012-03-04T11:04:00Z</time>
      </trkpt>
      <trkpt lat="48.38887" lon="2.57902">
        <ele>115.5</ele>
        <time>2012-03-04T11:04:01Z</time>
      </trkpt>
      <trkpt lat="48.38885" lon="2.57902">
        <ele>115.5</ele>
        <time>2012-03-04T11:04:02Z</time>
      </trkpt>
      <trkpt lat="48.38883" lon="2.57901">
        <ele>115.5</ele>
        <time>2012-03-04T11:04:03Z</time>
      </trkpt>
      <trkpt lat="48.3888" lon="2.57899">
        <ele>115.5</ele>
        <time>2012-03-04T11:04:04Z</time>
      </trkpt>
      <trkpt lat="48.38877" lon="2.57898">
        <ele>115.01</ele>
        <time>2012-03-04T11:04:05Z</time>
      </trkpt>
      <trkpt lat="48.38846" lon="2.57878">
        <ele>115.98</ele>
        <time>2012-03-04T11:04:15Z</time>
      </trkpt>
      <trkpt lat="48.38844" lon="2.57886">
        <ele>115.98</ele>
        <time>2012-03-04T11:04:18Z</time>
      </trkpt>
      <trkpt lat="48.38849" lon="2.57902">
        <ele>115.98</ele>
        <time>2012-03-04T11:04:21Z</time>
      </trkpt>
      <trkpt lat="48.38854" lon="2.57928">
        <ele>115.5</ele>
        <time>2012-03-04T11:04:25Z</time>
      </trkpt>
      <trkpt lat="48.38855" lon="2.57934">
        <ele>115.5</ele>
        <time>2012-03-04T11:04:26Z</time>
      </trkpt>
      <trkpt lat="48.38856" lon="2.5794">
        <ele>115.01</ele>
        <time>2012-03-04T11:04:27Z</time>
      </trkpt>
      <trkpt lat="48.38859" lon="2.57952">
        <ele>115.98</ele>
        <time>2012-03-04T11:04:29Z</time>
      </trkpt>
      <trkpt lat="48.3886" lon="2.57959">
        <ele>115.98</ele>
        <time>2012-03-04T11:04:30Z</time>
      </trkpt>
      <trkpt lat="48.38864" lon="2.57972">
        <ele>115.5</ele>
        <time>2012-03-04T11:04:32Z</time>
      </trkpt>
      <trkpt lat="48.38867" lon="2.57985">
        <ele>115.98</ele>
        <time>2012-03-04T11:04:34Z</time>
      </trkpt>
      <trkpt lat="48.38874" lon="2.58018">
        <ele>115.98</ele>
        <time>2012-03-04T11:04:39Z</time>
      </trkpt>
      <trkpt lat="48.38875" lon="2.58024">
        <ele>115.98</ele>
        <time>2012-03-04T11:04:40Z</time>
      </trkpt>
      <trkpt lat="48.38876" lon="2.58031">
        <ele>115.5</ele>
        <time>2012-03-04T11:04:41Z</time>
      </trkpt>
      <trkpt lat="48.38879" lon="2.58051">
        <ele>115.5</ele>
        <time>2012-03-04T11:04:44Z</time>
      </trkpt>
      <trkpt lat="48.38879" lon="2.58058">
        <ele>115.5</ele>
        <time>2012-03-04T11:04:45Z</time>
      </trkpt>
      <trkpt lat="48.38878" lon="2.58072">
        <ele>115.5</ele>
        <time>2012-03-04T11:04:47Z</time>
      </trkpt>
      <trkpt lat="48.38876" lon="2.58123">
        <ele>115.5</ele>
        <time>2012-03-04T11:04:54Z</time>
      </trkpt>
      <trkpt lat="48.38873" lon="2.58175">
        <ele>115.01</ele>
        <time>2012-03-04T11:05:01Z</time>
      </trkpt>
      <trkpt lat="48.38873" lon="2.58197">
        <ele>115.5</ele>
        <time>2012-03-04T11:05:04Z</time>
      </trkpt>
      <trkpt lat="48.38874" lon="2.58217">
        <ele>115.5</ele>
        <time>2012-03-04T11:05:07Z</time>
      </trkpt>
      <trkpt lat="48.38873" lon="2.58224">
        <ele>115.98</ele>
        <time>2012-03-04T11:05:08Z</time>
      </trkpt>
      <trkpt lat="48.38873" lon="2.5823">
        <ele>115.5</ele>
        <time>2012-03-04T11:05:09Z</time>
      </trkpt>
      <trkpt lat="48.38874" lon="2.58236">
        <ele>115.98</ele>
        <time>2012-03-04T11:05:10Z</time>
      </trkpt>
      <trkpt lat="48.38874" lon="2.58242">
        <ele>115.98</ele>
        <time>2012-03-04T11:05:11Z</time>
      </trkpt>
      <trkpt lat="48.38875" lon="2.58249">
        <ele>115.98</ele>
        <time>2012-03-04T11:05:12Z</time>
      </trkpt>
      <trkpt lat="48.38873" lon="2.58278">
        <ele>115.98</ele>
        <time>2012-03-04T11:05:16Z</time>
      </trkpt>
      <trkpt lat="48.38873" lon="2.58286">
        <ele>115.5</ele>
        <time>2012-03-04T11:05:17Z</time>
      </trkpt>
      <trkpt lat="48.38872" lon="2.58301">
        <ele>115.5</ele>
        <time>2012-03-04T11:05:19Z</time>
      </trkpt>
      <trkpt lat="48.38871" lon="2.58308">
        <ele>115.98</ele>
        <time>2012-03-04T11:05:20Z</time>
      </trkpt>
      <trkpt lat="48.38862" lon="2.58381">
        <ele>115.98</ele>
        <time>2012-03-04T11:05:31Z</time>
      </trkpt>
      <trkpt lat="48.38856" lon="2.58408">
        <ele>115.5</ele>
        <time>2012-03-04T11:05:35Z</time>
      </trkpt>
      <trkpt lat="48.3885" lon="2.58427">
        <ele>115.5</ele>
        <time>2012-03-04T11:05:38Z</time>
      </trkpt>
      <trkpt lat="48.38848" lon="2.58433">
        <ele>115.5</ele>
        <time>2012-03-04T11:05:39Z</time>
      </trkpt>
      <trkpt lat="48.38846" lon="2.58439">
        <ele>115.01</ele>
        <time>2012-03-04T11:05:40Z</time>
      </trkpt>
      <trkpt lat="48.38842" lon="2.58452">
        <ele>115.01</ele>
        <time>2012-03-04T11:05:42Z</time>
      </trkpt>
      <trkpt lat="48.3884" lon="2.58459">
        <ele>115.01</ele>
        <time>2012-03-04T11:05:43Z</time>
      </trkpt>
      <trkpt lat="48.38835" lon="2.58477">
        <ele>115.5</ele>
        <time>2012-03-04T11:05:46Z</time>
      </trkpt>
      <trkpt lat="48.38824" lon="2.58506">
        <ele>115.01</ele>
        <time>2012-03-04T11:05:50Z</time>
      </trkpt>
      <trkpt lat="48.38822" lon="2.58512">
        <ele>115.01</ele>
        <time>2012-03-04T11:05:51Z</time>
      </trkpt>
      <trkpt lat="48.38819" lon="2.5852">
        <ele>114.53</ele>
        <time>2012-03-04T11:05:52Z</time>
      </trkpt>
      <trkpt lat="48.38786" lon="2.58615">
        <ele>114.53</ele>
        <time>2012-03-04T11:06:05Z</time>
      </trkpt>
      <trkpt lat="48.38784" lon="2.58622">
        <ele>114.05</ele>
        <time>2012-03-04T11:06:06Z</time>
      </trkpt>
      <trkpt lat="48.38782" lon="2.58629">
        <ele>114.05</ele>
        <time>2012-03-04T11:06:07Z</time>
      </trkpt>
      <trkpt lat="48.38777" lon="2.58642">
        <ele>114.05</ele>
        <time>2012-03-04T11:06:09Z</time>
      </trkpt>
      <trkpt lat="48.38774" lon="2.58648">
        <ele>113.57</ele>
        <time>2012-03-04T11:06:10Z</time>
      </trkpt>
      <trkpt lat="48.38769" lon="2.58654">
        <ele>113.09</ele>
        <time>2012-03-04T11:06:11Z</time>
      </trkpt>
      <trkpt lat="48.38764" lon="2.58658">
        <ele>114.05</ele>
        <time>2012-03-04T11:06:12Z</time>
      </trkpt>
      <trkpt lat="48.38759" lon="2.58661">
        <ele>114.05</ele>
        <time>2012-03-04T11:06:13Z</time>
      </trkpt>
      <trkpt lat="48.38753" lon="2.58664">
        <ele>114.05</ele>
        <time>2012-03-04T11:06:14Z</time>
      </trkpt>
      <trkpt lat="48.38748" lon="2.58664">
        <ele>113.57</ele>
        <time>2012-03-04T11:06:15Z</time>
      </trkpt>
      <trkpt lat="48.38742" lon="2.58665">
        <ele>114.05</ele>
        <time>2012-03-04T11:06:16Z</time>
      </trkpt>
      <trkpt lat="48.38683" lon="2.58661">
        <ele>110.69</ele>
        <time>2012-03-04T11:06:27Z</time>
      </trkpt>
      <trkpt lat="48.38679" lon="2.58663">
        <ele>110.21</ele>
        <time>2012-03-04T11:06:28Z</time>
      </trkpt>
      <trkpt lat="48.38675" lon="2.58667">
        <ele>109.73</ele>
        <time>2012-03-04T11:06:29Z</time>
      </trkpt>
      <trkpt lat="48.38672" lon="2.58674">
        <ele>108.29</ele>
        <time>2012-03-04T11:06:30Z</time>
      </trkpt>
      <trkpt lat="48.38669" lon="2.58682">
        <ele>107.32</ele>
        <time>2012-03-04T11:06:31Z</time>
      </trkpt>
      <trkpt lat="48.38666" lon="2.58691">
        <ele>105.88</ele>
        <time>2012-03-04T11:06:32Z</time>
      </trkpt>
      <trkpt lat="48.38655" lon="2.58723">
        <ele>102.04</ele>
        <time>2012-03-04T11:06:35Z</time>
      </trkpt>
      <trkpt lat="48.38637" lon="2.58768">
        <ele>99.15</ele>
        <time>2012-03-04T11:06:39Z</time>
      </trkpt>
      <trkpt lat="48.38634" lon="2.58774">
        <ele>98.67</ele>
        <time>2012-03-04T11:06:40Z</time>
      </trkpt>
      <trkpt lat="48.38632" lon="2.58776">
        <ele>98.19</ele>
        <time>2012-03-04T11:06:41Z</time>
      </trkpt>
      <trkpt lat="48.38631" lon="2.58779">
        <ele>99.15</ele>
        <time>2012-03-04T11:06:55Z</time>
      </trkpt>
      <trkpt lat="48.38631" lon="2.58779">
        <ele>99.15</ele>
        <time>2012-03-04T11:07:10Z</time>
      </trkpt>
      <trkpt lat="48.38631" lon="2.58779">
        <ele>97.71</ele>
        <time>2012-03-04T11:07:22Z</time>
      </trkpt>
      <trkpt lat="48.3863" lon="2.5878">
        <ele>99.15</ele>
        <time>2012-03-04T11:07:26Z</time>
      </trkpt>
      <trkpt lat="48.3863" lon="2.5878">
        <ele>102.52</ele>
        <time>2012-03-04T11:07:27Z</time>
      </trkpt>
      <trkpt lat="48.3863" lon="2.5878">
        <ele>99.15</ele>
        <time>2012-03-04T11:07:28Z</time>
      </trkpt>
      <trkpt lat="48.3863" lon="2.5878">
        <ele>99.15</ele>
        <time>2012-03-04T11:07:51Z</time>
      </trkpt>
      <trkpt lat="48.3863" lon="2.5878">
        <ele>98.67</ele>
        <time>2012-03-04T11:07:52Z</time>
      </trkpt>
      <trkpt lat="48.38632" lon="2.58778">
        <ele>99.15</ele>
        <time>2012-03-04T11:07:53Z</time>
      </trkpt>
      <trkpt lat="48.38639" lon="2.58762">
        <ele>100.6</ele>
        <time>2012-03-04T11:07:59Z</time>
      </trkpt>
      <trkpt lat="48.3864" lon="2.58763">
        <ele>101.08</ele>
        <time>2012-03-04T11:08:00Z</time>
      </trkpt>
      <trkpt lat="48.38642" lon="2.58765">
        <ele>100.6</ele>
        <time>2012-03-04T11:08:01Z</time>
      </trkpt>
      <trkpt lat="48.38643" lon="2.58769">
        <ele>100.6</ele>
        <time>2012-03-04T11:08:02Z</time>
      </trkpt>
      <trkpt lat="48.38644" lon="2.58774">
        <ele>100.6</ele>
        <time>2012-03-04T11:08:03Z</time>
      </trkpt>
      <trkpt lat="48.38646" lon="2.58778">
        <ele>100.6</ele>
        <time>2012-03-04T11:08:04Z</time>
      </trkpt>
      <trkpt lat="48.38655" lon="2.58818">
        <ele>100.11</ele>
        <time>2012-03-04T11:08:13Z</time>
      </trkpt>
      <trkpt lat="48.38664" lon="2.58836">
        <ele>101.56</ele>
        <time>2012-03-04T11:08:20Z</time>
      </trkpt>
      <trkpt lat="48.38665" lon="2.58837">
        <ele>102.04</ele>
        <time>2012-03-04T11:08:21Z</time>
      </trkpt>
      <trkpt lat="48.38676" lon="2.58844">
        <ele>103.96</ele>
        <time>2012-03-04T11:08:29Z</time>
      </trkpt>
      <trkpt lat="48.38678" lon="2.58846">
        <ele>103.96</ele>
        <time>2012-03-04T11:08:30Z</time>
      </trkpt>
      <trkpt lat="48.38679" lon="2.58847">
        <ele>103.96</ele>
        <time>2012-03-04T11:08:31Z</time>
      </trkpt>
      <trkpt lat="48.3868" lon="2.58848">
        <ele>104.44</ele>
        <time>2012-03-04T11:08:32Z</time>
      </trkpt>
      <trkpt lat="48.3868" lon="2.58851">
        <ele>104.44</ele>
        <time>2012-03-04T11:08:33Z</time>
      </trkpt>
      <trkpt lat="48.38681" lon="2.58853">
        <ele>104.44</ele>
        <time>2012-03-04T11:08:34Z</time>
      </trkpt>
      <trkpt lat="48.38682" lon="2.58856">
        <ele>104.44</ele>
        <time>2012-03-04T11:08:35Z</time>
      </trkpt>
      <trkpt lat="48.38686" lon="2.58863">
        <ele>104.92</ele>
        <time>2012-03-04T11:08:38Z</time>
      </trkpt>
      <trkpt lat="48.38686" lon="2.58865">
        <ele>105.4</ele>
        <time>2012-03-04T11:08:39Z</time>
      </trkpt>
      <trkpt lat="48.38687" lon="2.5887">
        <ele>105.88</ele>
        <time>2012-03-04T11:08:42Z</time>
      </trkpt>
      <trkpt lat="48.38688" lon="2.58872">
        <ele>105.88</ele>
        <time>2012-03-04T11:08:43Z</time>
      </trkpt>
      <trkpt lat="48.38693" lon="2.58876">
        <ele>106.36</ele>
        <time>2012-03-04T11:08:47Z</time>
      </trkpt>
      <trkpt lat="48.38694" lon="2.58877">
        <ele>106.84</ele>
        <time>2012-03-04T11:08:48Z</time>
      </trkpt>
      <trkpt lat="48.38696" lon="2.58879">
        <ele>106.84</ele>
        <time>2012-03-04T11:08:49Z</time>
      </trkpt>
      <trkpt lat="48.38697" lon="2.58881">
        <ele>106.84</ele>
        <time>2012-03-04T11:08:50Z</time>
      </trkpt>
      <trkpt lat="48.38698" lon="2.58883">
        <ele>107.32</ele>
        <time>2012-03-04T11:08:51Z</time>
      </trkpt>
      <trkpt lat="48.38699" lon="2.58884">
        <ele>106.84</ele>
        <time>2012-03-04T11:08:52Z</time>
      </trkpt>
      <trkpt lat="48.38701" lon="2.58886">
        <ele>107.32</ele>
        <time>2012-03-04T11:08:53Z</time>
      </trkpt>
      <trkpt lat="48.38702" lon="2.58888">
        <ele>107.81</ele>
        <time>2012-03-04T11:08:54Z</time>
      </trkpt>
      <trkpt lat="48.38715" lon="2.58904">
        <ele>109.25</ele>
        <time>2012-03-04T11:09:05Z</time>
      </trkpt>
      <trkpt lat="48.38716" lon="2.58905">
        <ele>109.73</ele>
        <time>2012-03-04T11:09:06Z</time>
      </trkpt>
      <trkpt lat="48.38723" lon="2.5891">
        <ele>110.21</ele>
        <time>2012-03-04T11:09:12Z</time>
      </trkpt>
      <trkpt lat="48.38724" lon="2.58912">
        <ele>110.69</ele>
        <time>2012-03-04T11:09:13Z</time>
      </trkpt>
      <trkpt lat="48.38724" lon="2.58913">
        <ele>111.17</ele>
        <time>2012-03-04T11:09:14Z</time>
      </trkpt>
      <trkpt lat="48.38725" lon="2.58914">
        <ele>111.17</ele>
        <time>2012-03-04T11:09:15Z</time>
      </trkpt>
      <trkpt lat="48.38731" lon="2.58933">
        <ele>114.05</ele>
        <time>2012-03-04T11:09:26Z</time>
      </trkpt>
      <trkpt lat="48.38732" lon="2.58934">
        <ele>114.05</ele>
        <time>2012-03-04T11:09:27Z</time>
      </trkpt>
      <trkpt lat="48.38734" lon="2.58936">
        <ele>114.53</ele>
        <time>2012-03-04T11:09:28Z</time>
      </trkpt>
      <trkpt lat="48.38736" lon="2.58937">
        <ele>114.53</ele>
        <time>2012-03-04T11:09:29Z</time>
      </trkpt>
      <trkpt lat="48.38737" lon="2.58937">
        <ele>114.53</ele>
        <time>2012-03-04T11:09:30Z</time>
      </trkpt>
      <trkpt lat="48.38739" lon="2.58936">
        <ele>114.53</ele>
        <time>2012-03-04T11:09:31Z</time>
      </trkpt>
      <trkpt lat="48.38741" lon="2.58935">
        <ele>114.53</ele>
        <time>2012-03-04T11:09:32Z</time>
      </trkpt>
      <trkpt lat="48.38742" lon="2.58934">
        <ele>114.53</ele>
        <time>2012-03-04T11:09:33Z</time>
      </trkpt>
      <trkpt lat="48.38744" lon="2.58935">
        <ele>115.01</ele>
        <time>2012-03-04T11:09:34Z</time>
      </trkpt>
      <trkpt lat="48.38745" lon="2.58936">
        <ele>115.01</ele>
        <time>2012-03-04T11:09:35Z</time>
      </trkpt>
      <trkpt lat="48.38747" lon="2.58937">
        <ele>115.01</ele>
        <time>2012-03-04T11:09:36Z</time>
      </trkpt>
      <trkpt lat="48.38749" lon="2.5894">
        <ele>114.53</ele>
        <time>2012-03-04T11:09:37Z</time>
      </trkpt>
      <trkpt lat="48.38751" lon="2.58942">
        <ele>114.53</ele>
        <time>2012-03-04T11:09:38Z</time>
      </trkpt>
      <trkpt lat="48.38753" lon="2.58944">
        <ele>115.01</ele>
        <time>2012-03-04T11:09:39Z</time>
      </trkpt>
      <trkpt lat="48.38754" lon="2.58947">
        <ele>115.01</ele>
        <time>2012-03-04T11:09:40Z</time>
      </trkpt>
      <trkpt lat="48.38756" lon="2.5895">
        <ele>114.53</ele>
        <time>2012-03-04T11:09:41Z</time>
      </trkpt>
      <trkpt lat="48.38757" lon="2.58953">
        <ele>115.01</ele>
        <time>2012-03-04T11:09:42Z</time>
      </trkpt>
      <trkpt lat="48.38757" lon="2.58956">
        <ele>115.5</ele>
        <time>2012-03-04T11:09:43Z</time>
      </trkpt>
      <trkpt lat="48.38761" lon="2.59001">
        <ele>115.01</ele>
        <time>2012-03-04T11:09:56Z</time>
      </trkpt>
      <trkpt lat="48.38763" lon="2.59013">
        <ele>115.01</ele>
        <time>2012-03-04T11:10:07Z</time>
      </trkpt>
      <trkpt lat="48.38763" lon="2.59013">
        <ele>115.01</ele>
        <time>2012-03-04T11:10:08Z</time>
      </trkpt>
      <trkpt lat="48.38763" lon="2.5901">
        <ele>115.5</ele>
        <time>2012-03-04T11:10:09Z</time>
      </trkpt>
      <trkpt lat="48.38763" lon="2.59006">
        <ele>115.01</ele>
        <time>2012-03-04T11:10:10Z</time>
      </trkpt>
      <trkpt lat="48.38763" lon="2.59002">
        <ele>115.01</ele>
        <time>2012-03-04T11:10:11Z</time>
      </trkpt>
      <trkpt lat="48.38763" lon="2.58998">
        <ele>115.01</ele>
        <time>2012-03-04T11:10:12Z</time>
      </trkpt>
      <trkpt lat="48.38763" lon="2.58994">
        <ele>115.01</ele>
        <time>2012-03-04T11:10:13Z</time>
      </trkpt>
      <trkpt lat="48.38763" lon="2.58991">
        <ele>115.01</ele>
        <time>2012-03-04T11:10:14Z</time>
      </trkpt>
      <trkpt lat="48.38764" lon="2.58989">
        <ele>115.5</ele>
        <time>2012-03-04T11:10:16Z</time>
      </trkpt>
      <trkpt lat="48.38761" lon="2.59001">
        <ele>115.01</ele>
        <time>2012-03-04T11:10:23Z</time>
      </trkpt>
      <trkpt lat="48.38756" lon="2.59056">
        <ele>114.53</ele>
        <time>2012-03-04T11:10:33Z</time>
      </trkpt>
      <trkpt lat="48.38755" lon="2.59061">
        <ele>114.53</ele>
        <time>2012-03-04T11:10:34Z</time>
      </trkpt>
      <trkpt lat="48.38755" lon="2.59067">
        <ele>115.5</ele>
        <time>2012-03-04T11:10:35Z</time>
      </trkpt>
      <trkpt lat="48.38754" lon="2.59072">
        <ele>115.01</ele>
        <time>2012-03-04T11:10:36Z</time>
      </trkpt>
      <trkpt lat="48.38754" lon="2.59076">
        <ele>115.01</ele>
        <time>2012-03-04T11:10:37Z</time>
      </trkpt>
      <trkpt lat="48.38748" lon="2.59097">
        <ele>115.5</ele>
        <time>2012-03-04T11:10:47Z</time>
      </trkpt>
      <trkpt lat="48.38748" lon="2.59097">
        <ele>115.98</ele>
        <time>2012-03-04T11:11:10Z</time>
      </trkpt>
      <trkpt lat="48.38738" lon="2.59104">
        <ele>114.53</ele>
        <time>2012-03-04T11:11:32Z</time>
      </trkpt>
      <trkpt lat="48.38732" lon="2.59112">
        <ele>113.57</ele>
        <time>2012-03-04T11:11:34Z</time>
      </trkpt>
      <trkpt lat="48.38726" lon="2.59124">
        <ele>111.65</ele>
        <time>2012-03-04T11:11:36Z</time>
      </trkpt>
      <trkpt lat="48.38722" lon="2.5913">
        <ele>111.17</ele>
        <time>2012-03-04T11:11:37Z</time>
      </trkpt>
      <trkpt lat="48.38719" lon="2.59135">
        <ele>111.17</ele>
        <time>2012-03-04T11:11:38Z</time>
      </trkpt>
      <trkpt lat="48.38708" lon="2.5915">
        <ele>107.32</ele>
        <time>2012-03-04T11:11:42Z</time>
      </trkpt>
      <trkpt lat="48.38705" lon="2.59152">
        <ele>106.36</ele>
        <time>2012-03-04T11:11:43Z</time>
      </trkpt>
      <trkpt lat="48.3869" lon="2.59161">
        <ele>104.44</ele>
        <time>2012-03-04T11:11:50Z</time>
      </trkpt>
      <trkpt lat="48.38688" lon="2.59159">
        <ele>103.48</ele>
        <time>2012-03-04T11:11:51Z</time>
      </trkpt>
      <trkpt lat="48.38687" lon="2.59157">
        <ele>104.44</ele>
        <time>2012-03-04T11:11:52Z</time>
      </trkpt>
      <trkpt lat="48.38687" lon="2.59154">
        <ele>104.44</ele>
        <time>2012-03-04T11:11:53Z</time>
      </trkpt>
      <trkpt lat="48.38685" lon="2.59152">
        <ele>104.44</ele>
        <time>2012-03-04T11:11:55Z</time>
      </trkpt>
      <trkpt lat="48.38682" lon="2.59164">
        <ele>101.08</ele>
        <time>2012-03-04T11:12:00Z</time>
      </trkpt>
      <trkpt lat="48.38681" lon="2.59167">
        <ele>100.6</ele>
        <time>2012-03-04T11:12:01Z</time>
      </trkpt>
      <trkpt lat="48.38676" lon="2.5918">
        <ele>99.15</ele>
        <time>2012-03-04T11:12:04Z</time>
      </trkpt>
      <trkpt lat="48.38674" lon="2.59186">
        <ele>99.63</ele>
        <time>2012-03-04T11:12:05Z</time>
      </trkpt>
      <trkpt lat="48.38672" lon="2.59204">
        <ele>100.11</ele>
        <time>2012-03-04T11:12:09Z</time>
      </trkpt>
      <trkpt lat="48.38662" lon="2.5923">
        <ele>102.04</ele>
        <time>2012-03-04T11:12:16Z</time>
      </trkpt>
      <trkpt lat="48.3864" lon="2.5926">
        <ele>103.96</ele>
        <time>2012-03-04T11:12:24Z</time>
      </trkpt>
      <trkpt lat="48.3863" lon="2.59304">
        <ele>106.36</ele>
        <time>2012-03-04T11:12:35Z</time>
      </trkpt>
      <trkpt lat="48.3863" lon="2.59315">
        <ele>106.84</ele>
        <time>2012-03-04T11:12:39Z</time>
      </trkpt>
      <trkpt lat="48.38638" lon="2.59349">
        <ele>108.77</ele>
        <time>2012-03-04T11:12:49Z</time>
      </trkpt>
      <trkpt lat="48.38649" lon="2.59382">
        <ele>112.13</ele>
        <time>2012-03-04T11:12:58Z</time>
      </trkpt>
      <trkpt lat="48.38651" lon="2.59385">
        <ele>112.61</ele>
        <time>2012-03-04T11:12:59Z</time>
      </trkpt>
      <trkpt lat="48.38662" lon="2.59419">
        <ele>115.01</ele>
        <time>2012-03-04T11:13:10Z</time>
      </trkpt>
      <trkpt lat="48.38666" lon="2.59436">
        <ele>115.01</ele>
        <time>2012-03-04T11:13:15Z</time>
      </trkpt>
      <trkpt lat="48.38669" lon="2.59503">
        <ele>115.98</ele>
        <time>2012-03-04T11:13:29Z</time>
      </trkpt>
      <trkpt lat="48.38667" lon="2.59551">
        <ele>116.46</ele>
        <time>2012-03-04T11:13:40Z</time>
      </trkpt>
      <trkpt lat="48.38661" lon="2.59627">
        <ele>116.46</ele>
        <time>2012-03-04T11:13:54Z</time>
      </trkpt>
      <trkpt lat="48.38656" lon="2.59687">
        <ele>115.98</ele>
        <time>2012-03-04T11:14:06Z</time>
      </trkpt>
      <trkpt lat="48.38656" lon="2.59736">
        <ele>116.46</ele>
        <time>2012-03-04T11:14:16Z</time>
      </trkpt>
      <trkpt lat="48.38653" lon="2.59765">
        <ele>116.94</ele>
        <time>2012-03-04T11:14:22Z</time>
      </trkpt>
      <trkpt lat="48.38684" lon="2.5979">
        <ele>115.01</ele>
        <time>2012-03-04T11:14:33Z</time>
      </trkpt>
      <trkpt lat="48.38687" lon="2.59793">
        <ele>115.01</ele>
        <time>2012-03-04T11:14:34Z</time>
      </trkpt>
      <trkpt lat="48.38691" lon="2.59796">
        <ele>115.5</ele>
        <time>2012-03-04T11:14:35Z</time>
      </trkpt>
      <trkpt lat="48.38694" lon="2.59799">
        <ele>115.98</ele>
        <time>2012-03-04T11:14:36Z</time>
      </trkpt>
      <trkpt lat="48.38697" lon="2.59801">
        <ele>116.46</ele>
        <time>2012-03-04T11:14:37Z</time>
      </trkpt>
      <trkpt lat="48.38701" lon="2.59802">
        <ele>116.94</ele>
        <time>2012-03-04T11:14:38Z</time>
      </trkpt>
      <trkpt lat="48.38732" lon="2.5982">
        <ele>118.38</ele>
        <time>2012-03-04T11:14:48Z</time>
      </trkpt>
      <trkpt lat="48.38742" lon="2.59827">
        <ele>118.38</ele>
        <time>2012-03-04T11:14:51Z</time>
      </trkpt>
      <trkpt lat="48.38745" lon="2.59829">
        <ele>118.38</ele>
        <time>2012-03-04T11:14:52Z</time>
      </trkpt>
      <trkpt lat="48.38749" lon="2.59831">
        <ele>118.38</ele>
        <time>2012-03-04T11:14:53Z</time>
      </trkpt>
      <trkpt lat="48.38777" lon="2.59854">
        <ele>118.86</ele>
        <time>2012-03-04T11:15:03Z</time>
      </trkpt>
      <trkpt lat="48.3878" lon="2.59863">
        <ele>118.86</ele>
        <time>2012-03-04T11:15:15Z</time>
      </trkpt>
      <trkpt lat="48.38797" lon="2.59911">
        <ele>118.86</ele>
        <time>2012-03-04T11:15:29Z</time>
      </trkpt>
      <trkpt lat="48.38803" lon="2.59944">
        <ele>118.86</ele>
        <time>2012-03-04T11:15:39Z</time>
      </trkpt>
      <trkpt lat="48.38816" lon="2.59999">
        <ele>117.9</ele>
        <time>2012-03-04T11:15:51Z</time>
      </trkpt>
      <trkpt lat="48.3883" lon="2.60037">
        <ele>117.42</ele>
        <time>2012-03-04T11:15:59Z</time>
      </trkpt>
      <trkpt lat="48.38831" lon="2.60043">
        <ele>117.42</ele>
        <time>2012-03-04T11:16:00Z</time>
      </trkpt>
      <trkpt lat="48.38837" lon="2.60116">
        <ele>117.9</ele>
        <time>2012-03-04T11:16:13Z</time>
      </trkpt>
      <trkpt lat="48.38845" lon="2.60182">
        <ele>117.9</ele>
        <time>2012-03-04T11:16:25Z</time>
      </trkpt>
      <trkpt lat="48.3885" lon="2.60213">
        <ele>118.86</ele>
        <time>2012-03-04T11:16:31Z</time>
      </trkpt>
      <trkpt lat="48.38847" lon="2.60241">
        <ele>118.38</ele>
        <time>2012-03-04T11:16:36Z</time>
      </trkpt>
      <trkpt lat="48.38847" lon="2.60248">
        <ele>117.9</ele>
        <time>2012-03-04T11:16:37Z</time>
      </trkpt>
      <trkpt lat="48.38845" lon="2.6028">
        <ele>118.38</ele>
        <time>2012-03-04T11:16:42Z</time>
      </trkpt>
      <trkpt lat="48.38845" lon="2.60286">
        <ele>118.38</ele>
        <time>2012-03-04T11:16:43Z</time>
      </trkpt>
      <trkpt lat="48.38835" lon="2.6037">
        <ele>118.86</ele>
        <time>2012-03-04T11:16:56Z</time>
      </trkpt>
      <trkpt lat="48.38832" lon="2.60402">
        <ele>118.38</ele>
        <time>2012-03-04T11:17:01Z</time>
      </trkpt>
      <trkpt lat="48.38831" lon="2.60408">
        <ele>118.86</ele>
        <time>2012-03-04T11:17:02Z</time>
      </trkpt>
      <trkpt lat="48.3882" lon="2.60492">
        <ele>118.86</ele>
        <time>2012-03-04T11:17:15Z</time>
      </trkpt>
      <trkpt lat="48.38818" lon="2.60511">
        <ele>118.38</ele>
        <time>2012-03-04T11:17:18Z</time>
      </trkpt>
      <trkpt lat="48.38817" lon="2.60518">
        <ele>118.86</ele>
        <time>2012-03-04T11:17:19Z</time>
      </trkpt>
      <trkpt lat="48.38816" lon="2.60524">
        <ele>118.38</ele>
        <time>2012-03-04T11:17:20Z</time>
      </trkpt>
      <trkpt lat="48.38816" lon="2.6053">
        <ele>118.86</ele>
        <time>2012-03-04T11:17:21Z</time>
      </trkpt>
      <trkpt lat="48.38815" lon="2.60537">
        <ele>118.86</ele>
        <time>2012-03-04T11:17:22Z</time>
      </trkpt>
      <trkpt lat="48.38815" lon="2.60543">
        <ele>118.86</ele>
        <time>2012-03-04T11:17:23Z</time>
      </trkpt>
      <trkpt lat="48.38815" lon="2.60549">
        <ele>119.34</ele>
        <time>2012-03-04T11:17:24Z</time>
      </trkpt>
      <trkpt lat="48.38815" lon="2.60555">
        <ele>119.34</ele>
        <time>2012-03-04T11:17:25Z</time>
      </trkpt>
      <trkpt lat="48.38814" lon="2.60561">
        <ele>118.86</ele>
        <time>2012-03-04T11:17:26Z</time>
      </trkpt>
      <trkpt lat="48.3881" lon="2.6059">
        <ele>118.86</ele>
        <time>2012-03-04T11:17:30Z</time>
      </trkpt>
      <trkpt lat="48.38809" lon="2.60597">
        <ele>118.86</ele>
        <time>2012-03-04T11:17:31Z</time>
      </trkpt>
      <trkpt lat="48.38806" lon="2.60624">
        <ele>118.86</ele>
        <time>2012-03-04T11:17:35Z</time>
      </trkpt>
      <trkpt lat="48.38805" lon="2.60631">
        <ele>118.86</ele>
        <time>2012-03-04T11:17:36Z</time>
      </trkpt>
      <trkpt lat="48.38805" lon="2.60637">
        <ele>118.86</ele>
        <time>2012-03-04T11:17:37Z</time>
      </trkpt>
      <trkpt lat="48.38796" lon="2.60713">
        <ele>118.38</ele>
        <time>2012-03-04T11:17:48Z</time>
      </trkpt>
      <trkpt lat="48.38795" lon="2.60719">
        <ele>118.86</ele>
        <time>2012-03-04T11:17:49Z</time>
      </trkpt>
      <trkpt lat="48.3879" lon="2.60779">
        <ele>119.34</ele>
        <time>2012-03-04T11:17:58Z</time>
      </trkpt>
      <trkpt lat="48.38789" lon="2.60786">
        <ele>119.34</ele>
        <time>2012-03-04T11:17:59Z</time>
      </trkpt>
      <trkpt lat="48.38786" lon="2.60807">
        <ele>119.82</ele>
        <time>2012-03-04T11:18:02Z</time>
      </trkpt>
      <trkpt lat="48.38785" lon="2.60814">
        <ele>119.34</ele>
        <time>2012-03-04T11:18:03Z</time>
      </trkpt>
      <trkpt lat="48.38783" lon="2.60821">
        <ele>119.82</ele>
        <time>2012-03-04T11:18:04Z</time>
      </trkpt>
      <trkpt lat="48.38782" lon="2.60826">
        <ele>119.82</ele>
        <time>2012-03-04T11:18:05Z</time>
      </trkpt>
      <trkpt lat="48.38782" lon="2.60832">
        <ele>119.82</ele>
        <time>2012-03-04T11:18:06Z</time>
      </trkpt>
      <trkpt lat="48.38782" lon="2.60838">
        <ele>120.3</ele>
        <time>2012-03-04T11:18:07Z</time>
      </trkpt>
      <trkpt lat="48.38781" lon="2.60843">
        <ele>120.3</ele>
        <time>2012-03-04T11:18:08Z</time>
      </trkpt>
      <trkpt lat="48.38768" lon="2.60943">
        <ele>120.3</ele>
        <time>2012-03-04T11:18:23Z</time>
      </trkpt>
      <trkpt lat="48.38765" lon="2.6098">
        <ele>120.78</ele>
        <time>2012-03-04T11:18:29Z</time>
      </trkpt>
      <trkpt lat="48.3876" lon="2.61003">
        <ele>121.26</ele>
        <time>2012-03-04T11:18:32Z</time>
      </trkpt>
      <trkpt lat="48.38759" lon="2.61009">
        <ele>121.26</ele>
        <time>2012-03-04T11:18:33Z</time>
      </trkpt>
      <trkpt lat="48.38751" lon="2.61058">
        <ele>120.3</ele>
        <time>2012-03-04T11:18:40Z</time>
      </trkpt>
      <trkpt lat="48.38749" lon="2.61066">
        <ele>120.78</ele>
        <time>2012-03-04T11:18:41Z</time>
      </trkpt>
      <trkpt lat="48.38744" lon="2.61094">
        <ele>121.26</ele>
        <time>2012-03-04T11:18:45Z</time>
      </trkpt>
      <trkpt lat="48.38742" lon="2.61101">
        <ele>121.26</ele>
        <time>2012-03-04T11:18:46Z</time>
      </trkpt>
      <trkpt lat="48.38741" lon="2.61108">
        <ele>121.26</ele>
        <time>2012-03-04T11:18:47Z</time>
      </trkpt>
      <trkpt lat="48.38736" lon="2.61138">
        <ele>121.26</ele>
        <time>2012-03-04T11:18:51Z</time>
      </trkpt>
      <trkpt lat="48.38734" lon="2.61165">
        <ele>121.74</ele>
        <time>2012-03-04T11:18:55Z</time>
      </trkpt>
      <trkpt lat="48.3873" lon="2.61211">
        <ele>120.78</ele>
        <time>2012-03-04T11:19:02Z</time>
      </trkpt>
      <trkpt lat="48.38725" lon="2.6129">
        <ele>120.3</ele>
        <time>2012-03-04T11:19:13Z</time>
      </trkpt>
      <trkpt lat="48.38721" lon="2.61319">
        <ele>120.78</ele>
        <time>2012-03-04T11:19:17Z</time>
      </trkpt>
      <trkpt lat="48.38718" lon="2.61356">
        <ele>120.3</ele>
        <time>2012-03-04T11:19:22Z</time>
      </trkpt>
      <trkpt lat="48.38717" lon="2.61364">
        <ele>120.78</ele>
        <time>2012-03-04T11:19:23Z</time>
      </trkpt>
      <trkpt lat="48.38715" lon="2.61372">
        <ele>120.3</ele>
        <time>2012-03-04T11:19:24Z</time>
      </trkpt>
      <trkpt lat="48.38714" lon="2.61379">
        <ele>120.3</ele>
        <time>2012-03-04T11:19:25Z</time>
      </trkpt>
      <trkpt lat="48.38713" lon="2.61386">
        <ele>120.3</ele>
        <time>2012-03-04T11:19:26Z</time>
      </trkpt>
      <trkpt lat="48.38713" lon="2.61405">
        <ele>120.78</ele>
        <time>2012-03-04T11:19:29Z</time>
      </trkpt>
      <trkpt lat="48.38714" lon="2.61412">
        <ele>120.3</ele>
        <time>2012-03-04T11:19:30Z</time>
      </trkpt>
      <trkpt lat="48.38728" lon="2.61476">
        <ele>120.78</ele>
        <time>2012-03-04T11:19:41Z</time>
      </trkpt>
      <trkpt lat="48.38752" lon="2.61538">
        <ele>121.26</ele>
        <time>2012-03-04T11:19:51Z</time>
      </trkpt>
      <trkpt lat="48.38767" lon="2.61563">
        <ele>121.26</ele>
        <time>2012-03-04T11:19:56Z</time>
      </trkpt>
      <trkpt lat="48.3877" lon="2.61567">
        <ele>120.78</ele>
        <time>2012-03-04T11:19:57Z</time>
      </trkpt>
      <trkpt lat="48.38812" lon="2.61611">
        <ele>120.78</ele>
        <time>2012-03-04T11:20:08Z</time>
      </trkpt>
      <trkpt lat="48.38846" lon="2.61655">
        <ele>120.3</ele>
        <time>2012-03-04T11:20:17Z</time>
      </trkpt>
      <trkpt lat="48.38859" lon="2.61671">
        <ele>119.34</ele>
        <time>2012-03-04T11:20:20Z</time>
      </trkpt>
      <trkpt lat="48.38863" lon="2.61676">
        <ele>119.34</ele>
        <time>2012-03-04T11:20:21Z</time>
      </trkpt>
      <trkpt lat="48.38867" lon="2.6168">
        <ele>119.82</ele>
        <time>2012-03-04T11:20:22Z</time>
      </trkpt>
      <trkpt lat="48.38889" lon="2.61699">
        <ele>118.86</ele>
        <time>2012-03-04T11:20:27Z</time>
      </trkpt>
      <trkpt lat="48.38893" lon="2.61702">
        <ele>119.34</ele>
        <time>2012-03-04T11:20:28Z</time>
      </trkpt>
      <trkpt lat="48.38907" lon="2.61712">
        <ele>118.38</ele>
        <time>2012-03-04T11:20:31Z</time>
      </trkpt>
      <trkpt lat="48.38912" lon="2.61717">
        <ele>118.86</ele>
        <time>2012-03-04T11:20:32Z</time>
      </trkpt>
      <trkpt lat="48.38916" lon="2.61722">
        <ele>118.86</ele>
        <time>2012-03-04T11:20:33Z</time>
      </trkpt>
      <trkpt lat="48.38919" lon="2.61728">
        <ele>118.86</ele>
        <time>2012-03-04T11:20:34Z</time>
      </trkpt>
      <trkpt lat="48.38923" lon="2.61735">
        <ele>118.38</ele>
        <time>2012-03-04T11:20:35Z</time>
      </trkpt>
      <trkpt lat="48.38926" lon="2.61742">
        <ele>118.38</ele>
        <time>2012-03-04T11:20:36Z</time>
      </trkpt>
      <trkpt lat="48.38937" lon="2.61771">
        <ele>118.38</ele>
        <time>2012-03-04T11:20:40Z</time>
      </trkpt>
      <trkpt lat="48.38951" lon="2.61805">
        <ele>118.86</ele>
        <time>2012-03-04T11:20:45Z</time>
      </trkpt>
      <trkpt lat="48.38954" lon="2.6181">
        <ele>118.86</ele>
        <time>2012-03-04T11:20:46Z</time>
      </trkpt>
      <trkpt lat="48.38965" lon="2.61835">
        <ele>118.38</ele>
        <time>2012-03-04T11:20:50Z</time>
      </trkpt>
      <trkpt lat="48.38968" lon="2.61842">
        <ele>118.86</ele>
        <time>2012-03-04T11:20:51Z</time>
      </trkpt>
      <trkpt lat="48.38977" lon="2.61887">
        <ele>118.86</ele>
        <time>2012-03-04T11:20:57Z</time>
      </trkpt>
      <trkpt lat="48.38979" lon="2.61894">
        <ele>118.86</ele>
        <time>2012-03-04T11:20:58Z</time>
      </trkpt>
      <trkpt lat="48.38982" lon="2.61908">
        <ele>118.86</ele>
        <time>2012-03-04T11:21:00Z</time>
      </trkpt>
      <trkpt lat="48.38993" lon="2.61944">
        <ele>118.38</ele>
        <time>2012-03-04T11:21:05Z</time>
      </trkpt>
      <trkpt lat="48.38997" lon="2.61958">
        <ele>117.9</ele>
        <time>2012-03-04T11:21:07Z</time>
      </trkpt>
      <trkpt lat="48.38999" lon="2.61965">
        <ele>117.9</ele>
        <time>2012-03-04T11:21:08Z</time>
      </trkpt>
      <trkpt lat="48.39" lon="2.61972">
        <ele>117.42</ele>
        <time>2012-03-04T11:21:09Z</time>
      </trkpt>
      <trkpt lat="48.39003" lon="2.61978">
        <ele>117.42</ele>
        <time>2012-03-04T11:21:10Z</time>
      </trkpt>
      <trkpt lat="48.39005" lon="2.61985">
        <ele>117.9</ele>
        <time>2012-03-04T11:21:11Z</time>
      </trkpt>
      <trkpt lat="48.39022" lon="2.62026">
        <ele>116.94</ele>
        <time>2012-03-04T11:21:17Z</time>
      </trkpt>
      <trkpt lat="48.39025" lon="2.62032">
        <ele>116.46</ele>
        <time>2012-03-04T11:21:18Z</time>
      </trkpt>
      <trkpt lat="48.39027" lon="2.62038">
        <ele>116.46</ele>
        <time>2012-03-04T11:21:19Z</time>
      </trkpt>
      <trkpt lat="48.3903" lon="2.62044">
        <ele>115.98</ele>
        <time>2012-03-04T11:21:20Z</time>
      </trkpt>
      <trkpt lat="48.39032" lon="2.6205">
        <ele>115.98</ele>
        <time>2012-03-04T11:21:21Z</time>
      </trkpt>
      <trkpt lat="48.39034" lon="2.62055">
        <ele>115.98</ele>
        <time>2012-03-04T11:21:22Z</time>
      </trkpt>
      <trkpt lat="48.39039" lon="2.62071">
        <ele>116.46</ele>
        <time>2012-03-04T11:21:25Z</time>
      </trkpt>
      <trkpt lat="48.3904" lon="2.62076">
        <ele>115.98</ele>
        <time>2012-03-04T11:21:26Z</time>
      </trkpt>
      <trkpt lat="48.3904" lon="2.6208">
        <ele>116.46</ele>
        <time>2012-03-04T11:21:27Z</time>
      </trkpt>
      <trkpt lat="48.39042" lon="2.62083">
        <ele>116.46</ele>
        <time>2012-03-04T11:21:28Z</time>
      </trkpt>
      <trkpt lat="48.39044" lon="2.62085">
        <ele>116.94</ele>
        <time>2012-03-04T11:21:29Z</time>
      </trkpt>
      <trkpt lat="48.39047" lon="2.62086">
        <ele>116.46</ele>
        <time>2012-03-04T11:21:30Z</time>
      </trkpt>
      <trkpt lat="48.39082" lon="2.62112">
        <ele>117.9</ele>
        <time>2012-03-04T11:21:40Z</time>
      </trkpt>
      <trkpt lat="48.39125" lon="2.62146">
        <ele>119.34</ele>
        <time>2012-03-04T11:21:52Z</time>
      </trkpt>
      <trkpt lat="48.39163" lon="2.62179">
        <ele>120.78</ele>
        <time>2012-03-04T11:22:03Z</time>
      </trkpt>
      <trkpt lat="48.39204" lon="2.62212">
        <ele>120.78</ele>
        <time>2012-03-04T11:22:14Z</time>
      </trkpt>
      <trkpt lat="48.39208" lon="2.62213">
        <ele>120.78</ele>
        <time>2012-03-04T11:22:15Z</time>
      </trkpt>
      <trkpt lat="48.3921" lon="2.62215">
        <ele>120.78</ele>
        <time>2012-03-04T11:22:16Z</time>
      </trkpt>
      <trkpt lat="48.39213" lon="2.62218">
        <ele>120.78</ele>
        <time>2012-03-04T11:22:17Z</time>
      </trkpt>
      <trkpt lat="48.39217" lon="2.6222">
        <ele>120.78</ele>
        <time>2012-03-04T11:22:18Z</time>
      </trkpt>
      <trkpt lat="48.39251" lon="2.62226">
        <ele>121.26</ele>
        <time>2012-03-04T11:22:28Z</time>
      </trkpt>
      <trkpt lat="48.39253" lon="2.62227">
        <ele>122.22</ele>
        <time>2012-03-04T11:22:29Z</time>
      </trkpt>
      <trkpt lat="48.39255" lon="2.62226">
        <ele>121.74</ele>
        <time>2012-03-04T11:22:30Z</time>
      </trkpt>
      <trkpt lat="48.39257" lon="2.62226">
        <ele>122.22</ele>
        <time>2012-03-04T11:22:31Z</time>
      </trkpt>
      <trkpt lat="48.3926" lon="2.62227">
        <ele>121.74</ele>
        <time>2012-03-04T11:22:32Z</time>
      </trkpt>
      <trkpt lat="48.39264" lon="2.62229">
        <ele>121.74</ele>
        <time>2012-03-04T11:22:33Z</time>
      </trkpt>
      <trkpt lat="48.39266" lon="2.62232">
        <ele>121.26</ele>
        <time>2012-03-04T11:22:34Z</time>
      </trkpt>
      <trkpt lat="48.39268" lon="2.62235">
        <ele>121.74</ele>
        <time>2012-03-04T11:22:35Z</time>
      </trkpt>
      <trkpt lat="48.39271" lon="2.62237">
        <ele>122.22</ele>
        <time>2012-03-04T11:22:36Z</time>
      </trkpt>
      <trkpt lat="48.39274" lon="2.62237">
        <ele>122.22</ele>
        <time>2012-03-04T11:22:37Z</time>
      </trkpt>
      <trkpt lat="48.39277" lon="2.62238">
        <ele>122.22</ele>
        <time>2012-03-04T11:22:38Z</time>
      </trkpt>
      <trkpt lat="48.3928" lon="2.6224">
        <ele>122.71</ele>
        <time>2012-03-04T11:22:39Z</time>
      </trkpt>
      <trkpt lat="48.39283" lon="2.6224">
        <ele>123.19</ele>
        <time>2012-03-04T11:22:40Z</time>
      </trkpt>
      <trkpt lat="48.39286" lon="2.62237">
        <ele>123.19</ele>
        <time>2012-03-04T11:22:41Z</time>
      </trkpt>
      <trkpt lat="48.39289" lon="2.62236">
        <ele>123.19</ele>
        <time>2012-03-04T11:22:42Z</time>
      </trkpt>
      <trkpt lat="48.39291" lon="2.62237">
        <ele>122.71</ele>
        <time>2012-03-04T11:22:43Z</time>
      </trkpt>
      <trkpt lat="48.39294" lon="2.62239">
        <ele>122.71</ele>
        <time>2012-03-04T11:22:44Z</time>
      </trkpt>
      <trkpt lat="48.39297" lon="2.6224">
        <ele>123.67</ele>
        <time>2012-03-04T11:22:45Z</time>
      </trkpt>
      <trkpt lat="48.39299" lon="2.62242">
        <ele>124.15</ele>
        <time>2012-03-04T11:22:46Z</time>
      </trkpt>
      <trkpt lat="48.393" lon="2.62244">
        <ele>124.63</ele>
        <time>2012-03-04T11:22:51Z</time>
      </trkpt>
      <trkpt lat="48.39314" lon="2.62236">
        <ele>124.63</ele>
        <time>2012-03-04T11:22:59Z</time>
      </trkpt>
      <trkpt lat="48.39343" lon="2.62245">
        <ele>126.07</ele>
        <time>2012-03-04T11:23:09Z</time>
      </trkpt>
      <trkpt lat="48.39346" lon="2.62246">
        <ele>126.07</ele>
        <time>2012-03-04T11:23:10Z</time>
      </trkpt>
      <trkpt lat="48.39367" lon="2.62265">
        <ele>126.07</ele>
        <time>2012-03-04T11:23:18Z</time>
      </trkpt>
      <trkpt lat="48.39395" lon="2.62267">
        <ele>125.59</ele>
        <time>2012-03-04T11:23:30Z</time>
      </trkpt>
      <trkpt lat="48.39411" lon="2.62267">
        <ele>124.63</ele>
        <time>2012-03-04T11:23:35Z</time>
      </trkpt>
      <trkpt lat="48.39426" lon="2.62275">
        <ele>123.19</ele>
        <time>2012-03-04T11:23:39Z</time>
      </trkpt>
      <trkpt lat="48.3943" lon="2.62276">
        <ele>123.19</ele>
        <time>2012-03-04T11:23:40Z</time>
      </trkpt>
      <trkpt lat="48.39435" lon="2.62275">
        <ele>123.19</ele>
        <time>2012-03-04T11:23:41Z</time>
      </trkpt>
      <trkpt lat="48.39439" lon="2.62272">
        <ele>122.71</ele>
        <time>2012-03-04T11:23:42Z</time>
      </trkpt>
      <trkpt lat="48.39443" lon="2.62268">
        <ele>122.22</ele>
        <time>2012-03-04T11:23:43Z</time>
      </trkpt>
      <trkpt lat="48.39447" lon="2.62262">
        <ele>122.22</ele>
        <time>2012-03-04T11:23:44Z</time>
      </trkpt>
      <trkpt lat="48.3945" lon="2.62256">
        <ele>122.71</ele>
        <time>2012-03-04T11:23:45Z</time>
      </trkpt>
      <trkpt lat="48.39454" lon="2.62251">
        <ele>122.71</ele>
        <time>2012-03-04T11:23:46Z</time>
      </trkpt>
      <trkpt lat="48.39461" lon="2.62244">
        <ele>122.71</ele>
        <time>2012-03-04T11:23:48Z</time>
      </trkpt>
      <trkpt lat="48.39465" lon="2.62241">
        <ele>123.19</ele>
        <time>2012-03-04T11:23:49Z</time>
      </trkpt>
      <trkpt lat="48.39469" lon="2.62238">
        <ele>123.19</ele>
        <time>2012-03-04T11:23:50Z</time>
      </trkpt>
      <trkpt lat="48.39479" lon="2.62227">
        <ele>123.19</ele>
        <time>2012-03-04T11:23:53Z</time>
      </trkpt>
      <trkpt lat="48.39485" lon="2.62219">
        <ele>123.19</ele>
        <time>2012-03-04T11:23:55Z</time>
      </trkpt>
      <trkpt lat="48.39489" lon="2.62216">
        <ele>123.19</ele>
        <time>2012-03-04T11:23:56Z</time>
      </trkpt>
      <trkpt lat="48.39492" lon="2.62212">
        <ele>123.67</ele>
        <time>2012-03-04T11:23:57Z</time>
      </trkpt>
      <trkpt lat="48.39496" lon="2.62208">
        <ele>123.19</ele>
        <time>2012-03-04T11:23:58Z</time>
      </trkpt>
      <trkpt lat="48.39499" lon="2.62204">
        <ele>123.67</ele>
        <time>2012-03-04T11:23:59Z</time>
      </trkpt>
      <trkpt lat="48.39502" lon="2.622">
        <ele>123.19</ele>
        <time>2012-03-04T11:24:00Z</time>
      </trkpt>
      <trkpt lat="48.3953" lon="2.62168">
        <ele>124.15</ele>
        <time>2012-03-04T11:24:09Z</time>
      </trkpt>
      <trkpt lat="48.39532" lon="2.62166">
        <ele>124.15</ele>
        <time>2012-03-04T11:24:10Z</time>
      </trkpt>
      <trkpt lat="48.39534" lon="2.62167">
        <ele>124.15</ele>
        <time>2012-03-04T11:24:11Z</time>
      </trkpt>
      <trkpt lat="48.39535" lon="2.62168">
        <ele>124.63</ele>
        <time>2012-03-04T11:24:12Z</time>
      </trkpt>
      <trkpt lat="48.39536" lon="2.6217">
        <ele>124.15</ele>
        <time>2012-03-04T11:24:13Z</time>
      </trkpt>
      <trkpt lat="48.39535" lon="2.62172">
        <ele>124.63</ele>
        <time>2012-03-04T11:24:14Z</time>
      </trkpt>
      <trkpt lat="48.39535" lon="2.62174">
        <ele>124.63</ele>
        <time>2012-03-04T11:24:15Z</time>
      </trkpt>
      <trkpt lat="48.39534" lon="2.62176">
        <ele>124.63</ele>
        <time>2012-03-04T11:24:16Z</time>
      </trkpt>
      <trkpt lat="48.39533" lon="2.62179">
        <ele>124.63</ele>
        <time>2012-03-04T11:24:17Z</time>
      </trkpt>
      <trkpt lat="48.39532" lon="2.62181">
        <ele>124.63</ele>
        <time>2012-03-04T11:24:18Z</time>
      </trkpt>
      <trkpt lat="48.39531" lon="2.62184">
        <ele>124.15</ele>
        <time>2012-03-04T11:24:19Z</time>
      </trkpt>
      <trkpt lat="48.39531" lon="2.62187">
        <ele>124.63</ele>
        <time>2012-03-04T11:24:20Z</time>
      </trkpt>
      <trkpt lat="48.3953" lon="2.6219">
        <ele>124.15</ele>
        <time>2012-03-04T11:24:21Z</time>
      </trkpt>
      <trkpt lat="48.3953" lon="2.62193">
        <ele>124.63</ele>
        <time>2012-03-04T11:24:22Z</time>
      </trkpt>
      <trkpt lat="48.39522" lon="2.6225">
        <ele>125.11</ele>
        <time>2012-03-04T11:24:37Z</time>
      </trkpt>
      <trkpt lat="48.39516" lon="2.62301">
        <ele>125.11</ele>
        <time>2012-03-04T11:24:48Z</time>
      </trkpt>
      <trkpt lat="48.39515" lon="2.62335">
        <ele>124.15</ele>
        <time>2012-03-04T11:24:54Z</time>
      </trkpt>
      <trkpt lat="48.39513" lon="2.62341">
        <ele>124.15</ele>
        <time>2012-03-04T11:24:55Z</time>
      </trkpt>
      <trkpt lat="48.39509" lon="2.62362">
        <ele>124.15</ele>
        <time>2012-03-04T11:24:58Z</time>
      </trkpt>
      <trkpt lat="48.39507" lon="2.62375">
        <ele>123.67</ele>
        <time>2012-03-04T11:25:00Z</time>
      </trkpt>
      <trkpt lat="48.39505" lon="2.62381">
        <ele>123.67</ele>
        <time>2012-03-04T11:25:01Z</time>
      </trkpt>
      <trkpt lat="48.39504" lon="2.62388">
        <ele>123.67</ele>
        <time>2012-03-04T11:25:02Z</time>
      </trkpt>
      <trkpt lat="48.39501" lon="2.62402">
        <ele>124.15</ele>
        <time>2012-03-04T11:25:04Z</time>
      </trkpt>
      <trkpt lat="48.39496" lon="2.6243">
        <ele>123.67</ele>
        <time>2012-03-04T11:25:08Z</time>
      </trkpt>
      <trkpt lat="48.39495" lon="2.62436">
        <ele>123.67</ele>
        <time>2012-03-04T11:25:09Z</time>
      </trkpt>
      <trkpt lat="48.39484" lon="2.62496">
        <ele>123.67</ele>
        <time>2012-03-04T11:25:18Z</time>
      </trkpt>
      <trkpt lat="48.39482" lon="2.62503">
        <ele>123.67</ele>
        <time>2012-03-04T11:25:19Z</time>
      </trkpt>
      <trkpt lat="48.39469" lon="2.62568">
        <ele>124.15</ele>
        <time>2012-03-04T11:25:30Z</time>
      </trkpt>
      <trkpt lat="48.39463" lon="2.62613">
        <ele>111.17</ele>
        <time>2012-03-04T11:25:38Z</time>
      </trkpt>
      <trkpt lat="48.39462" lon="2.62618">
        <ele>126.07</ele>
        <time>2012-03-04T11:25:39Z</time>
      </trkpt>
      <trkpt lat="48.39459" lon="2.62641">
        <ele>120.3</ele>
        <time>2012-03-04T11:25:43Z</time>
      </trkpt>
      <trkpt lat="48.39458" lon="2.62646">
        <ele>126.55</ele>
        <time>2012-03-04T11:25:44Z</time>
      </trkpt>
      <trkpt lat="48.39448" lon="2.627">
        <ele>125.59</ele>
        <time>2012-03-04T11:25:55Z</time>
      </trkpt>
      <trkpt lat="48.39445" lon="2.62738">
        <ele>126.55</ele>
        <time>2012-03-04T11:26:05Z</time>
      </trkpt>
      <trkpt lat="48.39444" lon="2.62748">
        <ele>126.07</ele>
        <time>2012-03-04T11:26:08Z</time>
      </trkpt>
      <trkpt lat="48.39432" lon="2.62803">
        <ele>126.07</ele>
        <time>2012-03-04T11:26:20Z</time>
      </trkpt>
      <trkpt lat="48.39422" lon="2.62859">
        <ele>125.59</ele>
        <time>2012-03-04T11:26:32Z</time>
      </trkpt>
      <trkpt lat="48.39414" lon="2.62913">
        <ele>125.59</ele>
        <time>2012-03-04T11:26:44Z</time>
      </trkpt>
      <trkpt lat="48.39407" lon="2.62938">
        <ele>125.59</ele>
        <time>2012-03-04T11:26:51Z</time>
      </trkpt>
      <trkpt lat="48.39404" lon="2.62954">
        <ele>125.59</ele>
        <time>2012-03-04T11:27:00Z</time>
      </trkpt>
      <trkpt lat="48.39402" lon="2.62958">
        <ele>125.59</ele>
        <time>2012-03-04T11:27:12Z</time>
      </trkpt>
      <trkpt lat="48.39402" lon="2.62958">
        <ele>126.07</ele>
        <time>2012-03-04T11:27:33Z</time>
      </trkpt>
      <trkpt lat="48.39402" lon="2.62958">
        <ele>125.59</ele>
        <time>2012-03-04T11:27:57Z</time>
      </trkpt>
      <trkpt lat="48.39402" lon="2.62958">
        <ele>126.07</ele>
        <time>2012-03-04T11:28:21Z</time>
      </trkpt>
      <trkpt lat="48.39402" lon="2.62958">
        <ele>126.07</ele>
        <time>2012-03-04T11:28:46Z</time>
      </trkpt>
      <trkpt lat="48.39402" lon="2.62958">
        <ele>126.07</ele>
        <time>2012-03-04T11:29:07Z</time>
      </trkpt>
      <trkpt lat="48.39402" lon="2.62958">
        <ele>126.07</ele>
        <time>2012-03-04T11:29:33Z</time>
      </trkpt>
      <trkpt lat="48.39402" lon="2.62959">
        <ele>126.07</ele>
        <time>2012-03-04T11:29:54Z</time>
      </trkpt>
      <trkpt lat="48.39402" lon="2.62959">
        <ele>126.07</ele>
        <time>2012-03-04T11:30:22Z</time>
      </trkpt>
      <trkpt lat="48.39402" lon="2.62959">
        <ele>126.07</ele>
        <time>2012-03-04T11:30:50Z</time>
      </trkpt>
      <trkpt lat="48.39402" lon="2.62959">
        <ele>125.59</ele>
        <time>2012-03-04T11:31:14Z</time>
      </trkpt>
      <trkpt lat="48.39402" lon="2.62959">
        <ele>126.55</ele>
        <time>2012-03-04T11:31:38Z</time>
      </trkpt>
      <trkpt lat="48.39402" lon="2.6296">
        <ele>126.07</ele>
        <time>2012-03-04T11:31:47Z</time>
      </trkpt>
      <trkpt lat="48.39403" lon="2.62962">
        <ele>126.55</ele>
        <time>2012-03-04T11:31:49Z</time>
      </trkpt>
      <trkpt lat="48.39404" lon="2.62964">
        <ele>126.55</ele>
        <time>2012-03-04T11:31:50Z</time>
      </trkpt>
      <trkpt lat="48.39404" lon="2.62966">
        <ele>126.55</ele>
        <time>2012-03-04T11:31:51Z</time>
      </trkpt>
      <trkpt lat="48.39404" lon="2.62969">
        <ele>126.55</ele>
        <time>2012-03-04T11:31:52Z</time>
      </trkpt>
      <trkpt lat="48.39404" lon="2.62972">
        <ele>127.03</ele>
        <time>2012-03-04T11:31:53Z</time>
      </trkpt>
      <trkpt lat="48.39405" lon="2.62974">
        <ele>126.55</ele>
        <time>2012-03-04T11:31:54Z</time>
      </trkpt>
      <trkpt lat="48.39406" lon="2.62977">
        <ele>126.55</ele>
        <time>2012-03-04T11:31:55Z</time>
      </trkpt>
      <trkpt lat="48.39407" lon="2.62979">
        <ele>127.03</ele>
        <time>2012-03-04T11:31:56Z</time>
      </trkpt>
      <trkpt lat="48.39409" lon="2.62981">
        <ele>126.55</ele>
        <time>2012-03-04T11:31:57Z</time>
      </trkpt>
      <trkpt lat="48.3941" lon="2.62983">
        <ele>126.55</ele>
        <time>2012-03-04T11:31:58Z</time>
      </trkpt>
      <trkpt lat="48.39412" lon="2.62985">
        <ele>126.55</ele>
        <time>2012-03-04T11:31:59Z</time>
      </trkpt>
      <trkpt lat="48.39415" lon="2.62986">
        <ele>126.55</ele>
        <time>2012-03-04T11:32:00Z</time>
      </trkpt>
      <trkpt lat="48.39417" lon="2.62988">
        <ele>126.55</ele>
        <time>2012-03-04T11:32:01Z</time>
      </trkpt>
      <trkpt lat="48.3943" lon="2.62998">
        <ele>126.55</ele>
        <time>2012-03-04T11:32:05Z</time>
      </trkpt>
      <trkpt lat="48.39467" lon="2.63029">
        <ele>127.03</ele>
        <time>2012-03-04T11:32:17Z</time>
      </trkpt>
      <trkpt lat="48.39509" lon="2.63065">
        <ele>126.55</ele>
        <time>2012-03-04T11:32:30Z</time>
      </trkpt>
      <trkpt lat="48.3957" lon="2.63116">
        <ele>126.07</ele>
        <time>2012-03-04T11:32:43Z</time>
      </trkpt>
      <trkpt lat="48.39643" lon="2.63181">
        <ele>125.11</ele>
        <time>2012-03-04T11:32:55Z</time>
      </trkpt>
      <trkpt lat="48.3974" lon="2.63262">
        <ele>126.07</ele>
        <time>2012-03-04T11:33:08Z</time>
      </trkpt>
      <trkpt lat="48.39834" lon="2.63341">
        <ele>125.59</ele>
        <time>2012-03-04T11:33:20Z</time>
      </trkpt>
      <trkpt lat="48.39969" lon="2.63453">
        <ele>123.67</ele>
        <time>2012-03-04T11:33:36Z</time>
      </trkpt>
      <trkpt lat="48.4006" lon="2.63528">
        <ele>125.59</ele>
        <time>2012-03-04T11:33:48Z</time>
      </trkpt>
      <trkpt lat="48.40141" lon="2.63594">
        <ele>127.03</ele>
        <time>2012-03-04T11:34:01Z</time>
      </trkpt>
      <trkpt lat="48.40156" lon="2.63608">
        <ele>127.51</ele>
        <time>2012-03-04T11:34:04Z</time>
      </trkpt>
      <trkpt lat="48.40162" lon="2.63612">
        <ele>127.51</ele>
        <time>2012-03-04T11:34:05Z</time>
      </trkpt>
      <trkpt lat="48.40227" lon="2.63666">
        <ele>128.47</ele>
        <time>2012-03-04T11:34:17Z</time>
      </trkpt>
      <trkpt lat="48.40285" lon="2.63717">
        <ele>128.47</ele>
        <time>2012-03-04T11:34:28Z</time>
      </trkpt>
      <trkpt lat="48.40361" lon="2.63779">
        <ele>127.51</ele>
        <time>2012-03-04T11:34:41Z</time>
      </trkpt>
      <trkpt lat="48.40366" lon="2.63783">
        <ele>127.03</ele>
        <time>2012-03-04T11:34:42Z</time>
      </trkpt>
      <trkpt lat="48.40402" lon="2.63814">
        <ele>127.03</ele>
        <time>2012-03-04T11:34:49Z</time>
      </trkpt>
      <trkpt lat="48.40408" lon="2.63824">
        <ele>127.51</ele>
        <time>2012-03-04T11:34:51Z</time>
      </trkpt>
      <trkpt lat="48.4041" lon="2.63829">
        <ele>127.03</ele>
        <time>2012-03-04T11:34:52Z</time>
      </trkpt>
      <trkpt lat="48.40411" lon="2.63834">
        <ele>127.03</ele>
        <time>2012-03-04T11:34:53Z</time>
      </trkpt>
      <trkpt lat="48.40411" lon="2.63839">
        <ele>126.55</ele>
        <time>2012-03-04T11:34:54Z</time>
      </trkpt>
      <trkpt lat="48.40411" lon="2.63844">
        <ele>127.03</ele>
        <time>2012-03-04T11:34:55Z</time>
      </trkpt>
      <trkpt lat="48.4041" lon="2.63847">
        <ele>126.55</ele>
        <time>2012-03-04T11:34:56Z</time>
      </trkpt>
      <trkpt lat="48.40409" lon="2.63848">
        <ele>127.51</ele>
        <time>2012-03-04T11:34:57Z</time>
      </trkpt>
      <trkpt lat="48.40408" lon="2.63849">
        <ele>127.03</ele>
        <time>2012-03-04T11:34:58Z</time>
      </trkpt>
      <trkpt lat="48.40404" lon="2.63854">
        <ele>127.03</ele>
        <time>2012-03-04T11:35:09Z</time>
      </trkpt>
      <trkpt lat="48.40404" lon="2.63854">
        <ele>127.03</ele>
        <time>2012-03-04T11:35:33Z</time>
      </trkpt>
      <trkpt lat="48.40404" lon="2.63855">
        <ele>127.03</ele>
        <time>2012-03-04T11:35:35Z</time>
      </trkpt>
      <trkpt lat="48.40404" lon="2.63859">
        <ele>127.51</ele>
        <time>2012-03-04T11:35:44Z</time>
      </trkpt>
      <trkpt lat="48.40403" lon="2.63862">
        <ele>127.99</ele>
        <time>2012-03-04T11:36:14Z</time>
      </trkpt>
      <trkpt lat="48.404" lon="2.6389">
        <ele>127.51</ele>
        <time>2012-03-04T11:36:23Z</time>
      </trkpt>
      <trkpt lat="48.40393" lon="2.63918">
        <ele>126.55</ele>
        <time>2012-03-04T11:36:32Z</time>
      </trkpt>
      <trkpt lat="48.40392" lon="2.63922">
        <ele>126.07</ele>
        <time>2012-03-04T11:36:33Z</time>
      </trkpt>
      <trkpt lat="48.40391" lon="2.63927">
        <ele>125.59</ele>
        <time>2012-03-04T11:36:34Z</time>
      </trkpt>
      <trkpt lat="48.40391" lon="2.63933">
        <ele>125.11</ele>
        <time>2012-03-04T11:36:35Z</time>
      </trkpt>
      <trkpt lat="48.4039" lon="2.63939">
        <ele>124.63</ele>
        <time>2012-03-04T11:36:36Z</time>
      </trkpt>
      <trkpt lat="48.40389" lon="2.63946">
        <ele>124.15</ele>
        <time>2012-03-04T11:36:37Z</time>
      </trkpt>
      <trkpt lat="48.40387" lon="2.63953">
        <ele>123.67</ele>
        <time>2012-03-04T11:36:38Z</time>
      </trkpt>
      <trkpt lat="48.40385" lon="2.63961">
        <ele>122.71</ele>
        <time>2012-03-04T11:36:39Z</time>
      </trkpt>
      <trkpt lat="48.40382" lon="2.6397">
        <ele>122.22</ele>
        <time>2012-03-04T11:36:40Z</time>
      </trkpt>
      <trkpt lat="48.4038" lon="2.63979">
        <ele>121.26</ele>
        <time>2012-03-04T11:36:41Z</time>
      </trkpt>
      <trkpt lat="48.40377" lon="2.63988">
        <ele>120.3</ele>
        <time>2012-03-04T11:36:42Z</time>
      </trkpt>
      <trkpt lat="48.40368" lon="2.64022">
        <ele>116.94</ele>
        <time>2012-03-04T11:36:45Z</time>
      </trkpt>
      <trkpt lat="48.40358" lon="2.6408">
        <ele>112.61</ele>
        <time>2012-03-04T11:36:49Z</time>
      </trkpt>
      <trkpt lat="48.40347" lon="2.64163">
        <ele>108.77</ele>
        <time>2012-03-04T11:36:55Z</time>
      </trkpt>
      <trkpt lat="48.40346" lon="2.64176">
        <ele>108.29</ele>
        <time>2012-03-04T11:36:56Z</time>
      </trkpt>
      <trkpt lat="48.40345" lon="2.64189">
        <ele>107.81</ele>
        <time>2012-03-04T11:36:57Z</time>
      </trkpt>
      <trkpt lat="48.40336" lon="2.64246">
        <ele>106.84</ele>
        <time>2012-03-04T11:37:02Z</time>
      </trkpt>
      <trkpt lat="48.40334" lon="2.64256">
        <ele>106.84</ele>
        <time>2012-03-04T11:37:03Z</time>
      </trkpt>
      <trkpt lat="48.40333" lon="2.64264">
        <ele>106.84</ele>
        <time>2012-03-04T11:37:04Z</time>
      </trkpt>
      <trkpt lat="48.40331" lon="2.64272">
        <ele>106.36</ele>
        <time>2012-03-04T11:37:05Z</time>
      </trkpt>
      <trkpt lat="48.4033" lon="2.64279">
        <ele>106.36</ele>
        <time>2012-03-04T11:37:06Z</time>
      </trkpt>
      <trkpt lat="48.40329" lon="2.64286">
        <ele>106.36</ele>
        <time>2012-03-04T11:37:07Z</time>
      </trkpt>
      <trkpt lat="48.40323" lon="2.64321">
        <ele>104.92</ele>
        <time>2012-03-04T11:37:12Z</time>
      </trkpt>
      <trkpt lat="48.40321" lon="2.64329">
        <ele>104.44</ele>
        <time>2012-03-04T11:37:13Z</time>
      </trkpt>
      <trkpt lat="48.4032" lon="2.64338">
        <ele>104.44</ele>
        <time>2012-03-04T11:37:14Z</time>
      </trkpt>
      <trkpt lat="48.40312" lon="2.6441">
        <ele>101.56</ele>
        <time>2012-03-04T11:37:21Z</time>
      </trkpt>
      <trkpt lat="48.40311" lon="2.64422">
        <ele>101.56</ele>
        <time>2012-03-04T11:37:22Z</time>
      </trkpt>
      <trkpt lat="48.40308" lon="2.64446">
        <ele>101.08</ele>
        <time>2012-03-04T11:37:24Z</time>
      </trkpt>
      <trkpt lat="48.40307" lon="2.64458">
        <ele>101.08</ele>
        <time>2012-03-04T11:37:25Z</time>
      </trkpt>
      <trkpt lat="48.40286" lon="2.64596">
        <ele>98.19</ele>
        <time>2012-03-04T11:37:37Z</time>
      </trkpt>
      <trkpt lat="48.40283" lon="2.64615">
        <ele>98.67</ele>
        <time>2012-03-04T11:37:39Z</time>
      </trkpt>
      <trkpt lat="48.40266" lon="2.64735">
        <ele>96.27</ele>
        <time>2012-03-04T11:37:51Z</time>
      </trkpt>
      <trkpt lat="48.40249" lon="2.64843">
        <ele>94.35</ele>
        <time>2012-03-04T11:38:03Z</time>
      </trkpt>
      <trkpt lat="48.40244" lon="2.64876">
        <ele>93.39</ele>
        <time>2012-03-04T11:38:07Z</time>
      </trkpt>
      <trkpt lat="48.40241" lon="2.64903">
        <ele>93.39</ele>
        <time>2012-03-04T11:38:10Z</time>
      </trkpt>
      <trkpt lat="48.40238" lon="2.6492">
        <ele>92.9</ele>
        <time>2012-03-04T11:38:12Z</time>
      </trkpt>
      <trkpt lat="48.40237" lon="2.64929">
        <ele>92.42</ele>
        <time>2012-03-04T11:38:13Z</time>
      </trkpt>
      <trkpt lat="48.40236" lon="2.64938">
        <ele>92.42</ele>
        <time>2012-03-04T11:38:14Z</time>
      </trkpt>
      <trkpt lat="48.40235" lon="2.64946">
        <ele>92.9</ele>
        <time>2012-03-04T11:38:15Z</time>
      </trkpt>
      <trkpt lat="48.40234" lon="2.64954">
        <ele>92.42</ele>
        <time>2012-03-04T11:38:16Z</time>
      </trkpt>
      <trkpt lat="48.40234" lon="2.64962">
        <ele>92.42</ele>
        <time>2012-03-04T11:38:17Z</time>
      </trkpt>
      <trkpt lat="48.40234" lon="2.64969">
        <ele>92.42</ele>
        <time>2012-03-04T11:38:18Z</time>
      </trkpt>
      <trkpt lat="48.40233" lon="2.64977">
        <ele>91.94</ele>
        <time>2012-03-04T11:38:19Z</time>
      </trkpt>
      <trkpt lat="48.40233" lon="2.64985">
        <ele>91.94</ele>
        <time>2012-03-04T11:38:20Z</time>
      </trkpt>
      <trkpt lat="48.40232" lon="2.64991">
        <ele>91.94</ele>
        <time>2012-03-04T11:38:21Z</time>
      </trkpt>
      <trkpt lat="48.40224" lon="2.65012">
        <ele>91.94</ele>
        <time>2012-03-04T11:38:30Z</time>
      </trkpt>
      <trkpt lat="48.40223" lon="2.65014">
        <ele>91.94</ele>
        <time>2012-03-04T11:38:55Z</time>
      </trkpt>
      <trkpt lat="48.40223" lon="2.65014">
        <ele>91.94</ele>
        <time>2012-03-04T11:39:24Z</time>
      </trkpt>
      <trkpt lat="48.40221" lon="2.65016">
        <ele>91.94</ele>
        <time>2012-03-04T11:39:26Z</time>
      </trkpt>
      <trkpt lat="48.40219" lon="2.65017">
        <ele>91.94</ele>
        <time>2012-03-04T11:39:27Z</time>
      </trkpt>
      <trkpt lat="48.40216" lon="2.65018">
        <ele>91.94</ele>
        <time>2012-03-04T11:39:28Z</time>
      </trkpt>
      <trkpt lat="48.40193" lon="2.64995">
        <ele>94.83</ele>
        <time>2012-03-04T11:39:38Z</time>
      </trkpt>
      <trkpt lat="48.4018" lon="2.6499">
        <ele>98.67</ele>
        <time>2012-03-04T11:39:44Z</time>
      </trkpt>
      <trkpt lat="48.40178" lon="2.64989">
        <ele>99.15</ele>
        <time>2012-03-04T11:39:45Z</time>
      </trkpt>
      <trkpt lat="48.40177" lon="2.64987">
        <ele>99.63</ele>
        <time>2012-03-04T11:39:46Z</time>
      </trkpt>
      <trkpt lat="48.40176" lon="2.64986">
        <ele>99.63</ele>
        <time>2012-03-04T11:39:47Z</time>
      </trkpt>
      <trkpt lat="48.40175" lon="2.64983">
        <ele>100.11</ele>
        <time>2012-03-04T11:39:49Z</time>
      </trkpt>
      <trkpt lat="48.40174" lon="2.64982">
        <ele>100.11</ele>
        <time>2012-03-04T11:39:50Z</time>
      </trkpt>
      <trkpt lat="48.40172" lon="2.64981">
        <ele>100.6</ele>
        <time>2012-03-04T11:39:51Z</time>
      </trkpt>
      <trkpt lat="48.40171" lon="2.6498">
        <ele>101.08</ele>
        <time>2012-03-04T11:39:52Z</time>
      </trkpt>
      <trkpt lat="48.40169" lon="2.64979">
        <ele>101.08</ele>
        <time>2012-03-04T11:39:53Z</time>
      </trkpt>
      <trkpt lat="48.40167" lon="2.64971">
        <ele>103</ele>
        <time>2012-03-04T11:40:04Z</time>
      </trkpt>
      <trkpt lat="48.40169" lon="2.64967">
        <ele>104.92</ele>
        <time>2012-03-04T11:40:16Z</time>
      </trkpt>
      <trkpt lat="48.40169" lon="2.64971">
        <ele>102.04</ele>
        <time>2012-03-04T11:40:31Z</time>
      </trkpt>
      <trkpt lat="48.40169" lon="2.64973">
        <ele>101.56</ele>
        <time>2012-03-04T11:40:32Z</time>
      </trkpt>
      <trkpt lat="48.4017" lon="2.64974">
        <ele>100.6</ele>
        <time>2012-03-04T11:40:33Z</time>
      </trkpt>
      <trkpt lat="48.40172" lon="2.64974">
        <ele>100.6</ele>
        <time>2012-03-04T11:40:34Z</time>
      </trkpt>
      <trkpt lat="48.40174" lon="2.64975">
        <ele>100.11</ele>
        <time>2012-03-04T11:40:35Z</time>
      </trkpt>
      <trkpt lat="48.40175" lon="2.64979">
        <ele>99.63</ele>
        <time>2012-03-04T11:40:36Z</time>
      </trkpt>
      <trkpt lat="48.40175" lon="2.64982">
        <ele>98.67</ele>
        <time>2012-03-04T11:40:37Z</time>
      </trkpt>
      <trkpt lat="48.40177" lon="2.64984">
        <ele>98.19</ele>
        <time>2012-03-04T11:40:38Z</time>
      </trkpt>
      <trkpt lat="48.40179" lon="2.64985">
        <ele>96.75</ele>
        <time>2012-03-04T11:40:39Z</time>
      </trkpt>
      <trkpt lat="48.40189" lon="2.64992">
        <ele>92.9</ele>
        <time>2012-03-04T11:40:42Z</time>
      </trkpt>
      <trkpt lat="48.40193" lon="2.64997">
        <ele>92.42</ele>
        <time>2012-03-04T11:40:43Z</time>
      </trkpt>
      <trkpt lat="48.40197" lon="2.65004">
        <ele>91.46</ele>
        <time>2012-03-04T11:40:44Z</time>
      </trkpt>
      <trkpt lat="48.402" lon="2.65011">
        <ele>91.46</ele>
        <time>2012-03-04T11:40:45Z</time>
      </trkpt>
      <trkpt lat="48.40203" lon="2.65017">
        <ele>90.98</ele>
        <time>2012-03-04T11:40:46Z</time>
      </trkpt>
      <trkpt lat="48.40205" lon="2.65021">
        <ele>90.98</ele>
        <time>2012-03-04T11:40:47Z</time>
      </trkpt>
      <trkpt lat="48.40212" lon="2.65037">
        <ele>90.5</ele>
        <time>2012-03-04T11:40:56Z</time>
      </trkpt>
      <trkpt lat="48.40212" lon="2.65046">
        <ele>90.5</ele>
        <time>2012-03-04T11:41:02Z</time>
      </trkpt>
      <trkpt lat="48.40212" lon="2.65053">
        <ele>90.02</ele>
        <time>2012-03-04T11:41:04Z</time>
      </trkpt>
      <trkpt lat="48.40212" lon="2.65057">
        <ele>90.02</ele>
        <time>2012-03-04T11:41:05Z</time>
      </trkpt>
      <trkpt lat="48.40212" lon="2.6506">
        <ele>90.02</ele>
        <time>2012-03-04T11:41:06Z</time>
      </trkpt>
      <trkpt lat="48.40213" lon="2.65094">
        <ele>89.06</ele>
        <time>2012-03-04T11:41:13Z</time>
      </trkpt>
      <trkpt lat="48.40212" lon="2.651">
        <ele>89.06</ele>
        <time>2012-03-04T11:41:14Z</time>
      </trkpt>
      <trkpt lat="48.40206" lon="2.65152">
        <ele>88.58</ele>
        <time>2012-03-04T11:41:22Z</time>
      </trkpt>
      <trkpt lat="48.40196" lon="2.65243">
        <ele>87.14</ele>
        <time>2012-03-04T11:41:35Z</time>
      </trkpt>
      <trkpt lat="48.40195" lon="2.6525">
        <ele>87.14</ele>
        <time>2012-03-04T11:41:36Z</time>
      </trkpt>
      <trkpt lat="48.4019" lon="2.65289">
        <ele>86.18</ele>
        <time>2012-03-04T11:41:41Z</time>
      </trkpt>
      <trkpt lat="48.40183" lon="2.65344">
        <ele>85.69</ele>
        <time>2012-03-04T11:41:48Z</time>
      </trkpt>
      <trkpt lat="48.40178" lon="2.65361">
        <ele>85.21</ele>
        <time>2012-03-04T11:41:50Z</time>
      </trkpt>
      <trkpt lat="48.40172" lon="2.65399">
        <ele>84.73</ele>
        <time>2012-03-04T11:41:55Z</time>
      </trkpt>
      <trkpt lat="48.40163" lon="2.65485">
        <ele>84.25</ele>
        <time>2012-03-04T11:42:06Z</time>
      </trkpt>
      <trkpt lat="48.40162" lon="2.65493">
        <ele>84.25</ele>
        <time>2012-03-04T11:42:07Z</time>
      </trkpt>
      <trkpt lat="48.4016" lon="2.65502">
        <ele>83.77</ele>
        <time>2012-03-04T11:42:08Z</time>
      </trkpt>
      <trkpt lat="48.40159" lon="2.6551">
        <ele>84.25</ele>
        <time>2012-03-04T11:42:09Z</time>
      </trkpt>
      <trkpt lat="48.40159" lon="2.65519">
        <ele>83.29</ele>
        <time>2012-03-04T11:42:10Z</time>
      </trkpt>
      <trkpt lat="48.40157" lon="2.65527">
        <ele>83.29</ele>
        <time>2012-03-04T11:42:11Z</time>
      </trkpt>
      <trkpt lat="48.40155" lon="2.65536">
        <ele>83.29</ele>
        <time>2012-03-04T11:42:12Z</time>
      </trkpt>
      <trkpt lat="48.40153" lon="2.65545">
        <ele>83.29</ele>
        <time>2012-03-04T11:42:13Z</time>
      </trkpt>
      <trkpt lat="48.40147" lon="2.65585">
        <ele>82.81</ele>
        <time>2012-03-04T11:42:18Z</time>
      </trkpt>
      <trkpt lat="48.40146" lon="2.65592">
        <ele>82.81</ele>
        <time>2012-03-04T11:42:19Z</time>
      </trkpt>
      <trkpt lat="48.4014" lon="2.65645">
        <ele>82.81</ele>
        <time>2012-03-04T11:42:26Z</time>
      </trkpt>
      <trkpt lat="48.40139" lon="2.65652">
        <ele>82.81</ele>
        <time>2012-03-04T11:42:27Z</time>
      </trkpt>
      <trkpt lat="48.40135" lon="2.65722">
        <ele>81.85</ele>
        <time>2012-03-04T11:42:36Z</time>
      </trkpt>
      <trkpt lat="48.40131" lon="2.65786">
        <ele>81.85</ele>
        <time>2012-03-04T11:42:44Z</time>
      </trkpt>
      <trkpt lat="48.40131" lon="2.65834">
        <ele>80.41</ele>
        <time>2012-03-04T11:42:50Z</time>
      </trkpt>
      <trkpt lat="48.40129" lon="2.65844">
        <ele>80.41</ele>
        <time>2012-03-04T11:42:51Z</time>
      </trkpt>
      <trkpt lat="48.40124" lon="2.65943">
        <ele>79.93</ele>
        <time>2012-03-04T11:43:03Z</time>
      </trkpt>
      <trkpt lat="48.40123" lon="2.65951">
        <ele>79.45</ele>
        <time>2012-03-04T11:43:04Z</time>
      </trkpt>
      <trkpt lat="48.40121" lon="2.65959">
        <ele>78.97</ele>
        <time>2012-03-04T11:43:05Z</time>
      </trkpt>
      <trkpt lat="48.40097" lon="2.66058">
        <ele>78.48</ele>
        <time>2012-03-04T11:43:17Z</time>
      </trkpt>
      <trkpt lat="48.40094" lon="2.66066">
        <ele>78.48</ele>
        <time>2012-03-04T11:43:18Z</time>
      </trkpt>
      <trkpt lat="48.40091" lon="2.66074">
        <ele>78.48</ele>
        <time>2012-03-04T11:43:19Z</time>
      </trkpt>
      <trkpt lat="48.40089" lon="2.66082">
        <ele>78.97</ele>
        <time>2012-03-04T11:43:20Z</time>
      </trkpt>
      <trkpt lat="48.40088" lon="2.66091">
        <ele>78.48</ele>
        <time>2012-03-04T11:43:21Z</time>
      </trkpt>
      <trkpt lat="48.40086" lon="2.661">
        <ele>78</ele>
        <time>2012-03-04T11:43:22Z</time>
      </trkpt>
      <trkpt lat="48.40064" lon="2.66216">
        <ele>77.52</ele>
        <time>2012-03-04T11:43:35Z</time>
      </trkpt>
      <trkpt lat="48.40062" lon="2.66235">
        <ele>77.04</ele>
        <time>2012-03-04T11:43:37Z</time>
      </trkpt>
      <trkpt lat="48.40062" lon="2.66244">
        <ele>77.04</ele>
        <time>2012-03-04T11:43:38Z</time>
      </trkpt>
      <trkpt lat="48.40061" lon="2.66254">
        <ele>77.04</ele>
        <time>2012-03-04T11:43:39Z</time>
      </trkpt>
      <trkpt lat="48.40058" lon="2.66313">
        <ele>77.04</ele>
        <time>2012-03-04T11:43:45Z</time>
      </trkpt>
      <trkpt lat="48.40057" lon="2.66323">
        <ele>77.04</ele>
        <time>2012-03-04T11:43:46Z</time>
      </trkpt>
      <trkpt lat="48.40051" lon="2.6645">
        <ele>76.08</ele>
        <time>2012-03-04T11:43:59Z</time>
      </trkpt>
      <trkpt lat="48.40048" lon="2.66534">
        <ele>76.08</ele>
        <time>2012-03-04T11:44:08Z</time>
      </trkpt>
      <trkpt lat="48.40045" lon="2.66551">
        <ele>76.08</ele>
        <time>2012-03-04T11:44:10Z</time>
      </trkpt>
      <trkpt lat="48.40043" lon="2.66568">
        <ele>75.6</ele>
        <time>2012-03-04T11:44:12Z</time>
      </trkpt>
      <trkpt lat="48.40041" lon="2.66605">
        <ele>75.6</ele>
        <time>2012-03-04T11:44:16Z</time>
      </trkpt>
      <trkpt lat="48.4004" lon="2.66614">
        <ele>75.6</ele>
        <time>2012-03-04T11:44:17Z</time>
      </trkpt>
      <trkpt lat="48.4004" lon="2.66622">
        <ele>75.6</ele>
        <time>2012-03-04T11:44:18Z</time>
      </trkpt>
      <trkpt lat="48.40039" lon="2.66693">
        <ele>75.12</ele>
        <time>2012-03-04T11:44:26Z</time>
      </trkpt>
      <trkpt lat="48.40038" lon="2.667">
        <ele>75.12</ele>
        <time>2012-03-04T11:44:27Z</time>
      </trkpt>
      <trkpt lat="48.40035" lon="2.66706">
        <ele>74.64</ele>
        <time>2012-03-04T11:44:28Z</time>
      </trkpt>
      <trkpt lat="48.40031" lon="2.6671">
        <ele>74.64</ele>
        <time>2012-03-04T11:44:29Z</time>
      </trkpt>
      <trkpt lat="48.40027" lon="2.66715">
        <ele>75.12</ele>
        <time>2012-03-04T11:44:30Z</time>
      </trkpt>
      <trkpt lat="48.40023" lon="2.66719">
        <ele>75.12</ele>
        <time>2012-03-04T11:44:31Z</time>
      </trkpt>
      <trkpt lat="48.40019" lon="2.66723">
        <ele>75.12</ele>
        <time>2012-03-04T11:44:32Z</time>
      </trkpt>
      <trkpt lat="48.39977" lon="2.66793">
        <ele>76.56</ele>
        <time>2012-03-04T11:44:45Z</time>
      </trkpt>
      <trkpt lat="48.39973" lon="2.66798">
        <ele>76.56</ele>
        <time>2012-03-04T11:44:46Z</time>
      </trkpt>
      <trkpt lat="48.39971" lon="2.66802">
        <ele>77.04</ele>
        <time>2012-03-04T11:44:47Z</time>
      </trkpt>
      <trkpt lat="48.39968" lon="2.66807">
        <ele>77.04</ele>
        <time>2012-03-04T11:44:48Z</time>
      </trkpt>
      <trkpt lat="48.39965" lon="2.66811">
        <ele>77.52</ele>
        <time>2012-03-04T11:44:49Z</time>
      </trkpt>
      <trkpt lat="48.39962" lon="2.66816">
        <ele>77.52</ele>
        <time>2012-03-04T11:44:50Z</time>
      </trkpt>
      <trkpt lat="48.39959" lon="2.66822">
        <ele>78</ele>
        <time>2012-03-04T11:44:51Z</time>
      </trkpt>
      <trkpt lat="48.39957" lon="2.66827">
        <ele>77.52</ele>
        <time>2012-03-04T11:44:52Z</time>
      </trkpt>
      <trkpt lat="48.39954" lon="2.66833">
        <ele>78</ele>
        <time>2012-03-04T11:44:53Z</time>
      </trkpt>
      <trkpt lat="48.39947" lon="2.6685">
        <ele>78.48</ele>
        <time>2012-03-04T11:44:56Z</time>
      </trkpt>
      <trkpt lat="48.39945" lon="2.66856">
        <ele>78.48</ele>
        <time>2012-03-04T11:44:57Z</time>
      </trkpt>
      <trkpt lat="48.39939" lon="2.66867">
        <ele>78</ele>
        <time>2012-03-04T11:44:59Z</time>
      </trkpt>
      <trkpt lat="48.39928" lon="2.66881">
        <ele>78</ele>
        <time>2012-03-04T11:45:02Z</time>
      </trkpt>
      <trkpt lat="48.39925" lon="2.66888">
        <ele>77.52</ele>
        <time>2012-03-04T11:45:03Z</time>
      </trkpt>
      <trkpt lat="48.39922" lon="2.66896">
        <ele>77.52</ele>
        <time>2012-03-04T11:45:04Z</time>
      </trkpt>
      <trkpt lat="48.3992" lon="2.66904">
        <ele>77.52</ele>
        <time>2012-03-04T11:45:05Z</time>
      </trkpt>
      <trkpt lat="48.39919" lon="2.66912">
        <ele>77.04</ele>
        <time>2012-03-04T11:45:06Z</time>
      </trkpt>
      <trkpt lat="48.39914" lon="2.66937">
        <ele>77.04</ele>
        <time>2012-03-04T11:45:09Z</time>
      </trkpt>
      <trkpt lat="48.39914" lon="2.66945">
        <ele>77.52</ele>
        <time>2012-03-04T11:45:10Z</time>
      </trkpt>
      <trkpt lat="48.39915" lon="2.66953">
        <ele>77.04</ele>
        <time>2012-03-04T11:45:11Z</time>
      </trkpt>
      <trkpt lat="48.39918" lon="2.66959">
        <ele>77.04</ele>
        <time>2012-03-04T11:45:12Z</time>
      </trkpt>
      <trkpt lat="48.3992" lon="2.66966">
        <ele>76.56</ele>
        <time>2012-03-04T11:45:13Z</time>
      </trkpt>
      <trkpt lat="48.39923" lon="2.66971">
        <ele>76.56</ele>
        <time>2012-03-04T11:45:14Z</time>
      </trkpt>
      <trkpt lat="48.39926" lon="2.66979">
        <ele>76.56</ele>
        <time>2012-03-04T11:45:16Z</time>
      </trkpt>
      <trkpt lat="48.39925" lon="2.66982">
        <ele>76.56</ele>
        <time>2012-03-04T11:45:17Z</time>
      </trkpt>
      <trkpt lat="48.39924" lon="2.66985">
        <ele>77.04</ele>
        <time>2012-03-04T11:45:18Z</time>
      </trkpt>
      <trkpt lat="48.39923" lon="2.66988">
        <ele>76.56</ele>
        <time>2012-03-04T11:45:19Z</time>
      </trkpt>
      <trkpt lat="48.39924" lon="2.66992">
        <ele>76.08</ele>
        <time>2012-03-04T11:45:20Z</time>
      </trkpt>
      <trkpt lat="48.39925" lon="2.66997">
        <ele>75.6</ele>
        <time>2012-03-04T11:45:21Z</time>
      </trkpt>
      <trkpt lat="48.39927" lon="2.67004">
        <ele>75.12</ele>
        <time>2012-03-04T11:45:22Z</time>
      </trkpt>
      <trkpt lat="48.3993" lon="2.67011">
        <ele>74.64</ele>
        <time>2012-03-04T11:45:23Z</time>
      </trkpt>
      <trkpt lat="48.39934" lon="2.67018">
        <ele>74.64</ele>
        <time>2012-03-04T11:45:24Z</time>
      </trkpt>
      <trkpt lat="48.39936" lon="2.67025">
        <ele>74.64</ele>
        <time>2012-03-04T11:45:25Z</time>
      </trkpt>
      <trkpt lat="48.3994" lon="2.67033">
        <ele>74.16</ele>
        <time>2012-03-04T11:45:26Z</time>
      </trkpt>
      <trkpt lat="48.39943" lon="2.6704">
        <ele>74.16</ele>
        <time>2012-03-04T11:45:27Z</time>
      </trkpt>
      <trkpt lat="48.39947" lon="2.67047">
        <ele>74.16</ele>
        <time>2012-03-04T11:45:28Z</time>
      </trkpt>
      <trkpt lat="48.39951" lon="2.67054">
        <ele>74.16</ele>
        <time>2012-03-04T11:45:29Z</time>
      </trkpt>
      <trkpt lat="48.39954" lon="2.67062">
        <ele>74.16</ele>
        <time>2012-03-04T11:45:30Z</time>
      </trkpt>
      <trkpt lat="48.39974" lon="2.67109">
        <ele>72.72</ele>
        <time>2012-03-04T11:45:36Z</time>
      </trkpt>
      <trkpt lat="48.39988" lon="2.67142">
        <ele>72.24</ele>
        <time>2012-03-04T11:45:40Z</time>
      </trkpt>
      <trkpt lat="48.39993" lon="2.6715">
        <ele>72.24</ele>
        <time>2012-03-04T11:45:41Z</time>
      </trkpt>
      <trkpt lat="48.39998" lon="2.67158">
        <ele>72.24</ele>
        <time>2012-03-04T11:45:42Z</time>
      </trkpt>
      <trkpt lat="48.40002" lon="2.67166">
        <ele>72.72</ele>
        <time>2012-03-04T11:45:43Z</time>
      </trkpt>
      <trkpt lat="48.40006" lon="2.67174">
        <ele>72.72</ele>
        <time>2012-03-04T11:45:44Z</time>
      </trkpt>
      <trkpt lat="48.4001" lon="2.67182">
        <ele>72.72</ele>
        <time>2012-03-04T11:45:45Z</time>
      </trkpt>
      <trkpt lat="48.40014" lon="2.67188">
        <ele>72.72</ele>
        <time>2012-03-04T11:45:46Z</time>
      </trkpt>
      <trkpt lat="48.40024" lon="2.67198">
        <ele>72.72</ele>
        <time>2012-03-04T11:45:48Z</time>
      </trkpt>
      <trkpt lat="48.40029" lon="2.67205">
        <ele>72.72</ele>
        <time>2012-03-04T11:45:49Z</time>
      </trkpt>
      <trkpt lat="48.40033" lon="2.67213">
        <ele>72.72</ele>
        <time>2012-03-04T11:45:50Z</time>
      </trkpt>
      <trkpt lat="48.40037" lon="2.67221">
        <ele>72.72</ele>
        <time>2012-03-04T11:45:51Z</time>
      </trkpt>
      <trkpt lat="48.40041" lon="2.67229">
        <ele>72.72</ele>
        <time>2012-03-04T11:45:52Z</time>
      </trkpt>
      <trkpt lat="48.40045" lon="2.67236">
        <ele>73.2</ele>
        <time>2012-03-04T11:45:53Z</time>
      </trkpt>
      <trkpt lat="48.40053" lon="2.67251">
        <ele>72.24</ele>
        <time>2012-03-04T11:45:55Z</time>
      </trkpt>
      <trkpt lat="48.40058" lon="2.67257">
        <ele>72.72</ele>
        <time>2012-03-04T11:45:56Z</time>
      </trkpt>
      <trkpt lat="48.40063" lon="2.67263">
        <ele>72.24</ele>
        <time>2012-03-04T11:45:57Z</time>
      </trkpt>
      <trkpt lat="48.40069" lon="2.67269">
        <ele>72.72</ele>
        <time>2012-03-04T11:45:58Z</time>
      </trkpt>
      <trkpt lat="48.40075" lon="2.67274">
        <ele>73.2</ele>
        <time>2012-03-04T11:45:59Z</time>
      </trkpt>
      <trkpt lat="48.4008" lon="2.67279">
        <ele>72.72</ele>
        <time>2012-03-04T11:46:00Z</time>
      </trkpt>
      <trkpt lat="48.40085" lon="2.67285">
        <ele>72.24</ele>
        <time>2012-03-04T11:46:01Z</time>
      </trkpt>
      <trkpt lat="48.4009" lon="2.67291">
        <ele>72.72</ele>
        <time>2012-03-04T11:46:02Z</time>
      </trkpt>
      <trkpt lat="48.40096" lon="2.67297">
        <ele>72.24</ele>
        <time>2012-03-04T11:46:03Z</time>
      </trkpt>
      <trkpt lat="48.40101" lon="2.67301">
        <ele>72.24</ele>
        <time>2012-03-04T11:46:04Z</time>
      </trkpt>
      <trkpt lat="48.40107" lon="2.67307">
        <ele>72.24</ele>
        <time>2012-03-04T11:46:05Z</time>
      </trkpt>
      <trkpt lat="48.40112" lon="2.67313">
        <ele>72.24</ele>
        <time>2012-03-04T11:46:06Z</time>
      </trkpt>
      <trkpt lat="48.40118" lon="2.67318">
        <ele>72.24</ele>
        <time>2012-03-04T11:46:07Z</time>
      </trkpt>
      <trkpt lat="48.40123" lon="2.67321">
        <ele>72.24</ele>
        <time>2012-03-04T11:46:08Z</time>
      </trkpt>
      <trkpt lat="48.40129" lon="2.67324">
        <ele>72.72</ele>
        <time>2012-03-04T11:46:09Z</time>
      </trkpt>
      <trkpt lat="48.40144" lon="2.67332">
        <ele>72.24</ele>
        <time>2012-03-04T11:46:12Z</time>
      </trkpt>
      <trkpt lat="48.40149" lon="2.67336">
        <ele>72.24</ele>
        <time>2012-03-04T11:46:13Z</time>
      </trkpt>
      <trkpt lat="48.4016" lon="2.67341">
        <ele>72.24</ele>
        <time>2012-03-04T11:46:15Z</time>
      </trkpt>
      <trkpt lat="48.40196" lon="2.67355">
        <ele>72.24</ele>
        <time>2012-03-04T11:46:21Z</time>
      </trkpt>
      <trkpt lat="48.40207" lon="2.67362">
        <ele>72.72</ele>
        <time>2012-03-04T11:46:23Z</time>
      </trkpt>
      <trkpt lat="48.40213" lon="2.67364">
        <ele>72.72</ele>
        <time>2012-03-04T11:46:24Z</time>
      </trkpt>
      <trkpt lat="48.40251" lon="2.67378">
        <ele>73.2</ele>
        <time>2012-03-04T11:46:30Z</time>
      </trkpt>
      <trkpt lat="48.40257" lon="2.67382">
        <ele>73.2</ele>
        <time>2012-03-04T11:46:31Z</time>
      </trkpt>
      <trkpt lat="48.40268" lon="2.6739">
        <ele>73.2</ele>
        <time>2012-03-04T11:46:33Z</time>
      </trkpt>
      <trkpt lat="48.40304" lon="2.67414">
        <ele>73.2</ele>
        <time>2012-03-04T11:46:39Z</time>
      </trkpt>
      <trkpt lat="48.40315" lon="2.67427">
        <ele>73.2</ele>
        <time>2012-03-04T11:46:41Z</time>
      </trkpt>
      <trkpt lat="48.40331" lon="2.67444">
        <ele>73.68</ele>
        <time>2012-03-04T11:46:44Z</time>
      </trkpt>
      <trkpt lat="48.40345" lon="2.67465">
        <ele>74.16</ele>
        <time>2012-03-04T11:46:47Z</time>
      </trkpt>
      <trkpt lat="48.40349" lon="2.67471">
        <ele>74.16</ele>
        <time>2012-03-04T11:46:48Z</time>
      </trkpt>
      <trkpt lat="48.40354" lon="2.67476">
        <ele>74.16</ele>
        <time>2012-03-04T11:46:49Z</time>
      </trkpt>
      <trkpt lat="48.4036" lon="2.67482">
        <ele>74.16</ele>
        <time>2012-03-04T11:46:50Z</time>
      </trkpt>
      <trkpt lat="48.40365" lon="2.67488">
        <ele>74.64</ele>
        <time>2012-03-04T11:46:51Z</time>
      </trkpt>
      <trkpt lat="48.4037" lon="2.67494">
        <ele>74.16</ele>
        <time>2012-03-04T11:46:52Z</time>
      </trkpt>
      <trkpt lat="48.40375" lon="2.675">
        <ele>74.64</ele>
        <time>2012-03-04T11:46:53Z</time>
      </trkpt>
      <trkpt lat="48.4039" lon="2.67519">
        <ele>74.64</ele>
        <time>2012-03-04T11:46:56Z</time>
      </trkpt>
      <trkpt lat="48.40397" lon="2.67534">
        <ele>74.64</ele>
        <time>2012-03-04T11:46:58Z</time>
      </trkpt>
      <trkpt lat="48.40403" lon="2.67548">
        <ele>75.12</ele>
        <time>2012-03-04T11:47:00Z</time>
      </trkpt>
      <trkpt lat="48.40407" lon="2.67554">
        <ele>75.12</ele>
        <time>2012-03-04T11:47:01Z</time>
      </trkpt>
      <trkpt lat="48.40412" lon="2.67559">
        <ele>75.12</ele>
        <time>2012-03-04T11:47:02Z</time>
      </trkpt>
      <trkpt lat="48.40416" lon="2.67565">
        <ele>75.12</ele>
        <time>2012-03-04T11:47:03Z</time>
      </trkpt>
      <trkpt lat="48.40421" lon="2.67571">
        <ele>75.12</ele>
        <time>2012-03-04T11:47:04Z</time>
      </trkpt>
      <trkpt lat="48.40425" lon="2.67577">
        <ele>75.12</ele>
        <time>2012-03-04T11:47:05Z</time>
      </trkpt>
      <trkpt lat="48.40433" lon="2.67589">
        <ele>75.12</ele>
        <time>2012-03-04T11:47:07Z</time>
      </trkpt>
      <trkpt lat="48.40438" lon="2.67595">
        <ele>75.6</ele>
        <time>2012-03-04T11:47:08Z</time>
      </trkpt>
      <trkpt lat="48.40442" lon="2.67602">
        <ele>75.6</ele>
        <time>2012-03-04T11:47:09Z</time>
      </trkpt>
      <trkpt lat="48.40446" lon="2.67609">
        <ele>75.6</ele>
        <time>2012-03-04T11:47:10Z</time>
      </trkpt>
      <trkpt lat="48.4045" lon="2.67614">
        <ele>75.6</ele>
        <time>2012-03-04T11:47:11Z</time>
      </trkpt>
      <trkpt lat="48.40454" lon="2.67619">
        <ele>75.6</ele>
        <time>2012-03-04T11:47:12Z</time>
      </trkpt>
      <trkpt lat="48.40459" lon="2.67623">
        <ele>75.6</ele>
        <time>2012-03-04T11:47:13Z</time>
      </trkpt>
      <trkpt lat="48.40464" lon="2.67627">
        <ele>76.08</ele>
        <time>2012-03-04T11:47:14Z</time>
      </trkpt>
      <trkpt lat="48.40468" lon="2.67632">
        <ele>76.08</ele>
        <time>2012-03-04T11:47:15Z</time>
      </trkpt>
      <trkpt lat="48.40473" lon="2.67635">
        <ele>76.08</ele>
        <time>2012-03-04T11:47:16Z</time>
      </trkpt>
      <trkpt lat="48.40494" lon="2.67648">
        <ele>76.56</ele>
        <time>2012-03-04T11:47:21Z</time>
      </trkpt>
      <trkpt lat="48.40498" lon="2.67652">
        <ele>76.56</ele>
        <time>2012-03-04T11:47:22Z</time>
      </trkpt>
      <trkpt lat="48.405" lon="2.67657">
        <ele>76.56</ele>
        <time>2012-03-04T11:47:23Z</time>
      </trkpt>
      <trkpt lat="48.405" lon="2.67663">
        <ele>76.56</ele>
        <time>2012-03-04T11:47:24Z</time>
      </trkpt>
      <trkpt lat="48.405" lon="2.67669">
        <ele>76.56</ele>
        <time>2012-03-04T11:47:25Z</time>
      </trkpt>
      <trkpt lat="48.40499" lon="2.67676">
        <ele>76.08</ele>
        <time>2012-03-04T11:47:26Z</time>
      </trkpt>
      <trkpt lat="48.40498" lon="2.67683">
        <ele>76.08</ele>
        <time>2012-03-04T11:47:27Z</time>
      </trkpt>
      <trkpt lat="48.40496" lon="2.67691">
        <ele>75.6</ele>
        <time>2012-03-04T11:47:28Z</time>
      </trkpt>
      <trkpt lat="48.40493" lon="2.67698">
        <ele>76.08</ele>
        <time>2012-03-04T11:47:29Z</time>
      </trkpt>
      <trkpt lat="48.4049" lon="2.67704">
        <ele>77.04</ele>
        <time>2012-03-04T11:47:30Z</time>
      </trkpt>
      <trkpt lat="48.40486" lon="2.67709">
        <ele>77.04</ele>
        <time>2012-03-04T11:47:31Z</time>
      </trkpt>
      <trkpt lat="48.40483" lon="2.67713">
        <ele>78</ele>
        <time>2012-03-04T11:47:32Z</time>
      </trkpt>
      <trkpt lat="48.40481" lon="2.67716">
        <ele>78.48</ele>
        <time>2012-03-04T11:47:33Z</time>
      </trkpt>
      <trkpt lat="48.40479" lon="2.6772">
        <ele>78.48</ele>
        <time>2012-03-04T11:47:34Z</time>
      </trkpt>
      <trkpt lat="48.40469" lon="2.6777">
        <ele>78.48</ele>
        <time>2012-03-04T11:47:46Z</time>
      </trkpt>
      <trkpt lat="48.4047" lon="2.67772">
        <ele>78</ele>
        <time>2012-03-04T11:47:47Z</time>
      </trkpt>
      <trkpt lat="48.40471" lon="2.67775">
        <ele>78</ele>
        <time>2012-03-04T11:47:48Z</time>
      </trkpt>
      <trkpt lat="48.40471" lon="2.67779">
        <ele>77.52</ele>
        <time>2012-03-04T11:47:49Z</time>
      </trkpt>
      <trkpt lat="48.40472" lon="2.67783">
        <ele>77.04</ele>
        <time>2012-03-04T11:47:50Z</time>
      </trkpt>
      <trkpt lat="48.40474" lon="2.67787">
        <ele>77.04</ele>
        <time>2012-03-04T11:47:51Z</time>
      </trkpt>
      <trkpt lat="48.40477" lon="2.6779">
        <ele>76.56</ele>
        <time>2012-03-04T11:47:52Z</time>
      </trkpt>
      <trkpt lat="48.4048" lon="2.67792">
        <ele>77.04</ele>
        <time>2012-03-04T11:47:53Z</time>
      </trkpt>
      <trkpt lat="48.40485" lon="2.67794">
        <ele>74.64</ele>
        <time>2012-03-04T11:48:02Z</time>
      </trkpt>
      <trkpt lat="48.40485" lon="2.67794">
        <ele>78.97</ele>
        <time>2012-03-04T11:48:04Z</time>
      </trkpt>
      <trkpt lat="48.40485" lon="2.67794">
        <ele>74.16</ele>
        <time>2012-03-04T11:48:15Z</time>
      </trkpt>
      <trkpt lat="48.40485" lon="2.67794">
        <ele>77.52</ele>
        <time>2012-03-04T11:48:16Z</time>
      </trkpt>
      <trkpt lat="48.40485" lon="2.67794">
        <ele>81.37</ele>
        <time>2012-03-04T11:48:17Z</time>
      </trkpt>
      <trkpt lat="48.40485" lon="2.67794">
        <ele>77.04</ele>
        <time>2012-03-04T11:48:18Z</time>
      </trkpt>
      <trkpt lat="48.40485" lon="2.67794">
        <ele>80.89</ele>
        <time>2012-03-04T11:48:21Z</time>
      </trkpt>
      <trkpt lat="48.40485" lon="2.67794">
        <ele>79.45</ele>
        <time>2012-03-04T11:48:22Z</time>
      </trkpt>
      <trkpt lat="48.40485" lon="2.67794">
        <ele>74.64</ele>
        <time>2012-03-04T11:48:23Z</time>
      </trkpt>
      <trkpt lat="48.40485" lon="2.67794">
        <ele>77.04</ele>
        <time>2012-03-04T11:48:24Z</time>
      </trkpt>
      <trkpt lat="48.40485" lon="2.67794">
        <ele>72.72</ele>
        <time>2012-03-04T11:48:25Z</time>
      </trkpt>
      <trkpt lat="48.40485" lon="2.67794">
        <ele>77.52</ele>
        <time>2012-03-04T11:48:26Z</time>
      </trkpt>
      <trkpt lat="48.40485" lon="2.67794">
        <ele>77.52</ele>
        <time>2012-03-04T11:48:32Z</time>
      </trkpt>
    </trkseg>
  </trk>
</gpx>